<?xml version="1.0" encoding="UTF-8" standalone="no" ?>
<gpx xmlns="http://www.topografix.com/GPX/1/1" xmlns:xsi="http://www.w3.org/2001/XMLSchema-instance" xsi:schemaLocation="http://www.topografix.com/GPX/1/1 http://www.topografix.com/GPX/1/1/gpx.xsd" version="1.1" creator="VisuGPX - https://www.visugpx.com">
  <metadata>
    <name>MAXI FREP J1/3/78/1536</name>
  </metadata>
  <trk>
    <name><![CDATA[MAXI FREP ETAPE 1-3-78]]></name>
    <extensions>
      <line xmlns="http://www.topografix.com/GPX/gpx_style/0/2">
        <color>0000FF</color>
        <width>4</width>
      </line>
    </extensions>
    <trkseg>
      <trkpt lat="44.47673" lon="1.54287">
        <ele>232.33237522554</ele>
        <time>2021-03-03T16:14:58.000Z</time>
      </trkpt>
      <trkpt lat="44.47676" lon="1.5429">
        <ele>232.05524651828</ele>
        <time>2021-03-03T16:14:58.001Z</time>
      </trkpt>
      <trkpt lat="44.47683" lon="1.54286">
        <ele>231.49483370857</ele>
        <time>2021-03-03T16:14:58.005Z</time>
      </trkpt>
      <trkpt lat="44.47688" lon="1.54281">
        <ele>230.93275192423</ele>
        <time>2021-03-03T16:14:58.010Z</time>
      </trkpt>
      <trkpt lat="44.47698" lon="1.54277">
        <ele>230.37040494361</ele>
        <time>2021-03-03T16:14:58.019Z</time>
      </trkpt>
      <trkpt lat="44.4771" lon="1.54278">
        <ele>229.78259497559</ele>
        <time>2021-03-03T16:14:58.031Z</time>
      </trkpt>
      <trkpt lat="44.47729" lon="1.54318">
        <ele>229.08969002819</ele>
        <time>2021-03-03T16:14:58.054Z</time>
      </trkpt>
      <trkpt lat="44.47734" lon="1.54323">
        <ele>228.48350834001</ele>
        <time>2021-03-03T16:14:58.079Z</time>
      </trkpt>
      <trkpt lat="44.47736" lon="1.54323">
        <ele>228.01487466895</ele>
        <time>2021-03-03T16:14:58.104Z</time>
      </trkpt>
      <trkpt lat="44.4774" lon="1.54319">
        <ele>227.70347540575</ele>
        <time>2021-03-03T16:14:58.131Z</time>
      </trkpt>
      <trkpt lat="44.47742" lon="1.54309">
        <ele>227.57946031595</ele>
        <time>2021-03-03T16:14:58.160Z</time>
      </trkpt>
      <trkpt lat="44.47748" lon="1.54301">
        <ele>227.64348712397</ele>
        <time>2021-03-03T16:14:58.191Z</time>
      </trkpt>
      <trkpt lat="44.47753" lon="1.543">
        <ele>227.90125628773</ele>
        <time>2021-03-03T16:14:58.224Z</time>
      </trkpt>
      <trkpt lat="44.4777" lon="1.54288">
        <ele>228.32730986373</ele>
        <time>2021-03-03T16:14:58.263Z</time>
      </trkpt>
      <trkpt lat="44.47803" lon="1.54262">
        <ele>229.00950162782</ele>
        <time>2021-03-03T16:14:58.314Z</time>
      </trkpt>
      <trkpt lat="44.47814" lon="1.54238">
        <ele>230.04316056218</ele>
        <time>2021-03-03T16:14:58.371Z</time>
      </trkpt>
      <trkpt lat="44.47819" lon="1.54228">
        <ele>231.30348376165</ele>
        <time>2021-03-03T16:14:58.431Z</time>
      </trkpt>
      <trkpt lat="44.47825" lon="1.54223">
        <ele>232.74241473468</ele>
        <time>2021-03-03T16:14:58.493Z</time>
      </trkpt>
      <trkpt lat="44.47833" lon="1.5422">
        <ele>234.32332498351</ele>
        <time>2021-03-03T16:14:58.557Z</time>
      </trkpt>
      <trkpt lat="44.47858" lon="1.54242">
        <ele>235.86962751591</ele>
        <time>2021-03-03T16:14:58.631Z</time>
      </trkpt>
      <trkpt lat="44.47867" lon="1.54234">
        <ele>237.61970982973</ele>
        <time>2021-03-03T16:14:58.708Z</time>
      </trkpt>
      <trkpt lat="44.47871" lon="1.54219">
        <ele>239.52771085711</ele>
        <time>2021-03-03T16:14:58.788Z</time>
      </trkpt>
      <trkpt lat="44.47873" lon="1.54178">
        <ele>241.74611642137</ele>
        <time>2021-03-03T16:14:58.877Z</time>
      </trkpt>
      <trkpt lat="44.47871" lon="1.54153">
        <ele>244.11232643705</ele>
        <time>2021-03-03T16:14:58.972Z</time>
      </trkpt>
      <trkpt lat="44.47872" lon="1.5414">
        <ele>246.52443184249</ele>
        <time>2021-03-03T16:14:59.070Z</time>
      </trkpt>
      <trkpt lat="44.47876" lon="1.54139">
        <ele>248.87162393798</ele>
        <time>2021-03-03T16:14:59.169Z</time>
      </trkpt>
      <trkpt lat="44.47898" lon="1.54141">
        <ele>251.1734282438</ele>
        <time>2021-03-03T16:14:59.275Z</time>
      </trkpt>
      <trkpt lat="44.47936" lon="1.5415">
        <ele>253.352122352</ele>
        <time>2021-03-03T16:14:59.393Z</time>
      </trkpt>
      <trkpt lat="44.47966" lon="1.54153">
        <ele>255.44776442126</ele>
        <time>2021-03-03T16:14:59.520Z</time>
      </trkpt>
      <trkpt lat="44.47971" lon="1.54151">
        <ele>257.41043257066</ele>
        <time>2021-03-03T16:14:59.649Z</time>
      </trkpt>
      <trkpt lat="44.47989" lon="1.54078">
        <ele>259.73000456065</ele>
        <time>2021-03-03T16:14:59.795Z</time>
      </trkpt>
      <trkpt lat="44.47991" lon="1.54042">
        <ele>261.840238651</ele>
        <time>2021-03-03T16:14:59.949Z</time>
      </trkpt>
      <trkpt lat="44.47998" lon="1.54008">
        <ele>263.71394518149</ele>
        <time>2021-03-03T16:15:00.110Z</time>
      </trkpt>
      <trkpt lat="44.47993" lon="1.5398">
        <ele>265.26715327662</ele>
        <time>2021-03-03T16:15:00.278Z</time>
      </trkpt>
      <trkpt lat="44.47997" lon="1.53978">
        <ele>266.49762588016</ele>
        <time>2021-03-03T16:15:00.447Z</time>
      </trkpt>
      <trkpt lat="44.48028" lon="1.53983">
        <ele>267.40794885571</ele>
        <time>2021-03-03T16:15:00.626Z</time>
      </trkpt>
      <trkpt lat="44.4807" lon="1.53991">
        <ele>268.07731665799</ele>
        <time>2021-03-03T16:15:00.818Z</time>
      </trkpt>
      <trkpt lat="44.48086" lon="1.53996">
        <ele>268.42902798941</ele>
        <time>2021-03-03T16:15:01.015Z</time>
      </trkpt>
      <trkpt lat="44.4809" lon="1.53995">
        <ele>268.47709909988</ele>
        <time>2021-03-03T16:15:01.213Z</time>
      </trkpt>
      <trkpt lat="44.48094" lon="1.53989">
        <ele>268.25168812062</ele>
        <time>2021-03-03T16:15:01.413Z</time>
      </trkpt>
      <trkpt lat="44.48097" lon="1.53975">
        <ele>267.75602209662</ele>
        <time>2021-03-03T16:15:01.616Z</time>
      </trkpt>
      <trkpt lat="44.48099" lon="1.53968">
        <ele>267.03498057626</ele>
        <time>2021-03-03T16:15:01.821Z</time>
      </trkpt>
      <trkpt lat="44.48098" lon="1.5395">
        <ele>266.10392348182</ele>
        <time>2021-03-03T16:15:02.030Z</time>
      </trkpt>
      <trkpt lat="44.481" lon="1.53946">
        <ele>265.02096925487</ele>
        <time>2021-03-03T16:15:02.240Z</time>
      </trkpt>
      <trkpt lat="44.48117" lon="1.53924">
        <ele>263.75706601288</ele>
        <time>2021-03-03T16:15:02.457Z</time>
      </trkpt>
      <trkpt lat="44.48129" lon="1.539">
        <ele>262.36751655194</ele>
        <time>2021-03-03T16:15:02.680Z</time>
      </trkpt>
      <trkpt lat="44.48137" lon="1.53889">
        <ele>260.90727709326</ele>
        <time>2021-03-03T16:15:02.907Z</time>
      </trkpt>
      <trkpt lat="44.48189" lon="1.53826">
        <ele>259.27087823893</ele>
        <time>2021-03-03T16:15:03.155Z</time>
      </trkpt>
      <trkpt lat="44.482" lon="1.53806">
        <ele>257.76481727487</ele>
        <time>2021-03-03T16:15:03.409Z</time>
      </trkpt>
      <trkpt lat="44.4822" lon="1.53761">
        <ele>256.32264596425</ele>
        <time>2021-03-03T16:15:03.674Z</time>
      </trkpt>
      <trkpt lat="44.48222" lon="1.53743">
        <ele>254.96427912321</ele>
        <time>2021-03-03T16:15:03.943Z</time>
      </trkpt>
      <trkpt lat="44.48221" lon="1.53709">
        <ele>253.6788071999</ele>
        <time>2021-03-03T16:15:04.219Z</time>
      </trkpt>
      <trkpt lat="44.48205" lon="1.53612">
        <ele>252.537651724</ele>
        <time>2021-03-03T16:15:04.518Z</time>
      </trkpt>
      <trkpt lat="44.48201" lon="1.53564">
        <ele>251.55782960331</ele>
        <time>2021-03-03T16:15:04.827Z</time>
      </trkpt>
      <trkpt lat="44.48204" lon="1.5353">
        <ele>250.78942555262</ele>
        <time>2021-03-03T16:15:05.144Z</time>
      </trkpt>
      <trkpt lat="44.48211" lon="1.53499">
        <ele>250.14935283281</ele>
        <time>2021-03-03T16:15:05.468Z</time>
      </trkpt>
      <trkpt lat="44.48221" lon="1.53466">
        <ele>249.68385000463</ele>
        <time>2021-03-03T16:15:05.800Z</time>
      </trkpt>
      <trkpt lat="44.4823" lon="1.53445">
        <ele>249.37220106202</ele>
        <time>2021-03-03T16:15:06.137Z</time>
      </trkpt>
      <trkpt lat="44.48249" lon="1.53407">
        <ele>249.17735768238</ele>
        <time>2021-03-03T16:15:06.484Z</time>
      </trkpt>
      <trkpt lat="44.48259" lon="1.53393">
        <ele>249.23758327272</ele>
        <time>2021-03-03T16:15:06.836Z</time>
      </trkpt>
      <trkpt lat="44.48293" lon="1.53326">
        <ele>249.38707717104</ele>
        <time>2021-03-03T16:15:07.206Z</time>
      </trkpt>
      <trkpt lat="44.48304" lon="1.53293">
        <ele>249.80815165814</ele>
        <time>2021-03-03T16:15:07.584Z</time>
      </trkpt>
      <trkpt lat="44.48317" lon="1.53267">
        <ele>250.50443631769</ele>
        <time>2021-03-03T16:15:07.969Z</time>
      </trkpt>
      <trkpt lat="44.48344" lon="1.53228">
        <ele>251.50467794359</ele>
        <time>2021-03-03T16:15:08.366Z</time>
      </trkpt>
      <trkpt lat="44.48361" lon="1.53184">
        <ele>252.50397128363</ele>
        <time>2021-03-03T16:15:08.774Z</time>
      </trkpt>
      <trkpt lat="44.48388" lon="1.53137">
        <ele>253.51135056076</ele>
        <time>2021-03-03T16:15:09.195Z</time>
      </trkpt>
      <trkpt lat="44.48419" lon="1.53099">
        <ele>254.70634302085</ele>
        <time>2021-03-03T16:15:09.629Z</time>
      </trkpt>
      <trkpt lat="44.4843" lon="1.53092">
        <ele>256.04261177034</ele>
        <time>2021-03-03T16:15:10.066Z</time>
      </trkpt>
      <trkpt lat="44.48452" lon="1.53081">
        <ele>257.53589437623</ele>
        <time>2021-03-03T16:15:10.511Z</time>
      </trkpt>
      <trkpt lat="44.48481" lon="1.53055">
        <ele>259.15433358534</ele>
        <time>2021-03-03T16:15:10.966Z</time>
      </trkpt>
      <trkpt lat="44.48532" lon="1.52996">
        <ele>260.76919244287</ele>
        <time>2021-03-03T16:15:11.442Z</time>
      </trkpt>
      <trkpt lat="44.48538" lon="1.52988">
        <ele>262.32264980783</ele>
        <time>2021-03-03T16:15:11.920Z</time>
      </trkpt>
      <trkpt lat="44.48579" lon="1.52919">
        <ele>263.83902718273</ele>
        <time>2021-03-03T16:15:12.418Z</time>
      </trkpt>
      <trkpt lat="44.48602" lon="1.52872">
        <ele>265.53518882655</ele>
        <time>2021-03-03T16:15:12.928Z</time>
      </trkpt>
      <trkpt lat="44.48606" lon="1.52872">
        <ele>267.11001984317</ele>
        <time>2021-03-03T16:15:13.440Z</time>
      </trkpt>
      <trkpt lat="44.48609" lon="1.52899">
        <ele>268.63051284904</ele>
        <time>2021-03-03T16:15:13.958Z</time>
      </trkpt>
      <trkpt lat="44.48614" lon="1.52914">
        <ele>270.15560082389</ele>
        <time>2021-03-03T16:15:14.479Z</time>
      </trkpt>
      <trkpt lat="44.48626" lon="1.52969">
        <ele>271.79866498464</ele>
        <time>2021-03-03T16:15:15.013Z</time>
      </trkpt>
      <trkpt lat="44.48631" lon="1.52977">
        <ele>273.24715801838</ele>
        <time>2021-03-03T16:15:15.549Z</time>
      </trkpt>
      <trkpt lat="44.48653" lon="1.53034">
        <ele>274.71343301488</ele>
        <time>2021-03-03T16:15:16.099Z</time>
      </trkpt>
      <trkpt lat="44.48667" lon="1.5306">
        <ele>276.03802885531</ele>
        <time>2021-03-03T16:15:16.657Z</time>
      </trkpt>
      <trkpt lat="44.487" lon="1.53106">
        <ele>277.25952582928</ele>
        <time>2021-03-03T16:15:17.229Z</time>
      </trkpt>
      <trkpt lat="44.48738" lon="1.53147">
        <ele>278.47061555561</ele>
        <time>2021-03-03T16:15:17.816Z</time>
      </trkpt>
      <trkpt lat="44.48747" lon="1.53161">
        <ele>279.55718821011</ele>
        <time>2021-03-03T16:15:18.407Z</time>
      </trkpt>
      <trkpt lat="44.4875" lon="1.53195">
        <ele>280.5597019866</ele>
        <time>2021-03-03T16:15:19.005Z</time>
      </trkpt>
      <trkpt lat="44.48748" lon="1.53213">
        <ele>281.55238571966</ele>
        <time>2021-03-03T16:15:19.608Z</time>
      </trkpt>
      <trkpt lat="44.48742" lon="1.53248">
        <ele>282.53130166975</ele>
        <time>2021-03-03T16:15:20.218Z</time>
      </trkpt>
      <trkpt lat="44.48743" lon="1.53287">
        <ele>283.55270541836</ele>
        <time>2021-03-03T16:15:20.837Z</time>
      </trkpt>
      <trkpt lat="44.48753" lon="1.53312">
        <ele>284.74140451473</ele>
        <time>2021-03-03T16:15:21.462Z</time>
      </trkpt>
      <trkpt lat="44.48771" lon="1.53345">
        <ele>285.99823341235</ele>
        <time>2021-03-03T16:15:22.097Z</time>
      </trkpt>
      <trkpt lat="44.48778" lon="1.5334">
        <ele>287.36725607669</ele>
        <time>2021-03-03T16:15:22.734Z</time>
      </trkpt>
      <trkpt lat="44.48798" lon="1.53312">
        <ele>288.92372111151</ele>
        <time>2021-03-03T16:15:23.380Z</time>
      </trkpt>
      <trkpt lat="44.48813" lon="1.53296">
        <ele>290.62489120594</ele>
        <time>2021-03-03T16:15:24.031Z</time>
      </trkpt>
      <trkpt lat="44.48839" lon="1.53273">
        <ele>292.4804655237</ele>
        <time>2021-03-03T16:15:24.692Z</time>
      </trkpt>
      <trkpt lat="44.48883" lon="1.53226">
        <ele>294.6615655157</ele>
        <time>2021-03-03T16:15:25.370Z</time>
      </trkpt>
      <trkpt lat="44.4889" lon="1.53216">
        <ele>296.8184245466</ele>
        <time>2021-03-03T16:15:26.051Z</time>
      </trkpt>
      <trkpt lat="44.4891" lon="1.53166">
        <ele>299.24351709216</ele>
        <time>2021-03-03T16:15:26.745Z</time>
      </trkpt>
      <trkpt lat="44.48925" lon="1.53136">
        <ele>301.72400366299</ele>
        <time>2021-03-03T16:15:27.447Z</time>
      </trkpt>
      <trkpt lat="44.48928" lon="1.53125">
        <ele>304.18110315366</ele>
        <time>2021-03-03T16:15:28.151Z</time>
      </trkpt>
      <trkpt lat="44.4893" lon="1.53097">
        <ele>306.68009532564</ele>
        <time>2021-03-03T16:15:28.862Z</time>
      </trkpt>
      <trkpt lat="44.48935" lon="1.53085">
        <ele>309.14610371902</ele>
        <time>2021-03-03T16:15:29.576Z</time>
      </trkpt>
      <trkpt lat="44.4895" lon="1.53058">
        <ele>311.64131901707</ele>
        <time>2021-03-03T16:15:30.297Z</time>
      </trkpt>
      <trkpt lat="44.48981" lon="1.53014">
        <ele>314.11590169663</ele>
        <time>2021-03-03T16:15:31.032Z</time>
      </trkpt>
      <trkpt lat="44.48997" lon="1.52985">
        <ele>316.52492846976</ele>
        <time>2021-03-03T16:15:31.775Z</time>
      </trkpt>
      <trkpt lat="44.4905" lon="1.529">
        <ele>318.99668788917</ele>
        <time>2021-03-03T16:15:32.543Z</time>
      </trkpt>
      <trkpt lat="44.49069" lon="1.52877">
        <ele>321.1540083767</ele>
        <time>2021-03-03T16:15:33.318Z</time>
      </trkpt>
      <trkpt lat="44.49078" lon="1.52861">
        <ele>323.18535309529</ele>
        <time>2021-03-03T16:15:34.098Z</time>
      </trkpt>
      <trkpt lat="44.4909" lon="1.52846">
        <ele>325.04859463266</ele>
        <time>2021-03-03T16:15:34.883Z</time>
      </trkpt>
      <trkpt lat="44.49111" lon="1.52775">
        <ele>326.85720502347</ele>
        <time>2021-03-03T16:15:35.685Z</time>
      </trkpt>
      <trkpt lat="44.49126" lon="1.52741">
        <ele>328.34087957168</ele>
        <time>2021-03-03T16:15:36.496Z</time>
      </trkpt>
      <trkpt lat="44.49144" lon="1.52711">
        <ele>329.59682224808</ele>
        <time>2021-03-03T16:15:37.315Z</time>
      </trkpt>
      <trkpt lat="44.49156" lon="1.52695">
        <ele>330.56403852021</ele>
        <time>2021-03-03T16:15:38.139Z</time>
      </trkpt>
      <trkpt lat="44.49209" lon="1.52643">
        <ele>331.17751641768</ele>
        <time>2021-03-03T16:15:38.983Z</time>
      </trkpt>
      <trkpt lat="44.49227" lon="1.52622">
        <ele>331.68872414258</ele>
        <time>2021-03-03T16:15:39.834Z</time>
      </trkpt>
      <trkpt lat="44.49238" lon="1.52603">
        <ele>331.88424264226</ele>
        <time>2021-03-03T16:15:40.691Z</time>
      </trkpt>
      <trkpt lat="44.49246" lon="1.52581">
        <ele>331.87606753336</ele>
        <time>2021-03-03T16:15:41.553Z</time>
      </trkpt>
      <trkpt lat="44.49257" lon="1.52559">
        <ele>331.58886023279</ele>
        <time>2021-03-03T16:15:42.421Z</time>
      </trkpt>
      <trkpt lat="44.49274" lon="1.5254">
        <ele>331.00232290528</ele>
        <time>2021-03-03T16:15:43.296Z</time>
      </trkpt>
      <trkpt lat="44.493" lon="1.52518">
        <ele>330.11214702422</ele>
        <time>2021-03-03T16:15:44.180Z</time>
      </trkpt>
      <trkpt lat="44.49322" lon="1.52497">
        <ele>328.90869117369</ele>
        <time>2021-03-03T16:15:45.072Z</time>
      </trkpt>
      <trkpt lat="44.49352" lon="1.52482">
        <ele>327.3545583076</ele>
        <time>2021-03-03T16:15:45.974Z</time>
      </trkpt>
      <trkpt lat="44.49357" lon="1.52478">
        <ele>325.59336488335</ele>
        <time>2021-03-03T16:15:46.878Z</time>
      </trkpt>
      <trkpt lat="44.49366" lon="1.52467">
        <ele>323.52310011562</ele>
        <time>2021-03-03T16:15:47.786Z</time>
      </trkpt>
      <trkpt lat="44.49375" lon="1.52451">
        <ele>321.21463934802</ele>
        <time>2021-03-03T16:15:48.698Z</time>
      </trkpt>
      <trkpt lat="44.49382" lon="1.52424">
        <ele>318.70014308084</ele>
        <time>2021-03-03T16:15:49.617Z</time>
      </trkpt>
      <trkpt lat="44.49388" lon="1.52377">
        <ele>316.02388356977</ele>
        <time>2021-03-03T16:15:50.546Z</time>
      </trkpt>
      <trkpt lat="44.49388" lon="1.52352">
        <ele>313.25535855467</ele>
        <time>2021-03-03T16:15:51.480Z</time>
      </trkpt>
      <trkpt lat="44.49386" lon="1.5234">
        <ele>310.34757658518</ele>
        <time>2021-03-03T16:15:52.417Z</time>
      </trkpt>
      <trkpt lat="44.49369" lon="1.52252">
        <ele>307.12014704279</ele>
        <time>2021-03-03T16:15:53.374Z</time>
      </trkpt>
      <trkpt lat="44.4936" lon="1.5222">
        <ele>303.90608813212</ele>
        <time>2021-03-03T16:15:54.339Z</time>
      </trkpt>
      <trkpt lat="44.49339" lon="1.52158">
        <ele>300.50856779863</ele>
        <time>2021-03-03T16:15:55.319Z</time>
      </trkpt>
      <trkpt lat="44.49317" lon="1.52082">
        <ele>297.19096951244</ele>
        <time>2021-03-03T16:15:56.317Z</time>
      </trkpt>
      <trkpt lat="44.49316" lon="1.52076">
        <ele>294.12844071094</ele>
        <time>2021-03-03T16:15:57.316Z</time>
      </trkpt>
      <trkpt lat="44.49318" lon="1.52067">
        <ele>291.16096987894</ele>
        <time>2021-03-03T16:15:58.317Z</time>
      </trkpt>
      <trkpt lat="44.4933" lon="1.52063">
        <ele>288.30412419532</ele>
        <time>2021-03-03T16:15:59.322Z</time>
      </trkpt>
      <trkpt lat="44.49349" lon="1.52069">
        <ele>285.61935495096</ele>
        <time>2021-03-03T16:16:00.333Z</time>
      </trkpt>
      <trkpt lat="44.49357" lon="1.52066">
        <ele>283.13633356354</ele>
        <time>2021-03-03T16:16:01.347Z</time>
      </trkpt>
      <trkpt lat="44.4937" lon="1.5207">
        <ele>280.88687114026</ele>
        <time>2021-03-03T16:16:02.365Z</time>
      </trkpt>
      <trkpt lat="44.49418" lon="1.52072">
        <ele>278.75642326735</ele>
        <time>2021-03-03T16:16:03.398Z</time>
      </trkpt>
      <trkpt lat="44.49453" lon="1.52068">
        <ele>276.92692312805</ele>
        <time>2021-03-03T16:16:04.441Z</time>
      </trkpt>
      <trkpt lat="44.49486" lon="1.52068">
        <ele>275.37291489147</ele>
        <time>2021-03-03T16:16:05.495Z</time>
      </trkpt>
      <trkpt lat="44.49499" lon="1.5207">
        <ele>274.16355370568</ele>
        <time>2021-03-03T16:16:06.553Z</time>
      </trkpt>
      <trkpt lat="44.4951" lon="1.52069">
        <ele>273.26311410151</ele>
        <time>2021-03-03T16:16:07.614Z</time>
      </trkpt>
      <trkpt lat="44.49519" lon="1.52073">
        <ele>272.67896362691</ele>
        <time>2021-03-03T16:16:08.678Z</time>
      </trkpt>
      <trkpt lat="44.49527" lon="1.52081">
        <ele>272.38719745716</ele>
        <time>2021-03-03T16:16:09.745Z</time>
      </trkpt>
      <trkpt lat="44.49531" lon="1.52083">
        <ele>272.35515576295</ele>
        <time>2021-03-03T16:16:10.813Z</time>
      </trkpt>
      <trkpt lat="44.49536" lon="1.52083">
        <ele>272.56327003675</ele>
        <time>2021-03-03T16:16:11.883Z</time>
      </trkpt>
      <trkpt lat="44.49549" lon="1.52087">
        <ele>273.03252585966</ele>
        <time>2021-03-03T16:16:12.957Z</time>
      </trkpt>
      <trkpt lat="44.49563" lon="1.52095">
        <ele>273.70714852498</ele>
        <time>2021-03-03T16:16:14.035Z</time>
      </trkpt>
      <trkpt lat="44.49566" lon="1.52093">
        <ele>274.48626170099</ele>
        <time>2021-03-03T16:16:15.114Z</time>
      </trkpt>
      <trkpt lat="44.49572" lon="1.52086">
        <ele>275.37779844463</ele>
        <time>2021-03-03T16:16:16.196Z</time>
      </trkpt>
      <trkpt lat="44.49586" lon="1.52085">
        <ele>276.41076633274</ele>
        <time>2021-03-03T16:16:17.282Z</time>
      </trkpt>
      <trkpt lat="44.49594" lon="1.52082">
        <ele>277.49294520458</ele>
        <time>2021-03-03T16:16:18.371Z</time>
      </trkpt>
      <trkpt lat="44.49598" lon="1.52084">
        <ele>278.60988087418</ele>
        <time>2021-03-03T16:16:19.461Z</time>
      </trkpt>
      <trkpt lat="44.4961" lon="1.52084">
        <ele>279.74681922677</ele>
        <time>2021-03-03T16:16:20.555Z</time>
      </trkpt>
      <trkpt lat="44.4963" lon="1.52072">
        <ele>280.87845079091</ele>
        <time>2021-03-03T16:16:21.655Z</time>
      </trkpt>
      <trkpt lat="44.49643" lon="1.52075">
        <ele>281.92981165381</ele>
        <time>2021-03-03T16:16:22.760Z</time>
      </trkpt>
      <trkpt lat="44.49666" lon="1.52055">
        <ele>282.85715746214</ele>
        <time>2021-03-03T16:16:23.873Z</time>
      </trkpt>
      <trkpt lat="44.49692" lon="1.5205">
        <ele>283.59188762248</ele>
        <time>2021-03-03T16:16:24.994Z</time>
      </trkpt>
      <trkpt lat="44.49706" lon="1.52041">
        <ele>284.25057297185</ele>
        <time>2021-03-03T16:16:26.120Z</time>
      </trkpt>
      <trkpt lat="44.49731" lon="1.5201">
        <ele>284.84254319198</ele>
        <time>2021-03-03T16:16:27.256Z</time>
      </trkpt>
      <trkpt lat="44.49735" lon="1.51989">
        <ele>285.18220594041</ele>
        <time>2021-03-03T16:16:28.397Z</time>
      </trkpt>
      <trkpt lat="44.49752" lon="1.51949">
        <ele>285.27985684534</ele>
        <time>2021-03-03T16:16:29.548Z</time>
      </trkpt>
      <trkpt lat="44.49764" lon="1.51937">
        <ele>285.11952580063</ele>
        <time>2021-03-03T16:16:30.704Z</time>
      </trkpt>
      <trkpt lat="44.49788" lon="1.51907">
        <ele>284.65028640476</ele>
        <time>2021-03-03T16:16:31.870Z</time>
      </trkpt>
      <trkpt lat="44.49798" lon="1.51886">
        <ele>284.00484682248</ele>
        <time>2021-03-03T16:16:33.041Z</time>
      </trkpt>
      <trkpt lat="44.49798" lon="1.51873">
        <ele>283.14951312691</ele>
        <time>2021-03-03T16:16:34.215Z</time>
      </trkpt>
      <trkpt lat="44.49803" lon="1.51856">
        <ele>282.0326124241</ele>
        <time>2021-03-03T16:16:35.393Z</time>
      </trkpt>
      <trkpt lat="44.49816" lon="1.51826">
        <ele>280.65375599864</ele>
        <time>2021-03-03T16:16:36.579Z</time>
      </trkpt>
      <trkpt lat="44.49826" lon="1.51799">
        <ele>279.10283786981</ele>
        <time>2021-03-03T16:16:37.771Z</time>
      </trkpt>
      <trkpt lat="44.49825" lon="1.51788">
        <ele>277.41980955284</ele>
        <time>2021-03-03T16:16:38.966Z</time>
      </trkpt>
      <trkpt lat="44.49821" lon="1.51779">
        <ele>275.58027479663</ele>
        <time>2021-03-03T16:16:40.163Z</time>
      </trkpt>
      <trkpt lat="44.49818" lon="1.51764">
        <ele>273.58123496405</ele>
        <time>2021-03-03T16:16:41.364Z</time>
      </trkpt>
      <trkpt lat="44.49818" lon="1.5174">
        <ele>271.36278292834</ele>
        <time>2021-03-03T16:16:42.570Z</time>
      </trkpt>
      <trkpt lat="44.49823" lon="1.51727">
        <ele>269.06151894587</ele>
        <time>2021-03-03T16:16:43.779Z</time>
      </trkpt>
      <trkpt lat="44.4983" lon="1.51716">
        <ele>266.62729043812</ele>
        <time>2021-03-03T16:16:44.992Z</time>
      </trkpt>
      <trkpt lat="44.49838" lon="1.51709">
        <ele>264.1025792608</ele>
        <time>2021-03-03T16:16:46.207Z</time>
      </trkpt>
      <trkpt lat="44.49842" lon="1.51708">
        <ele>261.57027735948</ele>
        <time>2021-03-03T16:16:47.424Z</time>
      </trkpt>
      <trkpt lat="44.49846" lon="1.51709">
        <ele>259.02073447481</ele>
        <time>2021-03-03T16:16:48.642Z</time>
      </trkpt>
      <trkpt lat="44.49871" lon="1.51721">
        <ele>256.44069213688</ele>
        <time>2021-03-03T16:16:49.868Z</time>
      </trkpt>
      <trkpt lat="44.49888" lon="1.51726">
        <ele>253.83774923293</ele>
        <time>2021-03-03T16:16:51.099Z</time>
      </trkpt>
      <trkpt lat="44.49897" lon="1.51737">
        <ele>251.3446738922</ele>
        <time>2021-03-03T16:16:52.334Z</time>
      </trkpt>
      <trkpt lat="44.49914" lon="1.51746">
        <ele>248.86655825421</ele>
        <time>2021-03-03T16:16:53.575Z</time>
      </trkpt>
      <trkpt lat="44.49976" lon="1.51766">
        <ele>246.4635614105</ele>
        <time>2021-03-03T16:16:54.835Z</time>
      </trkpt>
      <trkpt lat="44.49982" lon="1.51758">
        <ele>244.24146648391</ele>
        <time>2021-03-03T16:16:56.098Z</time>
      </trkpt>
      <trkpt lat="44.49986" lon="1.51742">
        <ele>242.17427177333</ele>
        <time>2021-03-03T16:16:57.365Z</time>
      </trkpt>
      <trkpt lat="44.50007" lon="1.51633">
        <ele>240.01033386003</ele>
        <time>2021-03-03T16:16:58.657Z</time>
      </trkpt>
      <trkpt lat="44.50031" lon="1.51531">
        <ele>238.21468690066</ele>
        <time>2021-03-03T16:16:59.972Z</time>
      </trkpt>
      <trkpt lat="44.50035" lon="1.515">
        <ele>236.84571670858</ele>
        <time>2021-03-03T16:17:01.294Z</time>
      </trkpt>
      <trkpt lat="44.50043" lon="1.51477">
        <ele>235.92685767773</ele>
        <time>2021-03-03T16:17:02.622Z</time>
      </trkpt>
      <trkpt lat="44.50057" lon="1.51456">
        <ele>235.46312056661</ele>
        <time>2021-03-03T16:17:03.956Z</time>
      </trkpt>
      <trkpt lat="44.50073" lon="1.5144">
        <ele>235.37170205657</ele>
        <time>2021-03-03T16:17:05.296Z</time>
      </trkpt>
      <trkpt lat="44.50095" lon="1.51423">
        <ele>235.70995848038</ele>
        <time>2021-03-03T16:17:06.644Z</time>
      </trkpt>
      <trkpt lat="44.50118" lon="1.51418">
        <ele>236.43699216374</ele>
        <time>2021-03-03T16:17:07.999Z</time>
      </trkpt>
      <trkpt lat="44.50128" lon="1.5142">
        <ele>237.40269834419</ele>
        <time>2021-03-03T16:17:09.357Z</time>
      </trkpt>
      <trkpt lat="44.50148" lon="1.51416">
        <ele>238.66783743984</ele>
        <time>2021-03-03T16:17:10.722Z</time>
      </trkpt>
      <trkpt lat="44.50182" lon="1.51412">
        <ele>240.12070773691</ele>
        <time>2021-03-03T16:17:12.097Z</time>
      </trkpt>
      <trkpt lat="44.50197" lon="1.51414">
        <ele>241.86350581691</ele>
        <time>2021-03-03T16:17:13.476Z</time>
      </trkpt>
      <trkpt lat="44.50205" lon="1.51424">
        <ele>243.87611197161</ele>
        <time>2021-03-03T16:17:14.859Z</time>
      </trkpt>
      <trkpt lat="44.50218" lon="1.51449">
        <ele>246.13708223021</ele>
        <time>2021-03-03T16:17:16.249Z</time>
      </trkpt>
      <trkpt lat="44.50235" lon="1.51471">
        <ele>248.53414062005</ele>
        <time>2021-03-03T16:17:17.646Z</time>
      </trkpt>
      <trkpt lat="44.50237" lon="1.5151">
        <ele>251.07797785136</ele>
        <time>2021-03-03T16:17:19.051Z</time>
      </trkpt>
      <trkpt lat="44.50237" lon="1.51547">
        <ele>253.62876956647</ele>
        <time>2021-03-03T16:17:20.464Z</time>
      </trkpt>
      <trkpt lat="44.50245" lon="1.51627">
        <ele>256.25208781499</ele>
        <time>2021-03-03T16:17:21.895Z</time>
      </trkpt>
      <trkpt lat="44.50246" lon="1.5165">
        <ele>258.71813367459</ele>
        <time>2021-03-03T16:17:23.331Z</time>
      </trkpt>
      <trkpt lat="44.50249" lon="1.51684">
        <ele>261.15153889092</ele>
        <time>2021-03-03T16:17:24.775Z</time>
      </trkpt>
      <trkpt lat="44.5025" lon="1.51723">
        <ele>263.42666075982</ele>
        <time>2021-03-03T16:17:26.227Z</time>
      </trkpt>
      <trkpt lat="44.50256" lon="1.51767">
        <ele>265.56183878268</ele>
        <time>2021-03-03T16:17:27.689Z</time>
      </trkpt>
      <trkpt lat="44.50261" lon="1.51785">
        <ele>267.43111738469</ele>
        <time>2021-03-03T16:17:29.155Z</time>
      </trkpt>
      <trkpt lat="44.50269" lon="1.51804">
        <ele>269.07646067583</ele>
        <time>2021-03-03T16:17:30.626Z</time>
      </trkpt>
      <trkpt lat="44.50282" lon="1.51842">
        <ele>270.55358718442</ele>
        <time>2021-03-03T16:17:32.107Z</time>
      </trkpt>
      <trkpt lat="44.50303" lon="1.51888">
        <ele>271.73826936582</ele>
        <time>2021-03-03T16:17:33.600Z</time>
      </trkpt>
      <trkpt lat="44.50327" lon="1.51965">
        <ele>272.63127144295</ele>
        <time>2021-03-03T16:17:35.111Z</time>
      </trkpt>
      <trkpt lat="44.50335" lon="1.52">
        <ele>273.28626706615</ele>
        <time>2021-03-03T16:17:36.630Z</time>
      </trkpt>
      <trkpt lat="44.50348" lon="1.52045">
        <ele>273.64456573561</ele>
        <time>2021-03-03T16:17:38.160Z</time>
      </trkpt>
      <trkpt lat="44.50353" lon="1.52065">
        <ele>273.76382709503</ele>
        <time>2021-03-03T16:17:39.695Z</time>
      </trkpt>
      <trkpt lat="44.50369" lon="1.52111">
        <ele>273.6698912817</ele>
        <time>2021-03-03T16:17:41.241Z</time>
      </trkpt>
      <trkpt lat="44.50383" lon="1.52124">
        <ele>273.37593447148</ele>
        <time>2021-03-03T16:17:42.792Z</time>
      </trkpt>
      <trkpt lat="44.50421" lon="1.52147">
        <ele>272.83811340343</ele>
        <time>2021-03-03T16:17:44.356Z</time>
      </trkpt>
      <trkpt lat="44.50464" lon="1.52162">
        <ele>272.19916653281</ele>
        <time>2021-03-03T16:17:45.933Z</time>
      </trkpt>
      <trkpt lat="44.50514" lon="1.52185">
        <ele>271.50994546989</ele>
        <time>2021-03-03T16:17:47.527Z</time>
      </trkpt>
      <trkpt lat="44.50516" lon="1.52188">
        <ele>270.89074706237</ele>
        <time>2021-03-03T16:17:49.122Z</time>
      </trkpt>
      <trkpt lat="44.50521" lon="1.52208">
        <ele>270.29496572667</ele>
        <time>2021-03-03T16:17:50.721Z</time>
      </trkpt>
      <trkpt lat="44.50531" lon="1.52255">
        <ele>269.77411447792</ele>
        <time>2021-03-03T16:17:52.331Z</time>
      </trkpt>
      <trkpt lat="44.50538" lon="1.5228">
        <ele>269.35001959939</ele>
        <time>2021-03-03T16:17:53.947Z</time>
      </trkpt>
      <trkpt lat="44.50573" lon="1.52347">
        <ele>269.10119019783</ele>
        <time>2021-03-03T16:17:55.581Z</time>
      </trkpt>
      <trkpt lat="44.50589" lon="1.52369">
        <ele>269.04603160049</ele>
        <time>2021-03-03T16:17:57.222Z</time>
      </trkpt>
      <trkpt lat="44.50603" lon="1.52375">
        <ele>269.18864277496</ele>
        <time>2021-03-03T16:17:58.868Z</time>
      </trkpt>
      <trkpt lat="44.50604" lon="1.52374">
        <ele>269.56973004791</ele>
        <time>2021-03-03T16:18:00.514Z</time>
      </trkpt>
      <trkpt lat="44.5061" lon="1.52393">
        <ele>270.22017880889</ele>
        <time>2021-03-03T16:18:02.164Z</time>
      </trkpt>
      <trkpt lat="44.50612" lon="1.52409">
        <ele>271.15363572268</ele>
        <time>2021-03-03T16:18:03.818Z</time>
      </trkpt>
      <trkpt lat="44.50624" lon="1.52459">
        <ele>272.34572031261</ele>
        <time>2021-03-03T16:18:05.484Z</time>
      </trkpt>
      <trkpt lat="44.50658" lon="1.52565">
        <ele>273.99311903894</ele>
        <time>2021-03-03T16:18:07.175Z</time>
      </trkpt>
      <trkpt lat="44.50669" lon="1.52604">
        <ele>275.81281057409</ele>
        <time>2021-03-03T16:18:08.875Z</time>
      </trkpt>
      <trkpt lat="44.5068" lon="1.52629">
        <ele>277.79980055916</ele>
        <time>2021-03-03T16:18:10.582Z</time>
      </trkpt>
      <trkpt lat="44.50692" lon="1.52666">
        <ele>279.99774092189</ele>
        <time>2021-03-03T16:18:12.298Z</time>
      </trkpt>
      <trkpt lat="44.50702" lon="1.52726">
        <ele>282.41857413079</ele>
        <time>2021-03-03T16:18:14.028Z</time>
      </trkpt>
      <trkpt lat="44.50708" lon="1.52748">
        <ele>284.87135219778</ele>
        <time>2021-03-03T16:18:15.763Z</time>
      </trkpt>
      <trkpt lat="44.50708" lon="1.52777">
        <ele>287.49764283869</ele>
        <time>2021-03-03T16:18:17.504Z</time>
      </trkpt>
      <trkpt lat="44.50719" lon="1.52864">
        <ele>290.36631773112</ele>
        <time>2021-03-03T16:18:19.264Z</time>
      </trkpt>
      <trkpt lat="44.50721" lon="1.52897">
        <ele>293.19171595919</ele>
        <time>2021-03-03T16:18:21.032Z</time>
      </trkpt>
      <trkpt lat="44.50742" lon="1.53052">
        <ele>296.08310172282</ele>
        <time>2021-03-03T16:18:22.834Z</time>
      </trkpt>
      <trkpt lat="44.50743" lon="1.5314">
        <ele>299.08191729458</ele>
        <time>2021-03-03T16:18:24.656Z</time>
      </trkpt>
      <trkpt lat="44.50746" lon="1.53172">
        <ele>302.149027072</ele>
        <time>2021-03-03T16:18:26.485Z</time>
      </trkpt>
      <trkpt lat="44.5075" lon="1.53196">
        <ele>305.22594148509</ele>
        <time>2021-03-03T16:18:28.319Z</time>
      </trkpt>
      <trkpt lat="44.50763" lon="1.53245">
        <ele>308.3506884256</ele>
        <time>2021-03-03T16:18:30.165Z</time>
      </trkpt>
      <trkpt lat="44.50775" lon="1.5328">
        <ele>311.46360281374</ele>
        <time>2021-03-03T16:18:32.019Z</time>
      </trkpt>
      <trkpt lat="44.50787" lon="1.53305">
        <ele>314.50282167246</ele>
        <time>2021-03-03T16:18:33.880Z</time>
      </trkpt>
      <trkpt lat="44.50792" lon="1.53321">
        <ele>317.48021327524</ele>
        <time>2021-03-03T16:18:35.745Z</time>
      </trkpt>
      <trkpt lat="44.50807" lon="1.53356">
        <ele>320.46476333858</ele>
        <time>2021-03-03T16:18:37.619Z</time>
      </trkpt>
      <trkpt lat="44.5082" lon="1.53384">
        <ele>323.33280104653</ele>
        <time>2021-03-03T16:18:39.500Z</time>
      </trkpt>
      <trkpt lat="44.50842" lon="1.53462">
        <ele>326.21189422551</ele>
        <time>2021-03-03T16:18:41.400Z</time>
      </trkpt>
      <trkpt lat="44.50851" lon="1.53485">
        <ele>328.88564547955</ele>
        <time>2021-03-03T16:18:43.305Z</time>
      </trkpt>
      <trkpt lat="44.50861" lon="1.53503">
        <ele>331.41949080028</ele>
        <time>2021-03-03T16:18:45.215Z</time>
      </trkpt>
      <trkpt lat="44.50875" lon="1.53518">
        <ele>333.80340849124</ele>
        <time>2021-03-03T16:18:47.131Z</time>
      </trkpt>
      <trkpt lat="44.50933" lon="1.5357">
        <ele>336.10299190889</ele>
        <time>2021-03-03T16:18:49.068Z</time>
      </trkpt>
      <trkpt lat="44.50982" lon="1.53611">
        <ele>338.25301714359</ele>
        <time>2021-03-03T16:18:51.023Z</time>
      </trkpt>
      <trkpt lat="44.51018" lon="1.53646">
        <ele>340.19718690302</ele>
        <time>2021-03-03T16:18:52.991Z</time>
      </trkpt>
      <trkpt lat="44.51047" lon="1.53682">
        <ele>341.91460969151</ele>
        <time>2021-03-03T16:18:54.971Z</time>
      </trkpt>
      <trkpt lat="44.51081" lon="1.53739">
        <ele>343.41179667712</ele>
        <time>2021-03-03T16:18:56.968Z</time>
      </trkpt>
      <trkpt lat="44.51085" lon="1.53751">
        <ele>344.55049490183</ele>
        <time>2021-03-03T16:18:58.967Z</time>
      </trkpt>
      <trkpt lat="44.51087" lon="1.53753">
        <ele>345.43976654003</ele>
        <time>2021-03-03T16:19:00.967Z</time>
      </trkpt>
      <trkpt lat="44.51091" lon="1.53752">
        <ele>346.09584327653</ele>
        <time>2021-03-03T16:19:02.968Z</time>
      </trkpt>
      <trkpt lat="44.51121" lon="1.53609">
        <ele>346.58505093528</ele>
        <time>2021-03-03T16:19:05.002Z</time>
      </trkpt>
      <trkpt lat="44.51127" lon="1.53583">
        <ele>346.84738261792</ele>
        <time>2021-03-03T16:19:07.042Z</time>
      </trkpt>
      <trkpt lat="44.51135" lon="1.53559">
        <ele>346.87305311131</ele>
        <time>2021-03-03T16:19:09.088Z</time>
      </trkpt>
      <trkpt lat="44.51165" lon="1.53489">
        <ele>346.64489375374</ele>
        <time>2021-03-03T16:19:11.152Z</time>
      </trkpt>
      <trkpt lat="44.51181" lon="1.53467">
        <ele>346.2652058471</ele>
        <time>2021-03-03T16:19:13.223Z</time>
      </trkpt>
      <trkpt lat="44.51239" lon="1.53357">
        <ele>345.66787552226</ele>
        <time>2021-03-03T16:19:15.324Z</time>
      </trkpt>
      <trkpt lat="44.51243" lon="1.53351">
        <ele>345.16925997415</ele>
        <time>2021-03-03T16:19:17.427Z</time>
      </trkpt>
      <trkpt lat="44.51249" lon="1.53348">
        <ele>344.65893942171</ele>
        <time>2021-03-03T16:19:19.532Z</time>
      </trkpt>
      <trkpt lat="44.51254" lon="1.53349">
        <ele>344.1302106944</ele>
        <time>2021-03-03T16:19:21.638Z</time>
      </trkpt>
      <trkpt lat="44.51293" lon="1.53373">
        <ele>343.53346294883</ele>
        <time>2021-03-03T16:19:23.757Z</time>
      </trkpt>
      <trkpt lat="44.51302" lon="1.53385">
        <ele>343.04519337761</ele>
        <time>2021-03-03T16:19:25.880Z</time>
      </trkpt>
      <trkpt lat="44.51316" lon="1.53422">
        <ele>342.68117436286</ele>
        <time>2021-03-03T16:19:28.012Z</time>
      </trkpt>
      <trkpt lat="44.51347" lon="1.53474">
        <ele>342.46864073863</ele>
        <time>2021-03-03T16:19:30.159Z</time>
      </trkpt>
      <trkpt lat="44.51381" lon="1.53535">
        <ele>342.27279302373</ele>
        <time>2021-03-03T16:19:32.323Z</time>
      </trkpt>
      <trkpt lat="44.51392" lon="1.53564">
        <ele>342.25956381395</ele>
        <time>2021-03-03T16:19:34.495Z</time>
      </trkpt>
      <trkpt lat="44.51407" lon="1.53624">
        <ele>342.37402821019</ele>
        <time>2021-03-03T16:19:36.681Z</time>
      </trkpt>
      <trkpt lat="44.51417" lon="1.53652">
        <ele>342.65552148929</ele>
        <time>2021-03-03T16:19:38.873Z</time>
      </trkpt>
      <trkpt lat="44.51424" lon="1.53668">
        <ele>343.10410307121</ele>
        <time>2021-03-03T16:19:41.070Z</time>
      </trkpt>
      <trkpt lat="44.51437" lon="1.53686">
        <ele>343.70865651168</ele>
        <time>2021-03-03T16:19:43.272Z</time>
      </trkpt>
      <trkpt lat="44.51494" lon="1.53741">
        <ele>344.62032910325</ele>
        <time>2021-03-03T16:19:45.496Z</time>
      </trkpt>
      <trkpt lat="44.51519" lon="1.53763">
        <ele>345.53584057194</ele>
        <time>2021-03-03T16:19:47.729Z</time>
      </trkpt>
      <trkpt lat="44.5153" lon="1.53768">
        <ele>346.41554387745</ele>
        <time>2021-03-03T16:19:49.965Z</time>
      </trkpt>
      <trkpt lat="44.51549" lon="1.53782">
        <ele>347.38631487641</ele>
        <time>2021-03-03T16:19:52.208Z</time>
      </trkpt>
      <trkpt lat="44.51575" lon="1.53799">
        <ele>348.39634441934</ele>
        <time>2021-03-03T16:19:54.460Z</time>
      </trkpt>
      <trkpt lat="44.51586" lon="1.53802">
        <ele>349.21871957153</ele>
        <time>2021-03-03T16:19:56.715Z</time>
      </trkpt>
      <trkpt lat="44.51597" lon="1.53801">
        <ele>349.89808591223</ele>
        <time>2021-03-03T16:19:58.973Z</time>
      </trkpt>
      <trkpt lat="44.51608" lon="1.53802">
        <ele>350.47507539965</ele>
        <time>2021-03-03T16:20:01.235Z</time>
      </trkpt>
      <trkpt lat="44.51652" lon="1.53785">
        <ele>350.80604669861</ele>
        <time>2021-03-03T16:20:03.511Z</time>
      </trkpt>
      <trkpt lat="44.51656" lon="1.53794">
        <ele>351.07557920143</ele>
        <time>2021-03-03T16:20:05.789Z</time>
      </trkpt>
      <trkpt lat="44.51663" lon="1.53832">
        <ele>351.13953993235</ele>
        <time>2021-03-03T16:20:08.076Z</time>
      </trkpt>
      <trkpt lat="44.51684" lon="1.53881">
        <ele>351.01971302956</ele>
        <time>2021-03-03T16:20:10.376Z</time>
      </trkpt>
      <trkpt lat="44.51695" lon="1.53898">
        <ele>350.88655155076</ele>
        <time>2021-03-03T16:20:12.681Z</time>
      </trkpt>
      <trkpt lat="44.51746" lon="1.53955">
        <ele>350.62185884202</ele>
        <time>2021-03-03T16:20:15.005Z</time>
      </trkpt>
      <trkpt lat="44.51754" lon="1.5396">
        <ele>350.28904692756</ele>
        <time>2021-03-03T16:20:17.332Z</time>
      </trkpt>
      <trkpt lat="44.51759" lon="1.53962">
        <ele>349.8557124893</ele>
        <time>2021-03-03T16:20:19.661Z</time>
      </trkpt>
      <trkpt lat="44.51843" lon="1.53971">
        <ele>349.37837570844</ele>
        <time>2021-03-03T16:20:22.016Z</time>
      </trkpt>
      <trkpt lat="44.51879" lon="1.53967">
        <ele>348.80880064368</ele>
        <time>2021-03-03T16:20:24.382Z</time>
      </trkpt>
      <trkpt lat="44.51902" lon="1.53961">
        <ele>348.09204235427</ele>
        <time>2021-03-03T16:20:26.755Z</time>
      </trkpt>
      <trkpt lat="44.51915" lon="1.53954">
        <ele>347.28152823325</ele>
        <time>2021-03-03T16:20:29.132Z</time>
      </trkpt>
      <trkpt lat="44.51939" lon="1.53935">
        <ele>346.37185031407</ele>
        <time>2021-03-03T16:20:31.518Z</time>
      </trkpt>
      <trkpt lat="44.51947" lon="1.5393">
        <ele>345.39645251638</ele>
        <time>2021-03-03T16:20:33.907Z</time>
      </trkpt>
      <trkpt lat="44.51957" lon="1.53928">
        <ele>344.34630868764</ele>
        <time>2021-03-03T16:20:36.299Z</time>
      </trkpt>
      <trkpt lat="44.51974" lon="1.53929">
        <ele>343.23684905201</ele>
        <time>2021-03-03T16:20:38.696Z</time>
      </trkpt>
      <trkpt lat="44.51987" lon="1.53931">
        <ele>342.03614529023</ele>
        <time>2021-03-03T16:20:41.097Z</time>
      </trkpt>
      <trkpt lat="44.52064" lon="1.53953">
        <ele>340.60346728063</ele>
        <time>2021-03-03T16:20:43.522Z</time>
      </trkpt>
      <trkpt lat="44.52093" lon="1.53959">
        <ele>339.37885340329</ele>
        <time>2021-03-03T16:20:45.956Z</time>
      </trkpt>
      <trkpt lat="44.52117" lon="1.53967">
        <ele>338.21516566015</ele>
        <time>2021-03-03T16:20:48.398Z</time>
      </trkpt>
      <trkpt lat="44.52128" lon="1.53959">
        <ele>337.07001153267</ele>
        <time>2021-03-03T16:20:50.843Z</time>
      </trkpt>
      <trkpt lat="44.52168" lon="1.53853">
        <ele>335.87074706908</ele>
        <time>2021-03-03T16:20:53.315Z</time>
      </trkpt>
      <trkpt lat="44.52187" lon="1.53809">
        <ele>334.661618407</ele>
        <time>2021-03-03T16:20:55.798Z</time>
      </trkpt>
      <trkpt lat="44.52196" lon="1.53796">
        <ele>333.56149590159</ele>
        <time>2021-03-03T16:20:58.285Z</time>
      </trkpt>
      <trkpt lat="44.52218" lon="1.53771">
        <ele>332.49798393805</ele>
        <time>2021-03-03T16:21:00.781Z</time>
      </trkpt>
      <trkpt lat="44.5225" lon="1.53748">
        <ele>331.52322169467</ele>
        <time>2021-03-03T16:21:03.288Z</time>
      </trkpt>
      <trkpt lat="44.52258" lon="1.53747">
        <ele>330.73176461847</ele>
        <time>2021-03-03T16:21:05.797Z</time>
      </trkpt>
      <trkpt lat="44.52274" lon="1.53749">
        <ele>330.08088249409</ele>
        <time>2021-03-03T16:21:08.311Z</time>
      </trkpt>
      <trkpt lat="44.52315" lon="1.5376">
        <ele>329.38593649028</ele>
        <time>2021-03-03T16:21:10.838Z</time>
      </trkpt>
      <trkpt lat="44.52325" lon="1.53762">
        <ele>328.98145867201</ele>
        <time>2021-03-03T16:21:13.368Z</time>
      </trkpt>
      <trkpt lat="44.52363" lon="1.53762">
        <ele>328.69139233605</ele>
        <time>2021-03-03T16:21:15.910Z</time>
      </trkpt>
      <trkpt lat="44.52398" lon="1.53758">
        <ele>328.77712164641</ele>
        <time>2021-03-03T16:21:18.463Z</time>
      </trkpt>
      <trkpt lat="44.52401" lon="1.53753">
        <ele>328.89022112215</ele>
        <time>2021-03-03T16:21:21.017Z</time>
      </trkpt>
      <trkpt lat="44.52403" lon="1.53741">
        <ele>329.15292370889</ele>
        <time>2021-03-03T16:21:23.574Z</time>
      </trkpt>
      <trkpt lat="44.52389" lon="1.53685">
        <ele>329.52914978341</ele>
        <time>2021-03-03T16:21:26.144Z</time>
      </trkpt>
      <trkpt lat="44.52387" lon="1.53668">
        <ele>330.11662000225</ele>
        <time>2021-03-03T16:21:28.718Z</time>
      </trkpt>
      <trkpt lat="44.52388" lon="1.53646">
        <ele>330.90573928608</ele>
        <time>2021-03-03T16:21:31.297Z</time>
      </trkpt>
      <trkpt lat="44.52387" lon="1.53626">
        <ele>331.758370472</ele>
        <time>2021-03-03T16:21:33.880Z</time>
      </trkpt>
      <trkpt lat="44.52388" lon="1.53621">
        <ele>332.63543081966</ele>
        <time>2021-03-03T16:21:36.464Z</time>
      </trkpt>
      <trkpt lat="44.52397" lon="1.53608">
        <ele>333.62469593274</ele>
        <time>2021-03-03T16:21:39.052Z</time>
      </trkpt>
      <trkpt lat="44.52403" lon="1.5359">
        <ele>334.62481864789</ele>
        <time>2021-03-03T16:21:41.645Z</time>
      </trkpt>
      <trkpt lat="44.52423" lon="1.53546">
        <ele>335.65950144849</ele>
        <time>2021-03-03T16:21:44.249Z</time>
      </trkpt>
      <trkpt lat="44.52428" lon="1.53521">
        <ele>336.53079466128</ele>
        <time>2021-03-03T16:21:46.859Z</time>
      </trkpt>
      <trkpt lat="44.52421" lon="1.5348">
        <ele>337.36355517814</ele>
        <time>2021-03-03T16:21:49.478Z</time>
      </trkpt>
      <trkpt lat="44.52421" lon="1.53473">
        <ele>338.14753134871</ele>
        <time>2021-03-03T16:21:52.099Z</time>
      </trkpt>
      <trkpt lat="44.52423" lon="1.53468">
        <ele>338.85640352399</ele>
        <time>2021-03-03T16:21:54.721Z</time>
      </trkpt>
      <trkpt lat="44.5242" lon="1.53468">
        <ele>339.4954650018</ele>
        <time>2021-03-03T16:21:57.344Z</time>
      </trkpt>
      <trkpt lat="44.5242" lon="1.53478">
        <ele>340.04075313254</ele>
        <time>2021-03-03T16:21:59.969Z</time>
      </trkpt>
      <trkpt lat="44.52423" lon="1.53479">
        <ele>340.47895423756</ele>
        <time>2021-03-03T16:22:02.595Z</time>
      </trkpt>
      <trkpt lat="44.5242" lon="1.53473">
        <ele>340.83457208077</ele>
        <time>2021-03-03T16:22:05.222Z</time>
      </trkpt>
      <trkpt lat="44.52419" lon="1.53475">
        <ele>341.09354062951</ele>
        <time>2021-03-03T16:22:07.850Z</time>
      </trkpt>
      <trkpt lat="44.5242" lon="1.53478">
        <ele>341.24824243919</ele>
        <time>2021-03-03T16:22:10.479Z</time>
      </trkpt>
      <trkpt lat="44.52425" lon="1.53475">
        <ele>341.3001655704</ele>
        <time>2021-03-03T16:22:13.109Z</time>
      </trkpt>
      <trkpt lat="44.52436" lon="1.53452">
        <ele>341.25230554771</ele>
        <time>2021-03-03T16:22:15.745Z</time>
      </trkpt>
      <trkpt lat="44.52444" lon="1.53425">
        <ele>341.12985701253</ele>
        <time>2021-03-03T16:22:18.388Z</time>
      </trkpt>
      <trkpt lat="44.52454" lon="1.534">
        <ele>340.91886233686</ele>
        <time>2021-03-03T16:22:21.037Z</time>
      </trkpt>
      <trkpt lat="44.52466" lon="1.53386">
        <ele>340.62020811364</ele>
        <time>2021-03-03T16:22:23.691Z</time>
      </trkpt>
      <trkpt lat="44.52486" lon="1.53353">
        <ele>340.2717035514</ele>
        <time>2021-03-03T16:22:26.355Z</time>
      </trkpt>
      <trkpt lat="44.52535" lon="1.5329">
        <ele>339.99363918452</ele>
        <time>2021-03-03T16:22:29.039Z</time>
      </trkpt>
      <trkpt lat="44.52583" lon="1.53201">
        <ele>339.69819268143</ele>
        <time>2021-03-03T16:22:31.748Z</time>
      </trkpt>
      <trkpt lat="44.52608" lon="1.53165">
        <ele>339.30142649726</ele>
        <time>2021-03-03T16:22:34.468Z</time>
      </trkpt>
      <trkpt lat="44.52621" lon="1.53149">
        <ele>338.85046088776</ele>
        <time>2021-03-03T16:22:37.193Z</time>
      </trkpt>
      <trkpt lat="44.5264" lon="1.53131">
        <ele>338.32575548315</ele>
        <time>2021-03-03T16:22:39.925Z</time>
      </trkpt>
      <trkpt lat="44.52664" lon="1.53114">
        <ele>337.77305608483</ele>
        <time>2021-03-03T16:22:42.665Z</time>
      </trkpt>
      <trkpt lat="44.52677" lon="1.53102">
        <ele>337.20155831906</ele>
        <time>2021-03-03T16:22:45.410Z</time>
      </trkpt>
      <trkpt lat="44.52702" lon="1.53064">
        <ele>336.57537752124</ele>
        <time>2021-03-03T16:22:48.166Z</time>
      </trkpt>
      <trkpt lat="44.52732" lon="1.53011">
        <ele>335.98142619204</ele>
        <time>2021-03-03T16:22:50.937Z</time>
      </trkpt>
      <trkpt lat="44.52781" lon="1.5295">
        <ele>335.53884151327</ele>
        <time>2021-03-03T16:22:53.729Z</time>
      </trkpt>
      <trkpt lat="44.52792" lon="1.52941">
        <ele>335.00747948008</ele>
        <time>2021-03-03T16:22:56.524Z</time>
      </trkpt>
      <trkpt lat="44.52814" lon="1.5291">
        <ele>334.50852410629</ele>
        <time>2021-03-03T16:22:59.329Z</time>
      </trkpt>
      <trkpt lat="44.52832" lon="1.52867">
        <ele>334.06617433116</ele>
        <time>2021-03-03T16:23:02.145Z</time>
      </trkpt>
      <trkpt lat="44.52865" lon="1.52802">
        <ele>333.61900900162</ele>
        <time>2021-03-03T16:23:04.979Z</time>
      </trkpt>
      <trkpt lat="44.52872" lon="1.52783">
        <ele>333.18252561655</ele>
        <time>2021-03-03T16:23:07.817Z</time>
      </trkpt>
      <trkpt lat="44.52883" lon="1.52745">
        <ele>332.74528673418</ele>
        <time>2021-03-03T16:23:10.664Z</time>
      </trkpt>
      <trkpt lat="44.52908" lon="1.52673">
        <ele>332.45834169821</ele>
        <time>2021-03-03T16:23:13.529Z</time>
      </trkpt>
      <trkpt lat="44.52916" lon="1.52633">
        <ele>332.23569046314</ele>
        <time>2021-03-03T16:23:16.403Z</time>
      </trkpt>
      <trkpt lat="44.52932" lon="1.52545">
        <ele>332.14714141438</ele>
        <time>2021-03-03T16:23:19.297Z</time>
      </trkpt>
      <trkpt lat="44.52945" lon="1.5246">
        <ele>331.89222702955</ele>
        <time>2021-03-03T16:23:22.210Z</time>
      </trkpt>
      <trkpt lat="44.52954" lon="1.52386">
        <ele>331.72771808941</ele>
        <time>2021-03-03T16:23:25.140Z</time>
      </trkpt>
      <trkpt lat="44.52958" lon="1.52336">
        <ele>331.64633041917</ele>
        <time>2021-03-03T16:23:28.081Z</time>
      </trkpt>
      <trkpt lat="44.52958" lon="1.52311">
        <ele>331.67253384965</ele>
        <time>2021-03-03T16:23:31.027Z</time>
      </trkpt>
      <trkpt lat="44.52955" lon="1.52256">
        <ele>331.78279412845</ele>
        <time>2021-03-03T16:23:33.985Z</time>
      </trkpt>
      <trkpt lat="44.52955" lon="1.52256">
        <ele>332.04245830168</ele>
        <time>2021-03-03T16:23:36.943Z</time>
      </trkpt>
      <trkpt lat="44.52956" lon="1.5214">
        <ele>332.83578398442</ele>
        <time>2021-03-03T16:23:39.927Z</time>
      </trkpt>
      <trkpt lat="44.5295" lon="1.52083">
        <ele>333.45350000669</ele>
        <time>2021-03-03T16:23:42.923Z</time>
      </trkpt>
      <trkpt lat="44.52941" lon="1.52021">
        <ele>334.20993178577</ele>
        <time>2021-03-03T16:23:45.934Z</time>
      </trkpt>
      <trkpt lat="44.5293" lon="1.51974">
        <ele>335.04278026775</ele>
        <time>2021-03-03T16:23:48.955Z</time>
      </trkpt>
      <trkpt lat="44.52925" lon="1.51936">
        <ele>336.03074957846</ele>
        <time>2021-03-03T16:23:51.985Z</time>
      </trkpt>
      <trkpt lat="44.52927" lon="1.51916">
        <ele>337.06044241396</ele>
        <time>2021-03-03T16:23:55.019Z</time>
      </trkpt>
      <trkpt lat="44.52933" lon="1.5189">
        <ele>338.18198164967</ele>
        <time>2021-03-03T16:23:58.059Z</time>
      </trkpt>
      <trkpt lat="44.52935" lon="1.5185">
        <ele>339.33757909508</ele>
        <time>2021-03-03T16:24:01.108Z</time>
      </trkpt>
      <trkpt lat="44.52929" lon="1.51821">
        <ele>340.46625299991</ele>
        <time>2021-03-03T16:24:04.164Z</time>
      </trkpt>
      <trkpt lat="44.52924" lon="1.51761">
        <ele>341.57473290934</ele>
        <time>2021-03-03T16:24:07.233Z</time>
      </trkpt>
      <trkpt lat="44.5292" lon="1.51733">
        <ele>342.67682188495</ele>
        <time>2021-03-03T16:24:10.308Z</time>
      </trkpt>
      <trkpt lat="44.52917" lon="1.51725">
        <ele>343.72703833117</ele>
        <time>2021-03-03T16:24:13.385Z</time>
      </trkpt>
      <trkpt lat="44.52892" lon="1.51674">
        <ele>344.71111289075</ele>
        <time>2021-03-03T16:24:16.476Z</time>
      </trkpt>
      <trkpt lat="44.52876" lon="1.51637">
        <ele>345.68969476816</ele>
        <time>2021-03-03T16:24:19.577Z</time>
      </trkpt>
      <trkpt lat="44.52877" lon="1.51629">
        <ele>346.56108748289</ele>
        <time>2021-03-03T16:24:22.679Z</time>
      </trkpt>
      <trkpt lat="44.52902" lon="1.51592">
        <ele>347.41336723031</ele>
        <time>2021-03-03T16:24:25.793Z</time>
      </trkpt>
      <trkpt lat="44.52932" lon="1.51553">
        <ele>348.16137236942</ele>
        <time>2021-03-03T16:24:28.919Z</time>
      </trkpt>
      <trkpt lat="44.52968" lon="1.51501">
        <ele>348.78482224185</ele>
        <time>2021-03-03T16:24:32.061Z</time>
      </trkpt>
      <trkpt lat="44.52997" lon="1.51474">
        <ele>349.21922869329</ele>
        <time>2021-03-03T16:24:35.214Z</time>
      </trkpt>
      <trkpt lat="44.53035" lon="1.51445">
        <ele>349.57341987535</ele>
        <time>2021-03-03T16:24:38.380Z</time>
      </trkpt>
      <trkpt lat="44.53059" lon="1.51418">
        <ele>349.83545343075</ele>
        <time>2021-03-03T16:24:41.556Z</time>
      </trkpt>
      <trkpt lat="44.53082" lon="1.51387">
        <ele>349.99620545702</ele>
        <time>2021-03-03T16:24:44.742Z</time>
      </trkpt>
      <trkpt lat="44.53085" lon="1.5139">
        <ele>350.11635017261</ele>
        <time>2021-03-03T16:24:47.929Z</time>
      </trkpt>
      <trkpt lat="44.53087" lon="1.51442">
        <ele>350.20821582733</ele>
        <time>2021-03-03T16:24:51.127Z</time>
      </trkpt>
      <trkpt lat="44.53095" lon="1.51484">
        <ele>350.19587334387</ele>
        <time>2021-03-03T16:24:54.335Z</time>
      </trkpt>
      <trkpt lat="44.53097" lon="1.51506">
        <ele>350.07756879808</ele>
        <time>2021-03-03T16:24:57.548Z</time>
      </trkpt>
      <trkpt lat="44.53099" lon="1.51603">
        <ele>349.77799359248</ele>
        <time>2021-03-03T16:25:00.782Z</time>
      </trkpt>
      <trkpt lat="44.53106" lon="1.51656">
        <ele>349.43205344606</ele>
        <time>2021-03-03T16:25:04.028Z</time>
      </trkpt>
      <trkpt lat="44.53106" lon="1.51687">
        <ele>349.06836575497</ele>
        <time>2021-03-03T16:25:07.281Z</time>
      </trkpt>
      <trkpt lat="44.53107" lon="1.51691">
        <ele>348.66302725888</ele>
        <time>2021-03-03T16:25:10.535Z</time>
      </trkpt>
      <trkpt lat="44.53112" lon="1.51697">
        <ele>348.20221385897</ele>
        <time>2021-03-03T16:25:13.790Z</time>
      </trkpt>
      <trkpt lat="44.53127" lon="1.51695">
        <ele>347.63509269826</ele>
        <time>2021-03-03T16:25:17.050Z</time>
      </trkpt>
      <trkpt lat="44.53138" lon="1.51684">
        <ele>347.05975419493</ele>
        <time>2021-03-03T16:25:20.314Z</time>
      </trkpt>
      <trkpt lat="44.53165" lon="1.51641">
        <ele>346.50523420868</ele>
        <time>2021-03-03T16:25:23.591Z</time>
      </trkpt>
      <trkpt lat="44.53225" lon="1.5156">
        <ele>345.7737854852</ele>
        <time>2021-03-03T16:25:26.894Z</time>
      </trkpt>
      <trkpt lat="44.53246" lon="1.51528">
        <ele>345.09114723519</ele>
        <time>2021-03-03T16:25:30.206Z</time>
      </trkpt>
      <trkpt lat="44.53266" lon="1.51488">
        <ele>344.41634263322</ele>
        <time>2021-03-03T16:25:33.529Z</time>
      </trkpt>
      <trkpt lat="44.53279" lon="1.51452">
        <ele>343.64236674378</ele>
        <time>2021-03-03T16:25:36.861Z</time>
      </trkpt>
      <trkpt lat="44.53285" lon="1.51431">
        <ele>342.83908625462</ele>
        <time>2021-03-03T16:25:40.198Z</time>
      </trkpt>
      <trkpt lat="44.5329" lon="1.51402">
        <ele>341.92531767512</ele>
        <time>2021-03-03T16:25:43.542Z</time>
      </trkpt>
      <trkpt lat="44.53297" lon="1.51339">
        <ele>340.83279135122</ele>
        <time>2021-03-03T16:25:46.900Z</time>
      </trkpt>
      <trkpt lat="44.53302" lon="1.51242">
        <ele>339.89364781888</ele>
        <time>2021-03-03T16:25:50.279Z</time>
      </trkpt>
      <trkpt lat="44.53306" lon="1.51199">
        <ele>338.93193860636</ele>
        <time>2021-03-03T16:25:53.668Z</time>
      </trkpt>
      <trkpt lat="44.53308" lon="1.51188">
        <ele>337.89897865959</ele>
        <time>2021-03-03T16:25:57.059Z</time>
      </trkpt>
      <trkpt lat="44.53311" lon="1.51189">
        <ele>336.80612637455</ele>
        <time>2021-03-03T16:26:00.451Z</time>
      </trkpt>
      <trkpt lat="44.53316" lon="1.512">
        <ele>335.6334904509</ele>
        <time>2021-03-03T16:26:03.846Z</time>
      </trkpt>
      <trkpt lat="44.53324" lon="1.51238">
        <ele>334.39495133222</ele>
        <time>2021-03-03T16:26:07.250Z</time>
      </trkpt>
      <trkpt lat="44.53328" lon="1.51245">
        <ele>333.15300704418</ele>
        <time>2021-03-03T16:26:10.656Z</time>
      </trkpt>
      <trkpt lat="44.53333" lon="1.51251">
        <ele>331.86914738121</ele>
        <time>2021-03-03T16:26:14.064Z</time>
      </trkpt>
      <trkpt lat="44.53339" lon="1.51253">
        <ele>330.57044466031</ele>
        <time>2021-03-03T16:26:17.473Z</time>
      </trkpt>
      <trkpt lat="44.53345" lon="1.51253">
        <ele>329.23480660108</ele>
        <time>2021-03-03T16:26:20.884Z</time>
      </trkpt>
      <trkpt lat="44.53384" lon="1.51244">
        <ele>327.81587567181</ele>
        <time>2021-03-03T16:26:24.308Z</time>
      </trkpt>
      <trkpt lat="44.53408" lon="1.51244">
        <ele>326.43794467974</ele>
        <time>2021-03-03T16:26:27.739Z</time>
      </trkpt>
      <trkpt lat="44.53437" lon="1.51246">
        <ele>325.06996226592</ele>
        <time>2021-03-03T16:26:31.179Z</time>
      </trkpt>
      <trkpt lat="44.53537" lon="1.51262">
        <ele>323.54748546831</ele>
        <time>2021-03-03T16:26:34.650Z</time>
      </trkpt>
      <trkpt lat="44.53546" lon="1.51267">
        <ele>322.12357804162</ele>
        <time>2021-03-03T16:26:38.124Z</time>
      </trkpt>
      <trkpt lat="44.53569" lon="1.51284">
        <ele>320.65559906108</ele>
        <time>2021-03-03T16:26:41.606Z</time>
      </trkpt>
      <trkpt lat="44.53586" lon="1.51291">
        <ele>319.20640905394</ele>
        <time>2021-03-03T16:26:45.093Z</time>
      </trkpt>
      <trkpt lat="44.53595" lon="1.51293">
        <ele>317.83946593882</ele>
        <time>2021-03-03T16:26:48.583Z</time>
      </trkpt>
      <trkpt lat="44.53652" lon="1.51298">
        <ele>316.50463057583</ele>
        <time>2021-03-03T16:26:52.091Z</time>
      </trkpt>
      <trkpt lat="44.53687" lon="1.51304">
        <ele>315.21588051824</ele>
        <time>2021-03-03T16:26:55.610Z</time>
      </trkpt>
      <trkpt lat="44.53704" lon="1.51305">
        <ele>313.9495568217</ele>
        <time>2021-03-03T16:26:59.134Z</time>
      </trkpt>
      <trkpt lat="44.53709" lon="1.51303">
        <ele>312.76504907226</ele>
        <time>2021-03-03T16:27:02.659Z</time>
      </trkpt>
      <trkpt lat="44.53713" lon="1.51299">
        <ele>311.62506242654</ele>
        <time>2021-03-03T16:27:06.186Z</time>
      </trkpt>
      <trkpt lat="44.53714" lon="1.51293">
        <ele>310.53251858028</ele>
        <time>2021-03-03T16:27:09.714Z</time>
      </trkpt>
      <trkpt lat="44.5371" lon="1.51283">
        <ele>309.47251753398</ele>
        <time>2021-03-03T16:27:13.245Z</time>
      </trkpt>
      <trkpt lat="44.53706" lon="1.51277">
        <ele>308.50934763364</ele>
        <time>2021-03-03T16:27:16.777Z</time>
      </trkpt>
      <trkpt lat="44.53668" lon="1.51243">
        <ele>307.45489340309</ele>
        <time>2021-03-03T16:27:20.323Z</time>
      </trkpt>
      <trkpt lat="44.53643" lon="1.51233">
        <ele>306.69607171569</ele>
        <time>2021-03-03T16:27:23.877Z</time>
      </trkpt>
      <trkpt lat="44.53618" lon="1.51227">
        <ele>305.96504691453</ele>
        <time>2021-03-03T16:27:27.439Z</time>
      </trkpt>
      <trkpt lat="44.53611" lon="1.51224">
        <ele>305.19912004042</ele>
        <time>2021-03-03T16:27:31.003Z</time>
      </trkpt>
      <trkpt lat="44.53607" lon="1.51218">
        <ele>304.42527873596</ele>
        <time>2021-03-03T16:27:34.569Z</time>
      </trkpt>
      <trkpt lat="44.53601" lon="1.51179">
        <ele>303.43137303943</ele>
        <time>2021-03-03T16:27:38.144Z</time>
      </trkpt>
      <trkpt lat="44.53591" lon="1.51162">
        <ele>302.61233601678</ele>
        <time>2021-03-03T16:27:41.724Z</time>
      </trkpt>
      <trkpt lat="44.53563" lon="1.51133">
        <ele>301.80734953503</ele>
        <time>2021-03-03T16:27:45.314Z</time>
      </trkpt>
      <trkpt lat="44.53546" lon="1.5112">
        <ele>300.89665544032</ele>
        <time>2021-03-03T16:27:48.910Z</time>
      </trkpt>
      <trkpt lat="44.53539" lon="1.51116">
        <ele>299.92947924415</ele>
        <time>2021-03-03T16:27:52.509Z</time>
      </trkpt>
      <trkpt lat="44.53513" lon="1.51108">
        <ele>298.9315782299</ele>
        <time>2021-03-03T16:27:56.116Z</time>
      </trkpt>
      <trkpt lat="44.53498" lon="1.511">
        <ele>297.79893831469</ele>
        <time>2021-03-03T16:27:59.728Z</time>
      </trkpt>
      <trkpt lat="44.53494" lon="1.51095">
        <ele>296.50407877288</ele>
        <time>2021-03-03T16:28:03.342Z</time>
      </trkpt>
      <trkpt lat="44.53491" lon="1.51085">
        <ele>294.99809444679</ele>
        <time>2021-03-03T16:28:06.958Z</time>
      </trkpt>
      <trkpt lat="44.53496" lon="1.51078">
        <ele>293.30539526952</ele>
        <time>2021-03-03T16:28:10.576Z</time>
      </trkpt>
      <trkpt lat="44.535" lon="1.51077">
        <ele>291.45668195427</ele>
        <time>2021-03-03T16:28:14.195Z</time>
      </trkpt>
      <trkpt lat="44.53514" lon="1.5108">
        <ele>289.40153365855</ele>
        <time>2021-03-03T16:28:17.819Z</time>
      </trkpt>
      <trkpt lat="44.53534" lon="1.5108">
        <ele>287.1584422923</ele>
        <time>2021-03-03T16:28:21.449Z</time>
      </trkpt>
      <trkpt lat="44.53541" lon="1.51081">
        <ele>284.78570627665</ele>
        <time>2021-03-03T16:28:25.081Z</time>
      </trkpt>
      <trkpt lat="44.53653" lon="1.51126">
        <ele>281.94051819723</ele>
        <time>2021-03-03T16:28:28.749Z</time>
      </trkpt>
      <trkpt lat="44.537" lon="1.51134">
        <ele>279.11239119407</ele>
        <time>2021-03-03T16:28:32.432Z</time>
      </trkpt>
      <trkpt lat="44.53752" lon="1.51146">
        <ele>276.11770461555</ele>
        <time>2021-03-03T16:28:36.131Z</time>
      </trkpt>
      <trkpt lat="44.5381" lon="1.51165">
        <ele>273.05819806314</ele>
        <time>2021-03-03T16:28:39.848Z</time>
      </trkpt>
      <trkpt lat="44.53865" lon="1.51191">
        <ele>269.97873346929</ele>
        <time>2021-03-03T16:28:43.583Z</time>
      </trkpt>
      <trkpt lat="44.53879" lon="1.51196">
        <ele>266.94723223358</ele>
        <time>2021-03-03T16:28:47.322Z</time>
      </trkpt>
      <trkpt lat="44.5391" lon="1.51203">
        <ele>263.85539668194</ele>
        <time>2021-03-03T16:28:51.071Z</time>
      </trkpt>
      <trkpt lat="44.53919" lon="1.51203">
        <ele>260.79802821656</ele>
        <time>2021-03-03T16:28:54.823Z</time>
      </trkpt>
      <trkpt lat="44.53952" lon="1.51193">
        <ele>257.66529977269</ele>
        <time>2021-03-03T16:28:58.585Z</time>
      </trkpt>
      <trkpt lat="44.53963" lon="1.51192">
        <ele>254.65781759368</ele>
        <time>2021-03-03T16:29:02.351Z</time>
      </trkpt>
      <trkpt lat="44.53984" lon="1.51193">
        <ele>251.66530135687</ele>
        <time>2021-03-03T16:29:06.123Z</time>
      </trkpt>
      <trkpt lat="44.54032" lon="1.51205">
        <ele>248.63184141599</ele>
        <time>2021-03-03T16:29:09.910Z</time>
      </trkpt>
      <trkpt lat="44.54054" lon="1.51208">
        <ele>245.84649753292</ele>
        <time>2021-03-03T16:29:13.704Z</time>
      </trkpt>
      <trkpt lat="44.54125" lon="1.51204">
        <ele>243.01066647556</ele>
        <time>2021-03-03T16:29:17.520Z</time>
      </trkpt>
      <trkpt lat="44.54155" lon="1.512">
        <ele>240.37831515075</ele>
        <time>2021-03-03T16:29:21.345Z</time>
      </trkpt>
      <trkpt lat="44.54176" lon="1.51193">
        <ele>237.89943485432</ele>
        <time>2021-03-03T16:29:25.176Z</time>
      </trkpt>
      <trkpt lat="44.54197" lon="1.51181">
        <ele>235.57635467891</ele>
        <time>2021-03-03T16:29:29.015Z</time>
      </trkpt>
      <trkpt lat="44.54199" lon="1.5117">
        <ele>233.43074338241</ele>
        <time>2021-03-03T16:29:32.856Z</time>
      </trkpt>
      <trkpt lat="44.54194" lon="1.51158">
        <ele>231.45375921226</ele>
        <time>2021-03-03T16:29:36.700Z</time>
      </trkpt>
      <trkpt lat="44.54194" lon="1.51151">
        <ele>229.62810783339</ele>
        <time>2021-03-03T16:29:40.546Z</time>
      </trkpt>
      <trkpt lat="44.54196" lon="1.51142">
        <ele>227.92779573283</ele>
        <time>2021-03-03T16:29:44.394Z</time>
      </trkpt>
      <trkpt lat="44.54219" lon="1.51149">
        <ele>226.32616095135</ele>
        <time>2021-03-03T16:29:48.249Z</time>
      </trkpt>
      <trkpt lat="44.54245" lon="1.51153">
        <ele>224.81720413259</ele>
        <time>2021-03-03T16:29:52.112Z</time>
      </trkpt>
      <trkpt lat="44.5427" lon="1.5115">
        <ele>223.4610171982</ele>
        <time>2021-03-03T16:29:55.983Z</time>
      </trkpt>
      <trkpt lat="44.54334" lon="1.51151">
        <ele>222.227047547</ele>
        <time>2021-03-03T16:29:59.873Z</time>
      </trkpt>
      <trkpt lat="44.54368" lon="1.51158">
        <ele>221.00546432304</ele>
        <time>2021-03-03T16:30:03.774Z</time>
      </trkpt>
      <trkpt lat="44.54407" lon="1.5117">
        <ele>219.85674093009</ele>
        <time>2021-03-03T16:30:07.687Z</time>
      </trkpt>
      <trkpt lat="44.54464" lon="1.5122">
        <ele>218.70349070837</ele>
        <time>2021-03-03T16:30:11.621Z</time>
      </trkpt>
      <trkpt lat="44.54472" lon="1.51223">
        <ele>217.7764941917</ele>
        <time>2021-03-03T16:30:15.557Z</time>
      </trkpt>
      <trkpt lat="44.54486" lon="1.51233">
        <ele>216.93728072204</ele>
        <time>2021-03-03T16:30:19.498Z</time>
      </trkpt>
      <trkpt lat="44.54498" lon="1.51244">
        <ele>216.18343009203</ele>
        <time>2021-03-03T16:30:23.444Z</time>
      </trkpt>
      <trkpt lat="44.54508" lon="1.51259">
        <ele>215.52610261748</ele>
        <time>2021-03-03T16:30:27.394Z</time>
      </trkpt>
      <trkpt lat="44.54522" lon="1.51284">
        <ele>214.95876290879</ele>
        <time>2021-03-03T16:30:31.351Z</time>
      </trkpt>
      <trkpt lat="44.54535" lon="1.51315">
        <ele>214.44108813574</ele>
        <time>2021-03-03T16:30:35.316Z</time>
      </trkpt>
      <trkpt lat="44.54538" lon="1.51327">
        <ele>214.06286965927</ele>
        <time>2021-03-03T16:30:39.284Z</time>
      </trkpt>
      <trkpt lat="44.54549" lon="1.51377">
        <ele>213.671405876</ele>
        <time>2021-03-03T16:30:43.263Z</time>
      </trkpt>
      <trkpt lat="44.54557" lon="1.51391">
        <ele>213.44450033973</ele>
        <time>2021-03-03T16:30:47.246Z</time>
      </trkpt>
      <trkpt lat="44.54572" lon="1.51431">
        <ele>213.30173401523</ele>
        <time>2021-03-03T16:30:51.239Z</time>
      </trkpt>
      <trkpt lat="44.54574" lon="1.51433">
        <ele>213.27486091335</ele>
        <time>2021-03-03T16:30:55.233Z</time>
      </trkpt>
      <trkpt lat="44.54595" lon="1.51427">
        <ele>213.32793574834</ele>
        <time>2021-03-03T16:30:59.234Z</time>
      </trkpt>
      <trkpt lat="44.5464" lon="1.5139">
        <ele>213.53836765908</ele>
        <time>2021-03-03T16:31:03.251Z</time>
      </trkpt>
      <trkpt lat="44.54668" lon="1.51341">
        <ele>213.80795574489</ele>
        <time>2021-03-03T16:31:07.282Z</time>
      </trkpt>
      <trkpt lat="44.54678" lon="1.51326">
        <ele>214.0644263064</ele>
        <time>2021-03-03T16:31:11.317Z</time>
      </trkpt>
      <trkpt lat="44.54691" lon="1.51316">
        <ele>214.29811432566</ele>
        <time>2021-03-03T16:31:15.357Z</time>
      </trkpt>
      <trkpt lat="44.5472" lon="1.51302">
        <ele>214.48362530564</ele>
        <time>2021-03-03T16:31:19.406Z</time>
      </trkpt>
      <trkpt lat="44.54728" lon="1.51295">
        <ele>214.79064436659</ele>
        <time>2021-03-03T16:31:23.458Z</time>
      </trkpt>
      <trkpt lat="44.5474" lon="1.51265">
        <ele>215.23692792537</ele>
        <time>2021-03-03T16:31:27.517Z</time>
      </trkpt>
      <trkpt lat="44.54753" lon="1.51241">
        <ele>215.62622048959</ele>
        <time>2021-03-03T16:31:31.583Z</time>
      </trkpt>
      <trkpt lat="44.54774" lon="1.51224">
        <ele>215.93066538622</ele>
        <time>2021-03-03T16:31:35.656Z</time>
      </trkpt>
      <trkpt lat="44.54786" lon="1.51219">
        <ele>216.16247677279</ele>
        <time>2021-03-03T16:31:39.733Z</time>
      </trkpt>
      <trkpt lat="44.54796" lon="1.5121">
        <ele>216.40672648652</ele>
        <time>2021-03-03T16:31:43.814Z</time>
      </trkpt>
      <trkpt lat="44.54825" lon="1.5117">
        <ele>216.57471310318</ele>
        <time>2021-03-03T16:31:47.908Z</time>
      </trkpt>
      <trkpt lat="44.54837" lon="1.51155">
        <ele>216.62925722432</ele>
        <time>2021-03-03T16:31:52.007Z</time>
      </trkpt>
      <trkpt lat="44.54846" lon="1.51152">
        <ele>216.6274280402</ele>
        <time>2021-03-03T16:31:56.108Z</time>
      </trkpt>
      <trkpt lat="44.54852" lon="1.51161">
        <ele>216.55921691381</ele>
        <time>2021-03-03T16:32:00.212Z</time>
      </trkpt>
      <trkpt lat="44.54864" lon="1.51189">
        <ele>216.40073905877</ele>
        <time>2021-03-03T16:32:04.323Z</time>
      </trkpt>
      <trkpt lat="44.54874" lon="1.51199">
        <ele>216.43856760673</ele>
        <time>2021-03-03T16:32:08.438Z</time>
      </trkpt>
      <trkpt lat="44.54889" lon="1.51206">
        <ele>216.53322602585</ele>
        <time>2021-03-03T16:32:12.558Z</time>
      </trkpt>
      <trkpt lat="44.54893" lon="1.51203">
        <ele>216.62572468947</ele>
        <time>2021-03-03T16:32:16.679Z</time>
      </trkpt>
      <trkpt lat="44.54897" lon="1.51197">
        <ele>216.75588553917</ele>
        <time>2021-03-03T16:32:20.802Z</time>
      </trkpt>
      <trkpt lat="44.54907" lon="1.51177">
        <ele>216.92231303562</ele>
        <time>2021-03-03T16:32:24.930Z</time>
      </trkpt>
      <trkpt lat="44.54913" lon="1.51157">
        <ele>217.17502242427</ele>
        <time>2021-03-03T16:32:29.063Z</time>
      </trkpt>
      <trkpt lat="44.54916" lon="1.51139">
        <ele>217.5198644801</ele>
        <time>2021-03-03T16:32:33.200Z</time>
      </trkpt>
      <trkpt lat="44.54894" lon="1.51087">
        <ele>218.10997061756</ele>
        <time>2021-03-03T16:32:37.351Z</time>
      </trkpt>
      <trkpt lat="44.54887" lon="1.51018">
        <ele>218.61954396333</ele>
        <time>2021-03-03T16:32:41.517Z</time>
      </trkpt>
      <trkpt lat="44.54887" lon="1.50972">
        <ele>219.04896466662</ele>
        <time>2021-03-03T16:32:45.693Z</time>
      </trkpt>
      <trkpt lat="44.54881" lon="1.50946">
        <ele>219.62405298303</ele>
        <time>2021-03-03T16:32:49.875Z</time>
      </trkpt>
      <trkpt lat="44.54882" lon="1.50924">
        <ele>220.25097294538</ele>
        <time>2021-03-03T16:32:54.062Z</time>
      </trkpt>
      <trkpt lat="44.54879" lon="1.50898">
        <ele>220.9578581146</ele>
        <time>2021-03-03T16:32:58.255Z</time>
      </trkpt>
      <trkpt lat="44.54871" lon="1.50871">
        <ele>221.70786936132</ele>
        <time>2021-03-03T16:33:02.454Z</time>
      </trkpt>
      <trkpt lat="44.5487" lon="1.50857">
        <ele>222.4499916372</ele>
        <time>2021-03-03T16:33:06.656Z</time>
      </trkpt>
      <trkpt lat="44.54885" lon="1.50806">
        <ele>223.24196918795</ele>
        <time>2021-03-03T16:33:10.870Z</time>
      </trkpt>
      <trkpt lat="44.549" lon="1.50768">
        <ele>224.06925386912</ele>
        <time>2021-03-03T16:33:15.094Z</time>
      </trkpt>
      <trkpt lat="44.54924" lon="1.50691">
        <ele>224.93969290251</ele>
        <time>2021-03-03T16:33:19.336Z</time>
      </trkpt>
      <trkpt lat="44.54939" lon="1.50661">
        <ele>225.72434879098</ele>
        <time>2021-03-03T16:33:23.586Z</time>
      </trkpt>
      <trkpt lat="44.54949" lon="1.5065">
        <ele>226.39632989335</ele>
        <time>2021-03-03T16:33:27.840Z</time>
      </trkpt>
      <trkpt lat="44.54957" lon="1.50632">
        <ele>227.1201345172</ele>
        <time>2021-03-03T16:33:32.099Z</time>
      </trkpt>
      <trkpt lat="44.54964" lon="1.50624">
        <ele>227.75768317202</ele>
        <time>2021-03-03T16:33:36.361Z</time>
      </trkpt>
      <trkpt lat="44.54995" lon="1.50596">
        <ele>228.30278813247</ele>
        <time>2021-03-03T16:33:40.634Z</time>
      </trkpt>
      <trkpt lat="44.55021" lon="1.50576">
        <ele>228.96638683842</ele>
        <time>2021-03-03T16:33:44.916Z</time>
      </trkpt>
      <trkpt lat="44.55055" lon="1.50542">
        <ele>229.62582327921</ele>
        <time>2021-03-03T16:33:49.211Z</time>
      </trkpt>
      <trkpt lat="44.55062" lon="1.50538">
        <ele>230.21697700614</ele>
        <time>2021-03-03T16:33:53.508Z</time>
      </trkpt>
      <trkpt lat="44.55076" lon="1.50536">
        <ele>230.75699298635</ele>
        <time>2021-03-03T16:33:57.810Z</time>
      </trkpt>
      <trkpt lat="44.55093" lon="1.50506">
        <ele>231.42956457678</ele>
        <time>2021-03-03T16:34:02.120Z</time>
      </trkpt>
      <trkpt lat="44.55131" lon="1.50496">
        <ele>231.82370711241</ele>
        <time>2021-03-03T16:34:06.442Z</time>
      </trkpt>
      <trkpt lat="44.55177" lon="1.50476">
        <ele>232.45249668736</ele>
        <time>2021-03-03T16:34:10.779Z</time>
      </trkpt>
      <trkpt lat="44.5522" lon="1.50437">
        <ele>233.11793405999</ele>
        <time>2021-03-03T16:34:15.132Z</time>
      </trkpt>
      <trkpt lat="44.55237" lon="1.50408">
        <ele>233.72646457096</ele>
        <time>2021-03-03T16:34:19.493Z</time>
      </trkpt>
      <trkpt lat="44.55266" lon="1.50344">
        <ele>234.3814064244</ele>
        <time>2021-03-03T16:34:23.871Z</time>
      </trkpt>
      <trkpt lat="44.553" lon="1.50221">
        <ele>234.94586135494</ele>
        <time>2021-03-03T16:34:28.278Z</time>
      </trkpt>
      <trkpt lat="44.55318" lon="1.5017">
        <ele>235.47802704734</ele>
        <time>2021-03-03T16:34:32.697Z</time>
      </trkpt>
      <trkpt lat="44.55325" lon="1.50122">
        <ele>236.10351938766</ele>
        <time>2021-03-03T16:34:37.127Z</time>
      </trkpt>
      <trkpt lat="44.5532" lon="1.50071">
        <ele>236.74650663249</ele>
        <time>2021-03-03T16:34:41.568Z</time>
      </trkpt>
      <trkpt lat="44.55312" lon="1.50042">
        <ele>237.30010403335</ele>
        <time>2021-03-03T16:34:46.016Z</time>
      </trkpt>
      <trkpt lat="44.55303" lon="1.5002">
        <ele>237.77328274447</ele>
        <time>2021-03-03T16:34:50.470Z</time>
      </trkpt>
      <trkpt lat="44.5529" lon="1.49997">
        <ele>238.2399247565</ele>
        <time>2021-03-03T16:34:54.930Z</time>
      </trkpt>
      <trkpt lat="44.55285" lon="1.49964">
        <ele>238.58787194074</ele>
        <time>2021-03-03T16:34:59.398Z</time>
      </trkpt>
      <trkpt lat="44.55285" lon="1.49925">
        <ele>238.88830872636</ele>
        <time>2021-03-03T16:35:03.874Z</time>
      </trkpt>
      <trkpt lat="44.55288" lon="1.49879">
        <ele>238.98116011186</ele>
        <time>2021-03-03T16:35:08.360Z</time>
      </trkpt>
      <trkpt lat="44.55287" lon="1.49839">
        <ele>239.11940511936</ele>
        <time>2021-03-03T16:35:12.855Z</time>
      </trkpt>
      <trkpt lat="44.5529" lon="1.49762">
        <ele>239.14806962132</ele>
        <time>2021-03-03T16:35:17.367Z</time>
      </trkpt>
      <trkpt lat="44.553" lon="1.49691">
        <ele>239.1072297194</ele>
        <time>2021-03-03T16:35:21.895Z</time>
      </trkpt>
      <trkpt lat="44.55306" lon="1.49634">
        <ele>238.92497747123</ele>
        <time>2021-03-03T16:35:26.436Z</time>
      </trkpt>
      <trkpt lat="44.55305" lon="1.49626">
        <ele>238.81845804355</ele>
        <time>2021-03-03T16:35:30.978Z</time>
      </trkpt>
      <trkpt lat="44.55294" lon="1.49574">
        <ele>238.73434568293</ele>
        <time>2021-03-03T16:35:35.532Z</time>
      </trkpt>
      <trkpt lat="44.55295" lon="1.49545">
        <ele>238.66518435698</ele>
        <time>2021-03-03T16:35:40.093Z</time>
      </trkpt>
      <trkpt lat="44.55307" lon="1.49499">
        <ele>238.50388800327</ele>
        <time>2021-03-03T16:35:44.665Z</time>
      </trkpt>
      <trkpt lat="44.55329" lon="1.49436">
        <ele>238.30613590342</ele>
        <time>2021-03-03T16:35:49.252Z</time>
      </trkpt>
      <trkpt lat="44.55331" lon="1.49422">
        <ele>238.23037897951</ele>
        <time>2021-03-03T16:35:53.842Z</time>
      </trkpt>
      <trkpt lat="44.55329" lon="1.4941">
        <ele>238.21097574589</ele>
        <time>2021-03-03T16:35:58.435Z</time>
      </trkpt>
      <trkpt lat="44.55327" lon="1.49405">
        <ele>238.25934276678</ele>
        <time>2021-03-03T16:36:03.029Z</time>
      </trkpt>
      <trkpt lat="44.55291" lon="1.49358">
        <ele>238.45931164174</ele>
        <time>2021-03-03T16:36:07.638Z</time>
      </trkpt>
      <trkpt lat="44.55291" lon="1.49354">
        <ele>238.617015744</ele>
        <time>2021-03-03T16:36:12.248Z</time>
      </trkpt>
      <trkpt lat="44.55293" lon="1.49344">
        <ele>238.80842311993</ele>
        <time>2021-03-03T16:36:16.861Z</time>
      </trkpt>
      <trkpt lat="44.55301" lon="1.4932">
        <ele>239.1125858853</ele>
        <time>2021-03-03T16:36:21.479Z</time>
      </trkpt>
      <trkpt lat="44.55314" lon="1.49293">
        <ele>239.69136829819</ele>
        <time>2021-03-03T16:36:26.105Z</time>
      </trkpt>
      <trkpt lat="44.55318" lon="1.49289">
        <ele>240.18633770998</ele>
        <time>2021-03-03T16:36:30.732Z</time>
      </trkpt>
      <trkpt lat="44.55321" lon="1.49289">
        <ele>240.72304448086</ele>
        <time>2021-03-03T16:36:35.360Z</time>
      </trkpt>
      <trkpt lat="44.55326" lon="1.4929">
        <ele>241.29622431127</ele>
        <time>2021-03-03T16:36:39.989Z</time>
      </trkpt>
      <trkpt lat="44.55351" lon="1.49307">
        <ele>241.75613689681</ele>
        <time>2021-03-03T16:36:44.627Z</time>
      </trkpt>
      <trkpt lat="44.55364" lon="1.49302">
        <ele>242.43434557092</ele>
        <time>2021-03-03T16:36:49.269Z</time>
      </trkpt>
      <trkpt lat="44.55411" lon="1.49188">
        <ele>243.66220514606</ele>
        <time>2021-03-03T16:36:53.940Z</time>
      </trkpt>
      <trkpt lat="44.55434" lon="1.49117">
        <ele>244.66942137411</ele>
        <time>2021-03-03T16:36:58.628Z</time>
      </trkpt>
      <trkpt lat="44.55481" lon="1.49018">
        <ele>245.07588428344</ele>
        <time>2021-03-03T16:37:03.342Z</time>
      </trkpt>
      <trkpt lat="44.55487" lon="1.48991">
        <ele>245.69961358313</ele>
        <time>2021-03-03T16:37:08.063Z</time>
      </trkpt>
      <trkpt lat="44.5549" lon="1.48985">
        <ele>246.36368463939</ele>
        <time>2021-03-03T16:37:12.785Z</time>
      </trkpt>
      <trkpt lat="44.55499" lon="1.48976">
        <ele>246.95072591726</ele>
        <time>2021-03-03T16:37:17.511Z</time>
      </trkpt>
      <trkpt lat="44.55529" lon="1.48967">
        <ele>247.48145932805</ele>
        <time>2021-03-03T16:37:22.246Z</time>
      </trkpt>
      <trkpt lat="44.55573" lon="1.48944">
        <ele>248.38192317415</ele>
        <time>2021-03-03T16:37:26.996Z</time>
      </trkpt>
      <trkpt lat="44.55586" lon="1.48933">
        <ele>249.1277140752</ele>
        <time>2021-03-03T16:37:31.750Z</time>
      </trkpt>
      <trkpt lat="44.55619" lon="1.4891">
        <ele>249.86642768179</ele>
        <time>2021-03-03T16:37:36.516Z</time>
      </trkpt>
      <trkpt lat="44.55631" lon="1.48899">
        <ele>250.59089488218</ele>
        <time>2021-03-03T16:37:41.286Z</time>
      </trkpt>
      <trkpt lat="44.55645" lon="1.48882">
        <ele>251.34646327136</ele>
        <time>2021-03-03T16:37:46.062Z</time>
      </trkpt>
      <trkpt lat="44.55658" lon="1.48871">
        <ele>251.98462090383</ele>
        <time>2021-03-03T16:37:50.842Z</time>
      </trkpt>
      <trkpt lat="44.55736" lon="1.48821">
        <ele>252.40662981218</ele>
        <time>2021-03-03T16:37:55.649Z</time>
      </trkpt>
      <trkpt lat="44.55762" lon="1.48801">
        <ele>253.01469485813</ele>
        <time>2021-03-03T16:38:00.465Z</time>
      </trkpt>
      <trkpt lat="44.55781" lon="1.48779">
        <ele>253.63589659307</ele>
        <time>2021-03-03T16:38:05.289Z</time>
      </trkpt>
      <trkpt lat="44.55812" lon="1.48726">
        <ele>254.19612161935</ele>
        <time>2021-03-03T16:38:10.128Z</time>
      </trkpt>
      <trkpt lat="44.55847" lon="1.48681">
        <ele>254.6941593129</ele>
        <time>2021-03-03T16:38:14.981Z</time>
      </trkpt>
      <trkpt lat="44.55902" lon="1.48617">
        <ele>255.0889814156</ele>
        <time>2021-03-03T16:38:19.856Z</time>
      </trkpt>
      <trkpt lat="44.5591" lon="1.48615">
        <ele>255.50680430533</ele>
        <time>2021-03-03T16:38:24.734Z</time>
      </trkpt>
      <trkpt lat="44.55922" lon="1.4863">
        <ele>255.89165660935</ele>
        <time>2021-03-03T16:38:29.617Z</time>
      </trkpt>
      <trkpt lat="44.55936" lon="1.48654">
        <ele>256.36448889956</ele>
        <time>2021-03-03T16:38:34.507Z</time>
      </trkpt>
      <trkpt lat="44.55937" lon="1.48661">
        <ele>256.88429992065</ele>
        <time>2021-03-03T16:38:39.398Z</time>
      </trkpt>
      <trkpt lat="44.55935" lon="1.48676">
        <ele>257.4213645313</ele>
        <time>2021-03-03T16:38:44.293Z</time>
      </trkpt>
      <trkpt lat="44.5593" lon="1.48692">
        <ele>258.0090466131</ele>
        <time>2021-03-03T16:38:49.191Z</time>
      </trkpt>
      <trkpt lat="44.55944" lon="1.48703">
        <ele>258.64224555963</ele>
        <time>2021-03-03T16:38:54.094Z</time>
      </trkpt>
      <trkpt lat="44.55958" lon="1.48699">
        <ele>259.30906591912</ele>
        <time>2021-03-03T16:38:59.002Z</time>
      </trkpt>
      <trkpt lat="44.5603" lon="1.4865">
        <ele>260.21859056109</ele>
        <time>2021-03-03T16:39:03.934Z</time>
      </trkpt>
      <trkpt lat="44.56069" lon="1.48631">
        <ele>261.06247564539</ele>
        <time>2021-03-03T16:39:08.879Z</time>
      </trkpt>
      <trkpt lat="44.56105" lon="1.48623">
        <ele>261.82829090458</ele>
        <time>2021-03-03T16:39:13.835Z</time>
      </trkpt>
      <trkpt lat="44.56175" lon="1.48614">
        <ele>262.51698356803</ele>
        <time>2021-03-03T16:39:18.813Z</time>
      </trkpt>
      <trkpt lat="44.56197" lon="1.48617">
        <ele>263.16691012572</ele>
        <time>2021-03-03T16:39:23.798Z</time>
      </trkpt>
      <trkpt lat="44.56221" lon="1.48625">
        <ele>263.67727807521</ele>
        <time>2021-03-03T16:39:28.790Z</time>
      </trkpt>
      <trkpt lat="44.56226" lon="1.48629">
        <ele>264.10352765289</ele>
        <time>2021-03-03T16:39:33.784Z</time>
      </trkpt>
      <trkpt lat="44.56238" lon="1.48647">
        <ele>264.38103669163</ele>
        <time>2021-03-03T16:39:38.784Z</time>
      </trkpt>
      <trkpt lat="44.56253" lon="1.48664">
        <ele>264.56857746729</ele>
        <time>2021-03-03T16:39:43.789Z</time>
      </trkpt>
      <trkpt lat="44.56264" lon="1.48673">
        <ele>264.74767128108</ele>
        <time>2021-03-03T16:39:48.798Z</time>
      </trkpt>
      <trkpt lat="44.56276" lon="1.48678">
        <ele>264.87747921256</ele>
        <time>2021-03-03T16:39:53.811Z</time>
      </trkpt>
      <trkpt lat="44.56287" lon="1.48681">
        <ele>264.92703587368</ele>
        <time>2021-03-03T16:39:58.828Z</time>
      </trkpt>
      <trkpt lat="44.56309" lon="1.48682">
        <ele>264.95400096206</ele>
        <time>2021-03-03T16:40:03.851Z</time>
      </trkpt>
      <trkpt lat="44.56331" lon="1.48679">
        <ele>264.85500409812</ele>
        <time>2021-03-03T16:40:08.881Z</time>
      </trkpt>
      <trkpt lat="44.56342" lon="1.48681">
        <ele>264.66274386747</ele>
        <time>2021-03-03T16:40:13.915Z</time>
      </trkpt>
      <trkpt lat="44.56356" lon="1.48694">
        <ele>264.3010407175</ele>
        <time>2021-03-03T16:40:18.954Z</time>
      </trkpt>
      <trkpt lat="44.56365" lon="1.48716">
        <ele>264.01128162384</ele>
        <time>2021-03-03T16:40:23.998Z</time>
      </trkpt>
      <trkpt lat="44.56367" lon="1.48733">
        <ele>263.68401282552</ele>
        <time>2021-03-03T16:40:29.046Z</time>
      </trkpt>
      <trkpt lat="44.56357" lon="1.48747">
        <ele>263.2792704803</ele>
        <time>2021-03-03T16:40:34.099Z</time>
      </trkpt>
      <trkpt lat="44.56343" lon="1.48753">
        <ele>262.83655041904</ele>
        <time>2021-03-03T16:40:39.156Z</time>
      </trkpt>
      <trkpt lat="44.56335" lon="1.48752">
        <ele>262.31060249404</ele>
        <time>2021-03-03T16:40:44.215Z</time>
      </trkpt>
      <trkpt lat="44.56244" lon="1.48755">
        <ele>261.79427879027</ele>
        <time>2021-03-03T16:40:49.302Z</time>
      </trkpt>
      <trkpt lat="44.56212" lon="1.48746">
        <ele>261.20602743346</ele>
        <time>2021-03-03T16:40:54.400Z</time>
      </trkpt>
      <trkpt lat="44.5616" lon="1.48724">
        <ele>260.44562350276</ele>
        <time>2021-03-03T16:40:59.514Z</time>
      </trkpt>
      <trkpt lat="44.56126" lon="1.48723">
        <ele>259.59269666757</ele>
        <time>2021-03-03T16:41:04.639Z</time>
      </trkpt>
      <trkpt lat="44.56111" lon="1.48725">
        <ele>258.75772883403</ele>
        <time>2021-03-03T16:41:09.768Z</time>
      </trkpt>
      <trkpt lat="44.56039" lon="1.48763">
        <ele>257.89824596381</ele>
        <time>2021-03-03T16:41:14.921Z</time>
      </trkpt>
      <trkpt lat="44.55976" lon="1.48804">
        <ele>256.87145217187</ele>
        <time>2021-03-03T16:41:20.095Z</time>
      </trkpt>
      <trkpt lat="44.55901" lon="1.48846">
        <ele>256.07995075913</ele>
        <time>2021-03-03T16:41:25.294Z</time>
      </trkpt>
      <trkpt lat="44.55871" lon="1.48854">
        <ele>255.03484700675</ele>
        <time>2021-03-03T16:41:30.503Z</time>
      </trkpt>
      <trkpt lat="44.55862" lon="1.48854">
        <ele>254.0231350515</ele>
        <time>2021-03-03T16:41:35.715Z</time>
      </trkpt>
      <trkpt lat="44.55854" lon="1.48851">
        <ele>253.03465476985</ele>
        <time>2021-03-03T16:41:40.929Z</time>
      </trkpt>
      <trkpt lat="44.55844" lon="1.48852">
        <ele>252.05063417474</ele>
        <time>2021-03-03T16:41:46.146Z</time>
      </trkpt>
      <trkpt lat="44.55817" lon="1.48874">
        <ele>251.13225630706</ele>
        <time>2021-03-03T16:41:51.373Z</time>
      </trkpt>
      <trkpt lat="44.55794" lon="1.48899">
        <ele>250.21967371823</ele>
        <time>2021-03-03T16:41:56.609Z</time>
      </trkpt>
      <trkpt lat="44.55775" lon="1.48922">
        <ele>249.30596528416</ele>
        <time>2021-03-03T16:42:01.852Z</time>
      </trkpt>
      <trkpt lat="44.55751" lon="1.48943">
        <ele>248.41691420691</ele>
        <time>2021-03-03T16:42:07.104Z</time>
      </trkpt>
      <trkpt lat="44.55713" lon="1.48972">
        <ele>247.45930960451</ele>
        <time>2021-03-03T16:42:12.370Z</time>
      </trkpt>
      <trkpt lat="44.55671" lon="1.49013">
        <ele>246.63387904589</ele>
        <time>2021-03-03T16:42:17.651Z</time>
      </trkpt>
      <trkpt lat="44.5566" lon="1.49021">
        <ele>245.9533579426</ele>
        <time>2021-03-03T16:42:22.936Z</time>
      </trkpt>
      <trkpt lat="44.55629" lon="1.4904">
        <ele>245.40914948805</ele>
        <time>2021-03-03T16:42:28.232Z</time>
      </trkpt>
      <trkpt lat="44.556" lon="1.49053">
        <ele>244.79743351652</ele>
        <time>2021-03-03T16:42:33.537Z</time>
      </trkpt>
      <trkpt lat="44.55565" lon="1.49074">
        <ele>244.11455500868</ele>
        <time>2021-03-03T16:42:38.853Z</time>
      </trkpt>
      <trkpt lat="44.5556" lon="1.49079">
        <ele>243.51370578983</ele>
        <time>2021-03-03T16:42:44.171Z</time>
      </trkpt>
      <trkpt lat="44.55548" lon="1.49098">
        <ele>243.01313678149</ele>
        <time>2021-03-03T16:42:49.495Z</time>
      </trkpt>
      <trkpt lat="44.55526" lon="1.49159">
        <ele>242.64426168449</ele>
        <time>2021-03-03T16:42:54.834Z</time>
      </trkpt>
      <trkpt lat="44.55481" lon="1.49267">
        <ele>242.05356225451</ele>
        <time>2021-03-03T16:43:00.200Z</time>
      </trkpt>
      <trkpt lat="44.55428" lon="1.4939">
        <ele>241.49629995534</ele>
        <time>2021-03-03T16:43:05.598Z</time>
      </trkpt>
      <trkpt lat="44.55423" lon="1.49399">
        <ele>240.91404997546</ele>
        <time>2021-03-03T16:43:10.999Z</time>
      </trkpt>
      <trkpt lat="44.55411" lon="1.49412">
        <ele>240.27852987834</ele>
        <time>2021-03-03T16:43:16.404Z</time>
      </trkpt>
      <trkpt lat="44.55405" lon="1.49415">
        <ele>239.67844004653</ele>
        <time>2021-03-03T16:43:21.811Z</time>
      </trkpt>
      <trkpt lat="44.55395" lon="1.49417">
        <ele>239.02995179982</ele>
        <time>2021-03-03T16:43:27.221Z</time>
      </trkpt>
      <trkpt lat="44.55388" lon="1.49424">
        <ele>238.4489541472</ele>
        <time>2021-03-03T16:43:32.634Z</time>
      </trkpt>
      <trkpt lat="44.55387" lon="1.49436">
        <ele>237.93765495225</ele>
        <time>2021-03-03T16:43:38.050Z</time>
      </trkpt>
      <trkpt lat="44.55397" lon="1.49485">
        <ele>237.57242643956</ele>
        <time>2021-03-03T16:43:43.477Z</time>
      </trkpt>
      <trkpt lat="44.55395" lon="1.49526">
        <ele>237.10468680388</ele>
        <time>2021-03-03T16:43:48.913Z</time>
      </trkpt>
      <trkpt lat="44.55385" lon="1.49584">
        <ele>236.68037346495</ele>
        <time>2021-03-03T16:43:54.362Z</time>
      </trkpt>
      <trkpt lat="44.55374" lon="1.49632">
        <ele>236.27561581615</ele>
        <time>2021-03-03T16:43:59.822Z</time>
      </trkpt>
      <trkpt lat="44.55367" lon="1.49657">
        <ele>235.83514371633</ele>
        <time>2021-03-03T16:44:05.288Z</time>
      </trkpt>
      <trkpt lat="44.55351" lon="1.49694">
        <ele>235.4302796328</ele>
        <time>2021-03-03T16:44:10.763Z</time>
      </trkpt>
      <trkpt lat="44.55345" lon="1.49714">
        <ele>235.09594164754</ele>
        <time>2021-03-03T16:44:16.243Z</time>
      </trkpt>
      <trkpt lat="44.55339" lon="1.49735">
        <ele>234.81147705973</ele>
        <time>2021-03-03T16:44:21.728Z</time>
      </trkpt>
      <trkpt lat="44.55333" lon="1.4978">
        <ele>234.60952964733</ele>
        <time>2021-03-03T16:44:27.223Z</time>
      </trkpt>
      <trkpt lat="44.55332" lon="1.49813">
        <ele>234.53688645271</ele>
        <time>2021-03-03T16:44:32.726Z</time>
      </trkpt>
      <trkpt lat="44.55336" lon="1.49867">
        <ele>234.62291321466</ele>
        <time>2021-03-03T16:44:38.241Z</time>
      </trkpt>
      <trkpt lat="44.55347" lon="1.49943">
        <ele>234.90179476966</ele>
        <time>2021-03-03T16:44:43.773Z</time>
      </trkpt>
      <trkpt lat="44.55345" lon="1.50027">
        <ele>235.21211907137</ele>
        <time>2021-03-03T16:44:49.323Z</time>
      </trkpt>
      <trkpt lat="44.55348" lon="1.50059">
        <ele>235.8025789675</ele>
        <time>2021-03-03T16:44:54.880Z</time>
      </trkpt>
      <trkpt lat="44.55357" lon="1.50097">
        <ele>236.42202796634</ele>
        <time>2021-03-03T16:45:00.446Z</time>
      </trkpt>
      <trkpt lat="44.55387" lon="1.50179">
        <ele>237.29295061121</ele>
        <time>2021-03-03T16:45:06.032Z</time>
      </trkpt>
      <trkpt lat="44.55395" lon="1.50197">
        <ele>238.3199542352</ele>
        <time>2021-03-03T16:45:11.623Z</time>
      </trkpt>
      <trkpt lat="44.55405" lon="1.50205">
        <ele>239.58203746932</ele>
        <time>2021-03-03T16:45:17.218Z</time>
      </trkpt>
      <trkpt lat="44.55422" lon="1.50209">
        <ele>241.0665536999</ele>
        <time>2021-03-03T16:45:22.818Z</time>
      </trkpt>
      <trkpt lat="44.55432" lon="1.50216">
        <ele>242.60916507442</ele>
        <time>2021-03-03T16:45:28.421Z</time>
      </trkpt>
      <trkpt lat="44.55459" lon="1.50243">
        <ele>244.3885064901</ele>
        <time>2021-03-03T16:45:34.035Z</time>
      </trkpt>
      <trkpt lat="44.55469" lon="1.50259">
        <ele>246.20292997273</ele>
        <time>2021-03-03T16:45:39.653Z</time>
      </trkpt>
      <trkpt lat="44.55483" lon="1.50291">
        <ele>248.18219399675</ele>
        <time>2021-03-03T16:45:45.279Z</time>
      </trkpt>
      <trkpt lat="44.55497" lon="1.50312">
        <ele>250.24140758182</ele>
        <time>2021-03-03T16:45:50.912Z</time>
      </trkpt>
      <trkpt lat="44.55523" lon="1.50345">
        <ele>252.37668533345</ele>
        <time>2021-03-03T16:45:56.556Z</time>
      </trkpt>
      <trkpt lat="44.55541" lon="1.50358">
        <ele>254.55736003115</ele>
        <time>2021-03-03T16:46:02.206Z</time>
      </trkpt>
      <trkpt lat="44.55549" lon="1.50361">
        <ele>256.70168415852</ele>
        <time>2021-03-03T16:46:07.858Z</time>
      </trkpt>
      <trkpt lat="44.55554" lon="1.50367">
        <ele>258.86387163041</ele>
        <time>2021-03-03T16:46:13.512Z</time>
      </trkpt>
      <trkpt lat="44.55555" lon="1.50372">
        <ele>261.00884243353</ele>
        <time>2021-03-03T16:46:19.168Z</time>
      </trkpt>
      <trkpt lat="44.55554" lon="1.50376">
        <ele>263.1523958032</ele>
        <time>2021-03-03T16:46:24.825Z</time>
      </trkpt>
      <trkpt lat="44.55548" lon="1.50382">
        <ele>265.30601917399</ele>
        <time>2021-03-03T16:46:30.484Z</time>
      </trkpt>
      <trkpt lat="44.55541" lon="1.50387">
        <ele>267.52777704852</ele>
        <time>2021-03-03T16:46:36.145Z</time>
      </trkpt>
      <trkpt lat="44.55505" lon="1.504">
        <ele>269.86156146192</ele>
        <time>2021-03-03T16:46:41.818Z</time>
      </trkpt>
      <trkpt lat="44.55488" lon="1.50402">
        <ele>272.23845593815</ele>
        <time>2021-03-03T16:46:47.496Z</time>
      </trkpt>
      <trkpt lat="44.55476" lon="1.504">
        <ele>274.60128414511</ele>
        <time>2021-03-03T16:46:53.177Z</time>
      </trkpt>
      <trkpt lat="44.55475" lon="1.50405">
        <ele>277.08248747559</ele>
        <time>2021-03-03T16:46:58.860Z</time>
      </trkpt>
      <trkpt lat="44.5551" lon="1.50427">
        <ele>279.7757489083</ele>
        <time>2021-03-03T16:47:04.555Z</time>
      </trkpt>
      <trkpt lat="44.55523" lon="1.50432">
        <ele>282.3892830714</ele>
        <time>2021-03-03T16:47:10.254Z</time>
      </trkpt>
      <trkpt lat="44.55553" lon="1.50451">
        <ele>285.32411202489</ele>
        <time>2021-03-03T16:47:15.963Z</time>
      </trkpt>
      <trkpt lat="44.55556" lon="1.50455">
        <ele>288.0832610409</ele>
        <time>2021-03-03T16:47:21.673Z</time>
      </trkpt>
      <trkpt lat="44.55571" lon="1.5046">
        <ele>290.94688258665</ele>
        <time>2021-03-03T16:47:27.388Z</time>
      </trkpt>
      <trkpt lat="44.556" lon="1.50466">
        <ele>293.91201108592</ele>
        <time>2021-03-03T16:47:33.112Z</time>
      </trkpt>
      <trkpt lat="44.55616" lon="1.50464">
        <ele>296.79597033966</ele>
        <time>2021-03-03T16:47:38.841Z</time>
      </trkpt>
      <trkpt lat="44.55644" lon="1.50456">
        <ele>299.78561946055</ele>
        <time>2021-03-03T16:47:44.579Z</time>
      </trkpt>
      <trkpt lat="44.55653" lon="1.50457">
        <ele>302.69534375976</ele>
        <time>2021-03-03T16:47:50.320Z</time>
      </trkpt>
      <trkpt lat="44.55668" lon="1.50455">
        <ele>305.66794275024</ele>
        <time>2021-03-03T16:47:56.065Z</time>
      </trkpt>
      <trkpt lat="44.55685" lon="1.50447">
        <ele>308.57365891921</ele>
        <time>2021-03-03T16:48:01.815Z</time>
      </trkpt>
      <trkpt lat="44.55718" lon="1.50442">
        <ele>311.48344379058</ele>
        <time>2021-03-03T16:48:07.576Z</time>
      </trkpt>
      <trkpt lat="44.5577" lon="1.5036">
        <ele>314.43741396962</ele>
        <time>2021-03-03T16:48:13.361Z</time>
      </trkpt>
      <trkpt lat="44.55782" lon="1.50344">
        <ele>317.33883196064</ele>
        <time>2021-03-03T16:48:19.151Z</time>
      </trkpt>
      <trkpt lat="44.55798" lon="1.5033">
        <ele>320.24389378688</ele>
        <time>2021-03-03T16:48:24.947Z</time>
      </trkpt>
      <trkpt lat="44.5585" lon="1.50264">
        <ele>323.27188625925</ele>
        <time>2021-03-03T16:48:30.764Z</time>
      </trkpt>
      <trkpt lat="44.55869" lon="1.50244">
        <ele>326.12204665173</ele>
        <time>2021-03-03T16:48:36.589Z</time>
      </trkpt>
      <trkpt lat="44.55908" lon="1.50207">
        <ele>328.98425610381</ele>
        <time>2021-03-03T16:48:42.428Z</time>
      </trkpt>
      <trkpt lat="44.55933" lon="1.50185">
        <ele>331.63182706183</ele>
        <time>2021-03-03T16:48:48.276Z</time>
      </trkpt>
      <trkpt lat="44.55946" lon="1.50168">
        <ele>334.19920336744</ele>
        <time>2021-03-03T16:48:54.130Z</time>
      </trkpt>
      <trkpt lat="44.55952" lon="1.50164">
        <ele>336.60637167941</ele>
        <time>2021-03-03T16:48:59.986Z</time>
      </trkpt>
      <trkpt lat="44.55985" lon="1.50132">
        <ele>338.9710091089</ele>
        <time>2021-03-03T16:49:05.854Z</time>
      </trkpt>
      <trkpt lat="44.55998" lon="1.50114">
        <ele>341.16316083135</ele>
        <time>2021-03-03T16:49:11.728Z</time>
      </trkpt>
      <trkpt lat="44.56014" lon="1.50097">
        <ele>343.20384216895</ele>
        <time>2021-03-03T16:49:17.608Z</time>
      </trkpt>
      <trkpt lat="44.56032" lon="1.50071">
        <ele>345.1871478896</ele>
        <time>2021-03-03T16:49:23.496Z</time>
      </trkpt>
      <trkpt lat="44.56049" lon="1.50044">
        <ele>347.03423140489</ele>
        <time>2021-03-03T16:49:29.392Z</time>
      </trkpt>
      <trkpt lat="44.56062" lon="1.5002">
        <ele>348.76190134554</ele>
        <time>2021-03-03T16:49:35.294Z</time>
      </trkpt>
      <trkpt lat="44.56065" lon="1.50016">
        <ele>350.25018495351</ele>
        <time>2021-03-03T16:49:41.198Z</time>
      </trkpt>
      <trkpt lat="44.56067" lon="1.50011">
        <ele>351.5881131909</ele>
        <time>2021-03-03T16:49:47.103Z</time>
      </trkpt>
      <trkpt lat="44.56068" lon="1.50011">
        <ele>352.76515033262</ele>
        <time>2021-03-03T16:49:53.009Z</time>
      </trkpt>
      <trkpt lat="44.56064" lon="1.50015">
        <ele>353.77598834234</ele>
        <time>2021-03-03T16:49:58.916Z</time>
      </trkpt>
      <trkpt lat="44.56068" lon="1.50012">
        <ele>354.64897967159</ele>
        <time>2021-03-03T16:50:04.824Z</time>
      </trkpt>
      <trkpt lat="44.56063" lon="1.50013">
        <ele>355.3451261536</ele>
        <time>2021-03-03T16:50:10.734Z</time>
      </trkpt>
      <trkpt lat="44.56061" lon="1.5002">
        <ele>355.87248244209</ele>
        <time>2021-03-03T16:50:16.645Z</time>
      </trkpt>
      <trkpt lat="44.56077" lon="1.49997">
        <ele>356.31574958589</ele>
        <time>2021-03-03T16:50:22.563Z</time>
      </trkpt>
      <trkpt lat="44.56077" lon="1.49997">
        <ele>356.50502478442</ele>
        <time>2021-03-03T16:50:28.481Z</time>
      </trkpt>
      <trkpt lat="44.56088" lon="1.49989">
        <ele>356.33978203161</ele>
        <time>2021-03-03T16:50:34.403Z</time>
      </trkpt>
      <trkpt lat="44.56095" lon="1.49982">
        <ele>355.94507322252</ele>
        <time>2021-03-03T16:50:40.328Z</time>
      </trkpt>
      <trkpt lat="44.56106" lon="1.49975">
        <ele>355.35041856756</ele>
        <time>2021-03-03T16:50:46.257Z</time>
      </trkpt>
      <trkpt lat="44.56127" lon="1.49976">
        <ele>354.50625051189</ele>
        <time>2021-03-03T16:50:52.192Z</time>
      </trkpt>
      <trkpt lat="44.56136" lon="1.49978">
        <ele>353.41049612199</ele>
        <time>2021-03-03T16:50:58.130Z</time>
      </trkpt>
      <trkpt lat="44.56155" lon="1.49985">
        <ele>352.08079342331</ele>
        <time>2021-03-03T16:51:04.074Z</time>
      </trkpt>
      <trkpt lat="44.5626" lon="1.50031">
        <ele>350.38924691548</ele>
        <time>2021-03-03T16:51:10.052Z</time>
      </trkpt>
      <trkpt lat="44.56312" lon="1.50062">
        <ele>348.53185564302</ele>
        <time>2021-03-03T16:51:16.047Z</time>
      </trkpt>
      <trkpt lat="44.56388" lon="1.5012">
        <ele>346.32017250588</ele>
        <time>2021-03-03T16:51:22.069Z</time>
      </trkpt>
      <trkpt lat="44.56387" lon="1.50136">
        <ele>344.08031314865</ele>
        <time>2021-03-03T16:51:28.094Z</time>
      </trkpt>
      <trkpt lat="44.56379" lon="1.50168">
        <ele>341.55802709747</ele>
        <time>2021-03-03T16:51:34.127Z</time>
      </trkpt>
      <trkpt lat="44.56366" lon="1.50197">
        <ele>338.68836934134</ele>
        <time>2021-03-03T16:51:40.167Z</time>
      </trkpt>
      <trkpt lat="44.56364" lon="1.50213">
        <ele>335.71214875253</ele>
        <time>2021-03-03T16:51:46.211Z</time>
      </trkpt>
      <trkpt lat="44.56367" lon="1.50252">
        <ele>332.46856506071</ele>
        <time>2021-03-03T16:51:52.264Z</time>
      </trkpt>
      <trkpt lat="44.56365" lon="1.50264">
        <ele>329.20671016273</ele>
        <time>2021-03-03T16:51:58.319Z</time>
      </trkpt>
      <trkpt lat="44.56368" lon="1.50294">
        <ele>325.75409602966</ele>
        <time>2021-03-03T16:52:04.381Z</time>
      </trkpt>
      <trkpt lat="44.56371" lon="1.50305">
        <ele>322.32906564365</ele>
        <time>2021-03-03T16:52:10.445Z</time>
      </trkpt>
      <trkpt lat="44.56371" lon="1.50318">
        <ele>318.78940614487</ele>
        <time>2021-03-03T16:52:16.512Z</time>
      </trkpt>
      <trkpt lat="44.56381" lon="1.50341">
        <ele>315.22092398929</ele>
        <time>2021-03-03T16:52:22.585Z</time>
      </trkpt>
      <trkpt lat="44.56391" lon="1.50353">
        <ele>311.73847228292</ele>
        <time>2021-03-03T16:52:28.662Z</time>
      </trkpt>
      <trkpt lat="44.56402" lon="1.50372">
        <ele>308.29903616261</ele>
        <time>2021-03-03T16:52:34.745Z</time>
      </trkpt>
      <trkpt lat="44.56403" lon="1.50384">
        <ele>304.84058186798</ele>
        <time>2021-03-03T16:52:40.830Z</time>
      </trkpt>
      <trkpt lat="44.56393" lon="1.50415">
        <ele>301.31182330554</ele>
        <time>2021-03-03T16:52:46.923Z</time>
      </trkpt>
      <trkpt lat="44.56356" lon="1.50476">
        <ele>297.73358556211</ele>
        <time>2021-03-03T16:52:53.033Z</time>
      </trkpt>
      <trkpt lat="44.56355" lon="1.50481">
        <ele>294.59122029619</ele>
        <time>2021-03-03T16:52:59.145Z</time>
      </trkpt>
      <trkpt lat="44.56352" lon="1.50499">
        <ele>291.58513989151</ele>
        <time>2021-03-03T16:53:05.261Z</time>
      </trkpt>
      <trkpt lat="44.56355" lon="1.50527">
        <ele>288.73086546922</ele>
        <time>2021-03-03T16:53:11.383Z</time>
      </trkpt>
      <trkpt lat="44.56374" lon="1.50566">
        <ele>286.06205150833</ele>
        <time>2021-03-03T16:53:17.515Z</time>
      </trkpt>
      <trkpt lat="44.56405" lon="1.50607">
        <ele>283.70940382553</ele>
        <time>2021-03-03T16:53:23.661Z</time>
      </trkpt>
      <trkpt lat="44.56417" lon="1.50629">
        <ele>281.59419729059</ele>
        <time>2021-03-03T16:53:29.812Z</time>
      </trkpt>
      <trkpt lat="44.5642" lon="1.50631">
        <ele>279.83755008332</ele>
        <time>2021-03-03T16:53:35.965Z</time>
      </trkpt>
      <trkpt lat="44.56434" lon="1.50662">
        <ele>278.17854411113</ele>
        <time>2021-03-03T16:53:42.126Z</time>
      </trkpt>
      <trkpt lat="44.56467" lon="1.50713">
        <ele>276.80199350058</ele>
        <time>2021-03-03T16:53:48.302Z</time>
      </trkpt>
      <trkpt lat="44.56468" lon="1.50765">
        <ele>275.9537751778</ele>
        <time>2021-03-03T16:53:54.489Z</time>
      </trkpt>
      <trkpt lat="44.5647" lon="1.50785">
        <ele>275.47223733622</ele>
        <time>2021-03-03T16:54:00.681Z</time>
      </trkpt>
      <trkpt lat="44.56484" lon="1.50864">
        <ele>275.50046878354</ele>
        <time>2021-03-03T16:54:06.890Z</time>
      </trkpt>
      <trkpt lat="44.56502" lon="1.5093">
        <ele>275.53824323551</ele>
        <time>2021-03-03T16:54:13.115Z</time>
      </trkpt>
      <trkpt lat="44.56513" lon="1.50982">
        <ele>275.75994949291</ele>
        <time>2021-03-03T16:54:19.352Z</time>
      </trkpt>
      <trkpt lat="44.56516" lon="1.51015">
        <ele>276.29120196179</ele>
        <time>2021-03-03T16:54:25.596Z</time>
      </trkpt>
      <trkpt lat="44.56521" lon="1.51039">
        <ele>277.10053693171</ele>
        <time>2021-03-03T16:54:31.846Z</time>
      </trkpt>
      <trkpt lat="44.56519" lon="1.51073">
        <ele>278.1135861934</ele>
        <time>2021-03-03T16:54:38.103Z</time>
      </trkpt>
      <trkpt lat="44.56516" lon="1.5109">
        <ele>279.33943960368</ele>
        <time>2021-03-03T16:54:44.364Z</time>
      </trkpt>
      <trkpt lat="44.56516" lon="1.51097">
        <ele>280.70248951143</ele>
        <time>2021-03-03T16:54:50.627Z</time>
      </trkpt>
      <trkpt lat="44.5652" lon="1.51103">
        <ele>282.22195344054</ele>
        <time>2021-03-03T16:54:56.892Z</time>
      </trkpt>
      <trkpt lat="44.56523" lon="1.51101">
        <ele>283.86635971566</ele>
        <time>2021-03-03T16:55:03.158Z</time>
      </trkpt>
      <trkpt lat="44.56536" lon="1.5109">
        <ele>285.64165814216</ele>
        <time>2021-03-03T16:55:09.428Z</time>
      </trkpt>
      <trkpt lat="44.56557" lon="1.51067">
        <ele>287.63414959982</ele>
        <time>2021-03-03T16:55:15.706Z</time>
      </trkpt>
      <trkpt lat="44.56564" lon="1.51066">
        <ele>289.73104645362</ele>
        <time>2021-03-03T16:55:21.987Z</time>
      </trkpt>
      <trkpt lat="44.56568" lon="1.51069">
        <ele>291.92999079284</ele>
        <time>2021-03-03T16:55:28.269Z</time>
      </trkpt>
      <trkpt lat="44.5657" lon="1.51075">
        <ele>294.22302019521</ele>
        <time>2021-03-03T16:55:34.552Z</time>
      </trkpt>
      <trkpt lat="44.56571" lon="1.51079">
        <ele>296.5961796807</ele>
        <time>2021-03-03T16:55:40.836Z</time>
      </trkpt>
      <trkpt lat="44.56565" lon="1.51091">
        <ele>299.05734579139</ele>
        <time>2021-03-03T16:55:47.124Z</time>
      </trkpt>
      <trkpt lat="44.5654" lon="1.5112">
        <ele>301.5958539119</ele>
        <time>2021-03-03T16:55:53.422Z</time>
      </trkpt>
      <trkpt lat="44.56495" lon="1.51158">
        <ele>304.41715242345</ele>
        <time>2021-03-03T16:55:59.736Z</time>
      </trkpt>
      <trkpt lat="44.56453" lon="1.51183">
        <ele>307.30191408661</ele>
        <time>2021-03-03T16:56:06.064Z</time>
      </trkpt>
      <trkpt lat="44.56433" lon="1.51189">
        <ele>309.98064563074</ele>
        <time>2021-03-03T16:56:12.398Z</time>
      </trkpt>
      <trkpt lat="44.56417" lon="1.51199">
        <ele>312.59987048285</ele>
        <time>2021-03-03T16:56:18.737Z</time>
      </trkpt>
      <trkpt lat="44.56388" lon="1.51245">
        <ele>315.24529897831</ele>
        <time>2021-03-03T16:56:25.090Z</time>
      </trkpt>
      <trkpt lat="44.56382" lon="1.51245">
        <ele>317.59185728115</ele>
        <time>2021-03-03T16:56:31.445Z</time>
      </trkpt>
      <trkpt lat="44.56378" lon="1.51243">
        <ele>319.81206282855</ele>
        <time>2021-03-03T16:56:37.801Z</time>
      </trkpt>
      <trkpt lat="44.56377" lon="1.51241">
        <ele>321.89745982035</ele>
        <time>2021-03-03T16:56:44.158Z</time>
      </trkpt>
      <trkpt lat="44.56378" lon="1.51231">
        <ele>323.84852668235</ele>
        <time>2021-03-03T16:56:50.517Z</time>
      </trkpt>
      <trkpt lat="44.56385" lon="1.51214">
        <ele>325.64627321722</ele>
        <time>2021-03-03T16:56:56.880Z</time>
      </trkpt>
      <trkpt lat="44.56384" lon="1.51206">
        <ele>327.41906578489</ele>
        <time>2021-03-03T16:57:03.245Z</time>
      </trkpt>
      <trkpt lat="44.56381" lon="1.51203">
        <ele>329.12409750817</ele>
        <time>2021-03-03T16:57:09.611Z</time>
      </trkpt>
      <trkpt lat="44.56375" lon="1.51202">
        <ele>330.77857752392</ele>
        <time>2021-03-03T16:57:15.979Z</time>
      </trkpt>
      <trkpt lat="44.56367" lon="1.51208">
        <ele>332.41660280826</ele>
        <time>2021-03-03T16:57:22.350Z</time>
      </trkpt>
      <trkpt lat="44.56359" lon="1.51216">
        <ele>334.02476469314</ele>
        <time>2021-03-03T16:57:28.724Z</time>
      </trkpt>
      <trkpt lat="44.5635" lon="1.51222">
        <ele>335.60411533222</ele>
        <time>2021-03-03T16:57:35.101Z</time>
      </trkpt>
      <trkpt lat="44.56318" lon="1.51235">
        <ele>337.28158835446</ele>
        <time>2021-03-03T16:57:41.488Z</time>
      </trkpt>
      <trkpt lat="44.56318" lon="1.51243">
        <ele>338.77174338219</ele>
        <time>2021-03-03T16:57:47.877Z</time>
      </trkpt>
      <trkpt lat="44.56323" lon="1.51257">
        <ele>340.23705192215</ele>
        <time>2021-03-03T16:57:54.269Z</time>
      </trkpt>
      <trkpt lat="44.56338" lon="1.51317">
        <ele>341.60436629425</ele>
        <time>2021-03-03T16:58:00.675Z</time>
      </trkpt>
      <trkpt lat="44.56353" lon="1.51404">
        <ele>343.0159309269</ele>
        <time>2021-03-03T16:58:07.101Z</time>
      </trkpt>
      <trkpt lat="44.56374" lon="1.51473">
        <ele>344.59046693583</ele>
        <time>2021-03-03T16:58:13.544Z</time>
      </trkpt>
      <trkpt lat="44.56385" lon="1.51496">
        <ele>346.00878601138</ele>
        <time>2021-03-03T16:58:19.992Z</time>
      </trkpt>
      <trkpt lat="44.56403" lon="1.51517">
        <ele>347.34659878529</ele>
        <time>2021-03-03T16:58:26.448Z</time>
      </trkpt>
      <trkpt lat="44.56413" lon="1.51535">
        <ele>348.65315365218</ele>
        <time>2021-03-03T16:58:32.909Z</time>
      </trkpt>
      <trkpt lat="44.56429" lon="1.51553">
        <ele>349.94929062758</ele>
        <time>2021-03-03T16:58:39.376Z</time>
      </trkpt>
      <trkpt lat="44.56441" lon="1.51563">
        <ele>351.15627204027</ele>
        <time>2021-03-03T16:58:45.847Z</time>
      </trkpt>
      <trkpt lat="44.56447" lon="1.51565">
        <ele>352.2600041968</ele>
        <time>2021-03-03T16:58:52.320Z</time>
      </trkpt>
      <trkpt lat="44.56458" lon="1.51568">
        <ele>353.33104708857</ele>
        <time>2021-03-03T16:58:58.797Z</time>
      </trkpt>
      <trkpt lat="44.56468" lon="1.51568">
        <ele>354.29595452719</ele>
        <time>2021-03-03T16:59:05.277Z</time>
      </trkpt>
      <trkpt lat="44.56476" lon="1.51567">
        <ele>355.15324136766</ele>
        <time>2021-03-03T16:59:11.759Z</time>
      </trkpt>
      <trkpt lat="44.5649" lon="1.5156">
        <ele>355.91912885236</ele>
        <time>2021-03-03T16:59:18.246Z</time>
      </trkpt>
      <trkpt lat="44.56508" lon="1.51545">
        <ele>356.55459538875</ele>
        <time>2021-03-03T16:59:24.739Z</time>
      </trkpt>
      <trkpt lat="44.56517" lon="1.51535">
        <ele>357.06547601106</ele>
        <time>2021-03-03T16:59:31.236Z</time>
      </trkpt>
      <trkpt lat="44.56529" lon="1.51511">
        <ele>357.44741166541</ele>
        <time>2021-03-03T16:59:37.739Z</time>
      </trkpt>
      <trkpt lat="44.56534" lon="1.51489">
        <ele>357.71472362766</ele>
        <time>2021-03-03T16:59:44.247Z</time>
      </trkpt>
      <trkpt lat="44.56534" lon="1.51479">
        <ele>357.85632082479</ele>
        <time>2021-03-03T16:59:50.758Z</time>
      </trkpt>
      <trkpt lat="44.56528" lon="1.5141">
        <ele>357.96814879993</ele>
        <time>2021-03-03T16:59:57.284Z</time>
      </trkpt>
      <trkpt lat="44.56531" lon="1.51399">
        <ele>357.87209617586</ele>
        <time>2021-03-03T17:00:03.812Z</time>
      </trkpt>
      <trkpt lat="44.56539" lon="1.51389">
        <ele>357.66615050284</ele>
        <time>2021-03-03T17:00:10.343Z</time>
      </trkpt>
      <trkpt lat="44.56554" lon="1.51387">
        <ele>357.35619342176</ele>
        <time>2021-03-03T17:00:16.879Z</time>
      </trkpt>
      <trkpt lat="44.5658" lon="1.51387">
        <ele>356.96582191527</ele>
        <time>2021-03-03T17:00:23.423Z</time>
      </trkpt>
      <trkpt lat="44.56608" lon="1.51382">
        <ele>356.38322915937</ele>
        <time>2021-03-03T17:00:29.976Z</time>
      </trkpt>
      <trkpt lat="44.56635" lon="1.51373">
        <ele>355.67112359385</ele>
        <time>2021-03-03T17:00:36.537Z</time>
      </trkpt>
      <trkpt lat="44.56651" lon="1.51365">
        <ele>354.92242256937</ele>
        <time>2021-03-03T17:00:43.104Z</time>
      </trkpt>
      <trkpt lat="44.56662" lon="1.51358">
        <ele>354.12941975086</ele>
        <time>2021-03-03T17:00:49.674Z</time>
      </trkpt>
      <trkpt lat="44.56695" lon="1.51326">
        <ele>353.10868058196</ele>
        <time>2021-03-03T17:00:56.257Z</time>
      </trkpt>
      <trkpt lat="44.56723" lon="1.51308">
        <ele>352.16834726771</ele>
        <time>2021-03-03T17:01:02.849Z</time>
      </trkpt>
      <trkpt lat="44.56797" lon="1.5128">
        <ele>351.46509831624</ele>
        <time>2021-03-03T17:01:09.465Z</time>
      </trkpt>
      <trkpt lat="44.56844" lon="1.51258">
        <ele>350.81803980911</ele>
        <time>2021-03-03T17:01:16.096Z</time>
      </trkpt>
      <trkpt lat="44.56851" lon="1.51257">
        <ele>350.31641734035</ele>
        <time>2021-03-03T17:01:22.729Z</time>
      </trkpt>
      <trkpt lat="44.56864" lon="1.51258">
        <ele>349.94080617562</ele>
        <time>2021-03-03T17:01:29.366Z</time>
      </trkpt>
      <trkpt lat="44.56882" lon="1.51264">
        <ele>349.72372181361</ele>
        <time>2021-03-03T17:01:36.009Z</time>
      </trkpt>
      <trkpt lat="44.56949" lon="1.51276">
        <ele>349.742540892</ele>
        <time>2021-03-03T17:01:42.673Z</time>
      </trkpt>
      <trkpt lat="44.56972" lon="1.51283">
        <ele>349.83125148468</ele>
        <time>2021-03-03T17:01:49.344Z</time>
      </trkpt>
      <trkpt lat="44.56994" lon="1.51286">
        <ele>350.07629917904</ele>
        <time>2021-03-03T17:01:56.022Z</time>
      </trkpt>
      <trkpt lat="44.57039" lon="1.51284">
        <ele>350.50752678461</ele>
        <time>2021-03-03T17:02:02.714Z</time>
      </trkpt>
      <trkpt lat="44.57073" lon="1.51277">
        <ele>350.96295495236</ele>
        <time>2021-03-03T17:02:09.416Z</time>
      </trkpt>
      <trkpt lat="44.57096" lon="1.5127">
        <ele>351.48145046736</ele>
        <time>2021-03-03T17:02:16.126Z</time>
      </trkpt>
      <trkpt lat="44.57134" lon="1.51268">
        <ele>352.13515164445</ele>
        <time>2021-03-03T17:02:22.847Z</time>
      </trkpt>
      <trkpt lat="44.57164" lon="1.51272">
        <ele>352.97465869214</ele>
        <time>2021-03-03T17:02:29.577Z</time>
      </trkpt>
      <trkpt lat="44.57181" lon="1.51277">
        <ele>353.9075918215</ele>
        <time>2021-03-03T17:02:36.313Z</time>
      </trkpt>
      <trkpt lat="44.57191" lon="1.51283">
        <ele>354.91355070111</ele>
        <time>2021-03-03T17:02:43.052Z</time>
      </trkpt>
      <trkpt lat="44.57199" lon="1.51285">
        <ele>355.95960915515</ele>
        <time>2021-03-03T17:02:49.794Z</time>
      </trkpt>
      <trkpt lat="44.57238" lon="1.51291">
        <ele>357.06944729835</ele>
        <time>2021-03-03T17:02:56.548Z</time>
      </trkpt>
      <trkpt lat="44.57262" lon="1.513">
        <ele>358.19153995209</ele>
        <time>2021-03-03T17:03:03.309Z</time>
      </trkpt>
      <trkpt lat="44.57266" lon="1.51303">
        <ele>359.32991528122</ele>
        <time>2021-03-03T17:03:10.072Z</time>
      </trkpt>
      <trkpt lat="44.57278" lon="1.5132">
        <ele>360.46901616024</ele>
        <time>2021-03-03T17:03:16.840Z</time>
      </trkpt>
      <trkpt lat="44.57298" lon="1.51361">
        <ele>361.64481799061</ele>
        <time>2021-03-03T17:03:23.619Z</time>
      </trkpt>
      <trkpt lat="44.57305" lon="1.5137">
        <ele>362.79250311813</ele>
        <time>2021-03-03T17:03:30.401Z</time>
      </trkpt>
      <trkpt lat="44.5733" lon="1.51388">
        <ele>363.96044526469</ele>
        <time>2021-03-03T17:03:37.191Z</time>
      </trkpt>
      <trkpt lat="44.57337" lon="1.51396">
        <ele>365.02555069748</ele>
        <time>2021-03-03T17:03:43.984Z</time>
      </trkpt>
      <trkpt lat="44.57338" lon="1.51413">
        <ele>366.02804105801</ele>
        <time>2021-03-03T17:03:50.781Z</time>
      </trkpt>
      <trkpt lat="44.57309" lon="1.51501">
        <ele>367.03932315955</ele>
        <time>2021-03-03T17:03:57.599Z</time>
      </trkpt>
      <trkpt lat="44.57299" lon="1.51525">
        <ele>367.88302668241</ele>
        <time>2021-03-03T17:04:04.424Z</time>
      </trkpt>
      <trkpt lat="44.57293" lon="1.51534">
        <ele>368.59140764942</ele>
        <time>2021-03-03T17:04:11.251Z</time>
      </trkpt>
      <trkpt lat="44.57283" lon="1.51544">
        <ele>369.19285674634</ele>
        <time>2021-03-03T17:04:18.082Z</time>
      </trkpt>
      <trkpt lat="44.57275" lon="1.51549">
        <ele>369.65499379884</ele>
        <time>2021-03-03T17:04:24.916Z</time>
      </trkpt>
      <trkpt lat="44.5725" lon="1.51559">
        <ele>369.99878141809</ele>
        <time>2021-03-03T17:04:31.758Z</time>
      </trkpt>
      <trkpt lat="44.57237" lon="1.51561">
        <ele>370.16368572799</ele>
        <time>2021-03-03T17:04:38.604Z</time>
      </trkpt>
      <trkpt lat="44.57194" lon="1.51561">
        <ele>370.15252827209</ele>
        <time>2021-03-03T17:04:45.463Z</time>
      </trkpt>
      <trkpt lat="44.57115" lon="1.51585">
        <ele>369.89713000446</ele>
        <time>2021-03-03T17:04:52.347Z</time>
      </trkpt>
      <trkpt lat="44.57102" lon="1.51587">
        <ele>369.6551271251</ele>
        <time>2021-03-03T17:04:59.235Z</time>
      </trkpt>
      <trkpt lat="44.57047" lon="1.51598">
        <ele>369.23495649352</ele>
        <time>2021-03-03T17:05:06.140Z</time>
      </trkpt>
      <trkpt lat="44.57043" lon="1.51599">
        <ele>368.75371922672</ele>
        <time>2021-03-03T17:05:13.046Z</time>
      </trkpt>
      <trkpt lat="44.57041" lon="1.51601">
        <ele>368.1736344358</ele>
        <time>2021-03-03T17:05:19.953Z</time>
      </trkpt>
      <trkpt lat="44.57043" lon="1.51616">
        <ele>367.49836226641</ele>
        <time>2021-03-03T17:05:26.863Z</time>
      </trkpt>
      <trkpt lat="44.57062" lon="1.51675">
        <ele>366.60192532104</ele>
        <time>2021-03-03T17:05:33.788Z</time>
      </trkpt>
      <trkpt lat="44.57081" lon="1.5173">
        <ele>365.57767003088</ele>
        <time>2021-03-03T17:05:40.726Z</time>
      </trkpt>
      <trkpt lat="44.57083" lon="1.51742">
        <ele>364.65397443412</ele>
        <time>2021-03-03T17:05:47.667Z</time>
      </trkpt>
      <trkpt lat="44.57083" lon="1.51755">
        <ele>363.67109145708</ele>
        <time>2021-03-03T17:05:54.611Z</time>
      </trkpt>
      <trkpt lat="44.57081" lon="1.51767">
        <ele>362.63713261421</ele>
        <time>2021-03-03T17:06:01.557Z</time>
      </trkpt>
      <trkpt lat="44.57074" lon="1.51789">
        <ele>361.54873862947</ele>
        <time>2021-03-03T17:06:08.509Z</time>
      </trkpt>
      <trkpt lat="44.57074" lon="1.51781">
        <ele>360.32429752642</ele>
        <time>2021-03-03T17:06:15.462Z</time>
      </trkpt>
      <trkpt lat="44.57081" lon="1.51762">
        <ele>359.00826119903</ele>
        <time>2021-03-03T17:06:22.420Z</time>
      </trkpt>
      <trkpt lat="44.57083" lon="1.51748">
        <ele>357.60159099524</ele>
        <time>2021-03-03T17:06:29.381Z</time>
      </trkpt>
      <trkpt lat="44.57076" lon="1.51736">
        <ele>356.0981447462</ele>
        <time>2021-03-03T17:06:36.345Z</time>
      </trkpt>
      <trkpt lat="44.57058" lon="1.51722">
        <ele>354.4606482591</ele>
        <time>2021-03-03T17:06:43.316Z</time>
      </trkpt>
      <trkpt lat="44.57036" lon="1.51721">
        <ele>352.70371656813</ele>
        <time>2021-03-03T17:06:50.294Z</time>
      </trkpt>
      <trkpt lat="44.57007" lon="1.5173">
        <ele>350.67967361411</ele>
        <time>2021-03-03T17:06:57.281Z</time>
      </trkpt>
      <trkpt lat="44.56971" lon="1.51733">
        <ele>348.33177126608</ele>
        <time>2021-03-03T17:07:04.279Z</time>
      </trkpt>
      <trkpt lat="44.56952" lon="1.51728">
        <ele>346.0549413342</ele>
        <time>2021-03-03T17:07:11.283Z</time>
      </trkpt>
      <trkpt lat="44.56941" lon="1.51727">
        <ele>343.70463422273</ele>
        <time>2021-03-03T17:07:18.290Z</time>
      </trkpt>
      <trkpt lat="44.56936" lon="1.51728">
        <ele>341.26188849215</ele>
        <time>2021-03-03T17:07:25.299Z</time>
      </trkpt>
      <trkpt lat="44.56929" lon="1.51736">
        <ele>338.62749795086</ele>
        <time>2021-03-03T17:07:32.310Z</time>
      </trkpt>
      <trkpt lat="44.56912" lon="1.51748">
        <ele>335.74137093822</ele>
        <time>2021-03-03T17:07:39.327Z</time>
      </trkpt>
      <trkpt lat="44.56896" lon="1.51751">
        <ele>332.92198922853</ele>
        <time>2021-03-03T17:07:46.349Z</time>
      </trkpt>
      <trkpt lat="44.56883" lon="1.5176">
        <ele>329.92487570353</ele>
        <time>2021-03-03T17:07:53.376Z</time>
      </trkpt>
      <trkpt lat="44.56876" lon="1.51766">
        <ele>326.83531501692</ele>
        <time>2021-03-03T17:08:00.405Z</time>
      </trkpt>
      <trkpt lat="44.56873" lon="1.51772">
        <ele>323.63864401309</ele>
        <time>2021-03-03T17:08:07.436Z</time>
      </trkpt>
      <trkpt lat="44.56877" lon="1.51787">
        <ele>320.34849543232</ele>
        <time>2021-03-03T17:08:14.470Z</time>
      </trkpt>
      <trkpt lat="44.5687" lon="1.51794">
        <ele>316.94937062146</ele>
        <time>2021-03-03T17:08:21.507Z</time>
      </trkpt>
      <trkpt lat="44.56847" lon="1.5181">
        <ele>313.29609163696</ele>
        <time>2021-03-03T17:08:28.552Z</time>
      </trkpt>
      <trkpt lat="44.56839" lon="1.51821">
        <ele>309.68496421734</ele>
        <time>2021-03-03T17:08:35.601Z</time>
      </trkpt>
      <trkpt lat="44.56822" lon="1.51855">
        <ele>305.99710892725</ele>
        <time>2021-03-03T17:08:42.659Z</time>
      </trkpt>
      <trkpt lat="44.56812" lon="1.5188">
        <ele>302.24524961014</ele>
        <time>2021-03-03T17:08:49.723Z</time>
      </trkpt>
      <trkpt lat="44.56797" lon="1.51901">
        <ele>298.50839949025</ele>
        <time>2021-03-03T17:08:56.793Z</time>
      </trkpt>
      <trkpt lat="44.56785" lon="1.51927">
        <ele>294.61637136662</ele>
        <time>2021-03-03T17:09:03.870Z</time>
      </trkpt>
      <trkpt lat="44.56779" lon="1.51947">
        <ele>290.76232576768</ele>
        <time>2021-03-03T17:09:10.952Z</time>
      </trkpt>
      <trkpt lat="44.56773" lon="1.51981">
        <ele>287.00561148565</ele>
        <time>2021-03-03T17:09:18.042Z</time>
      </trkpt>
      <trkpt lat="44.56768" lon="1.52005">
        <ele>283.3225966647</ele>
        <time>2021-03-03T17:09:25.137Z</time>
      </trkpt>
      <trkpt lat="44.56725" lon="1.52123">
        <ele>279.40793107646</ele>
        <time>2021-03-03T17:09:32.261Z</time>
      </trkpt>
      <trkpt lat="44.5671" lon="1.52159">
        <ele>276.03244215407</ele>
        <time>2021-03-03T17:09:39.394Z</time>
      </trkpt>
      <trkpt lat="44.56696" lon="1.52204">
        <ele>272.74632725561</ele>
        <time>2021-03-03T17:09:46.538Z</time>
      </trkpt>
      <trkpt lat="44.56687" lon="1.52275">
        <ele>269.5591651292</ele>
        <time>2021-03-03T17:09:53.698Z</time>
      </trkpt>
      <trkpt lat="44.56684" lon="1.52289">
        <ele>266.73542726801</ele>
        <time>2021-03-03T17:10:00.862Z</time>
      </trkpt>
      <trkpt lat="44.56686" lon="1.52333">
        <ele>263.94502694838</ele>
        <time>2021-03-03T17:10:08.035Z</time>
      </trkpt>
      <trkpt lat="44.56681" lon="1.52354">
        <ele>261.54601602123</ele>
        <time>2021-03-03T17:10:15.213Z</time>
      </trkpt>
      <trkpt lat="44.56672" lon="1.52381">
        <ele>259.38620252552</ele>
        <time>2021-03-03T17:10:22.397Z</time>
      </trkpt>
      <trkpt lat="44.56673" lon="1.52407">
        <ele>257.58048451258</ele>
        <time>2021-03-03T17:10:29.587Z</time>
      </trkpt>
      <trkpt lat="44.56678" lon="1.52435">
        <ele>256.17147501076</ele>
        <time>2021-03-03T17:10:36.784Z</time>
      </trkpt>
      <trkpt lat="44.56682" lon="1.52481">
        <ele>255.26920363933</ele>
        <time>2021-03-03T17:10:43.991Z</time>
      </trkpt>
      <trkpt lat="44.56684" lon="1.52487">
        <ele>254.5691005353</ele>
        <time>2021-03-03T17:10:51.199Z</time>
      </trkpt>
      <trkpt lat="44.56687" lon="1.5249">
        <ele>254.13230558106</ele>
        <time>2021-03-03T17:10:58.408Z</time>
      </trkpt>
      <trkpt lat="44.56725" lon="1.52468">
        <ele>253.90399496561</ele>
        <time>2021-03-03T17:11:05.630Z</time>
      </trkpt>
      <trkpt lat="44.56746" lon="1.52458">
        <ele>253.93627426633</ele>
        <time>2021-03-03T17:11:12.859Z</time>
      </trkpt>
      <trkpt lat="44.56764" lon="1.52454">
        <ele>254.24016335883</ele>
        <time>2021-03-03T17:11:20.093Z</time>
      </trkpt>
      <trkpt lat="44.56852" lon="1.52449">
        <ele>254.87778646239</ele>
        <time>2021-03-03T17:11:27.354Z</time>
      </trkpt>
      <trkpt lat="44.56897" lon="1.52443">
        <ele>255.53395676679</ele>
        <time>2021-03-03T17:11:34.630Z</time>
      </trkpt>
      <trkpt lat="44.56922" lon="1.52448">
        <ele>256.39179190366</ele>
        <time>2021-03-03T17:11:41.913Z</time>
      </trkpt>
      <trkpt lat="44.56961" lon="1.52464">
        <ele>257.32628604708</ele>
        <time>2021-03-03T17:11:49.209Z</time>
      </trkpt>
      <trkpt lat="44.56973" lon="1.52467">
        <ele>258.29827531304</ele>
        <time>2021-03-03T17:11:56.509Z</time>
      </trkpt>
      <trkpt lat="44.56983" lon="1.52472">
        <ele>259.34126389976</ele>
        <time>2021-03-03T17:12:03.812Z</time>
      </trkpt>
      <trkpt lat="44.56996" lon="1.52474">
        <ele>260.39978148861</ele>
        <time>2021-03-03T17:12:11.119Z</time>
      </trkpt>
      <trkpt lat="44.57014" lon="1.52469">
        <ele>261.4947286566</ele>
        <time>2021-03-03T17:12:18.432Z</time>
      </trkpt>
      <trkpt lat="44.57042" lon="1.52456">
        <ele>262.63857983082</ele>
        <time>2021-03-03T17:12:25.753Z</time>
      </trkpt>
      <trkpt lat="44.57083" lon="1.52445">
        <ele>263.81984065559</ele>
        <time>2021-03-03T17:12:33.087Z</time>
      </trkpt>
      <trkpt lat="44.57143" lon="1.5242">
        <ele>264.92204736965</ele>
        <time>2021-03-03T17:12:40.441Z</time>
      </trkpt>
      <trkpt lat="44.57163" lon="1.52406">
        <ele>266.04012976483</ele>
        <time>2021-03-03T17:12:47.802Z</time>
      </trkpt>
      <trkpt lat="44.57187" lon="1.52387">
        <ele>267.16423223819</ele>
        <time>2021-03-03T17:12:55.171Z</time>
      </trkpt>
      <trkpt lat="44.57213" lon="1.52362">
        <ele>268.22610442211</ele>
        <time>2021-03-03T17:13:02.550Z</time>
      </trkpt>
      <trkpt lat="44.57222" lon="1.5235">
        <ele>269.26247567501</ele>
        <time>2021-03-03T17:13:09.932Z</time>
      </trkpt>
      <trkpt lat="44.57243" lon="1.52312">
        <ele>270.2452341456</ele>
        <time>2021-03-03T17:13:17.325Z</time>
      </trkpt>
      <trkpt lat="44.57256" lon="1.52299">
        <ele>271.2898793249</ele>
        <time>2021-03-03T17:13:24.723Z</time>
      </trkpt>
      <trkpt lat="44.5726" lon="1.52297">
        <ele>272.40282747352</ele>
        <time>2021-03-03T17:13:32.122Z</time>
      </trkpt>
      <trkpt lat="44.57289" lon="1.52298">
        <ele>273.60885511229</ele>
        <time>2021-03-03T17:13:39.530Z</time>
      </trkpt>
      <trkpt lat="44.57319" lon="1.52276">
        <ele>274.7388646507</ele>
        <time>2021-03-03T17:13:46.949Z</time>
      </trkpt>
      <trkpt lat="44.57324" lon="1.52258">
        <ele>275.97139652813</ele>
        <time>2021-03-03T17:13:54.372Z</time>
      </trkpt>
      <trkpt lat="44.57325" lon="1.52241">
        <ele>277.26804564572</ele>
        <time>2021-03-03T17:14:01.798Z</time>
      </trkpt>
      <trkpt lat="44.57337" lon="1.52215">
        <ele>278.66958186994</ele>
        <time>2021-03-03T17:14:09.231Z</time>
      </trkpt>
      <trkpt lat="44.57388" lon="1.52147">
        <ele>280.46199214773</ele>
        <time>2021-03-03T17:14:16.686Z</time>
      </trkpt>
      <trkpt lat="44.57409" lon="1.52114">
        <ele>281.92315719583</ele>
        <time>2021-03-03T17:14:24.151Z</time>
      </trkpt>
      <trkpt lat="44.57419" lon="1.5209">
        <ele>283.33622794528</ele>
        <time>2021-03-03T17:14:31.622Z</time>
      </trkpt>
      <trkpt lat="44.57423" lon="1.52078">
        <ele>284.78816673541</ele>
        <time>2021-03-03T17:14:39.096Z</time>
      </trkpt>
      <trkpt lat="44.57431" lon="1.52062">
        <ele>286.28356097505</ele>
        <time>2021-03-03T17:14:46.574Z</time>
      </trkpt>
      <trkpt lat="44.57449" lon="1.52005">
        <ele>287.71332049835</ele>
        <time>2021-03-03T17:14:54.066Z</time>
      </trkpt>
      <trkpt lat="44.57484" lon="1.51936">
        <ele>289.13225019257</ele>
        <time>2021-03-03T17:15:01.576Z</time>
      </trkpt>
      <trkpt lat="44.5753" lon="1.51887">
        <ele>290.52639210934</ele>
        <time>2021-03-03T17:15:09.104Z</time>
      </trkpt>
      <trkpt lat="44.5758" lon="1.51856">
        <ele>292.04974915039</ele>
        <time>2021-03-03T17:15:16.649Z</time>
      </trkpt>
      <trkpt lat="44.5763" lon="1.5183">
        <ele>293.60458165449</ele>
        <time>2021-03-03T17:15:24.211Z</time>
      </trkpt>
      <trkpt lat="44.57648" lon="1.51818">
        <ele>295.00055915063</ele>
        <time>2021-03-03T17:15:31.779Z</time>
      </trkpt>
      <trkpt lat="44.57661" lon="1.51805">
        <ele>296.33250147662</ele>
        <time>2021-03-03T17:15:39.352Z</time>
      </trkpt>
      <trkpt lat="44.57677" lon="1.51799">
        <ele>297.65490646471</ele>
        <time>2021-03-03T17:15:46.930Z</time>
      </trkpt>
      <trkpt lat="44.57698" lon="1.51798">
        <ele>298.91017454043</ele>
        <time>2021-03-03T17:15:54.514Z</time>
      </trkpt>
      <trkpt lat="44.57707" lon="1.51796">
        <ele>300.06295118797</ele>
        <time>2021-03-03T17:16:02.101Z</time>
      </trkpt>
      <trkpt lat="44.57736" lon="1.51786">
        <ele>301.18875285055</ele>
        <time>2021-03-03T17:16:09.697Z</time>
      </trkpt>
      <trkpt lat="44.57754" lon="1.51791">
        <ele>302.16050402926</ele>
        <time>2021-03-03T17:16:17.299Z</time>
      </trkpt>
      <trkpt lat="44.57774" lon="1.51793">
        <ele>303.02032670674</ele>
        <time>2021-03-03T17:16:24.907Z</time>
      </trkpt>
      <trkpt lat="44.57792" lon="1.51801">
        <ele>303.83643040035</ele>
        <time>2021-03-03T17:16:32.521Z</time>
      </trkpt>
      <trkpt lat="44.57843" lon="1.51814">
        <ele>304.62617186613</ele>
        <time>2021-03-03T17:16:40.151Z</time>
      </trkpt>
      <trkpt lat="44.57863" lon="1.5182">
        <ele>305.28575019915</ele>
        <time>2021-03-03T17:16:47.787Z</time>
      </trkpt>
      <trkpt lat="44.57873" lon="1.51826">
        <ele>305.8719924202</ele>
        <time>2021-03-03T17:16:55.426Z</time>
      </trkpt>
      <trkpt lat="44.57884" lon="1.51829">
        <ele>306.42366397941</ele>
        <time>2021-03-03T17:17:03.069Z</time>
      </trkpt>
      <trkpt lat="44.57896" lon="1.51826">
        <ele>306.99112991822</ele>
        <time>2021-03-03T17:17:10.716Z</time>
      </trkpt>
      <trkpt lat="44.57916" lon="1.51827">
        <ele>307.58381195791</ele>
        <time>2021-03-03T17:17:18.369Z</time>
      </trkpt>
      <trkpt lat="44.57929" lon="1.5183">
        <ele>308.15565273493</ele>
        <time>2021-03-03T17:17:26.026Z</time>
      </trkpt>
      <trkpt lat="44.5794" lon="1.51838">
        <ele>308.76514211237</ele>
        <time>2021-03-03T17:17:33.687Z</time>
      </trkpt>
      <trkpt lat="44.57989" lon="1.51853">
        <ele>309.50679669443</ele>
        <time>2021-03-03T17:17:41.363Z</time>
      </trkpt>
      <trkpt lat="44.57996" lon="1.51853">
        <ele>310.2054326244</ele>
        <time>2021-03-03T17:17:49.041Z</time>
      </trkpt>
      <trkpt lat="44.58017" lon="1.5186">
        <ele>310.97579427771</ele>
        <time>2021-03-03T17:17:56.726Z</time>
      </trkpt>
      <trkpt lat="44.58029" lon="1.51863">
        <ele>311.82452756599</ele>
        <time>2021-03-03T17:18:04.415Z</time>
      </trkpt>
      <trkpt lat="44.58081" lon="1.51866">
        <ele>312.98285405109</ele>
        <time>2021-03-03T17:18:12.120Z</time>
      </trkpt>
      <trkpt lat="44.58104" lon="1.51871">
        <ele>314.12250533454</ele>
        <time>2021-03-03T17:18:19.832Z</time>
      </trkpt>
      <trkpt lat="44.58151" lon="1.51873">
        <ele>315.32388789953</ele>
        <time>2021-03-03T17:18:27.558Z</time>
      </trkpt>
      <trkpt lat="44.58165" lon="1.51875">
        <ele>316.58466384245</ele>
        <time>2021-03-03T17:18:35.289Z</time>
      </trkpt>
      <trkpt lat="44.58172" lon="1.51877">
        <ele>317.93194349735</ele>
        <time>2021-03-03T17:18:43.022Z</time>
      </trkpt>
      <trkpt lat="44.58191" lon="1.51878">
        <ele>319.4138730446</ele>
        <time>2021-03-03T17:18:50.761Z</time>
      </trkpt>
      <trkpt lat="44.58215" lon="1.51882">
        <ele>320.99619763497</ele>
        <time>2021-03-03T17:18:58.507Z</time>
      </trkpt>
      <trkpt lat="44.58222" lon="1.51881">
        <ele>322.61143168082</ele>
        <time>2021-03-03T17:19:06.255Z</time>
      </trkpt>
      <trkpt lat="44.58238" lon="1.51884">
        <ele>324.34766016451</ele>
        <time>2021-03-03T17:19:14.008Z</time>
      </trkpt>
      <trkpt lat="44.58254" lon="1.51882">
        <ele>326.15352865409</ele>
        <time>2021-03-03T17:19:21.766Z</time>
      </trkpt>
      <trkpt lat="44.58282" lon="1.51886">
        <ele>328.01689180849</ele>
        <time>2021-03-03T17:19:29.533Z</time>
      </trkpt>
      <trkpt lat="44.58299" lon="1.51884">
        <ele>329.94069830289</ele>
        <time>2021-03-03T17:19:37.305Z</time>
      </trkpt>
      <trkpt lat="44.5831" lon="1.51879">
        <ele>331.90758481722</ele>
        <time>2021-03-03T17:19:45.081Z</time>
      </trkpt>
      <trkpt lat="44.58324" lon="1.51877">
        <ele>333.97948108258</ele>
        <time>2021-03-03T17:19:52.861Z</time>
      </trkpt>
      <trkpt lat="44.58341" lon="1.51879">
        <ele>336.08063478056</ele>
        <time>2021-03-03T17:20:00.646Z</time>
      </trkpt>
      <trkpt lat="44.58347" lon="1.51877">
        <ele>338.16864575743</ele>
        <time>2021-03-03T17:20:08.433Z</time>
      </trkpt>
      <trkpt lat="44.58374" lon="1.51877">
        <ele>340.37637593398</ele>
        <time>2021-03-03T17:20:16.228Z</time>
      </trkpt>
      <trkpt lat="44.58417" lon="1.51884">
        <ele>342.58018723425</ele>
        <time>2021-03-03T17:20:24.037Z</time>
      </trkpt>
      <trkpt lat="44.58444" lon="1.51894">
        <ele>344.80043263098</ele>
        <time>2021-03-03T17:20:31.854Z</time>
      </trkpt>
      <trkpt lat="44.58449" lon="1.51891">
        <ele>346.85783837082</ele>
        <time>2021-03-03T17:20:39.673Z</time>
      </trkpt>
      <trkpt lat="44.58453" lon="1.51884">
        <ele>348.9031349725</ele>
        <time>2021-03-03T17:20:47.494Z</time>
      </trkpt>
      <trkpt lat="44.58465" lon="1.51873">
        <ele>350.96787701921</ele>
        <time>2021-03-03T17:20:55.319Z</time>
      </trkpt>
      <trkpt lat="44.58476" lon="1.51868">
        <ele>353.00140539112</ele>
        <time>2021-03-03T17:21:03.148Z</time>
      </trkpt>
      <trkpt lat="44.58482" lon="1.51867">
        <ele>354.98129644986</ele>
        <time>2021-03-03T17:21:10.979Z</time>
      </trkpt>
      <trkpt lat="44.58492" lon="1.5186">
        <ele>356.95846234088</ele>
        <time>2021-03-03T17:21:18.813Z</time>
      </trkpt>
      <trkpt lat="44.58501" lon="1.51858">
        <ele>358.92071134722</ele>
        <time>2021-03-03T17:21:26.650Z</time>
      </trkpt>
      <trkpt lat="44.58511" lon="1.51851">
        <ele>360.88653708777</ele>
        <time>2021-03-03T17:21:34.490Z</time>
      </trkpt>
      <trkpt lat="44.58524" lon="1.51848">
        <ele>362.82260741864</ele>
        <time>2021-03-03T17:21:42.334Z</time>
      </trkpt>
      <trkpt lat="44.58537" lon="1.51847">
        <ele>364.72829625314</ele>
        <time>2021-03-03T17:21:50.182Z</time>
      </trkpt>
      <trkpt lat="44.58556" lon="1.51842">
        <ele>366.63725296684</ele>
        <time>2021-03-03T17:21:58.036Z</time>
      </trkpt>
      <trkpt lat="44.58609" lon="1.51847">
        <ele>368.70691972151</ele>
        <time>2021-03-03T17:22:05.907Z</time>
      </trkpt>
      <trkpt lat="44.58638" lon="1.51847">
        <ele>370.70743210996</ele>
        <time>2021-03-03T17:22:13.787Z</time>
      </trkpt>
      <trkpt lat="44.58642" lon="1.51842">
        <ele>372.57964220001</ele>
        <time>2021-03-03T17:22:21.668Z</time>
      </trkpt>
      <trkpt lat="44.58647" lon="1.51827">
        <ele>374.44603063144</ele>
        <time>2021-03-03T17:22:29.553Z</time>
      </trkpt>
      <trkpt lat="44.5865" lon="1.51802">
        <ele>376.34151960093</ele>
        <time>2021-03-03T17:22:37.444Z</time>
      </trkpt>
      <trkpt lat="44.58653" lon="1.51794">
        <ele>378.16750863105</ele>
        <time>2021-03-03T17:22:45.337Z</time>
      </trkpt>
      <trkpt lat="44.58662" lon="1.51787">
        <ele>379.97153406758</ele>
        <time>2021-03-03T17:22:53.233Z</time>
      </trkpt>
      <trkpt lat="44.58678" lon="1.51778">
        <ele>381.73997158026</ele>
        <time>2021-03-03T17:23:01.134Z</time>
      </trkpt>
      <trkpt lat="44.5869" lon="1.51766">
        <ele>383.44436708381</ele>
        <time>2021-03-03T17:23:09.040Z</time>
      </trkpt>
      <trkpt lat="44.58695" lon="1.51749">
        <ele>385.12074703207</ele>
        <time>2021-03-03T17:23:16.950Z</time>
      </trkpt>
      <trkpt lat="44.58694" lon="1.51746">
        <ele>386.69012430354</ele>
        <time>2021-03-03T17:23:24.861Z</time>
      </trkpt>
      <trkpt lat="44.58681" lon="1.51739">
        <ele>388.21157047163</ele>
        <time>2021-03-03T17:23:32.776Z</time>
      </trkpt>
      <trkpt lat="44.58676" lon="1.51729">
        <ele>389.67721619629</ele>
        <time>2021-03-03T17:23:40.693Z</time>
      </trkpt>
      <trkpt lat="44.58674" lon="1.51719">
        <ele>391.07179251388</ele>
        <time>2021-03-03T17:23:48.613Z</time>
      </trkpt>
      <trkpt lat="44.58612" lon="1.51611">
        <ele>392.69059745144</ele>
        <time>2021-03-03T17:23:56.563Z</time>
      </trkpt>
      <trkpt lat="44.58609" lon="1.51604">
        <ele>393.88278053911</ele>
        <time>2021-03-03T17:24:04.515Z</time>
      </trkpt>
      <trkpt lat="44.58609" lon="1.51602">
        <ele>394.96585665252</ele>
        <time>2021-03-03T17:24:12.468Z</time>
      </trkpt>
      <trkpt lat="44.58611" lon="1.516">
        <ele>395.94247806695</ele>
        <time>2021-03-03T17:24:20.421Z</time>
      </trkpt>
      <trkpt lat="44.58614" lon="1.516">
        <ele>396.81299124642</ele>
        <time>2021-03-03T17:24:28.375Z</time>
      </trkpt>
      <trkpt lat="44.58625" lon="1.51595">
        <ele>397.59411913434</ele>
        <time>2021-03-03T17:24:36.333Z</time>
      </trkpt>
      <trkpt lat="44.58635" lon="1.51596">
        <ele>398.28513830659</ele>
        <time>2021-03-03T17:24:44.294Z</time>
      </trkpt>
      <trkpt lat="44.58692" lon="1.51588">
        <ele>398.9106715956</ele>
        <time>2021-03-03T17:24:52.272Z</time>
      </trkpt>
      <trkpt lat="44.58717" lon="1.51587">
        <ele>399.39738241757</ele>
        <time>2021-03-03T17:25:00.258Z</time>
      </trkpt>
      <trkpt lat="44.5876" lon="1.51579">
        <ele>399.86997784642</ele>
        <time>2021-03-03T17:25:08.257Z</time>
      </trkpt>
      <trkpt lat="44.58785" lon="1.51576">
        <ele>400.26309219296</ele>
        <time>2021-03-03T17:25:16.264Z</time>
      </trkpt>
      <trkpt lat="44.58814" lon="1.51566">
        <ele>400.63981113482</ele>
        <time>2021-03-03T17:25:24.280Z</time>
      </trkpt>
      <trkpt lat="44.58853" lon="1.5155">
        <ele>400.96960592523</ele>
        <time>2021-03-03T17:25:32.309Z</time>
      </trkpt>
      <trkpt lat="44.58887" lon="1.51537">
        <ele>401.24461086529</ele>
        <time>2021-03-03T17:25:40.349Z</time>
      </trkpt>
      <trkpt lat="44.58919" lon="1.51531">
        <ele>401.42172634111</ele>
        <time>2021-03-03T17:25:48.399Z</time>
      </trkpt>
      <trkpt lat="44.58989" lon="1.51526">
        <ele>401.53403566761</ele>
        <time>2021-03-03T17:25:56.470Z</time>
      </trkpt>
      <trkpt lat="44.59012" lon="1.51521">
        <ele>401.66100951657</ele>
        <time>2021-03-03T17:26:04.548Z</time>
      </trkpt>
      <trkpt lat="44.59029" lon="1.51515">
        <ele>401.81368834034</ele>
        <time>2021-03-03T17:26:12.632Z</time>
      </trkpt>
      <trkpt lat="44.59039" lon="1.51508">
        <ele>402.0311439811</ele>
        <time>2021-03-03T17:26:20.719Z</time>
      </trkpt>
      <trkpt lat="44.59056" lon="1.51488">
        <ele>402.30059689923</ele>
        <time>2021-03-03T17:26:28.813Z</time>
      </trkpt>
      <trkpt lat="44.59084" lon="1.51469">
        <ele>402.6514086429</ele>
        <time>2021-03-03T17:26:36.917Z</time>
      </trkpt>
      <trkpt lat="44.5909" lon="1.51468">
        <ele>403.01354620994</ele>
        <time>2021-03-03T17:26:45.023Z</time>
      </trkpt>
      <trkpt lat="44.59114" lon="1.51468">
        <ele>403.43018329008</ele>
        <time>2021-03-03T17:26:53.136Z</time>
      </trkpt>
      <trkpt lat="44.5915" lon="1.51478">
        <ele>403.96407406765</ele>
        <time>2021-03-03T17:27:01.260Z</time>
      </trkpt>
      <trkpt lat="44.59174" lon="1.51486">
        <ele>404.54841824752</ele>
        <time>2021-03-03T17:27:09.392Z</time>
      </trkpt>
      <trkpt lat="44.59185" lon="1.51494">
        <ele>405.12056069341</ele>
        <time>2021-03-03T17:27:17.528Z</time>
      </trkpt>
      <trkpt lat="44.59199" lon="1.51512">
        <ele>405.71120539616</ele>
        <time>2021-03-03T17:27:25.669Z</time>
      </trkpt>
      <trkpt lat="44.59209" lon="1.51536">
        <ele>406.29811433949</ele>
        <time>2021-03-03T17:27:33.817Z</time>
      </trkpt>
      <trkpt lat="44.59218" lon="1.51563">
        <ele>406.92810396053</ele>
        <time>2021-03-03T17:27:41.971Z</time>
      </trkpt>
      <trkpt lat="44.59235" lon="1.51587">
        <ele>407.60499674152</ele>
        <time>2021-03-03T17:27:50.133Z</time>
      </trkpt>
      <trkpt lat="44.59236" lon="1.51598">
        <ele>408.18818857968</ele>
        <time>2021-03-03T17:27:58.297Z</time>
      </trkpt>
      <trkpt lat="44.59231" lon="1.5162">
        <ele>408.72861346661</ele>
        <time>2021-03-03T17:28:06.466Z</time>
      </trkpt>
      <trkpt lat="44.5923" lon="1.51639">
        <ele>409.25505871723</ele>
        <time>2021-03-03T17:28:14.639Z</time>
      </trkpt>
      <trkpt lat="44.59233" lon="1.5166">
        <ele>409.75842610445</ele>
        <time>2021-03-03T17:28:22.817Z</time>
      </trkpt>
      <trkpt lat="44.5924" lon="1.51683">
        <ele>410.23652246229</ele>
        <time>2021-03-03T17:28:31.000Z</time>
      </trkpt>
      <trkpt lat="44.59248" lon="1.517">
        <ele>410.65470271024</ele>
        <time>2021-03-03T17:28:39.188Z</time>
      </trkpt>
      <trkpt lat="44.59274" lon="1.51748">
        <ele>410.98884643362</ele>
        <time>2021-03-03T17:28:47.389Z</time>
      </trkpt>
      <trkpt lat="44.5929" lon="1.5179">
        <ele>411.21833149441</ele>
        <time>2021-03-03T17:28:55.601Z</time>
      </trkpt>
      <trkpt lat="44.5929" lon="1.5182">
        <ele>411.45644953439</ele>
        <time>2021-03-03T17:29:03.819Z</time>
      </trkpt>
      <trkpt lat="44.59279" lon="1.51857">
        <ele>411.60992491988</ele>
        <time>2021-03-03T17:29:12.046Z</time>
      </trkpt>
      <trkpt lat="44.59266" lon="1.51893">
        <ele>411.65063029485</ele>
        <time>2021-03-03T17:29:20.282Z</time>
      </trkpt>
      <trkpt lat="44.59262" lon="1.51916">
        <ele>411.59349904474</ele>
        <time>2021-03-03T17:29:28.523Z</time>
      </trkpt>
      <trkpt lat="44.5926" lon="1.51948">
        <ele>411.46607558163</ele>
        <time>2021-03-03T17:29:36.771Z</time>
      </trkpt>
      <trkpt lat="44.59262" lon="1.51964">
        <ele>411.27350822192</ele>
        <time>2021-03-03T17:29:45.023Z</time>
      </trkpt>
      <trkpt lat="44.59278" lon="1.52038">
        <ele>410.97475581325</ele>
        <time>2021-03-03T17:29:53.292Z</time>
      </trkpt>
      <trkpt lat="44.59318" lon="1.52218">
        <ele>410.64526296487</ele>
        <time>2021-03-03T17:30:01.602Z</time>
      </trkpt>
      <trkpt lat="44.59326" lon="1.52268">
        <ele>410.28418794718</ele>
        <time>2021-03-03T17:30:09.923Z</time>
      </trkpt>
      <trkpt lat="44.59322" lon="1.52321">
        <ele>409.72098549093</ele>
        <time>2021-03-03T17:30:18.256Z</time>
      </trkpt>
      <trkpt lat="44.59305" lon="1.52375">
        <ele>408.9624057959</ele>
        <time>2021-03-03T17:30:26.602Z</time>
      </trkpt>
      <trkpt lat="44.59308" lon="1.52377">
        <ele>408.12407675008</ele>
        <time>2021-03-03T17:30:34.949Z</time>
      </trkpt>
      <trkpt lat="44.59317" lon="1.52376">
        <ele>407.1386211008</ele>
        <time>2021-03-03T17:30:43.299Z</time>
      </trkpt>
      <trkpt lat="44.59365" lon="1.5235">
        <ele>405.96791298602</ele>
        <time>2021-03-03T17:30:51.665Z</time>
      </trkpt>
      <trkpt lat="44.59423" lon="1.52331">
        <ele>404.61901877944</ele>
        <time>2021-03-03T17:31:00.049Z</time>
      </trkpt>
      <trkpt lat="44.59433" lon="1.52335">
        <ele>403.24269951201</ele>
        <time>2021-03-03T17:31:08.436Z</time>
      </trkpt>
      <trkpt lat="44.59446" lon="1.52351">
        <ele>401.73702008036</ele>
        <time>2021-03-03T17:31:16.828Z</time>
      </trkpt>
      <trkpt lat="44.59461" lon="1.52373">
        <ele>400.07218407468</ele>
        <time>2021-03-03T17:31:25.227Z</time>
      </trkpt>
      <trkpt lat="44.59473" lon="1.524">
        <ele>398.23537593076</ele>
        <time>2021-03-03T17:31:33.633Z</time>
      </trkpt>
      <trkpt lat="44.59488" lon="1.52421">
        <ele>396.30511819103</ele>
        <time>2021-03-03T17:31:42.046Z</time>
      </trkpt>
      <trkpt lat="44.59512" lon="1.52438">
        <ele>394.301015415</ele>
        <time>2021-03-03T17:31:50.467Z</time>
      </trkpt>
      <trkpt lat="44.5953" lon="1.52446">
        <ele>392.18630102602</ele>
        <time>2021-03-03T17:31:58.894Z</time>
      </trkpt>
      <trkpt lat="44.59586" lon="1.5249">
        <ele>389.68729069825</ele>
        <time>2021-03-03T17:32:07.341Z</time>
      </trkpt>
      <trkpt lat="44.59597" lon="1.52495">
        <ele>387.51230294433</ele>
        <time>2021-03-03T17:32:15.791Z</time>
      </trkpt>
      <trkpt lat="44.59647" lon="1.52504">
        <ele>385.18028696915</ele>
        <time>2021-03-03T17:32:24.257Z</time>
      </trkpt>
      <trkpt lat="44.59659" lon="1.52508">
        <ele>383.16149531505</ele>
        <time>2021-03-03T17:32:32.726Z</time>
      </trkpt>
      <trkpt lat="44.59671" lon="1.52516">
        <ele>381.25886176941</ele>
        <time>2021-03-03T17:32:41.200Z</time>
      </trkpt>
      <trkpt lat="44.59692" lon="1.52536">
        <ele>379.49976988058</ele>
        <time>2021-03-03T17:32:49.681Z</time>
      </trkpt>
      <trkpt lat="44.59701" lon="1.52549">
        <ele>377.92774367845</ele>
        <time>2021-03-03T17:32:58.166Z</time>
      </trkpt>
      <trkpt lat="44.59714" lon="1.52574">
        <ele>376.52673272625</ele>
        <time>2021-03-03T17:33:06.658Z</time>
      </trkpt>
      <trkpt lat="44.59746" lon="1.52613">
        <ele>375.30500960565</ele>
        <time>2021-03-03T17:33:15.163Z</time>
      </trkpt>
      <trkpt lat="44.5977" lon="1.52647">
        <ele>374.25675447948</ele>
        <time>2021-03-03T17:33:23.679Z</time>
      </trkpt>
      <trkpt lat="44.59803" lon="1.52686">
        <ele>373.42325909244</ele>
        <time>2021-03-03T17:33:32.208Z</time>
      </trkpt>
      <trkpt lat="44.59866" lon="1.52767">
        <ele>373.04256973347</ele>
        <time>2021-03-03T17:33:40.763Z</time>
      </trkpt>
      <trkpt lat="44.59914" lon="1.52844">
        <ele>372.95725707606</ele>
        <time>2021-03-03T17:33:49.341Z</time>
      </trkpt>
      <trkpt lat="44.59959" lon="1.52891">
        <ele>373.00921620236</ele>
        <time>2021-03-03T17:33:57.936Z</time>
      </trkpt>
      <trkpt lat="44.60045" lon="1.53002">
        <ele>373.20511649009</ele>
        <time>2021-03-03T17:34:06.567Z</time>
      </trkpt>
      <trkpt lat="44.60086" lon="1.53058">
        <ele>373.33424211533</ele>
        <time>2021-03-03T17:34:15.216Z</time>
      </trkpt>
      <trkpt lat="44.60097" lon="1.53069">
        <ele>373.89558857802</ele>
        <time>2021-03-03T17:34:23.869Z</time>
      </trkpt>
      <trkpt lat="44.60103" lon="1.53071">
        <ele>374.66328694254</ele>
        <time>2021-03-03T17:34:32.524Z</time>
      </trkpt>
      <trkpt lat="44.60109" lon="1.53069">
        <ele>375.60877035295</ele>
        <time>2021-03-03T17:34:41.180Z</time>
      </trkpt>
      <trkpt lat="44.60113" lon="1.53064">
        <ele>376.70668306313</ele>
        <time>2021-03-03T17:34:49.838Z</time>
      </trkpt>
      <trkpt lat="44.6019" lon="1.52937">
        <ele>378.00760842196</ele>
        <time>2021-03-03T17:34:58.533Z</time>
      </trkpt>
      <trkpt lat="44.602" lon="1.52914">
        <ele>379.33283497872</ele>
        <time>2021-03-03T17:35:07.234Z</time>
      </trkpt>
      <trkpt lat="44.60206" lon="1.52882">
        <ele>380.71866140131</ele>
        <time>2021-03-03T17:35:15.942Z</time>
      </trkpt>
      <trkpt lat="44.60211" lon="1.52875">
        <ele>382.07866750413</ele>
        <time>2021-03-03T17:35:24.652Z</time>
      </trkpt>
      <trkpt lat="44.60242" lon="1.52872">
        <ele>383.45405421957</ele>
        <time>2021-03-03T17:35:33.372Z</time>
      </trkpt>
      <trkpt lat="44.60266" lon="1.52876">
        <ele>384.73599420586</ele>
        <time>2021-03-03T17:35:42.099Z</time>
      </trkpt>
      <trkpt lat="44.60307" lon="1.52892">
        <ele>385.94591562355</ele>
        <time>2021-03-03T17:35:50.839Z</time>
      </trkpt>
      <trkpt lat="44.60313" lon="1.52893">
        <ele>386.91758802193</ele>
        <time>2021-03-03T17:35:59.581Z</time>
      </trkpt>
      <trkpt lat="44.6035" lon="1.52885">
        <ele>387.76911855013</ele>
        <time>2021-03-03T17:36:08.335Z</time>
      </trkpt>
      <trkpt lat="44.60413" lon="1.52848">
        <ele>388.39293452432</ele>
        <time>2021-03-03T17:36:17.110Z</time>
      </trkpt>
      <trkpt lat="44.60482" lon="1.52815">
        <ele>388.57753552446</ele>
        <time>2021-03-03T17:36:25.907Z</time>
      </trkpt>
      <trkpt lat="44.60495" lon="1.52804">
        <ele>388.52052289291</ele>
        <time>2021-03-03T17:36:34.709Z</time>
      </trkpt>
      <trkpt lat="44.60521" lon="1.52776">
        <ele>388.10372717068</ele>
        <time>2021-03-03T17:36:43.521Z</time>
      </trkpt>
      <trkpt lat="44.60523" lon="1.52756">
        <ele>387.36882028809</ele>
        <time>2021-03-03T17:36:52.337Z</time>
      </trkpt>
      <trkpt lat="44.60509" lon="1.52714">
        <ele>386.20703641152</ele>
        <time>2021-03-03T17:37:01.164Z</time>
      </trkpt>
      <trkpt lat="44.60504" lon="1.52693">
        <ele>384.80762811372</ele>
        <time>2021-03-03T17:37:09.995Z</time>
      </trkpt>
      <trkpt lat="44.60504" lon="1.52683">
        <ele>383.15065650223</ele>
        <time>2021-03-03T17:37:18.829Z</time>
      </trkpt>
      <trkpt lat="44.60509" lon="1.52658">
        <ele>381.17174105749</ele>
        <time>2021-03-03T17:37:27.668Z</time>
      </trkpt>
      <trkpt lat="44.60497" lon="1.5263">
        <ele>378.79166791341</ele>
        <time>2021-03-03T17:37:36.514Z</time>
      </trkpt>
      <trkpt lat="44.60486" lon="1.52614">
        <ele>376.1572354304</ele>
        <time>2021-03-03T17:37:45.365Z</time>
      </trkpt>
      <trkpt lat="44.60458" lon="1.52601">
        <ele>373.19190853346</ele>
        <time>2021-03-03T17:37:54.225Z</time>
      </trkpt>
      <trkpt lat="44.60405" lon="1.52563">
        <ele>370.00951194012</ele>
        <time>2021-03-03T17:38:03.104Z</time>
      </trkpt>
      <trkpt lat="44.60405" lon="1.52563">
        <ele>366.73761112811</ele>
        <time>2021-03-03T17:38:11.983Z</time>
      </trkpt>
      <trkpt lat="44.60407" lon="1.5256">
        <ele>359.62786562227</ele>
        <time>2021-03-03T17:38:20.862Z</time>
      </trkpt>
      <trkpt lat="44.60436" lon="1.52586">
        <ele>355.89384049667</ele>
        <time>2021-03-03T17:38:29.752Z</time>
      </trkpt>
      <trkpt lat="44.60436" lon="1.52586">
        <ele>352.01553299235</ele>
        <time>2021-03-03T17:38:38.642Z</time>
      </trkpt>
      <trkpt lat="44.60462" lon="1.52521">
        <ele>347.97463179426</ele>
        <time>2021-03-03T17:38:47.548Z</time>
      </trkpt>
      <trkpt lat="44.60521" lon="1.5236">
        <ele>343.80418075162</ele>
        <time>2021-03-03T17:38:56.494Z</time>
      </trkpt>
      <trkpt lat="44.60572" lon="1.52308">
        <ele>339.6336552993</ele>
        <time>2021-03-03T17:39:05.459Z</time>
      </trkpt>
      <trkpt lat="44.60608" lon="1.52301">
        <ele>335.77142987716</ele>
        <time>2021-03-03T17:39:14.436Z</time>
      </trkpt>
      <trkpt lat="44.60719" lon="1.52363">
        <ele>331.95768712796</ele>
        <time>2021-03-03T17:39:23.449Z</time>
      </trkpt>
      <trkpt lat="44.60776" lon="1.52353">
        <ele>328.1919153201</ele>
        <time>2021-03-03T17:39:32.480Z</time>
      </trkpt>
      <trkpt lat="44.60798" lon="1.52361">
        <ele>325.02698591073</ele>
        <time>2021-03-03T17:39:41.518Z</time>
      </trkpt>
      <trkpt lat="44.60826" lon="1.52446">
        <ele>322.3274228496</ele>
        <time>2021-03-03T17:39:50.577Z</time>
      </trkpt>
      <trkpt lat="44.60861" lon="1.52529">
        <ele>319.61377624671</ele>
        <time>2021-03-03T17:39:59.657Z</time>
      </trkpt>
      <trkpt lat="44.60861" lon="1.52529">
        <ele>317.80051616723</ele>
        <time>2021-03-03T17:40:08.737Z</time>
      </trkpt>
      <trkpt lat="44.60844" lon="1.5238">
        <ele>316.44068092259</ele>
        <time>2021-03-03T17:40:17.850Z</time>
      </trkpt>
      <trkpt lat="44.60844" lon="1.52216">
        <ele>315.24046541871</ele>
        <time>2021-03-03T17:40:26.999Z</time>
      </trkpt>
      <trkpt lat="44.6084" lon="1.52192">
        <ele>315.17765109008</ele>
        <time>2021-03-03T17:40:36.154Z</time>
      </trkpt>
      <trkpt lat="44.60858" lon="1.52131">
        <ele>315.95828431282</ele>
        <time>2021-03-03T17:40:45.323Z</time>
      </trkpt>
      <trkpt lat="44.6081" lon="1.52045">
        <ele>317.4528103624</ele>
        <time>2021-03-03T17:40:54.516Z</time>
      </trkpt>
      <trkpt lat="44.60715" lon="1.51961">
        <ele>319.23987060666</ele>
        <time>2021-03-03T17:41:03.743Z</time>
      </trkpt>
      <trkpt lat="44.60708" lon="1.51936">
        <ele>321.70806864145</ele>
        <time>2021-03-03T17:41:12.976Z</time>
      </trkpt>
      <trkpt lat="44.60764" lon="1.51718">
        <ele>324.93674845498</ele>
        <time>2021-03-03T17:41:22.260Z</time>
      </trkpt>
      <trkpt lat="44.60861" lon="1.51424">
        <ele>328.77061694859</ele>
        <time>2021-03-03T17:41:31.616Z</time>
      </trkpt>
      <trkpt lat="44.60906" lon="1.51329">
        <ele>332.68521428724</ele>
        <time>2021-03-03T17:41:40.997Z</time>
      </trkpt>
      <trkpt lat="44.60977" lon="1.51246">
        <ele>337.18965464167</ele>
        <time>2021-03-03T17:41:50.406Z</time>
      </trkpt>
      <trkpt lat="44.60989" lon="1.51203">
        <ele>341.51588839723</ele>
        <time>2021-03-03T17:41:59.825Z</time>
      </trkpt>
      <trkpt lat="44.60987" lon="1.51146">
        <ele>346.11677091063</ele>
        <time>2021-03-03T17:42:09.257Z</time>
      </trkpt>
      <trkpt lat="44.61009" lon="1.51093">
        <ele>350.90444145446</ele>
        <time>2021-03-03T17:42:18.702Z</time>
      </trkpt>
      <trkpt lat="44.61009" lon="1.51093">
        <ele>355.3752831754</ele>
        <time>2021-03-03T17:42:28.147Z</time>
      </trkpt>
      <trkpt lat="44.61014" lon="1.50973">
        <ele>360.13709986424</ele>
        <time>2021-03-03T17:42:37.619Z</time>
      </trkpt>
      <trkpt lat="44.61001" lon="1.50883">
        <ele>364.54560792027</ele>
        <time>2021-03-03T17:42:47.111Z</time>
      </trkpt>
      <trkpt lat="44.61018" lon="1.50821">
        <ele>368.72211350113</ele>
        <time>2021-03-03T17:42:56.618Z</time>
      </trkpt>
      <trkpt lat="44.61019" lon="1.5079">
        <ele>372.65337893898</ele>
        <time>2021-03-03T17:43:06.131Z</time>
      </trkpt>
      <trkpt lat="44.6098" lon="1.50706">
        <ele>376.32461322429</ele>
        <time>2021-03-03T17:43:15.666Z</time>
      </trkpt>
      <trkpt lat="44.60921" lon="1.50647">
        <ele>379.71304904539</ele>
        <time>2021-03-03T17:43:25.224Z</time>
      </trkpt>
      <trkpt lat="44.60921" lon="1.50647">
        <ele>382.84628867525</ele>
        <time>2021-03-03T17:43:34.782Z</time>
      </trkpt>
      <trkpt lat="44.60913" lon="1.5064">
        <ele>385.77397481832</ele>
        <time>2021-03-03T17:43:44.343Z</time>
      </trkpt>
      <trkpt lat="44.60901" lon="1.50596">
        <ele>388.56188523792</ele>
        <time>2021-03-03T17:43:53.914Z</time>
      </trkpt>
      <trkpt lat="44.60936" lon="1.50601">
        <ele>390.93241345045</ele>
        <time>2021-03-03T17:44:03.496Z</time>
      </trkpt>
      <trkpt lat="44.60936" lon="1.50601">
        <ele>393.29004829897</ele>
        <time>2021-03-03T17:44:13.078Z</time>
      </trkpt>
      <trkpt lat="44.61026" lon="1.50598">
        <ele>395.2395113521</ele>
        <time>2021-03-03T17:44:22.688Z</time>
      </trkpt>
      <trkpt lat="44.61084" lon="1.5058">
        <ele>397.25892794982</ele>
        <time>2021-03-03T17:44:32.316Z</time>
      </trkpt>
      <trkpt lat="44.61072" lon="1.50462">
        <ele>399.63249843395</ele>
        <time>2021-03-03T17:44:41.970Z</time>
      </trkpt>
      <trkpt lat="44.61059" lon="1.50404">
        <ele>402.06797791452</ele>
        <time>2021-03-03T17:44:51.638Z</time>
      </trkpt>
      <trkpt lat="44.61076" lon="1.50316">
        <ele>404.33530732626</ele>
        <time>2021-03-03T17:45:01.326Z</time>
      </trkpt>
      <trkpt lat="44.61085" lon="1.50234">
        <ele>406.50931341258</ele>
        <time>2021-03-03T17:45:11.032Z</time>
      </trkpt>
      <trkpt lat="44.61109" lon="1.50209">
        <ele>408.62698880666</ele>
        <time>2021-03-03T17:45:20.747Z</time>
      </trkpt>
      <trkpt lat="44.61112" lon="1.50197">
        <ele>410.623929153</ele>
        <time>2021-03-03T17:45:30.465Z</time>
      </trkpt>
      <trkpt lat="44.61144" lon="1.5018">
        <ele>412.67416918587</ele>
        <time>2021-03-03T17:45:40.193Z</time>
      </trkpt>
      <trkpt lat="44.61158" lon="1.50161">
        <ele>414.6468082191</ele>
        <time>2021-03-03T17:45:49.927Z</time>
      </trkpt>
      <trkpt lat="44.61134" lon="1.50158">
        <ele>416.42478770103</ele>
        <time>2021-03-03T17:45:59.669Z</time>
      </trkpt>
      <trkpt lat="44.61107" lon="1.5014">
        <ele>418.13215442588</ele>
        <time>2021-03-03T17:46:09.420Z</time>
      </trkpt>
      <trkpt lat="44.61107" lon="1.5014">
        <ele>419.94060055935</ele>
        <time>2021-03-03T17:46:19.171Z</time>
      </trkpt>
      <trkpt lat="44.61141" lon="1.50065">
        <ele>421.76577157105</ele>
        <time>2021-03-03T17:46:28.942Z</time>
      </trkpt>
      <trkpt lat="44.61186" lon="1.49961">
        <ele>423.53611508916</ele>
        <time>2021-03-03T17:46:38.740Z</time>
      </trkpt>
      <trkpt lat="44.6124" lon="1.49833">
        <ele>425.61334392416</ele>
        <time>2021-03-03T17:46:48.570Z</time>
      </trkpt>
      <trkpt lat="44.61318" lon="1.49713">
        <ele>427.40809249834</ele>
        <time>2021-03-03T17:46:58.436Z</time>
      </trkpt>
      <trkpt lat="44.61349" lon="1.49677">
        <ele>428.89162143749</ele>
        <time>2021-03-03T17:47:08.314Z</time>
      </trkpt>
      <trkpt lat="44.61397" lon="1.49622">
        <ele>430.14125054016</ele>
        <time>2021-03-03T17:47:18.211Z</time>
      </trkpt>
      <trkpt lat="44.61464" lon="1.49544">
        <ele>431.19853550495</ele>
        <time>2021-03-03T17:47:28.135Z</time>
      </trkpt>
      <trkpt lat="44.61492" lon="1.49512">
        <ele>431.97765451693</ele>
        <time>2021-03-03T17:47:38.070Z</time>
      </trkpt>
      <trkpt lat="44.61512" lon="1.49494">
        <ele>432.52950292609</ele>
        <time>2021-03-03T17:47:48.013Z</time>
      </trkpt>
      <trkpt lat="44.61596" lon="1.4955">
        <ele>432.74609831967</ele>
        <time>2021-03-03T17:47:57.984Z</time>
      </trkpt>
      <trkpt lat="44.61611" lon="1.4957">
        <ele>432.88587609649</ele>
        <time>2021-03-03T17:48:07.962Z</time>
      </trkpt>
      <trkpt lat="44.61697" lon="1.49589">
        <ele>432.62895276437</ele>
        <time>2021-03-03T17:48:17.966Z</time>
      </trkpt>
      <trkpt lat="44.61725" lon="1.4962">
        <ele>432.36727168447</ele>
        <time>2021-03-03T17:48:27.981Z</time>
      </trkpt>
      <trkpt lat="44.6181" lon="1.49671">
        <ele>431.94049745951</ele>
        <time>2021-03-03T17:48:38.025Z</time>
      </trkpt>
      <trkpt lat="44.61821" lon="1.49672">
        <ele>431.439474553</ele>
        <time>2021-03-03T17:48:48.072Z</time>
      </trkpt>
      <trkpt lat="44.61828" lon="1.49687">
        <ele>430.84156311208</ele>
        <time>2021-03-03T17:48:58.123Z</time>
      </trkpt>
      <trkpt lat="44.61834" lon="1.4978">
        <ele>430.15852397992</ele>
        <time>2021-03-03T17:49:08.195Z</time>
      </trkpt>
      <trkpt lat="44.61841" lon="1.49791">
        <ele>429.31409133043</ele>
        <time>2021-03-03T17:49:18.270Z</time>
      </trkpt>
      <trkpt lat="44.61941" lon="1.4988">
        <ele>428.28113930058</ele>
        <time>2021-03-03T17:49:28.381Z</time>
      </trkpt>
      <trkpt lat="44.62" lon="1.49903">
        <ele>427.18292548011</ele>
        <time>2021-03-03T17:49:38.511Z</time>
      </trkpt>
      <trkpt lat="44.62026" lon="1.49927">
        <ele>426.07020512402</ele>
        <time>2021-03-03T17:49:48.651Z</time>
      </trkpt>
      <trkpt lat="44.62061" lon="1.49987">
        <ele>424.90906756809</ele>
        <time>2021-03-03T17:49:58.808Z</time>
      </trkpt>
      <trkpt lat="44.62097" lon="1.501">
        <ele>424.03697831122</ele>
        <time>2021-03-03T17:50:08.992Z</time>
      </trkpt>
      <trkpt lat="44.6211" lon="1.50126">
        <ele>423.00213435996</ele>
        <time>2021-03-03T17:50:19.183Z</time>
      </trkpt>
      <trkpt lat="44.6211" lon="1.50126">
        <ele>421.09495658347</ele>
        <time>2021-03-03T17:50:29.374Z</time>
      </trkpt>
      <trkpt lat="44.6211" lon="1.50126">
        <ele>420.16162624269</ele>
        <time>2021-03-03T17:50:39.565Z</time>
      </trkpt>
      <trkpt lat="44.6211" lon="1.50126">
        <ele>421.09495658347</ele>
        <time>2021-03-03T17:50:49.756Z</time>
      </trkpt>
      <trkpt lat="44.62126" lon="1.50162">
        <ele>418.23225392865</ele>
        <time>2021-03-03T17:50:59.956Z</time>
      </trkpt>
      <trkpt lat="44.62194" lon="1.50057">
        <ele>417.41756072166</ele>
        <time>2021-03-03T17:51:10.187Z</time>
      </trkpt>
      <trkpt lat="44.62229" lon="1.50014">
        <ele>416.4748855725</ele>
        <time>2021-03-03T17:51:20.433Z</time>
      </trkpt>
      <trkpt lat="44.62237" lon="1.49974">
        <ele>415.44523767974</ele>
        <time>2021-03-03T17:51:30.688Z</time>
      </trkpt>
      <trkpt lat="44.62256" lon="1.49937">
        <ele>414.24786270586</ele>
        <time>2021-03-03T17:51:40.953Z</time>
      </trkpt>
      <trkpt lat="44.62283" lon="1.49895">
        <ele>412.97406309903</ele>
        <time>2021-03-03T17:51:51.230Z</time>
      </trkpt>
      <trkpt lat="44.62301" lon="1.49882">
        <ele>411.77621461</ele>
        <time>2021-03-03T17:52:01.514Z</time>
      </trkpt>
      <trkpt lat="44.62347" lon="1.49824">
        <ele>410.54582050005</ele>
        <time>2021-03-03T17:52:11.817Z</time>
      </trkpt>
      <trkpt lat="44.62378" lon="1.49761">
        <ele>409.05341720953</ele>
        <time>2021-03-03T17:52:22.137Z</time>
      </trkpt>
      <trkpt lat="44.62481" lon="1.49602">
        <ele>407.33113143317</ele>
        <time>2021-03-03T17:52:32.504Z</time>
      </trkpt>
      <trkpt lat="44.62497" lon="1.49533">
        <ele>405.61574834256</ele>
        <time>2021-03-03T17:52:42.887Z</time>
      </trkpt>
      <trkpt lat="44.62561" lon="1.49471">
        <ele>403.69401548797</ele>
        <time>2021-03-03T17:52:53.294Z</time>
      </trkpt>
      <trkpt lat="44.62576" lon="1.49428">
        <ele>401.77626404297</ele>
        <time>2021-03-03T17:53:03.711Z</time>
      </trkpt>
      <trkpt lat="44.62574" lon="1.4927">
        <ele>399.92558449917</ele>
        <time>2021-03-03T17:53:14.163Z</time>
      </trkpt>
      <trkpt lat="44.62593" lon="1.4924">
        <ele>398.12040233124</ele>
        <time>2021-03-03T17:53:24.624Z</time>
      </trkpt>
      <trkpt lat="44.62616" lon="1.49229">
        <ele>396.29223158538</ele>
        <time>2021-03-03T17:53:35.092Z</time>
      </trkpt>
      <trkpt lat="44.6273" lon="1.49244">
        <ele>394.87651447474</ele>
        <time>2021-03-03T17:53:45.595Z</time>
      </trkpt>
      <trkpt lat="44.62748" lon="1.49237">
        <ele>393.13671409427</ele>
        <time>2021-03-03T17:53:56.104Z</time>
      </trkpt>
      <trkpt lat="44.62754" lon="1.49241">
        <ele>391.27778735582</ele>
        <time>2021-03-03T17:54:06.615Z</time>
      </trkpt>
      <trkpt lat="44.62773" lon="1.49238">
        <ele>389.32492135931</ele>
        <time>2021-03-03T17:54:17.132Z</time>
      </trkpt>
      <trkpt lat="44.62839" lon="1.49188">
        <ele>387.17289470566</ele>
        <time>2021-03-03T17:54:27.672Z</time>
      </trkpt>
      <trkpt lat="44.62865" lon="1.49149">
        <ele>385.03274562414</ele>
        <time>2021-03-03T17:54:38.224Z</time>
      </trkpt>
      <trkpt lat="44.62822" lon="1.48959">
        <ele>382.38710854797</ele>
        <time>2021-03-03T17:54:48.820Z</time>
      </trkpt>
      <trkpt lat="44.6284" lon="1.48936">
        <ele>380.00243573326</ele>
        <time>2021-03-03T17:54:59.423Z</time>
      </trkpt>
      <trkpt lat="44.62892" lon="1.48864">
        <ele>377.39957078437</ele>
        <time>2021-03-03T17:55:10.049Z</time>
      </trkpt>
      <trkpt lat="44.62909" lon="1.48884">
        <ele>374.84092897402</ele>
        <time>2021-03-03T17:55:20.682Z</time>
      </trkpt>
      <trkpt lat="44.62995" lon="1.48917">
        <ele>371.95266010954</ele>
        <time>2021-03-03T17:55:31.342Z</time>
      </trkpt>
      <trkpt lat="44.63026" lon="1.48937">
        <ele>369.28660291316</ele>
        <time>2021-03-03T17:55:42.013Z</time>
      </trkpt>
      <trkpt lat="44.63061" lon="1.48939">
        <ele>366.44005542416</ele>
        <time>2021-03-03T17:55:52.694Z</time>
      </trkpt>
      <trkpt lat="44.63114" lon="1.48974">
        <ele>363.2730512171</ele>
        <time>2021-03-03T17:56:03.393Z</time>
      </trkpt>
      <trkpt lat="44.63213" lon="1.48987">
        <ele>360.09808029</ele>
        <time>2021-03-03T17:56:14.123Z</time>
      </trkpt>
      <trkpt lat="44.63286" lon="1.49046">
        <ele>356.94778433536</ele>
        <time>2021-03-03T17:56:24.879Z</time>
      </trkpt>
      <trkpt lat="44.63301" lon="1.49049">
        <ele>353.96597754591</ele>
        <time>2021-03-03T17:56:35.639Z</time>
      </trkpt>
      <trkpt lat="44.63313" lon="1.49045">
        <ele>350.95081356912</ele>
        <time>2021-03-03T17:56:46.403Z</time>
      </trkpt>
      <trkpt lat="44.63352" lon="1.48969">
        <ele>347.76529129207</ele>
        <time>2021-03-03T17:56:57.188Z</time>
      </trkpt>
      <trkpt lat="44.63376" lon="1.48948">
        <ele>344.7553029914</ele>
        <time>2021-03-03T17:57:07.981Z</time>
      </trkpt>
      <trkpt lat="44.63425" lon="1.48926">
        <ele>341.85357074504</ele>
        <time>2021-03-03T17:57:18.790Z</time>
      </trkpt>
      <trkpt lat="44.63436" lon="1.48923">
        <ele>338.95707778902</ele>
        <time>2021-03-03T17:57:29.603Z</time>
      </trkpt>
      <trkpt lat="44.63436" lon="1.48923">
        <ele>336.14217626934</ele>
        <time>2021-03-03T17:57:40.416Z</time>
      </trkpt>
      <trkpt lat="44.63436" lon="1.48923">
        <ele>333.40848772319</ele>
        <time>2021-03-03T17:57:51.229Z</time>
      </trkpt>
      <trkpt lat="44.63497" lon="1.48909">
        <ele>330.68732116619</ele>
        <time>2021-03-03T17:58:02.061Z</time>
      </trkpt>
      <trkpt lat="44.63518" lon="1.48886">
        <ele>328.13650360596</ele>
        <time>2021-03-03T17:58:12.901Z</time>
      </trkpt>
      <trkpt lat="44.63565" lon="1.48857">
        <ele>325.67900063358</ele>
        <time>2021-03-03T17:58:23.757Z</time>
      </trkpt>
      <trkpt lat="44.63738" lon="1.4882">
        <ele>323.11352200857</ele>
        <time>2021-03-03T17:58:34.667Z</time>
      </trkpt>
      <trkpt lat="44.63831" lon="1.48777">
        <ele>320.84890601998</ele>
        <time>2021-03-03T17:58:45.607Z</time>
      </trkpt>
      <trkpt lat="44.63901" lon="1.4877">
        <ele>319.11561601813</ele>
        <time>2021-03-03T17:58:56.568Z</time>
      </trkpt>
      <trkpt lat="44.64001" lon="1.48841">
        <ele>317.56832235454</ele>
        <time>2021-03-03T17:59:07.564Z</time>
      </trkpt>
      <trkpt lat="44.64047" lon="1.48845">
        <ele>316.44227346076</ele>
        <time>2021-03-03T17:59:18.574Z</time>
      </trkpt>
      <trkpt lat="44.64091" lon="1.48885">
        <ele>315.66013027636</ele>
        <time>2021-03-03T17:59:29.600Z</time>
      </trkpt>
      <trkpt lat="44.64108" lon="1.4887">
        <ele>315.27936341596</ele>
        <time>2021-03-03T17:59:40.632Z</time>
      </trkpt>
      <trkpt lat="44.64124" lon="1.48837">
        <ele>315.50146021266</ele>
        <time>2021-03-03T17:59:51.673Z</time>
      </trkpt>
      <trkpt lat="44.64119" lon="1.48827">
        <ele>315.89941783246</ele>
        <time>2021-03-03T18:00:02.717Z</time>
      </trkpt>
      <trkpt lat="44.64094" lon="1.48814">
        <ele>316.51552591176</ele>
        <time>2021-03-03T18:00:13.769Z</time>
      </trkpt>
      <trkpt lat="44.6409" lon="1.48808">
        <ele>317.42839424092</ele>
        <time>2021-03-03T18:00:24.823Z</time>
      </trkpt>
      <trkpt lat="44.64095" lon="1.48798">
        <ele>318.59093636735</ele>
        <time>2021-03-03T18:00:35.879Z</time>
      </trkpt>
      <trkpt lat="44.64218" lon="1.48851">
        <ele>320.09074201047</ele>
        <time>2021-03-03T18:00:46.975Z</time>
      </trkpt>
      <trkpt lat="44.64253" lon="1.48877">
        <ele>321.38838136059</ele>
        <time>2021-03-03T18:00:58.083Z</time>
      </trkpt>
      <trkpt lat="44.64258" lon="1.48867">
        <ele>322.70508449245</ele>
        <time>2021-03-03T18:01:09.194Z</time>
      </trkpt>
      <trkpt lat="44.64228" lon="1.48766">
        <ele>324.11961675545</ele>
        <time>2021-03-03T18:01:20.329Z</time>
      </trkpt>
      <trkpt lat="44.6422" lon="1.48704">
        <ele>325.18660348041</ele>
        <time>2021-03-03T18:01:31.478Z</time>
      </trkpt>
      <trkpt lat="44.6422" lon="1.48631">
        <ele>325.91105808251</ele>
        <time>2021-03-03T18:01:42.643Z</time>
      </trkpt>
      <trkpt lat="44.64268" lon="1.48617">
        <ele>326.41013542001</ele>
        <time>2021-03-03T18:01:53.823Z</time>
      </trkpt>
      <trkpt lat="44.64318" lon="1.48619">
        <ele>326.60346968025</ele>
        <time>2021-03-03T18:02:05.018Z</time>
      </trkpt>
      <trkpt lat="44.64454" lon="1.48658">
        <ele>326.67939771443</ele>
        <time>2021-03-03T18:02:16.256Z</time>
      </trkpt>
      <trkpt lat="44.64483" lon="1.48674">
        <ele>326.06182238243</ele>
        <time>2021-03-03T18:02:27.503Z</time>
      </trkpt>
      <trkpt lat="44.64579" lon="1.48765">
        <ele>324.7467582059</ele>
        <time>2021-03-03T18:02:38.786Z</time>
      </trkpt>
      <trkpt lat="44.64644" lon="1.4877">
        <ele>323.10163930184</ele>
        <time>2021-03-03T18:02:50.089Z</time>
      </trkpt>
      <trkpt lat="44.64674" lon="1.48759">
        <ele>321.13177720111</ele>
        <time>2021-03-03T18:03:01.402Z</time>
      </trkpt>
      <trkpt lat="44.64686" lon="1.48745">
        <ele>318.78625650023</ele>
        <time>2021-03-03T18:03:12.720Z</time>
      </trkpt>
      <trkpt lat="44.64686" lon="1.48617">
        <ele>316.00271751756</ele>
        <time>2021-03-03T18:03:24.066Z</time>
      </trkpt>
      <trkpt lat="44.64704" lon="1.48544">
        <ele>312.72614485368</ele>
        <time>2021-03-03T18:03:35.429Z</time>
      </trkpt>
      <trkpt lat="44.64718" lon="1.48519">
        <ele>309.2292845558</ele>
        <time>2021-03-03T18:03:46.799Z</time>
      </trkpt>
      <trkpt lat="44.64791" lon="1.48502">
        <ele>305.38792109223</ele>
        <time>2021-03-03T18:03:58.191Z</time>
      </trkpt>
      <trkpt lat="44.64845" lon="1.48502">
        <ele>301.26491460352</ele>
        <time>2021-03-03T18:04:09.600Z</time>
      </trkpt>
      <trkpt lat="44.64877" lon="1.48516">
        <ele>296.96891497916</ele>
        <time>2021-03-03T18:04:21.019Z</time>
      </trkpt>
      <trkpt lat="44.64904" lon="1.48546">
        <ele>292.61905354421</ele>
        <time>2021-03-03T18:04:32.449Z</time>
      </trkpt>
      <trkpt lat="44.64932" lon="1.4852">
        <ele>288.05993735159</ele>
        <time>2021-03-03T18:04:43.889Z</time>
      </trkpt>
      <trkpt lat="44.6497" lon="1.48525">
        <ele>283.73390825622</ele>
        <time>2021-03-03T18:04:55.341Z</time>
      </trkpt>
      <trkpt lat="44.65" lon="1.48414">
        <ele>279.71546493335</ele>
        <time>2021-03-03T18:05:06.819Z</time>
      </trkpt>
      <trkpt lat="44.65011" lon="1.48333">
        <ele>275.88192651316</ele>
        <time>2021-03-03T18:05:18.315Z</time>
      </trkpt>
      <trkpt lat="44.65038" lon="1.48261">
        <ele>272.33479951295</ele>
        <time>2021-03-03T18:05:29.829Z</time>
      </trkpt>
      <trkpt lat="44.65173" lon="1.48031">
        <ele>268.65919276387</ele>
        <time>2021-03-03T18:05:41.408Z</time>
      </trkpt>
      <trkpt lat="44.65242" lon="1.47842">
        <ele>265.44911354627</ele>
        <time>2021-03-03T18:05:53.034Z</time>
      </trkpt>
      <trkpt lat="44.65271" lon="1.47809">
        <ele>262.71123018085</ele>
        <time>2021-03-03T18:06:04.671Z</time>
      </trkpt>
      <trkpt lat="44.65303" lon="1.47804">
        <ele>260.35021500389</ele>
        <time>2021-03-03T18:06:16.318Z</time>
      </trkpt>
      <trkpt lat="44.65361" lon="1.47764">
        <ele>258.31384299254</ele>
        <time>2021-03-03T18:06:27.985Z</time>
      </trkpt>
      <trkpt lat="44.65417" lon="1.47758">
        <ele>256.73734465968</ele>
        <time>2021-03-03T18:06:39.669Z</time>
      </trkpt>
      <trkpt lat="44.65523" lon="1.47813">
        <ele>255.47697967266</ele>
        <time>2021-03-03T18:06:51.388Z</time>
      </trkpt>
      <trkpt lat="44.65636" lon="1.4784">
        <ele>254.56861688752</ele>
        <time>2021-03-03T18:07:03.143Z</time>
      </trkpt>
      <trkpt lat="44.65657" lon="1.47851">
        <ele>254.11456772456</ele>
        <time>2021-03-03T18:07:14.905Z</time>
      </trkpt>
      <trkpt lat="44.65725" lon="1.47953">
        <ele>253.98587896459</ele>
        <time>2021-03-03T18:07:26.697Z</time>
      </trkpt>
      <trkpt lat="44.6578" lon="1.47973">
        <ele>254.37423653778</ele>
        <time>2021-03-03T18:07:38.507Z</time>
      </trkpt>
      <trkpt lat="44.658" lon="1.47984">
        <ele>255.02008830734</ele>
        <time>2021-03-03T18:07:50.323Z</time>
      </trkpt>
      <trkpt lat="44.65866" lon="1.48081">
        <ele>256.14479412548</ele>
        <time>2021-03-03T18:08:02.169Z</time>
      </trkpt>
      <trkpt lat="44.65886" lon="1.48116">
        <ele>257.29477368949</ele>
        <time>2021-03-03T18:08:14.024Z</time>
      </trkpt>
      <trkpt lat="44.65912" lon="1.48208">
        <ele>258.57668748159</ele>
        <time>2021-03-03T18:08:25.901Z</time>
      </trkpt>
      <trkpt lat="44.65912" lon="1.48208">
        <ele>260.07410153819</ele>
        <time>2021-03-03T18:08:37.778Z</time>
      </trkpt>
      <trkpt lat="44.6604" lon="1.48309">
        <ele>262.09820646117</ele>
        <time>2021-03-03T18:08:49.700Z</time>
      </trkpt>
      <trkpt lat="44.66037" lon="1.4832">
        <ele>263.78474562575</ele>
        <time>2021-03-03T18:09:01.625Z</time>
      </trkpt>
      <trkpt lat="44.65976" lon="1.48352">
        <ele>265.5540929646</ele>
        <time>2021-03-03T18:09:13.570Z</time>
      </trkpt>
      <trkpt lat="44.65923" lon="1.48416">
        <ele>267.25746478728</ele>
        <time>2021-03-03T18:09:25.537Z</time>
      </trkpt>
      <trkpt lat="44.65923" lon="1.48416">
        <ele>268.77476918121</ele>
        <time>2021-03-03T18:09:37.504Z</time>
      </trkpt>
      <trkpt lat="44.65882" lon="1.48456">
        <ele>270.23819983435</ele>
        <time>2021-03-03T18:09:49.486Z</time>
      </trkpt>
      <trkpt lat="44.65882" lon="1.48456">
        <ele>271.50262062625</ele>
        <time>2021-03-03T18:10:01.468Z</time>
      </trkpt>
      <trkpt lat="44.65882" lon="1.48456">
        <ele>272.61453535536</ele>
        <time>2021-03-03T18:10:13.450Z</time>
      </trkpt>
      <trkpt lat="44.65923" lon="1.48416">
        <ele>268.77476918121</ele>
        <time>2021-03-03T18:10:25.447Z</time>
      </trkpt>
      <trkpt lat="44.65923" lon="1.48416">
        <ele>267.25746478728</ele>
        <time>2021-03-03T18:10:37.444Z</time>
      </trkpt>
      <trkpt lat="44.65976" lon="1.48352">
        <ele>265.5540929646</ele>
        <time>2021-03-03T18:10:49.463Z</time>
      </trkpt>
      <trkpt lat="44.66037" lon="1.4832">
        <ele>263.78474562575</ele>
        <time>2021-03-03T18:11:01.502Z</time>
      </trkpt>
      <trkpt lat="44.6604" lon="1.48309">
        <ele>262.09820646117</ele>
        <time>2021-03-03T18:11:13.544Z</time>
      </trkpt>
      <trkpt lat="44.65912" lon="1.48208">
        <ele>260.07410153819</ele>
        <time>2021-03-03T18:11:25.631Z</time>
      </trkpt>
      <trkpt lat="44.65824" lon="1.48219">
        <ele>276.10149058333</ele>
        <time>2021-03-03T18:11:37.745Z</time>
      </trkpt>
      <trkpt lat="44.65773" lon="1.48253">
        <ele>276.51466917602</ele>
        <time>2021-03-03T18:11:49.876Z</time>
      </trkpt>
      <trkpt lat="44.65759" lon="1.48247">
        <ele>276.67539824869</ele>
        <time>2021-03-03T18:12:02.012Z</time>
      </trkpt>
      <trkpt lat="44.65696" lon="1.48184">
        <ele>276.59529929876</ele>
        <time>2021-03-03T18:12:14.172Z</time>
      </trkpt>
      <trkpt lat="44.65685" lon="1.48182">
        <ele>276.52781239425</ele>
        <time>2021-03-03T18:12:26.335Z</time>
      </trkpt>
      <trkpt lat="44.65576" lon="1.48278">
        <ele>276.35494305848</ele>
        <time>2021-03-03T18:12:38.538Z</time>
      </trkpt>
      <trkpt lat="44.65568" lon="1.48277">
        <ele>276.28644152977</ele>
        <time>2021-03-03T18:12:50.743Z</time>
      </trkpt>
      <trkpt lat="44.65432" lon="1.48439">
        <ele>276.37157016818</ele>
        <time>2021-03-03T18:13:03.003Z</time>
      </trkpt>
      <trkpt lat="44.65393" lon="1.48494">
        <ele>276.46925741204</ele>
        <time>2021-03-03T18:13:15.280Z</time>
      </trkpt>
      <trkpt lat="44.65334" lon="1.48597">
        <ele>276.69924255454</ele>
        <time>2021-03-03T18:13:27.586Z</time>
      </trkpt>
      <trkpt lat="44.65304" lon="1.48634">
        <ele>276.76982629006</ele>
        <time>2021-03-03T18:13:39.904Z</time>
      </trkpt>
      <trkpt lat="44.6516" lon="1.48783">
        <ele>277.00918439746</ele>
        <time>2021-03-03T18:13:52.277Z</time>
      </trkpt>
      <trkpt lat="44.6512" lon="1.4884">
        <ele>277.09305724744</ele>
        <time>2021-03-03T18:14:04.668Z</time>
      </trkpt>
      <trkpt lat="44.6511" lon="1.48867">
        <ele>277.25193198595</ele>
        <time>2021-03-03T18:14:17.066Z</time>
      </trkpt>
      <trkpt lat="44.65109" lon="1.4887">
        <ele>277.37999020331</ele>
        <time>2021-03-03T18:14:29.464Z</time>
      </trkpt>
      <trkpt lat="44.65109" lon="1.4887">
        <ele>277.49496669359</ele>
        <time>2021-03-03T18:14:41.863Z</time>
      </trkpt>
      <trkpt lat="44.6511" lon="1.48871">
        <ele>277.60847767851</ele>
        <time>2021-03-03T18:14:54.262Z</time>
      </trkpt>
      <trkpt lat="44.6511" lon="1.48871">
        <ele>277.70924525531</ele>
        <time>2021-03-03T18:15:06.661Z</time>
      </trkpt>
      <trkpt lat="44.65106" lon="1.48897">
        <ele>277.82792013396</ele>
        <time>2021-03-03T18:15:19.066Z</time>
      </trkpt>
      <trkpt lat="44.65106" lon="1.48925">
        <ele>277.93230753549</ele>
        <time>2021-03-03T18:15:31.477Z</time>
      </trkpt>
      <trkpt lat="44.65107" lon="1.48932">
        <ele>278.00961918825</ele>
        <time>2021-03-03T18:15:43.889Z</time>
      </trkpt>
      <trkpt lat="44.65107" lon="1.48933">
        <ele>278.07331303076</ele>
        <time>2021-03-03T18:15:56.302Z</time>
      </trkpt>
      <trkpt lat="44.65107" lon="1.48933">
        <ele>278.13256937705</ele>
        <time>2021-03-03T18:16:08.715Z</time>
      </trkpt>
      <trkpt lat="44.65105" lon="1.48909">
        <ele>278.16627235924</ele>
        <time>2021-03-03T18:16:21.133Z</time>
      </trkpt>
      <trkpt lat="44.65108" lon="1.48881">
        <ele>278.2269084874</ele>
        <time>2021-03-03T18:16:33.557Z</time>
      </trkpt>
      <trkpt lat="44.65115" lon="1.48851">
        <ele>278.24476504867</ele>
        <time>2021-03-03T18:16:45.988Z</time>
      </trkpt>
      <trkpt lat="44.65121" lon="1.48836">
        <ele>278.33616778279</ele>
        <time>2021-03-03T18:16:58.423Z</time>
      </trkpt>
      <trkpt lat="44.65134" lon="1.48817">
        <ele>278.47563775739</ele>
        <time>2021-03-03T18:17:10.864Z</time>
      </trkpt>
      <trkpt lat="44.65139" lon="1.4881">
        <ele>278.66750666002</ele>
        <time>2021-03-03T18:17:23.307Z</time>
      </trkpt>
      <trkpt lat="44.6514" lon="1.4881">
        <ele>278.90671155157</ele>
        <time>2021-03-03T18:17:35.750Z</time>
      </trkpt>
      <trkpt lat="44.6514" lon="1.48809">
        <ele>279.19653228477</ele>
        <time>2021-03-03T18:17:48.193Z</time>
      </trkpt>
      <trkpt lat="44.65134" lon="1.48817">
        <ele>278.47563775739</ele>
        <time>2021-03-03T18:18:00.639Z</time>
      </trkpt>
      <trkpt lat="44.65121" lon="1.48836">
        <ele>278.33616778279</ele>
        <time>2021-03-03T18:18:13.091Z</time>
      </trkpt>
      <trkpt lat="44.65115" lon="1.48851">
        <ele>278.24476504867</ele>
        <time>2021-03-03T18:18:25.546Z</time>
      </trkpt>
      <trkpt lat="44.65108" lon="1.48881">
        <ele>278.2269084874</ele>
        <time>2021-03-03T18:18:38.008Z</time>
      </trkpt>
      <trkpt lat="44.65106" lon="1.48897">
        <ele>277.82792013396</ele>
        <time>2021-03-03T18:18:50.474Z</time>
      </trkpt>
      <trkpt lat="44.65106" lon="1.48925">
        <ele>277.93230753549</ele>
        <time>2021-03-03T18:19:02.946Z</time>
      </trkpt>
      <trkpt lat="44.65111" lon="1.48956">
        <ele>282.64507876167</ele>
        <time>2021-03-03T18:19:15.425Z</time>
      </trkpt>
      <trkpt lat="44.6513" lon="1.49028">
        <ele>283.32236875141</ele>
        <time>2021-03-03T18:19:27.921Z</time>
      </trkpt>
      <trkpt lat="44.65138" lon="1.49071">
        <ele>283.96062231303</ele>
        <time>2021-03-03T18:19:40.427Z</time>
      </trkpt>
      <trkpt lat="44.65138" lon="1.49122">
        <ele>284.51576618608</ele>
        <time>2021-03-03T18:19:52.944Z</time>
      </trkpt>
      <trkpt lat="44.65136" lon="1.49151">
        <ele>284.96526036095</ele>
        <time>2021-03-03T18:20:05.467Z</time>
      </trkpt>
      <trkpt lat="44.65128" lon="1.49204">
        <ele>285.31039125377</ele>
        <time>2021-03-03T18:20:18.002Z</time>
      </trkpt>
      <trkpt lat="44.6512" lon="1.4925">
        <ele>285.71253799295</ele>
        <time>2021-03-03T18:20:30.547Z</time>
      </trkpt>
      <trkpt lat="44.65113" lon="1.49273">
        <ele>286.07531251616</ele>
        <time>2021-03-03T18:20:43.098Z</time>
      </trkpt>
      <trkpt lat="44.65091" lon="1.49313">
        <ele>286.31345487342</ele>
        <time>2021-03-03T18:20:55.660Z</time>
      </trkpt>
      <trkpt lat="44.65075" lon="1.49346">
        <ele>286.57718160156</ele>
        <time>2021-03-03T18:21:08.231Z</time>
      </trkpt>
      <trkpt lat="44.65064" lon="1.49376">
        <ele>286.77776877056</ele>
        <time>2021-03-03T18:21:20.809Z</time>
      </trkpt>
      <trkpt lat="44.65056" lon="1.49407">
        <ele>287.03632882107</ele>
        <time>2021-03-03T18:21:33.394Z</time>
      </trkpt>
      <trkpt lat="44.65051" lon="1.49439">
        <ele>287.31801528213</ele>
        <time>2021-03-03T18:21:45.987Z</time>
      </trkpt>
      <trkpt lat="44.65048" lon="1.49489">
        <ele>287.4389209184</ele>
        <time>2021-03-03T18:21:58.591Z</time>
      </trkpt>
      <trkpt lat="44.65048" lon="1.4949">
        <ele>287.5500558291</ele>
        <time>2021-03-03T18:22:11.195Z</time>
      </trkpt>
      <trkpt lat="44.65048" lon="1.49491">
        <ele>287.63266937088</ele>
        <time>2021-03-03T18:22:23.799Z</time>
      </trkpt>
      <trkpt lat="44.65049" lon="1.49513">
        <ele>287.66387123569</ele>
        <time>2021-03-03T18:22:36.408Z</time>
      </trkpt>
      <trkpt lat="44.65054" lon="1.49537">
        <ele>287.69494752429</ele>
        <time>2021-03-03T18:22:49.022Z</time>
      </trkpt>
      <trkpt lat="44.65065" lon="1.49567">
        <ele>287.76428506755</ele>
        <time>2021-03-03T18:23:01.644Z</time>
      </trkpt>
      <trkpt lat="44.65067" lon="1.49556">
        <ele>287.7876414347</ele>
        <time>2021-03-03T18:23:14.268Z</time>
      </trkpt>
      <trkpt lat="44.65065" lon="1.49546">
        <ele>287.76402279999</ele>
        <time>2021-03-03T18:23:26.895Z</time>
      </trkpt>
      <trkpt lat="44.65064" lon="1.49545">
        <ele>287.73938332704</ele>
        <time>2021-03-03T18:23:39.522Z</time>
      </trkpt>
      <trkpt lat="44.65064" lon="1.49544">
        <ele>287.71015622629</ele>
        <time>2021-03-03T18:23:52.149Z</time>
      </trkpt>
      <trkpt lat="44.65067" lon="1.49556">
        <ele>287.7876414347</ele>
        <time>2021-03-03T18:24:04.779Z</time>
      </trkpt>
      <trkpt lat="44.65065" lon="1.49567">
        <ele>287.76428506755</ele>
        <time>2021-03-03T18:24:17.411Z</time>
      </trkpt>
      <trkpt lat="44.65064" lon="1.49583">
        <ele>287.63207687323</ele>
        <time>2021-03-03T18:24:30.047Z</time>
      </trkpt>
      <trkpt lat="44.65061" lon="1.49598">
        <ele>287.65503232538</ele>
        <time>2021-03-03T18:24:42.686Z</time>
      </trkpt>
      <trkpt lat="44.65051" lon="1.49618">
        <ele>287.68558144695</ele>
        <time>2021-03-03T18:24:55.331Z</time>
      </trkpt>
      <trkpt lat="44.65038" lon="1.49659">
        <ele>287.83191000668</ele>
        <time>2021-03-03T18:25:07.986Z</time>
      </trkpt>
      <trkpt lat="44.6503" lon="1.49686">
        <ele>288.02754758318</ele>
        <time>2021-03-03T18:25:20.647Z</time>
      </trkpt>
      <trkpt lat="44.6501" lon="1.49723">
        <ele>288.21574982553</ele>
        <time>2021-03-03T18:25:33.318Z</time>
      </trkpt>
      <trkpt lat="44.64993" lon="1.49747">
        <ele>288.38349606863</ele>
        <time>2021-03-03T18:25:45.997Z</time>
      </trkpt>
      <trkpt lat="44.64943" lon="1.49801">
        <ele>288.49050095232</ele>
        <time>2021-03-03T18:25:58.695Z</time>
      </trkpt>
      <trkpt lat="44.6491" lon="1.49829">
        <ele>288.72976445803</ele>
        <time>2021-03-03T18:26:11.405Z</time>
      </trkpt>
      <trkpt lat="44.64886" lon="1.4985">
        <ele>289.142778154</ele>
        <time>2021-03-03T18:26:24.124Z</time>
      </trkpt>
      <trkpt lat="44.64874" lon="1.49864">
        <ele>289.65099666447</ele>
        <time>2021-03-03T18:26:36.847Z</time>
      </trkpt>
      <trkpt lat="44.64856" lon="1.49895">
        <ele>290.29680256516</ele>
        <time>2021-03-03T18:26:49.579Z</time>
      </trkpt>
      <trkpt lat="44.64837" lon="1.49938">
        <ele>290.96066512131</ele>
        <time>2021-03-03T18:27:02.322Z</time>
      </trkpt>
      <trkpt lat="44.64821" lon="1.49983">
        <ele>291.79554351344</ele>
        <time>2021-03-03T18:27:15.076Z</time>
      </trkpt>
      <trkpt lat="44.64814" lon="1.50031">
        <ele>292.76740875871</ele>
        <time>2021-03-03T18:27:27.841Z</time>
      </trkpt>
      <trkpt lat="44.64806" lon="1.50103">
        <ele>293.80601448184</ele>
        <time>2021-03-03T18:27:40.622Z</time>
      </trkpt>
      <trkpt lat="44.64805" lon="1.50178">
        <ele>294.94721099285</ele>
        <time>2021-03-03T18:27:53.420Z</time>
      </trkpt>
      <trkpt lat="44.64804" lon="1.50195">
        <ele>296.1934373469</ele>
        <time>2021-03-03T18:28:06.221Z</time>
      </trkpt>
      <trkpt lat="44.64797" lon="1.5025">
        <ele>297.58154194059</ele>
        <time>2021-03-03T18:28:19.035Z</time>
      </trkpt>
      <trkpt lat="44.64796" lon="1.50256">
        <ele>299.08312342225</ele>
        <time>2021-03-03T18:28:31.850Z</time>
      </trkpt>
      <trkpt lat="44.64796" lon="1.50257">
        <ele>300.69303672225</ele>
        <time>2021-03-03T18:28:44.665Z</time>
      </trkpt>
      <trkpt lat="44.64795" lon="1.50259">
        <ele>302.41450955161</ele>
        <time>2021-03-03T18:28:57.481Z</time>
      </trkpt>
      <trkpt lat="44.64786" lon="1.50322">
        <ele>304.33830902251</ele>
        <time>2021-03-03T18:29:10.311Z</time>
      </trkpt>
      <trkpt lat="44.64787" lon="1.50358">
        <ele>306.31397149506</ele>
        <time>2021-03-03T18:29:23.149Z</time>
      </trkpt>
      <trkpt lat="44.64788" lon="1.50399">
        <ele>308.28730270962</ele>
        <time>2021-03-03T18:29:35.996Z</time>
      </trkpt>
      <trkpt lat="44.64797" lon="1.50457">
        <ele>310.34499565307</ele>
        <time>2021-03-03T18:29:48.856Z</time>
      </trkpt>
      <trkpt lat="44.64821" lon="1.50579">
        <ele>312.71505755907</ele>
        <time>2021-03-03T18:30:01.744Z</time>
      </trkpt>
      <trkpt lat="44.6483" lon="1.50628">
        <ele>314.79451312451</ele>
        <time>2021-03-03T18:30:14.643Z</time>
      </trkpt>
      <trkpt lat="44.64833" lon="1.50662">
        <ele>316.81688495477</ele>
        <time>2021-03-03T18:30:27.549Z</time>
      </trkpt>
      <trkpt lat="44.64833" lon="1.50685">
        <ele>318.71537504061</ele>
        <time>2021-03-03T18:30:40.460Z</time>
      </trkpt>
      <trkpt lat="44.64827" lon="1.50728">
        <ele>320.56714117373</ele>
        <time>2021-03-03T18:30:53.381Z</time>
      </trkpt>
      <trkpt lat="44.64821" lon="1.50759">
        <ele>322.30448451037</ele>
        <time>2021-03-03T18:31:06.309Z</time>
      </trkpt>
      <trkpt lat="44.64803" lon="1.50813">
        <ele>323.8092592664</ele>
        <time>2021-03-03T18:31:19.250Z</time>
      </trkpt>
      <trkpt lat="44.64791" lon="1.50837">
        <ele>325.15395511696</ele>
        <time>2021-03-03T18:31:32.198Z</time>
      </trkpt>
      <trkpt lat="44.64785" lon="1.50857">
        <ele>326.38897654445</ele>
        <time>2021-03-03T18:31:45.150Z</time>
      </trkpt>
      <trkpt lat="44.64782" lon="1.50878">
        <ele>327.44586329183</ele>
        <time>2021-03-03T18:31:58.107Z</time>
      </trkpt>
      <trkpt lat="44.64783" lon="1.50896">
        <ele>328.31432482638</ele>
        <time>2021-03-03T18:32:11.068Z</time>
      </trkpt>
      <trkpt lat="44.64788" lon="1.50914">
        <ele>328.9867468267</ele>
        <time>2021-03-03T18:32:24.033Z</time>
      </trkpt>
      <trkpt lat="44.64797" lon="1.50922">
        <ele>329.39289166716</ele>
        <time>2021-03-03T18:32:37.001Z</time>
      </trkpt>
      <trkpt lat="44.64775" lon="1.50946">
        <ele>329.45186162132</ele>
        <time>2021-03-03T18:32:49.978Z</time>
      </trkpt>
      <trkpt lat="44.64768" lon="1.50954">
        <ele>329.3266989436</ele>
        <time>2021-03-03T18:33:02.958Z</time>
      </trkpt>
      <trkpt lat="44.64761" lon="1.5096">
        <ele>328.96121558259</ele>
        <time>2021-03-03T18:33:15.940Z</time>
      </trkpt>
      <trkpt lat="44.64754" lon="1.50963">
        <ele>328.34894195911</ele>
        <time>2021-03-03T18:33:28.925Z</time>
      </trkpt>
      <trkpt lat="44.6475" lon="1.50962">
        <ele>327.49875442754</ele>
        <time>2021-03-03T18:33:41.911Z</time>
      </trkpt>
      <trkpt lat="44.64742" lon="1.5096">
        <ele>326.43910280075</ele>
        <time>2021-03-03T18:33:54.899Z</time>
      </trkpt>
      <trkpt lat="44.64735" lon="1.50956">
        <ele>325.19061207395</ele>
        <time>2021-03-03T18:34:07.890Z</time>
      </trkpt>
      <trkpt lat="44.64723" lon="1.5094">
        <ele>323.71466859112</ele>
        <time>2021-03-03T18:34:20.886Z</time>
      </trkpt>
      <trkpt lat="44.64701" lon="1.50879">
        <ele>321.83130622502</ele>
        <time>2021-03-03T18:34:33.897Z</time>
      </trkpt>
      <trkpt lat="44.64697" lon="1.50867">
        <ele>320.1875498114</ele>
        <time>2021-03-03T18:34:46.911Z</time>
      </trkpt>
      <trkpt lat="44.64692" lon="1.50861">
        <ele>318.55062389119</ele>
        <time>2021-03-03T18:34:59.927Z</time>
      </trkpt>
      <trkpt lat="44.64685" lon="1.50857">
        <ele>316.92927152351</ele>
        <time>2021-03-03T18:35:12.945Z</time>
      </trkpt>
      <trkpt lat="44.64676" lon="1.50854">
        <ele>315.34891219566</ele>
        <time>2021-03-03T18:35:25.966Z</time>
      </trkpt>
      <trkpt lat="44.64667" lon="1.50854">
        <ele>313.8480368952</ele>
        <time>2021-03-03T18:35:38.990Z</time>
      </trkpt>
      <trkpt lat="44.64657" lon="1.50858">
        <ele>312.45231958503</ele>
        <time>2021-03-03T18:35:52.017Z</time>
      </trkpt>
      <trkpt lat="44.64645" lon="1.50864">
        <ele>311.1719099115</ele>
        <time>2021-03-03T18:36:05.048Z</time>
      </trkpt>
      <trkpt lat="44.64635" lon="1.50866">
        <ele>309.9806242128</ele>
        <time>2021-03-03T18:36:18.082Z</time>
      </trkpt>
      <trkpt lat="44.6462" lon="1.50867">
        <ele>308.89994291663</ele>
        <time>2021-03-03T18:36:31.121Z</time>
      </trkpt>
      <trkpt lat="44.64602" lon="1.50869">
        <ele>307.99511381839</ele>
        <time>2021-03-03T18:36:44.165Z</time>
      </trkpt>
      <trkpt lat="44.64585" lon="1.50877">
        <ele>307.25002105891</ele>
        <time>2021-03-03T18:36:57.215Z</time>
      </trkpt>
      <trkpt lat="44.64561" lon="1.50893">
        <ele>306.65170380316</ele>
        <time>2021-03-03T18:37:10.273Z</time>
      </trkpt>
      <trkpt lat="44.64548" lon="1.50901">
        <ele>306.245397163</ele>
        <time>2021-03-03T18:37:23.335Z</time>
      </trkpt>
      <trkpt lat="44.64513" lon="1.50911">
        <ele>306.0688291647</ele>
        <time>2021-03-03T18:37:36.408Z</time>
      </trkpt>
      <trkpt lat="44.64481" lon="1.50921">
        <ele>306.02071193695</ele>
        <time>2021-03-03T18:37:49.491Z</time>
      </trkpt>
      <trkpt lat="44.64457" lon="1.50935">
        <ele>306.11262809034</ele>
        <time>2021-03-03T18:38:02.582Z</time>
      </trkpt>
      <trkpt lat="44.64425" lon="1.50957">
        <ele>306.29829914443</ele>
        <time>2021-03-03T18:38:15.684Z</time>
      </trkpt>
      <trkpt lat="44.64394" lon="1.50983">
        <ele>306.47861541894</ele>
        <time>2021-03-03T18:38:28.797Z</time>
      </trkpt>
      <trkpt lat="44.64375" lon="1.51">
        <ele>306.78277665159</ele>
        <time>2021-03-03T18:38:41.917Z</time>
      </trkpt>
      <trkpt lat="44.64352" lon="1.5103">
        <ele>307.21005455898</ele>
        <time>2021-03-03T18:38:55.047Z</time>
      </trkpt>
      <trkpt lat="44.64335" lon="1.51044">
        <ele>307.67475854599</ele>
        <time>2021-03-03T18:39:08.183Z</time>
      </trkpt>
      <trkpt lat="44.6432" lon="1.5105">
        <ele>308.21818300975</ele>
        <time>2021-03-03T18:39:21.324Z</time>
      </trkpt>
      <trkpt lat="44.64295" lon="1.51053">
        <ele>308.87236109846</ele>
        <time>2021-03-03T18:39:34.473Z</time>
      </trkpt>
      <trkpt lat="44.64284" lon="1.51055">
        <ele>309.58827377164</ele>
        <time>2021-03-03T18:39:47.625Z</time>
      </trkpt>
      <trkpt lat="44.6428" lon="1.51059">
        <ele>310.3692199415</ele>
        <time>2021-03-03T18:40:00.778Z</time>
      </trkpt>
      <trkpt lat="44.64245" lon="1.51116">
        <ele>311.30489518445</ele>
        <time>2021-03-03T18:40:13.948Z</time>
      </trkpt>
      <trkpt lat="44.64218" lon="1.5115">
        <ele>312.27322035099</ele>
        <time>2021-03-03T18:40:27.129Z</time>
      </trkpt>
      <trkpt lat="44.6419" lon="1.51182">
        <ele>313.3947783181</ele>
        <time>2021-03-03T18:40:40.321Z</time>
      </trkpt>
      <trkpt lat="44.64179" lon="1.51202">
        <ele>314.51449535398</ele>
        <time>2021-03-03T18:40:53.519Z</time>
      </trkpt>
      <trkpt lat="44.64166" lon="1.51236">
        <ele>315.67041383332</ele>
        <time>2021-03-03T18:41:06.725Z</time>
      </trkpt>
      <trkpt lat="44.64152" lon="1.51272">
        <ele>317.01673420565</ele>
        <time>2021-03-03T18:41:19.940Z</time>
      </trkpt>
      <trkpt lat="44.64116" lon="1.51327">
        <ele>318.5075062337</ele>
        <time>2021-03-03T18:41:33.172Z</time>
      </trkpt>
      <trkpt lat="44.64111" lon="1.51346">
        <ele>320.12157679037</ele>
        <time>2021-03-03T18:41:46.408Z</time>
      </trkpt>
      <trkpt lat="44.64112" lon="1.51385">
        <ele>321.88257361223</ele>
        <time>2021-03-03T18:41:59.653Z</time>
      </trkpt>
      <trkpt lat="44.64108" lon="1.51414">
        <ele>323.82919777515</ele>
        <time>2021-03-03T18:42:12.904Z</time>
      </trkpt>
      <trkpt lat="44.64088" lon="1.51417">
        <ele>326.00821116173</ele>
        <time>2021-03-03T18:42:26.161Z</time>
      </trkpt>
      <trkpt lat="44.64069" lon="1.51424">
        <ele>328.3548349973</ele>
        <time>2021-03-03T18:42:39.424Z</time>
      </trkpt>
      <trkpt lat="44.64041" lon="1.51437">
        <ele>330.91935223572</ele>
        <time>2021-03-03T18:42:52.697Z</time>
      </trkpt>
      <trkpt lat="44.64007" lon="1.5146">
        <ele>333.69248977844</ele>
        <time>2021-03-03T18:43:05.981Z</time>
      </trkpt>
      <trkpt lat="44.63998" lon="1.51468">
        <ele>336.46334385619</ele>
        <time>2021-03-03T18:43:19.268Z</time>
      </trkpt>
      <trkpt lat="44.6399" lon="1.51476">
        <ele>339.36743507054</ele>
        <time>2021-03-03T18:43:32.558Z</time>
      </trkpt>
      <trkpt lat="44.63983" lon="1.51488">
        <ele>342.37752538885</ele>
        <time>2021-03-03T18:43:45.852Z</time>
      </trkpt>
      <trkpt lat="44.63962" lon="1.51534">
        <ele>345.60724043198</ele>
        <time>2021-03-03T18:43:59.158Z</time>
      </trkpt>
      <trkpt lat="44.63937" lon="1.5159">
        <ele>348.85376952856</ele>
        <time>2021-03-03T18:44:12.478Z</time>
      </trkpt>
      <trkpt lat="44.63929" lon="1.51608">
        <ele>351.98878481845</ele>
        <time>2021-03-03T18:44:25.803Z</time>
      </trkpt>
      <trkpt lat="44.63913" lon="1.5163">
        <ele>355.2123440377</ele>
        <time>2021-03-03T18:44:39.135Z</time>
      </trkpt>
      <trkpt lat="44.6389" lon="1.51642">
        <ele>358.41861765464</ele>
        <time>2021-03-03T18:44:52.474Z</time>
      </trkpt>
      <trkpt lat="44.63861" lon="1.51658">
        <ele>361.57803008136</ele>
        <time>2021-03-03T18:45:05.823Z</time>
      </trkpt>
      <trkpt lat="44.63845" lon="1.51672">
        <ele>364.61706707046</ele>
        <time>2021-03-03T18:45:19.178Z</time>
      </trkpt>
      <trkpt lat="44.63815" lon="1.51696">
        <ele>367.59588653971</ele>
        <time>2021-03-03T18:45:32.544Z</time>
      </trkpt>
      <trkpt lat="44.63797" lon="1.51706">
        <ele>370.51767596504</ele>
        <time>2021-03-03T18:45:45.915Z</time>
      </trkpt>
      <trkpt lat="44.63779" lon="1.51718">
        <ele>373.41248309625</ele>
        <time>2021-03-03T18:45:59.293Z</time>
      </trkpt>
      <trkpt lat="44.63762" lon="1.51733">
        <ele>376.23055951929</ele>
        <time>2021-03-03T18:46:12.677Z</time>
      </trkpt>
      <trkpt lat="44.6376" lon="1.51734">
        <ele>378.90950541456</ele>
        <time>2021-03-03T18:46:26.061Z</time>
      </trkpt>
      <trkpt lat="44.63743" lon="1.51744">
        <ele>381.55176861167</ele>
        <time>2021-03-03T18:46:39.451Z</time>
      </trkpt>
      <trkpt lat="44.63727" lon="1.51754">
        <ele>384.15482514401</ele>
        <time>2021-03-03T18:46:52.847Z</time>
      </trkpt>
      <trkpt lat="44.63711" lon="1.51767">
        <ele>386.65650995429</ele>
        <time>2021-03-03T18:47:06.248Z</time>
      </trkpt>
      <trkpt lat="44.63688" lon="1.51792">
        <ele>389.21030847882</ele>
        <time>2021-03-03T18:47:19.658Z</time>
      </trkpt>
      <trkpt lat="44.6366" lon="1.51823">
        <ele>391.68475572552</ele>
        <time>2021-03-03T18:47:33.079Z</time>
      </trkpt>
      <trkpt lat="44.63643" lon="1.51838">
        <ele>394.05220557073</ele>
        <time>2021-03-03T18:47:46.506Z</time>
      </trkpt>
      <trkpt lat="44.63622" lon="1.51854">
        <ele>396.4399697073</ele>
        <time>2021-03-03T18:47:59.941Z</time>
      </trkpt>
      <trkpt lat="44.63582" lon="1.51878">
        <ele>398.70928303492</ele>
        <time>2021-03-03T18:48:13.389Z</time>
      </trkpt>
      <trkpt lat="44.63559" lon="1.51899">
        <ele>400.79646043851</ele>
        <time>2021-03-03T18:48:26.846Z</time>
      </trkpt>
      <trkpt lat="44.63546" lon="1.51908">
        <ele>402.79726560748</ele>
        <time>2021-03-03T18:48:40.307Z</time>
      </trkpt>
      <trkpt lat="44.63526" lon="1.51919">
        <ele>404.76771925756</ele>
        <time>2021-03-03T18:48:53.775Z</time>
      </trkpt>
      <trkpt lat="44.6349" lon="1.51942">
        <ele>406.6736532965</ele>
        <time>2021-03-03T18:49:07.255Z</time>
      </trkpt>
      <trkpt lat="44.63459" lon="1.51967">
        <ele>408.42081133648</ele>
        <time>2021-03-03T18:49:20.746Z</time>
      </trkpt>
      <trkpt lat="44.63444" lon="1.51981">
        <ele>409.98562690338</ele>
        <time>2021-03-03T18:49:34.242Z</time>
      </trkpt>
      <trkpt lat="44.63401" lon="1.52031">
        <ele>411.46758885739</ele>
        <time>2021-03-03T18:49:47.756Z</time>
      </trkpt>
      <trkpt lat="44.63368" lon="1.52076">
        <ele>412.70884559353</ele>
        <time>2021-03-03T18:50:01.284Z</time>
      </trkpt>
      <trkpt lat="44.63328" lon="1.52125">
        <ele>413.83067947343</ele>
        <time>2021-03-03T18:50:14.828Z</time>
      </trkpt>
      <trkpt lat="44.63309" lon="1.52145">
        <ele>414.75235072467</ele>
        <time>2021-03-03T18:50:28.379Z</time>
      </trkpt>
      <trkpt lat="44.6325" lon="1.52206">
        <ele>415.55859788185</ele>
        <time>2021-03-03T18:50:41.953Z</time>
      </trkpt>
      <trkpt lat="44.6324" lon="1.52201">
        <ele>416.10610354332</ele>
        <time>2021-03-03T18:50:55.530Z</time>
      </trkpt>
      <trkpt lat="44.63231" lon="1.52189">
        <ele>416.47952508296</ele>
        <time>2021-03-03T18:51:09.111Z</time>
      </trkpt>
      <trkpt lat="44.63206" lon="1.52148">
        <ele>416.73023118019</ele>
        <time>2021-03-03T18:51:22.704Z</time>
      </trkpt>
      <trkpt lat="44.63184" lon="1.5212">
        <ele>416.78858642982</ele>
        <time>2021-03-03T18:51:36.306Z</time>
      </trkpt>
      <trkpt lat="44.63143" lon="1.5207">
        <ele>416.64000544036</ele>
        <time>2021-03-03T18:51:49.925Z</time>
      </trkpt>
      <trkpt lat="44.63116" lon="1.52049">
        <ele>416.34991773955</ele>
        <time>2021-03-03T18:52:03.553Z</time>
      </trkpt>
      <trkpt lat="44.63081" lon="1.52013">
        <ele>415.98637624701</ele>
        <time>2021-03-03T18:52:17.195Z</time>
      </trkpt>
      <trkpt lat="44.63029" lon="1.51948">
        <ele>415.52576492854</ele>
        <time>2021-03-03T18:52:30.858Z</time>
      </trkpt>
      <trkpt lat="44.62982" lon="1.51887">
        <ele>415.17975551678</ele>
        <time>2021-03-03T18:52:44.541Z</time>
      </trkpt>
      <trkpt lat="44.62959" lon="1.51858">
        <ele>414.88776475852</ele>
        <time>2021-03-03T18:52:58.233Z</time>
      </trkpt>
      <trkpt lat="44.6294" lon="1.51828">
        <ele>414.58904569625</ele>
        <time>2021-03-03T18:53:11.934Z</time>
      </trkpt>
      <trkpt lat="44.62923" lon="1.51788">
        <ele>414.29648909747</ele>
        <time>2021-03-03T18:53:25.645Z</time>
      </trkpt>
      <trkpt lat="44.62914" lon="1.51777">
        <ele>414.09631455492</ele>
        <time>2021-03-03T18:53:39.360Z</time>
      </trkpt>
      <trkpt lat="44.62901" lon="1.51776">
        <ele>413.98216495977</ele>
        <time>2021-03-03T18:53:53.079Z</time>
      </trkpt>
      <trkpt lat="44.62873" lon="1.51799">
        <ele>414.00116322009</ele>
        <time>2021-03-03T18:54:06.808Z</time>
      </trkpt>
      <trkpt lat="44.62864" lon="1.51811">
        <ele>414.18072803813</ele>
        <time>2021-03-03T18:54:20.541Z</time>
      </trkpt>
      <trkpt lat="44.62852" lon="1.5183">
        <ele>414.52792014917</ele>
        <time>2021-03-03T18:54:34.279Z</time>
      </trkpt>
      <trkpt lat="44.62841" lon="1.51847">
        <ele>415.0411759644</ele>
        <time>2021-03-03T18:54:48.022Z</time>
      </trkpt>
      <trkpt lat="44.62836" lon="1.51872">
        <ele>415.7637029756</ele>
        <time>2021-03-03T18:55:01.771Z</time>
      </trkpt>
      <trkpt lat="44.62838" lon="1.51898">
        <ele>416.61188893409</ele>
        <time>2021-03-03T18:55:15.526Z</time>
      </trkpt>
      <trkpt lat="44.62856" lon="1.51944">
        <ele>417.602553948</ele>
        <time>2021-03-03T18:55:29.292Z</time>
      </trkpt>
      <trkpt lat="44.62862" lon="1.51955">
        <ele>418.57185457283</ele>
        <time>2021-03-03T18:55:43.061Z</time>
      </trkpt>
      <trkpt lat="44.62872" lon="1.51962">
        <ele>419.60896954214</ele>
        <time>2021-03-03T18:55:56.834Z</time>
      </trkpt>
      <trkpt lat="44.62885" lon="1.51974">
        <ele>420.70245979682</ele>
        <time>2021-03-03T18:56:10.612Z</time>
      </trkpt>
      <trkpt lat="44.6289" lon="1.51993">
        <ele>421.81818356218</ele>
        <time>2021-03-03T18:56:24.394Z</time>
      </trkpt>
      <trkpt lat="44.62886" lon="1.52021">
        <ele>422.899847615</ele>
        <time>2021-03-03T18:56:38.182Z</time>
      </trkpt>
      <trkpt lat="44.62863" lon="1.52091">
        <ele>423.9950341265</ele>
        <time>2021-03-03T18:56:51.987Z</time>
      </trkpt>
      <trkpt lat="44.62847" lon="1.52137">
        <ele>425.13116140102</ele>
        <time>2021-03-03T18:57:05.804Z</time>
      </trkpt>
      <trkpt lat="44.62891" lon="1.52153">
        <ele>426.08392874785</ele>
        <time>2021-03-03T18:57:19.635Z</time>
      </trkpt>
      <trkpt lat="44.62951" lon="1.52177">
        <ele>426.88898358623</ele>
        <time>2021-03-03T18:57:33.485Z</time>
      </trkpt>
      <trkpt lat="44.63024" lon="1.52207">
        <ele>427.74533248704</ele>
        <time>2021-03-03T18:57:47.358Z</time>
      </trkpt>
      <trkpt lat="44.63017" lon="1.52229">
        <ele>428.37042486201</ele>
        <time>2021-03-03T18:58:01.237Z</time>
      </trkpt>
      <trkpt lat="44.63005" lon="1.52285">
        <ele>428.82415410435</ele>
        <time>2021-03-03T18:58:15.128Z</time>
      </trkpt>
      <trkpt lat="44.63001" lon="1.52297">
        <ele>429.08783607469</ele>
        <time>2021-03-03T18:58:29.022Z</time>
      </trkpt>
      <trkpt lat="44.62998" lon="1.52308">
        <ele>429.19411529018</ele>
        <time>2021-03-03T18:58:42.919Z</time>
      </trkpt>
      <trkpt lat="44.6299" lon="1.52328">
        <ele>429.12091346313</ele>
        <time>2021-03-03T18:58:56.821Z</time>
      </trkpt>
      <trkpt lat="44.62985" lon="1.52337">
        <ele>428.86636668895</ele>
        <time>2021-03-03T18:59:10.725Z</time>
      </trkpt>
      <trkpt lat="44.62945" lon="1.52389">
        <ele>428.36810112063</ele>
        <time>2021-03-03T18:59:24.646Z</time>
      </trkpt>
      <trkpt lat="44.6293" lon="1.52418">
        <ele>427.7996292478</ele>
        <time>2021-03-03T18:59:38.575Z</time>
      </trkpt>
      <trkpt lat="44.62925" lon="1.52437">
        <ele>427.02555594406</ele>
        <time>2021-03-03T18:59:52.509Z</time>
      </trkpt>
      <trkpt lat="44.62902" lon="1.52548">
        <ele>425.94060300952</ele>
        <time>2021-03-03T19:00:06.468Z</time>
      </trkpt>
      <trkpt lat="44.629" lon="1.52573">
        <ele>424.74971371909</ele>
        <time>2021-03-03T19:00:20.432Z</time>
      </trkpt>
      <trkpt lat="44.62901" lon="1.52605">
        <ele>423.38749496587</ele>
        <time>2021-03-03T19:00:34.403Z</time>
      </trkpt>
      <trkpt lat="44.62906" lon="1.527">
        <ele>421.86990443353</ele>
        <time>2021-03-03T19:00:48.395Z</time>
      </trkpt>
      <trkpt lat="44.62904" lon="1.52737">
        <ele>420.29091443575</ele>
        <time>2021-03-03T19:01:02.396Z</time>
      </trkpt>
      <trkpt lat="44.62894" lon="1.52845">
        <ele>418.57283185375</ele>
        <time>2021-03-03T19:01:16.420Z</time>
      </trkpt>
      <trkpt lat="44.62891" lon="1.52858">
        <ele>416.75463508448</ele>
        <time>2021-03-03T19:01:30.447Z</time>
      </trkpt>
      <trkpt lat="44.62883" lon="1.52876">
        <ele>414.84967052962</ele>
        <time>2021-03-03T19:01:44.479Z</time>
      </trkpt>
      <trkpt lat="44.62854" lon="1.52918">
        <ele>412.91892211574</ele>
        <time>2021-03-03T19:01:58.524Z</time>
      </trkpt>
      <trkpt lat="44.62796" lon="1.52997">
        <ele>410.54325748046</ele>
        <time>2021-03-03T19:02:12.594Z</time>
      </trkpt>
      <trkpt lat="44.62751" lon="1.53065">
        <ele>408.52161482823</ele>
        <time>2021-03-03T19:02:26.684Z</time>
      </trkpt>
      <trkpt lat="44.62736" lon="1.53083">
        <ele>406.49985980702</ele>
        <time>2021-03-03T19:02:40.780Z</time>
      </trkpt>
      <trkpt lat="44.62688" lon="1.53139">
        <ele>404.43596518035</ele>
        <time>2021-03-03T19:02:54.896Z</time>
      </trkpt>
      <trkpt lat="44.62634" lon="1.53195">
        <ele>402.33882513676</ele>
        <time>2021-03-03T19:03:09.032Z</time>
      </trkpt>
      <trkpt lat="44.62602" lon="1.53224">
        <ele>400.36380747067</ele>
        <time>2021-03-03T19:03:23.180Z</time>
      </trkpt>
      <trkpt lat="44.6258" lon="1.53234">
        <ele>398.5358182794</ele>
        <time>2021-03-03T19:03:37.335Z</time>
      </trkpt>
      <trkpt lat="44.62552" lon="1.53241">
        <ele>396.77427691318</ele>
        <time>2021-03-03T19:03:51.499Z</time>
      </trkpt>
      <trkpt lat="44.62506" lon="1.53258">
        <ele>395.10524514805</ele>
        <time>2021-03-03T19:04:05.677Z</time>
      </trkpt>
      <trkpt lat="44.62488" lon="1.53266">
        <ele>393.55733221339</ele>
        <time>2021-03-03T19:04:19.861Z</time>
      </trkpt>
      <trkpt lat="44.62469" lon="1.53277">
        <ele>392.08951885044</ele>
        <time>2021-03-03T19:04:34.052Z</time>
      </trkpt>
      <trkpt lat="44.62449" lon="1.53296">
        <ele>390.71415769276</ele>
        <time>2021-03-03T19:04:48.250Z</time>
      </trkpt>
      <trkpt lat="44.62441" lon="1.53303">
        <ele>389.45764808304</ele>
        <time>2021-03-03T19:05:02.451Z</time>
      </trkpt>
      <trkpt lat="44.6244" lon="1.53349">
        <ele>388.34233378477</ele>
        <time>2021-03-03T19:05:16.662Z</time>
      </trkpt>
      <trkpt lat="44.62437" lon="1.53423">
        <ele>387.31951924577</ele>
        <time>2021-03-03T19:05:30.889Z</time>
      </trkpt>
      <trkpt lat="44.6243" lon="1.53482">
        <ele>386.31495015481</ele>
        <time>2021-03-03T19:05:45.130Z</time>
      </trkpt>
      <trkpt lat="44.62434" lon="1.53514">
        <ele>385.28606506149</ele>
        <time>2021-03-03T19:05:59.378Z</time>
      </trkpt>
      <trkpt lat="44.62437" lon="1.5353">
        <ele>384.27507604043</ele>
        <time>2021-03-03T19:06:13.629Z</time>
      </trkpt>
      <trkpt lat="44.6244" lon="1.53575">
        <ele>383.22954953608</ele>
        <time>2021-03-03T19:06:27.890Z</time>
      </trkpt>
      <trkpt lat="44.62439" lon="1.53653">
        <ele>382.14564810306</ele>
        <time>2021-03-03T19:06:42.168Z</time>
      </trkpt>
      <trkpt lat="44.62434" lon="1.53749">
        <ele>381.08491886902</ele>
        <time>2021-03-03T19:06:56.468Z</time>
      </trkpt>
      <trkpt lat="44.62427" lon="1.53788">
        <ele>380.11789599151</ele>
        <time>2021-03-03T19:07:10.776Z</time>
      </trkpt>
      <trkpt lat="44.62423" lon="1.53796">
        <ele>379.1763984278</ele>
        <time>2021-03-03T19:07:25.087Z</time>
      </trkpt>
      <trkpt lat="44.62384" lon="1.53851">
        <ele>378.16092500086</ele>
        <time>2021-03-03T19:07:39.415Z</time>
      </trkpt>
      <trkpt lat="44.62367" lon="1.53883">
        <ele>377.20588221243</ele>
        <time>2021-03-03T19:07:53.751Z</time>
      </trkpt>
      <trkpt lat="44.62362" lon="1.53893">
        <ele>376.20541746137</ele>
        <time>2021-03-03T19:08:08.090Z</time>
      </trkpt>
      <trkpt lat="44.6236" lon="1.53909">
        <ele>375.16748099419</ele>
        <time>2021-03-03T19:08:22.433Z</time>
      </trkpt>
      <trkpt lat="44.62345" lon="1.53914">
        <ele>374.03925219747</ele>
        <time>2021-03-03T19:08:36.780Z</time>
      </trkpt>
      <trkpt lat="44.62322" lon="1.53928">
        <ele>372.83540626732</ele>
        <time>2021-03-03T19:08:51.135Z</time>
      </trkpt>
      <trkpt lat="44.6231" lon="1.53935">
        <ele>371.64713370833</ele>
        <time>2021-03-03T19:09:05.494Z</time>
      </trkpt>
      <trkpt lat="44.62256" lon="1.53975">
        <ele>370.21632774174</ele>
        <time>2021-03-03T19:09:19.872Z</time>
      </trkpt>
      <trkpt lat="44.6221" lon="1.54019">
        <ele>368.71404467755</ele>
        <time>2021-03-03T19:09:34.267Z</time>
      </trkpt>
      <trkpt lat="44.62181" lon="1.5405">
        <ele>367.38444895004</ele>
        <time>2021-03-03T19:09:48.673Z</time>
      </trkpt>
      <trkpt lat="44.62169" lon="1.54067">
        <ele>366.06427796636</ele>
        <time>2021-03-03T19:10:03.084Z</time>
      </trkpt>
      <trkpt lat="44.62158" lon="1.54088">
        <ele>364.64855340569</ele>
        <time>2021-03-03T19:10:17.501Z</time>
      </trkpt>
      <trkpt lat="44.62147" lon="1.54115">
        <ele>363.15405941165</ele>
        <time>2021-03-03T19:10:31.925Z</time>
      </trkpt>
      <trkpt lat="44.62137" lon="1.5414">
        <ele>361.51328478818</ele>
        <time>2021-03-03T19:10:46.355Z</time>
      </trkpt>
      <trkpt lat="44.62134" lon="1.5415">
        <ele>359.83817802238</ele>
        <time>2021-03-03T19:11:00.788Z</time>
      </trkpt>
      <trkpt lat="44.62124" lon="1.54135">
        <ele>358.01937977768</ele>
        <time>2021-03-03T19:11:15.225Z</time>
      </trkpt>
      <trkpt lat="44.62118" lon="1.54123">
        <ele>356.08336274559</ele>
        <time>2021-03-03T19:11:29.665Z</time>
      </trkpt>
      <trkpt lat="44.62112" lon="1.541">
        <ele>353.9724533615</ele>
        <time>2021-03-03T19:11:44.111Z</time>
      </trkpt>
      <trkpt lat="44.62112" lon="1.54081">
        <ele>351.73283716731</ele>
        <time>2021-03-03T19:11:58.561Z</time>
      </trkpt>
      <trkpt lat="44.62117" lon="1.5405">
        <ele>349.26631398494</ele>
        <time>2021-03-03T19:12:13.018Z</time>
      </trkpt>
      <trkpt lat="44.62124" lon="1.54026">
        <ele>346.66853252181</ele>
        <time>2021-03-03T19:12:27.481Z</time>
      </trkpt>
      <trkpt lat="44.62133" lon="1.54007">
        <ele>343.99228330372</ele>
        <time>2021-03-03T19:12:41.949Z</time>
      </trkpt>
      <trkpt lat="44.62144" lon="1.53991">
        <ele>341.14575247957</ele>
        <time>2021-03-03T19:12:56.422Z</time>
      </trkpt>
      <trkpt lat="44.62142" lon="1.53984">
        <ele>338.11038669608</ele>
        <time>2021-03-03T19:13:10.896Z</time>
      </trkpt>
      <trkpt lat="44.62135" lon="1.53983">
        <ele>334.91375973392</ele>
        <time>2021-03-03T19:13:25.372Z</time>
      </trkpt>
      <trkpt lat="44.621" lon="1.54009">
        <ele>331.52120792759</ele>
        <time>2021-03-03T19:13:39.861Z</time>
      </trkpt>
      <trkpt lat="44.62053" lon="1.54044">
        <ele>327.84677740046</ele>
        <time>2021-03-03T19:13:54.366Z</time>
      </trkpt>
      <trkpt lat="44.62039" lon="1.54051">
        <ele>324.24520259631</ele>
        <time>2021-03-03T19:14:08.876Z</time>
      </trkpt>
      <trkpt lat="44.62023" lon="1.54054">
        <ele>320.51586209772</ele>
        <time>2021-03-03T19:14:23.390Z</time>
      </trkpt>
      <trkpt lat="44.61979" lon="1.5406">
        <ele>316.52874047249</ele>
        <time>2021-03-03T19:14:37.918Z</time>
      </trkpt>
      <trkpt lat="44.61888" lon="1.54062">
        <ele>312.4919180258</ele>
        <time>2021-03-03T19:14:52.474Z</time>
      </trkpt>
      <trkpt lat="44.6187" lon="1.54064">
        <ele>308.6793068128</ele>
        <time>2021-03-03T19:15:07.036Z</time>
      </trkpt>
      <trkpt lat="44.61858" lon="1.5407">
        <ele>304.94454420207</ele>
        <time>2021-03-03T19:15:21.602Z</time>
      </trkpt>
      <trkpt lat="44.61838" lon="1.54084">
        <ele>301.20673703679</ele>
        <time>2021-03-03T19:15:36.174Z</time>
      </trkpt>
      <trkpt lat="44.61773" lon="1.54147">
        <ele>297.5166926675</ele>
        <time>2021-03-03T19:15:50.771Z</time>
      </trkpt>
      <trkpt lat="44.61747" lon="1.54177">
        <ele>293.94619873915</ele>
        <time>2021-03-03T19:16:05.378Z</time>
      </trkpt>
      <trkpt lat="44.61721" lon="1.54201">
        <ele>290.45267433078</ele>
        <time>2021-03-03T19:16:19.995Z</time>
      </trkpt>
      <trkpt lat="44.61691" lon="1.54229">
        <ele>287.18577207213</ele>
        <time>2021-03-03T19:16:34.623Z</time>
      </trkpt>
      <trkpt lat="44.61633" lon="1.54289">
        <ele>283.892988913</ele>
        <time>2021-03-03T19:16:49.273Z</time>
      </trkpt>
      <trkpt lat="44.616" lon="1.54329">
        <ele>280.78724159667</ele>
        <time>2021-03-03T19:17:03.936Z</time>
      </trkpt>
      <trkpt lat="44.61591" lon="1.5434">
        <ele>278.07402439776</ele>
        <time>2021-03-03T19:17:18.603Z</time>
      </trkpt>
      <trkpt lat="44.61575" lon="1.54348">
        <ele>275.57870192679</ele>
        <time>2021-03-03T19:17:33.275Z</time>
      </trkpt>
      <trkpt lat="44.6155" lon="1.54354">
        <ele>273.31178142314</ele>
        <time>2021-03-03T19:17:47.955Z</time>
      </trkpt>
      <trkpt lat="44.61544" lon="1.54358">
        <ele>271.31972990805</ele>
        <time>2021-03-03T19:18:02.637Z</time>
      </trkpt>
      <trkpt lat="44.61538" lon="1.54368">
        <ele>269.53051964696</ele>
        <time>2021-03-03T19:18:17.322Z</time>
      </trkpt>
      <trkpt lat="44.61536" lon="1.54396">
        <ele>267.88556270192</ele>
        <time>2021-03-03T19:18:32.013Z</time>
      </trkpt>
      <trkpt lat="44.61535" lon="1.54421">
        <ele>266.59427580678</ele>
        <time>2021-03-03T19:18:46.710Z</time>
      </trkpt>
      <trkpt lat="44.61532" lon="1.54456">
        <ele>265.75424527024</ele>
        <time>2021-03-03T19:19:01.415Z</time>
      </trkpt>
      <trkpt lat="44.61532" lon="1.54462">
        <ele>264.91434624756</ele>
        <time>2021-03-03T19:19:16.121Z</time>
      </trkpt>
      <trkpt lat="44.6152" lon="1.54459">
        <ele>264.08447799579</ele>
        <time>2021-03-03T19:19:30.831Z</time>
      </trkpt>
      <trkpt lat="44.61505" lon="1.54458">
        <ele>263.3591093128</ele>
        <time>2021-03-03T19:19:45.545Z</time>
      </trkpt>
      <trkpt lat="44.61364" lon="1.54495">
        <ele>262.88606683453</ele>
        <time>2021-03-03T19:20:00.303Z</time>
      </trkpt>
      <trkpt lat="44.61296" lon="1.54516">
        <ele>262.42336931214</ele>
        <time>2021-03-03T19:20:15.083Z</time>
      </trkpt>
      <trkpt lat="44.61271" lon="1.54522">
        <ele>261.90076701848</ele>
        <time>2021-03-03T19:20:29.871Z</time>
      </trkpt>
      <trkpt lat="44.61244" lon="1.54535">
        <ele>261.4111295493</ele>
        <time>2021-03-03T19:20:44.667Z</time>
      </trkpt>
      <trkpt lat="44.61216" lon="1.54555">
        <ele>260.95900635175</ele>
        <time>2021-03-03T19:20:59.473Z</time>
      </trkpt>
      <trkpt lat="44.61201" lon="1.5457">
        <ele>260.49300023122</ele>
        <time>2021-03-03T19:21:14.285Z</time>
      </trkpt>
      <trkpt lat="44.61168" lon="1.5461">
        <ele>259.9734872677</ele>
        <time>2021-03-03T19:21:29.110Z</time>
      </trkpt>
      <trkpt lat="44.61145" lon="1.54636">
        <ele>259.58227683822</ele>
        <time>2021-03-03T19:21:43.944Z</time>
      </trkpt>
      <trkpt lat="44.61114" lon="1.54666">
        <ele>259.01893595688</ele>
        <time>2021-03-03T19:21:58.790Z</time>
      </trkpt>
      <trkpt lat="44.6107" lon="1.547">
        <ele>258.36869952792</ele>
        <time>2021-03-03T19:22:13.651Z</time>
      </trkpt>
      <trkpt lat="44.61026" lon="1.54734">
        <ele>257.81949962928</ele>
        <time>2021-03-03T19:22:28.528Z</time>
      </trkpt>
      <trkpt lat="44.60991" lon="1.54757">
        <ele>257.08969595606</ele>
        <time>2021-03-03T19:22:43.417Z</time>
      </trkpt>
      <trkpt lat="44.60917" lon="1.54816">
        <ele>256.33258205354</ele>
        <time>2021-03-03T19:22:58.332Z</time>
      </trkpt>
      <trkpt lat="44.6086" lon="1.54878">
        <ele>255.5950059796</ele>
        <time>2021-03-03T19:23:13.269Z</time>
      </trkpt>
      <trkpt lat="44.60827" lon="1.54918">
        <ele>254.76372350551</ele>
        <time>2021-03-03T19:23:28.220Z</time>
      </trkpt>
      <trkpt lat="44.60795" lon="1.54969">
        <ele>254.00428908466</ele>
        <time>2021-03-03T19:23:43.185Z</time>
      </trkpt>
      <trkpt lat="44.60725" lon="1.55103">
        <ele>253.28010587321</ele>
        <time>2021-03-03T19:23:58.187Z</time>
      </trkpt>
      <trkpt lat="44.60715" lon="1.5513">
        <ele>252.58029828986</ele>
        <time>2021-03-03T19:24:13.196Z</time>
      </trkpt>
      <trkpt lat="44.60706" lon="1.55164">
        <ele>251.90003580119</ele>
        <time>2021-03-03T19:24:28.213Z</time>
      </trkpt>
      <trkpt lat="44.60691" lon="1.5524">
        <ele>251.15603303988</ele>
        <time>2021-03-03T19:24:43.247Z</time>
      </trkpt>
      <trkpt lat="44.60682" lon="1.55283">
        <ele>250.54025759634</ele>
        <time>2021-03-03T19:24:58.291Z</time>
      </trkpt>
      <trkpt lat="44.60671" lon="1.55283">
        <ele>249.91295765076</ele>
        <time>2021-03-03T19:25:13.338Z</time>
      </trkpt>
      <trkpt lat="44.6065" lon="1.55282">
        <ele>249.33495353477</ele>
        <time>2021-03-03T19:25:28.392Z</time>
      </trkpt>
      <trkpt lat="44.60638" lon="1.55282">
        <ele>248.85674721643</ele>
        <time>2021-03-03T19:25:43.449Z</time>
      </trkpt>
      <trkpt lat="44.60628" lon="1.55282">
        <ele>248.47018043122</ele>
        <time>2021-03-03T19:25:58.509Z</time>
      </trkpt>
      <trkpt lat="44.60627" lon="1.55304">
        <ele>248.14931766002</ele>
        <time>2021-03-03T19:26:13.574Z</time>
      </trkpt>
      <trkpt lat="44.60627" lon="1.55322">
        <ele>247.87506644563</ele>
        <time>2021-03-03T19:26:28.643Z</time>
      </trkpt>
      <trkpt lat="44.60617" lon="1.55322">
        <ele>247.65225338733</ele>
        <time>2021-03-03T19:26:43.715Z</time>
      </trkpt>
      <trkpt lat="44.60604" lon="1.55324">
        <ele>247.50752292823</ele>
        <time>2021-03-03T19:26:58.791Z</time>
      </trkpt>
      <trkpt lat="44.60567" lon="1.55338">
        <ele>247.41559914558</ele>
        <time>2021-03-03T19:27:13.879Z</time>
      </trkpt>
      <trkpt lat="44.6056" lon="1.55341">
        <ele>247.36439366453</ele>
        <time>2021-03-03T19:27:28.969Z</time>
      </trkpt>
      <trkpt lat="44.60538" lon="1.55371">
        <ele>247.42386847378</ele>
        <time>2021-03-03T19:27:44.069Z</time>
      </trkpt>
      <trkpt lat="44.60527" lon="1.55387">
        <ele>247.46819702577</ele>
        <time>2021-03-03T19:27:59.174Z</time>
      </trkpt>
      <trkpt lat="44.60508" lon="1.55408">
        <ele>247.56777663836</ele>
        <time>2021-03-03T19:28:14.286Z</time>
      </trkpt>
      <trkpt lat="44.60476" lon="1.55433">
        <ele>247.62201400239</ele>
        <time>2021-03-03T19:28:29.409Z</time>
      </trkpt>
      <trkpt lat="44.6046" lon="1.55443">
        <ele>247.68555766246</ele>
        <time>2021-03-03T19:28:44.538Z</time>
      </trkpt>
      <trkpt lat="44.60431" lon="1.55455">
        <ele>247.87893090902</ele>
        <time>2021-03-03T19:28:59.676Z</time>
      </trkpt>
      <trkpt lat="44.60388" lon="1.55471">
        <ele>248.04654512643</ele>
        <time>2021-03-03T19:29:14.828Z</time>
      </trkpt>
      <trkpt lat="44.60375" lon="1.55476">
        <ele>248.12976288035</ele>
        <time>2021-03-03T19:29:29.984Z</time>
      </trkpt>
      <trkpt lat="44.60352" lon="1.55478">
        <ele>248.21624378947</ele>
        <time>2021-03-03T19:29:45.147Z</time>
      </trkpt>
      <trkpt lat="44.6032" lon="1.55472">
        <ele>248.3280613531</ele>
        <time>2021-03-03T19:30:00.320Z</time>
      </trkpt>
      <trkpt lat="44.60292" lon="1.55464">
        <ele>248.49418903865</ele>
        <time>2021-03-03T19:30:15.502Z</time>
      </trkpt>
      <trkpt lat="44.60276" lon="1.5546">
        <ele>248.68949560966</ele>
        <time>2021-03-03T19:30:30.689Z</time>
      </trkpt>
      <trkpt lat="44.60252" lon="1.55458">
        <ele>248.87106726939</ele>
        <time>2021-03-03T19:30:45.883Z</time>
      </trkpt>
      <trkpt lat="44.60239" lon="1.55457">
        <ele>249.09686924254</ele>
        <time>2021-03-03T19:31:01.081Z</time>
      </trkpt>
      <trkpt lat="44.60222" lon="1.55453">
        <ele>249.34356594147</ele>
        <time>2021-03-03T19:31:16.284Z</time>
      </trkpt>
      <trkpt lat="44.60203" lon="1.5544">
        <ele>249.67494472513</ele>
        <time>2021-03-03T19:31:31.494Z</time>
      </trkpt>
      <trkpt lat="44.60168" lon="1.55422">
        <ele>250.04646826307</ele>
        <time>2021-03-03T19:31:46.715Z</time>
      </trkpt>
      <trkpt lat="44.60148" lon="1.5542">
        <ele>250.21448238758</ele>
        <time>2021-03-03T19:32:01.943Z</time>
      </trkpt>
      <trkpt lat="44.60136" lon="1.55418">
        <ele>250.46445470523</ele>
        <time>2021-03-03T19:32:17.174Z</time>
      </trkpt>
      <trkpt lat="44.60125" lon="1.55422">
        <ele>250.70732012852</ele>
        <time>2021-03-03T19:32:32.409Z</time>
      </trkpt>
      <trkpt lat="44.60117" lon="1.55427">
        <ele>250.94401298937</ele>
        <time>2021-03-03T19:32:47.647Z</time>
      </trkpt>
      <trkpt lat="44.60114" lon="1.55427">
        <ele>251.23585238498</ele>
        <time>2021-03-03T19:33:02.885Z</time>
      </trkpt>
      <trkpt lat="44.60092" lon="1.55419">
        <ele>251.61101349664</ele>
        <time>2021-03-03T19:33:18.130Z</time>
      </trkpt>
      <trkpt lat="44.6008" lon="1.55414">
        <ele>251.91677894545</ele>
        <time>2021-03-03T19:33:33.379Z</time>
      </trkpt>
      <trkpt lat="44.60073" lon="1.55406">
        <ele>252.21371215577</ele>
        <time>2021-03-03T19:33:48.631Z</time>
      </trkpt>
      <trkpt lat="44.60046" lon="1.55377">
        <ele>252.57077327192</ele>
        <time>2021-03-03T19:34:03.894Z</time>
      </trkpt>
      <trkpt lat="44.60038" lon="1.55367">
        <ele>252.79159342285</ele>
        <time>2021-03-03T19:34:19.160Z</time>
      </trkpt>
      <trkpt lat="44.60032" lon="1.55358">
        <ele>252.93508939602</ele>
        <time>2021-03-03T19:34:34.429Z</time>
      </trkpt>
      <trkpt lat="44.60017" lon="1.55352">
        <ele>252.8965632996</ele>
        <time>2021-03-03T19:34:49.702Z</time>
      </trkpt>
      <trkpt lat="44.59991" lon="1.55338">
        <ele>252.80695575418</ele>
        <time>2021-03-03T19:35:04.984Z</time>
      </trkpt>
      <trkpt lat="44.59978" lon="1.55333">
        <ele>252.59885198239</ele>
        <time>2021-03-03T19:35:20.270Z</time>
      </trkpt>
      <trkpt lat="44.59944" lon="1.55326">
        <ele>252.19252597647</ele>
        <time>2021-03-03T19:35:35.567Z</time>
      </trkpt>
      <trkpt lat="44.59922" lon="1.55325">
        <ele>251.63957636509</ele>
        <time>2021-03-03T19:35:50.870Z</time>
      </trkpt>
      <trkpt lat="44.59907" lon="1.55324">
        <ele>251.0496721132</ele>
        <time>2021-03-03T19:36:06.178Z</time>
      </trkpt>
      <trkpt lat="44.59891" lon="1.5532">
        <ele>250.41728831187</ele>
        <time>2021-03-03T19:36:21.491Z</time>
      </trkpt>
      <trkpt lat="44.59842" lon="1.55317">
        <ele>249.81698841757</ele>
        <time>2021-03-03T19:36:36.819Z</time>
      </trkpt>
      <trkpt lat="44.59816" lon="1.55321">
        <ele>248.87141758905</ele>
        <time>2021-03-03T19:36:52.155Z</time>
      </trkpt>
      <trkpt lat="44.598" lon="1.55321">
        <ele>247.86728658055</ele>
        <time>2021-03-03T19:37:07.496Z</time>
      </trkpt>
      <trkpt lat="44.5976" lon="1.55309">
        <ele>246.80114984802</ele>
        <time>2021-03-03T19:37:22.850Z</time>
      </trkpt>
      <trkpt lat="44.59695" lon="1.55286">
        <ele>245.70673808956</ele>
        <time>2021-03-03T19:37:38.224Z</time>
      </trkpt>
      <trkpt lat="44.59641" lon="1.55276">
        <ele>244.54448434694</ele>
        <time>2021-03-03T19:37:53.615Z</time>
      </trkpt>
      <trkpt lat="44.59624" lon="1.55269">
        <ele>243.51540669604</ele>
        <time>2021-03-03T19:38:09.012Z</time>
      </trkpt>
      <trkpt lat="44.59606" lon="1.55265">
        <ele>242.49286189386</ele>
        <time>2021-03-03T19:38:24.414Z</time>
      </trkpt>
      <trkpt lat="44.59573" lon="1.55263">
        <ele>241.52070695721</ele>
        <time>2021-03-03T19:38:39.826Z</time>
      </trkpt>
      <trkpt lat="44.59542" lon="1.55256">
        <ele>240.65327901859</ele>
        <time>2021-03-03T19:38:55.248Z</time>
      </trkpt>
      <trkpt lat="44.59524" lon="1.5525">
        <ele>239.81178472462</ele>
        <time>2021-03-03T19:39:10.676Z</time>
      </trkpt>
      <trkpt lat="44.5951" lon="1.55244">
        <ele>239.04991134686</ele>
        <time>2021-03-03T19:39:26.108Z</time>
      </trkpt>
      <trkpt lat="44.59507" lon="1.55239">
        <ele>238.4309798947</ele>
        <time>2021-03-03T19:39:41.542Z</time>
      </trkpt>
      <trkpt lat="44.59505" lon="1.55228">
        <ele>237.94498175604</ele>
        <time>2021-03-03T19:39:56.978Z</time>
      </trkpt>
      <trkpt lat="44.59508" lon="1.55197">
        <ele>237.6361065482</ele>
        <time>2021-03-03T19:40:12.421Z</time>
      </trkpt>
      <trkpt lat="44.59515" lon="1.55147">
        <ele>237.55117223184</ele>
        <time>2021-03-03T19:40:27.875Z</time>
      </trkpt>
      <trkpt lat="44.59528" lon="1.55082">
        <ele>237.46889542386</ele>
        <time>2021-03-03T19:40:43.344Z</time>
      </trkpt>
      <trkpt lat="44.59532" lon="1.55042">
        <ele>237.41680061831</ele>
        <time>2021-03-03T19:40:58.822Z</time>
      </trkpt>
      <trkpt lat="44.59531" lon="1.55023">
        <ele>237.57021018413</ele>
        <time>2021-03-03T19:41:14.304Z</time>
      </trkpt>
      <trkpt lat="44.59524" lon="1.55021">
        <ele>237.84911563191</ele>
        <time>2021-03-03T19:41:29.788Z</time>
      </trkpt>
      <trkpt lat="44.59507" lon="1.55015">
        <ele>238.23305671169</ele>
        <time>2021-03-03T19:41:45.278Z</time>
      </trkpt>
      <trkpt lat="44.59497" lon="1.55009">
        <ele>238.92077548774</ele>
        <time>2021-03-03T19:42:00.771Z</time>
      </trkpt>
      <trkpt lat="44.59482" lon="1.54996">
        <ele>239.88423765132</ele>
        <time>2021-03-03T19:42:16.270Z</time>
      </trkpt>
      <trkpt lat="44.59476" lon="1.54991">
        <ele>241.00457283143</ele>
        <time>2021-03-03T19:42:31.771Z</time>
      </trkpt>
      <trkpt lat="44.59471" lon="1.5498">
        <ele>242.38741140658</ele>
        <time>2021-03-03T19:42:47.275Z</time>
      </trkpt>
      <trkpt lat="44.59464" lon="1.54954">
        <ele>243.99726091436</ele>
        <time>2021-03-03T19:43:02.785Z</time>
      </trkpt>
      <trkpt lat="44.59456" lon="1.54931">
        <ele>245.76167290545</ele>
        <time>2021-03-03T19:43:18.300Z</time>
      </trkpt>
      <trkpt lat="44.59437" lon="1.54888">
        <ele>247.74326696359</ele>
        <time>2021-03-03T19:43:33.826Z</time>
      </trkpt>
      <trkpt lat="44.59426" lon="1.54869">
        <ele>249.96002058124</ele>
        <time>2021-03-03T19:43:49.358Z</time>
      </trkpt>
      <trkpt lat="44.5941" lon="1.5485">
        <ele>252.48629157946</ele>
        <time>2021-03-03T19:44:04.896Z</time>
      </trkpt>
      <trkpt lat="44.59397" lon="1.54844">
        <ele>255.20886360038</ele>
        <time>2021-03-03T19:44:20.438Z</time>
      </trkpt>
      <trkpt lat="44.59389" lon="1.54839">
        <ele>258.08163640735</ele>
        <time>2021-03-03T19:44:35.983Z</time>
      </trkpt>
      <trkpt lat="44.59375" lon="1.54822">
        <ele>261.17745260704</ele>
        <time>2021-03-03T19:44:51.534Z</time>
      </trkpt>
      <trkpt lat="44.59364" lon="1.54803">
        <ele>264.3798168669</ele>
        <time>2021-03-03T19:45:07.090Z</time>
      </trkpt>
      <trkpt lat="44.59342" lon="1.54762">
        <ele>267.79069677715</ele>
        <time>2021-03-03T19:45:22.657Z</time>
      </trkpt>
      <trkpt lat="44.59324" lon="1.5472">
        <ele>271.22004771851</ele>
        <time>2021-03-03T19:45:38.235Z</time>
      </trkpt>
      <trkpt lat="44.59301" lon="1.5468">
        <ele>274.7235290669</ele>
        <time>2021-03-03T19:45:53.825Z</time>
      </trkpt>
      <trkpt lat="44.59281" lon="1.54638">
        <ele>278.27970357888</ele>
        <time>2021-03-03T19:46:09.426Z</time>
      </trkpt>
      <trkpt lat="44.5927" lon="1.54619">
        <ele>281.78691681483</ele>
        <time>2021-03-03T19:46:25.032Z</time>
      </trkpt>
      <trkpt lat="44.59267" lon="1.54618">
        <ele>285.15099711776</ele>
        <time>2021-03-03T19:46:40.639Z</time>
      </trkpt>
      <trkpt lat="44.59252" lon="1.54617">
        <ele>288.59179976162</ele>
        <time>2021-03-03T19:46:56.251Z</time>
      </trkpt>
      <trkpt lat="44.59249" lon="1.54617">
        <ele>291.85666255417</ele>
        <time>2021-03-03T19:47:11.863Z</time>
      </trkpt>
      <trkpt lat="44.59247" lon="1.54622">
        <ele>295.04415960731</ele>
        <time>2021-03-03T19:47:27.477Z</time>
      </trkpt>
      <trkpt lat="44.59246" lon="1.54629">
        <ele>298.14882608347</ele>
        <time>2021-03-03T19:47:43.092Z</time>
      </trkpt>
      <trkpt lat="44.59252" lon="1.54658">
        <ele>301.17671673829</ele>
        <time>2021-03-03T19:47:58.714Z</time>
      </trkpt>
      <trkpt lat="44.59267" lon="1.54785">
        <ele>304.45585787243</ele>
        <time>2021-03-03T19:48:14.364Z</time>
      </trkpt>
      <trkpt lat="44.59226" lon="1.54666">
        <ele>307.43099110952</ele>
        <time>2021-03-03T19:48:30.043Z</time>
      </trkpt>
      <trkpt lat="44.59213" lon="1.54634">
        <ele>310.17041982631</ele>
        <time>2021-03-03T19:48:45.730Z</time>
      </trkpt>
      <trkpt lat="44.59207" lon="1.54626">
        <ele>312.88288545698</ele>
        <time>2021-03-03T19:49:01.420Z</time>
      </trkpt>
      <trkpt lat="44.59198" lon="1.54619">
        <ele>315.55323860763</ele>
        <time>2021-03-03T19:49:17.113Z</time>
      </trkpt>
      <trkpt lat="44.59186" lon="1.54615">
        <ele>318.15185138153</ele>
        <time>2021-03-03T19:49:32.810Z</time>
      </trkpt>
      <trkpt lat="44.59172" lon="1.54614">
        <ele>320.69832550681</ele>
        <time>2021-03-03T19:49:48.511Z</time>
      </trkpt>
      <trkpt lat="44.59147" lon="1.54615">
        <ele>323.18780481198</ele>
        <time>2021-03-03T19:50:04.220Z</time>
      </trkpt>
      <trkpt lat="44.59132" lon="1.54613">
        <ele>325.56939497206</ele>
        <time>2021-03-03T19:50:19.934Z</time>
      </trkpt>
      <trkpt lat="44.59126" lon="1.54609">
        <ele>327.81942848108</ele>
        <time>2021-03-03T19:50:35.650Z</time>
      </trkpt>
      <trkpt lat="44.5912" lon="1.54592">
        <ele>330.01667252106</ele>
        <time>2021-03-03T19:50:51.370Z</time>
      </trkpt>
      <trkpt lat="44.5912" lon="1.54589">
        <ele>332.06340035498</ele>
        <time>2021-03-03T19:51:07.090Z</time>
      </trkpt>
      <trkpt lat="44.59117" lon="1.54594">
        <ele>334.07389117699</ele>
        <time>2021-03-03T19:51:22.812Z</time>
      </trkpt>
      <trkpt lat="44.59108" lon="1.54609">
        <ele>336.08477855093</ele>
        <time>2021-03-03T19:51:38.538Z</time>
      </trkpt>
      <trkpt lat="44.59103" lon="1.54615">
        <ele>338.05143743821</ele>
        <time>2021-03-03T19:51:54.266Z</time>
      </trkpt>
      <trkpt lat="44.59099" lon="1.54614">
        <ele>339.94241499733</ele>
        <time>2021-03-03T19:52:09.995Z</time>
      </trkpt>
      <trkpt lat="44.59093" lon="1.54601">
        <ele>341.79135712928</ele>
        <time>2021-03-03T19:52:25.728Z</time>
      </trkpt>
      <trkpt lat="44.59082" lon="1.54559">
        <ele>343.72455603069</ele>
        <time>2021-03-03T19:52:41.471Z</time>
      </trkpt>
      <trkpt lat="44.5908" lon="1.54547">
        <ele>345.48730373481</ele>
        <time>2021-03-03T19:52:57.216Z</time>
      </trkpt>
      <trkpt lat="44.59081" lon="1.54535">
        <ele>347.19085368607</ele>
        <time>2021-03-03T19:53:12.964Z</time>
      </trkpt>
      <trkpt lat="44.59082" lon="1.54523">
        <ele>348.8561795558</ele>
        <time>2021-03-03T19:53:28.715Z</time>
      </trkpt>
      <trkpt lat="44.59078" lon="1.54522">
        <ele>350.51124327288</ele>
        <time>2021-03-03T19:53:44.467Z</time>
      </trkpt>
      <trkpt lat="44.59074" lon="1.54524">
        <ele>352.13866977566</ele>
        <time>2021-03-03T19:54:00.220Z</time>
      </trkpt>
      <trkpt lat="44.59058" lon="1.54537">
        <ele>353.77759038957</ele>
        <time>2021-03-03T19:54:15.979Z</time>
      </trkpt>
      <trkpt lat="44.59045" lon="1.54542">
        <ele>355.37424552808</ele>
        <time>2021-03-03T19:54:31.742Z</time>
      </trkpt>
      <trkpt lat="44.59041" lon="1.54543">
        <ele>356.89690469172</ele>
        <time>2021-03-03T19:54:47.506Z</time>
      </trkpt>
      <trkpt lat="44.59007" lon="1.54541">
        <ele>358.49568315102</ele>
        <time>2021-03-03T19:55:03.281Z</time>
      </trkpt>
      <trkpt lat="44.5898" lon="1.54538">
        <ele>360.0111488173</ele>
        <time>2021-03-03T19:55:19.064Z</time>
      </trkpt>
      <trkpt lat="44.58942" lon="1.54541">
        <ele>361.46791768148</ele>
        <time>2021-03-03T19:55:34.859Z</time>
      </trkpt>
      <trkpt lat="44.58923" lon="1.5454">
        <ele>362.71874578306</ele>
        <time>2021-03-03T19:55:50.660Z</time>
      </trkpt>
      <trkpt lat="44.58904" lon="1.54536">
        <ele>363.84845554352</ele>
        <time>2021-03-03T19:56:06.467Z</time>
      </trkpt>
      <trkpt lat="44.58884" lon="1.54534">
        <ele>364.84921613368</ele>
        <time>2021-03-03T19:56:22.280Z</time>
      </trkpt>
      <trkpt lat="44.58883" lon="1.54534">
        <ele>365.68119995802</ele>
        <time>2021-03-03T19:56:38.093Z</time>
      </trkpt>
      <trkpt lat="44.58879" lon="1.54534">
        <ele>366.38295316232</ele>
        <time>2021-03-03T19:56:53.907Z</time>
      </trkpt>
      <trkpt lat="44.58879" lon="1.54534">
        <ele>366.94428646357</ele>
        <time>2021-03-03T19:57:09.722Z</time>
      </trkpt>
      <trkpt lat="44.58877" lon="1.54533">
        <ele>367.37434570825</ele>
        <time>2021-03-03T19:57:25.537Z</time>
      </trkpt>
      <trkpt lat="44.58877" lon="1.54533">
        <ele>367.67243283132</ele>
        <time>2021-03-03T19:57:41.352Z</time>
      </trkpt>
      <trkpt lat="44.58877" lon="1.54533">
        <ele>367.84600799241</ele>
        <time>2021-03-03T19:57:57.167Z</time>
      </trkpt>
      <trkpt lat="44.58877" lon="1.54533">
        <ele>367.90361863361</ele>
        <time>2021-03-03T19:58:12.982Z</time>
      </trkpt>
      <trkpt lat="44.58815" lon="1.54542">
        <ele>367.9293489412</ele>
        <time>2021-03-03T19:58:28.816Z</time>
      </trkpt>
      <trkpt lat="44.58758" lon="1.54539">
        <ele>367.78230553088</ele>
        <time>2021-03-03T19:58:44.668Z</time>
      </trkpt>
      <trkpt lat="44.58745" lon="1.54534">
        <ele>367.55150577138</ele>
        <time>2021-03-03T19:59:00.524Z</time>
      </trkpt>
      <trkpt lat="44.58737" lon="1.54525">
        <ele>367.24758057303</ele>
        <time>2021-03-03T19:59:16.383Z</time>
      </trkpt>
      <trkpt lat="44.5872" lon="1.54486">
        <ele>366.79870928138</ele>
        <time>2021-03-03T19:59:32.252Z</time>
      </trkpt>
      <trkpt lat="44.58714" lon="1.5448">
        <ele>366.38237490202</ele>
        <time>2021-03-03T19:59:48.124Z</time>
      </trkpt>
      <trkpt lat="44.58712" lon="1.54479">
        <ele>365.96834628978</ele>
        <time>2021-03-03T20:00:03.997Z</time>
      </trkpt>
      <trkpt lat="44.587" lon="1.54488">
        <ele>365.57101764697</ele>
        <time>2021-03-03T20:00:19.874Z</time>
      </trkpt>
      <trkpt lat="44.58625" lon="1.54578">
        <ele>365.23267556724</ele>
        <time>2021-03-03T20:00:35.781Z</time>
      </trkpt>
      <trkpt lat="44.58574" lon="1.54648">
        <ele>364.81860527619</ele>
        <time>2021-03-03T20:00:51.710Z</time>
      </trkpt>
      <trkpt lat="44.58562" lon="1.54662">
        <ele>364.49485873896</ele>
        <time>2021-03-03T20:01:07.644Z</time>
      </trkpt>
      <trkpt lat="44.58558" lon="1.54661">
        <ele>364.25935721381</ele>
        <time>2021-03-03T20:01:23.579Z</time>
      </trkpt>
      <trkpt lat="44.58554" lon="1.54657">
        <ele>364.10043203006</ele>
        <time>2021-03-03T20:01:39.515Z</time>
      </trkpt>
      <trkpt lat="44.58553" lon="1.54651">
        <ele>364.0462075914</ele>
        <time>2021-03-03T20:01:55.453Z</time>
      </trkpt>
      <trkpt lat="44.58555" lon="1.54545">
        <ele>364.03574514747</ele>
        <time>2021-03-03T20:02:11.414Z</time>
      </trkpt>
      <trkpt lat="44.58543" lon="1.54529">
        <ele>364.17446317664</ele>
        <time>2021-03-03T20:02:27.380Z</time>
      </trkpt>
      <trkpt lat="44.58525" lon="1.54518">
        <ele>364.43496611908</ele>
        <time>2021-03-03T20:02:43.353Z</time>
      </trkpt>
      <trkpt lat="44.58515" lon="1.5451">
        <ele>364.81745386317</ele>
        <time>2021-03-03T20:02:59.329Z</time>
      </trkpt>
      <trkpt lat="44.5847" lon="1.54458">
        <ele>365.40327935586</ele>
        <time>2021-03-03T20:03:15.323Z</time>
      </trkpt>
      <trkpt lat="44.58453" lon="1.54445">
        <ele>366.1634488217</ele>
        <time>2021-03-03T20:03:31.323Z</time>
      </trkpt>
      <trkpt lat="44.58426" lon="1.54438">
        <ele>366.94839358893</ele>
        <time>2021-03-03T20:03:47.331Z</time>
      </trkpt>
      <trkpt lat="44.58389" lon="1.54434">
        <ele>367.77389231139</ele>
        <time>2021-03-03T20:04:03.351Z</time>
      </trkpt>
      <trkpt lat="44.58379" lon="1.5443">
        <ele>368.62789621475</ele>
        <time>2021-03-03T20:04:19.374Z</time>
      </trkpt>
      <trkpt lat="44.58368" lon="1.54422">
        <ele>369.52279251925</ele>
        <time>2021-03-03T20:04:35.401Z</time>
      </trkpt>
      <trkpt lat="44.5835" lon="1.54412">
        <ele>370.41901592524</ele>
        <time>2021-03-03T20:04:51.434Z</time>
      </trkpt>
      <trkpt lat="44.58323" lon="1.54403">
        <ele>371.27306144072</ele>
        <time>2021-03-03T20:05:07.475Z</time>
      </trkpt>
      <trkpt lat="44.58311" lon="1.54401">
        <ele>372.07136630848</ele>
        <time>2021-03-03T20:05:23.520Z</time>
      </trkpt>
      <trkpt lat="44.58306" lon="1.54401">
        <ele>372.75789651061</ele>
        <time>2021-03-03T20:05:39.567Z</time>
      </trkpt>
      <trkpt lat="44.5828" lon="1.54411">
        <ele>373.28816046506</ele>
        <time>2021-03-03T20:05:55.622Z</time>
      </trkpt>
      <trkpt lat="44.58246" lon="1.5443">
        <ele>373.59198115692</ele>
        <time>2021-03-03T20:06:11.688Z</time>
      </trkpt>
      <trkpt lat="44.58224" lon="1.54449">
        <ele>373.70426072562</ele>
        <time>2021-03-03T20:06:27.762Z</time>
      </trkpt>
      <trkpt lat="44.58215" lon="1.54459">
        <ele>373.55173801637</ele>
        <time>2021-03-03T20:06:43.840Z</time>
      </trkpt>
      <trkpt lat="44.58178" lon="1.54516">
        <ele>373.08268842279</ele>
        <time>2021-03-03T20:06:59.935Z</time>
      </trkpt>
      <trkpt lat="44.5816" lon="1.54548">
        <ele>372.34910903949</ele>
        <time>2021-03-03T20:07:16.039Z</time>
      </trkpt>
      <trkpt lat="44.58119" lon="1.54609">
        <ele>371.27986405018</ele>
        <time>2021-03-03T20:07:32.161Z</time>
      </trkpt>
      <trkpt lat="44.58077" lon="1.54664">
        <ele>369.74443916266</ele>
        <time>2021-03-03T20:07:48.301Z</time>
      </trkpt>
      <trkpt lat="44.58064" lon="1.54688">
        <ele>367.71953851495</ele>
        <time>2021-03-03T20:08:04.447Z</time>
      </trkpt>
      <trkpt lat="44.58048" lon="1.54725">
        <ele>365.25529625005</ele>
        <time>2021-03-03T20:08:20.603Z</time>
      </trkpt>
      <trkpt lat="44.58045" lon="1.54765">
        <ele>362.16637880651</ele>
        <time>2021-03-03T20:08:36.768Z</time>
      </trkpt>
      <trkpt lat="44.58046" lon="1.54778">
        <ele>358.56557918394</ele>
        <time>2021-03-03T20:08:52.936Z</time>
      </trkpt>
      <trkpt lat="44.5805" lon="1.54807">
        <ele>354.366691688</ele>
        <time>2021-03-03T20:09:09.110Z</time>
      </trkpt>
      <trkpt lat="44.5805" lon="1.54813">
        <ele>349.67496565035</ele>
        <time>2021-03-03T20:09:25.285Z</time>
      </trkpt>
      <trkpt lat="44.58034" lon="1.54912">
        <ele>344.25255286294</ele>
        <time>2021-03-03T20:09:41.483Z</time>
      </trkpt>
      <trkpt lat="44.58013" lon="1.55025">
        <ele>338.27805012624</ele>
        <time>2021-03-03T20:09:57.706Z</time>
      </trkpt>
      <trkpt lat="44.58008" lon="1.55067">
        <ele>331.81584178079</ele>
        <time>2021-03-03T20:10:13.939Z</time>
      </trkpt>
      <trkpt lat="44.58005" lon="1.55106">
        <ele>325.04842308423</ele>
        <time>2021-03-03T20:10:30.180Z</time>
      </trkpt>
      <trkpt lat="44.57999" lon="1.55148">
        <ele>318.18405897968</ele>
        <time>2021-03-03T20:10:46.431Z</time>
      </trkpt>
      <trkpt lat="44.57989" lon="1.55227">
        <ele>310.6446310218</ele>
        <time>2021-03-03T20:11:02.700Z</time>
      </trkpt>
      <trkpt lat="44.57988" lon="1.55272">
        <ele>302.92311099073</ele>
        <time>2021-03-03T20:11:18.978Z</time>
      </trkpt>
      <trkpt lat="44.57974" lon="1.55379">
        <ele>295.04357867063</ele>
        <time>2021-03-03T20:11:35.280Z</time>
      </trkpt>
      <trkpt lat="44.57967" lon="1.55447">
        <ele>287.27968153934</ele>
        <time>2021-03-03T20:11:51.598Z</time>
      </trkpt>
      <trkpt lat="44.57956" lon="1.55513">
        <ele>279.70076119762</ele>
        <time>2021-03-03T20:12:07.930Z</time>
      </trkpt>
      <trkpt lat="44.57951" lon="1.55556">
        <ele>272.41258105711</ele>
        <time>2021-03-03T20:12:24.272Z</time>
      </trkpt>
      <trkpt lat="44.57938" lon="1.55607">
        <ele>265.25019534403</ele>
        <time>2021-03-03T20:12:40.626Z</time>
      </trkpt>
      <trkpt lat="44.57936" lon="1.55628">
        <ele>258.53598915272</ele>
        <time>2021-03-03T20:12:56.985Z</time>
      </trkpt>
      <trkpt lat="44.57936" lon="1.55655">
        <ele>252.16802948335</ele>
        <time>2021-03-03T20:13:13.350Z</time>
      </trkpt>
      <trkpt lat="44.57942" lon="1.55651">
        <ele>246.38039278353</ele>
        <time>2021-03-03T20:13:29.717Z</time>
      </trkpt>
      <trkpt lat="44.57949" lon="1.55634">
        <ele>241.15713528593</ele>
        <time>2021-03-03T20:13:46.088Z</time>
      </trkpt>
      <trkpt lat="44.57952" lon="1.55635">
        <ele>236.34372084446</ele>
        <time>2021-03-03T20:14:02.460Z</time>
      </trkpt>
      <trkpt lat="44.57952" lon="1.55638">
        <ele>232.00972450295</ele>
        <time>2021-03-03T20:14:18.832Z</time>
      </trkpt>
      <trkpt lat="44.57949" lon="1.55693">
        <ele>227.83544401528</ele>
        <time>2021-03-03T20:14:35.217Z</time>
      </trkpt>
      <trkpt lat="44.57954" lon="1.55702">
        <ele>224.45026697278</ele>
        <time>2021-03-03T20:14:51.604Z</time>
      </trkpt>
      <trkpt lat="44.57958" lon="1.55739">
        <ele>221.43752538282</ele>
        <time>2021-03-03T20:15:07.999Z</time>
      </trkpt>
      <trkpt lat="44.57968" lon="1.55771">
        <ele>218.95637481436</ele>
        <time>2021-03-03T20:15:24.402Z</time>
      </trkpt>
      <trkpt lat="44.5797" lon="1.55782">
        <ele>216.93814794661</ele>
        <time>2021-03-03T20:15:40.808Z</time>
      </trkpt>
      <trkpt lat="44.57961" lon="1.55788">
        <ele>215.33688203498</ele>
        <time>2021-03-03T20:15:57.217Z</time>
      </trkpt>
      <trkpt lat="44.57932" lon="1.55786">
        <ele>214.09977528684</ele>
        <time>2021-03-03T20:16:13.635Z</time>
      </trkpt>
      <trkpt lat="44.57908" lon="1.55779">
        <ele>213.15022156171</ele>
        <time>2021-03-03T20:16:30.060Z</time>
      </trkpt>
      <trkpt lat="44.57874" lon="1.55775">
        <ele>212.52206086531</ele>
        <time>2021-03-03T20:16:46.496Z</time>
      </trkpt>
      <trkpt lat="44.57849" lon="1.55773">
        <ele>212.06849227988</ele>
        <time>2021-03-03T20:17:02.939Z</time>
      </trkpt>
      <trkpt lat="44.5783" lon="1.55777">
        <ele>211.68746971992</ele>
        <time>2021-03-03T20:17:19.388Z</time>
      </trkpt>
      <trkpt lat="44.57818" lon="1.55775">
        <ele>211.45690666053</ele>
        <time>2021-03-03T20:17:35.841Z</time>
      </trkpt>
      <trkpt lat="44.57764" lon="1.55758">
        <ele>211.36991462446</ele>
        <time>2021-03-03T20:17:52.311Z</time>
      </trkpt>
      <trkpt lat="44.577" lon="1.55708">
        <ele>211.38678300049</ele>
        <time>2021-03-03T20:18:08.803Z</time>
      </trkpt>
      <trkpt lat="44.57672" lon="1.5569">
        <ele>211.23327509129</ele>
        <time>2021-03-03T20:18:25.305Z</time>
      </trkpt>
      <trkpt lat="44.57637" lon="1.55672">
        <ele>210.9682537121</ele>
        <time>2021-03-03T20:18:41.818Z</time>
      </trkpt>
      <trkpt lat="44.57545" lon="1.55629">
        <ele>210.5077841789</ele>
        <time>2021-03-03T20:18:58.361Z</time>
      </trkpt>
      <trkpt lat="44.57526" lon="1.55616">
        <ele>210.31733596025</ele>
        <time>2021-03-03T20:19:14.911Z</time>
      </trkpt>
      <trkpt lat="44.57498" lon="1.55583">
        <ele>210.30260961539</ele>
        <time>2021-03-03T20:19:31.472Z</time>
      </trkpt>
      <trkpt lat="44.57464" lon="1.5555">
        <ele>210.13460232649</ele>
        <time>2021-03-03T20:19:48.046Z</time>
      </trkpt>
      <trkpt lat="44.57423" lon="1.55532">
        <ele>209.86633438854</ele>
        <time>2021-03-03T20:20:04.633Z</time>
      </trkpt>
      <trkpt lat="44.57398" lon="1.55516">
        <ele>209.65939560898</ele>
        <time>2021-03-03T20:20:21.229Z</time>
      </trkpt>
      <trkpt lat="44.5737" lon="1.55492">
        <ele>209.51326693805</ele>
        <time>2021-03-03T20:20:37.835Z</time>
      </trkpt>
      <trkpt lat="44.57355" lon="1.55482">
        <ele>209.40133371509</ele>
        <time>2021-03-03T20:20:54.446Z</time>
      </trkpt>
      <trkpt lat="44.57305" lon="1.55461">
        <ele>209.27790254763</ele>
        <time>2021-03-03T20:21:11.073Z</time>
      </trkpt>
      <trkpt lat="44.57279" lon="1.55447">
        <ele>209.30516299051</ele>
        <time>2021-03-03T20:21:27.708Z</time>
      </trkpt>
      <trkpt lat="44.57179" lon="1.55403">
        <ele>209.47390630883</ele>
        <time>2021-03-03T20:21:44.376Z</time>
      </trkpt>
      <trkpt lat="44.57128" lon="1.55383">
        <ele>209.68656297845</ele>
        <time>2021-03-03T20:22:01.060Z</time>
      </trkpt>
      <trkpt lat="44.57093" lon="1.55359">
        <ele>210.032517624</ele>
        <time>2021-03-03T20:22:17.756Z</time>
      </trkpt>
      <trkpt lat="44.57063" lon="1.55329">
        <ele>210.40122612019</ele>
        <time>2021-03-03T20:22:34.463Z</time>
      </trkpt>
      <trkpt lat="44.57007" lon="1.55286">
        <ele>211.29102121279</ele>
        <time>2021-03-03T20:22:51.190Z</time>
      </trkpt>
      <trkpt lat="44.56995" lon="1.55269">
        <ele>212.15452536203</ele>
        <time>2021-03-03T20:23:07.922Z</time>
      </trkpt>
      <trkpt lat="44.56983" lon="1.55265">
        <ele>212.94997044466</ele>
        <time>2021-03-03T20:23:24.658Z</time>
      </trkpt>
      <trkpt lat="44.56979" lon="1.55265">
        <ele>213.77933599537</ele>
        <time>2021-03-03T20:23:41.395Z</time>
      </trkpt>
      <trkpt lat="44.56912" lon="1.55276">
        <ele>214.40534090349</ele>
        <time>2021-03-03T20:23:58.153Z</time>
      </trkpt>
      <trkpt lat="44.56897" lon="1.55277">
        <ele>215.38017349019</ele>
        <time>2021-03-03T20:24:14.916Z</time>
      </trkpt>
      <trkpt lat="44.56885" lon="1.55245">
        <ele>216.55406270582</ele>
        <time>2021-03-03T20:24:31.687Z</time>
      </trkpt>
      <trkpt lat="44.56866" lon="1.55239">
        <ele>217.69235341522</ele>
        <time>2021-03-03T20:24:48.464Z</time>
      </trkpt>
      <trkpt lat="44.56841" lon="1.55239">
        <ele>219.0347361283</ele>
        <time>2021-03-03T20:25:05.248Z</time>
      </trkpt>
      <trkpt lat="44.56835" lon="1.55243">
        <ele>220.31938427842</ele>
        <time>2021-03-03T20:25:22.034Z</time>
      </trkpt>
      <trkpt lat="44.56833" lon="1.55248">
        <ele>221.61854646192</ele>
        <time>2021-03-03T20:25:38.822Z</time>
      </trkpt>
      <trkpt lat="44.56827" lon="1.55269">
        <ele>222.8682679963</ele>
        <time>2021-03-03T20:25:55.615Z</time>
      </trkpt>
      <trkpt lat="44.56821" lon="1.553">
        <ele>224.07351018367</ele>
        <time>2021-03-03T20:26:12.415Z</time>
      </trkpt>
      <trkpt lat="44.56817" lon="1.55306">
        <ele>225.33620524992</ele>
        <time>2021-03-03T20:26:29.216Z</time>
      </trkpt>
      <trkpt lat="44.56813" lon="1.55307">
        <ele>226.58020039327</ele>
        <time>2021-03-03T20:26:46.019Z</time>
      </trkpt>
      <trkpt lat="44.56779" lon="1.55293">
        <ele>227.95598905951</ele>
        <time>2021-03-03T20:27:02.833Z</time>
      </trkpt>
      <trkpt lat="44.5677" lon="1.55286">
        <ele>229.06862694419</ele>
        <time>2021-03-03T20:27:19.650Z</time>
      </trkpt>
      <trkpt lat="44.56756" lon="1.55282">
        <ele>230.03350265161</ele>
        <time>2021-03-03T20:27:36.471Z</time>
      </trkpt>
      <trkpt lat="44.56698" lon="1.5525">
        <ele>230.83328860805</ele>
        <time>2021-03-03T20:27:53.311Z</time>
      </trkpt>
      <trkpt lat="44.56674" lon="1.5523">
        <ele>231.48543288516</ele>
        <time>2021-03-03T20:28:10.160Z</time>
      </trkpt>
      <trkpt lat="44.56656" lon="1.55206">
        <ele>231.90248235483</ele>
        <time>2021-03-03T20:28:27.017Z</time>
      </trkpt>
      <trkpt lat="44.56643" lon="1.55196">
        <ele>231.90404832742</ele>
        <time>2021-03-03T20:28:43.878Z</time>
      </trkpt>
      <trkpt lat="44.56628" lon="1.55192">
        <ele>231.54962760862</ele>
        <time>2021-03-03T20:29:00.744Z</time>
      </trkpt>
      <trkpt lat="44.56615" lon="1.55183">
        <ele>230.96888985635</ele>
        <time>2021-03-03T20:29:17.614Z</time>
      </trkpt>
      <trkpt lat="44.56579" lon="1.55166">
        <ele>230.08128000881</ele>
        <time>2021-03-03T20:29:34.496Z</time>
      </trkpt>
      <trkpt lat="44.56532" lon="1.55148">
        <ele>228.84940713474</ele>
        <time>2021-03-03T20:29:51.393Z</time>
      </trkpt>
      <trkpt lat="44.56512" lon="1.55146">
        <ele>227.515725675</ele>
        <time>2021-03-03T20:30:08.296Z</time>
      </trkpt>
      <trkpt lat="44.56483" lon="1.55148">
        <ele>225.85410724062</ele>
        <time>2021-03-03T20:30:25.208Z</time>
      </trkpt>
      <trkpt lat="44.5638" lon="1.55163">
        <ele>223.90651901098</ele>
        <time>2021-03-03T20:30:42.152Z</time>
      </trkpt>
      <trkpt lat="44.56174" lon="1.55188">
        <ele>221.55908760699</ele>
        <time>2021-03-03T20:30:59.160Z</time>
      </trkpt>
      <trkpt lat="44.56166" lon="1.5519">
        <ele>219.61143123898</ele>
        <time>2021-03-03T20:31:16.170Z</time>
      </trkpt>
      <trkpt lat="44.5616" lon="1.55194">
        <ele>217.63453449513</ele>
        <time>2021-03-03T20:31:33.182Z</time>
      </trkpt>
      <trkpt lat="44.56155" lon="1.552">
        <ele>215.69972710953</ele>
        <time>2021-03-03T20:31:50.196Z</time>
      </trkpt>
      <trkpt lat="44.56148" lon="1.55215">
        <ele>213.82150312257</ele>
        <time>2021-03-03T20:32:07.214Z</time>
      </trkpt>
      <trkpt lat="44.56144" lon="1.55219">
        <ele>212.12485966645</ele>
        <time>2021-03-03T20:32:24.234Z</time>
      </trkpt>
      <trkpt lat="44.56131" lon="1.55225">
        <ele>210.5980457509</ele>
        <time>2021-03-03T20:32:41.258Z</time>
      </trkpt>
      <trkpt lat="44.56119" lon="1.55227">
        <ele>209.28247360522</ele>
        <time>2021-03-03T20:32:58.286Z</time>
      </trkpt>
      <trkpt lat="44.56097" lon="1.55225">
        <ele>208.18382560952</ele>
        <time>2021-03-03T20:33:15.320Z</time>
      </trkpt>
      <trkpt lat="44.56075" lon="1.55218">
        <ele>207.36985053531</ele>
        <time>2021-03-03T20:33:32.361Z</time>
      </trkpt>
      <trkpt lat="44.56061" lon="1.55217">
        <ele>206.76383875827</ele>
        <time>2021-03-03T20:33:49.407Z</time>
      </trkpt>
      <trkpt lat="44.56004" lon="1.5524">
        <ele>206.36372221453</ele>
        <time>2021-03-03T20:34:06.471Z</time>
      </trkpt>
      <trkpt lat="44.5597" lon="1.55248">
        <ele>206.16529494558</ele>
        <time>2021-03-03T20:34:23.546Z</time>
      </trkpt>
      <trkpt lat="44.55928" lon="1.55247">
        <ele>206.32976928985</ele>
        <time>2021-03-03T20:34:40.633Z</time>
      </trkpt>
      <trkpt lat="44.55888" lon="1.55244">
        <ele>206.79870064399</ele>
        <time>2021-03-03T20:34:57.733Z</time>
      </trkpt>
      <trkpt lat="44.5587" lon="1.5524">
        <ele>207.46328036378</ele>
        <time>2021-03-03T20:35:14.839Z</time>
      </trkpt>
      <trkpt lat="44.55837" lon="1.55228">
        <ele>208.3862927455</ele>
        <time>2021-03-03T20:35:31.955Z</time>
      </trkpt>
      <trkpt lat="44.55823" lon="1.55225">
        <ele>209.54031005646</ele>
        <time>2021-03-03T20:35:49.075Z</time>
      </trkpt>
      <trkpt lat="44.55807" lon="1.55222">
        <ele>210.89928799863</ele>
        <time>2021-03-03T20:36:06.200Z</time>
      </trkpt>
      <trkpt lat="44.55775" lon="1.55223">
        <ele>212.47921220852</ele>
        <time>2021-03-03T20:36:23.335Z</time>
      </trkpt>
      <trkpt lat="44.55758" lon="1.5522">
        <ele>214.25836603128</ele>
        <time>2021-03-03T20:36:40.475Z</time>
      </trkpt>
      <trkpt lat="44.55751" lon="1.55216">
        <ele>216.176629753</ele>
        <time>2021-03-03T20:36:57.618Z</time>
      </trkpt>
      <trkpt lat="44.55738" lon="1.55192">
        <ele>218.34717382069</ele>
        <time>2021-03-03T20:37:14.767Z</time>
      </trkpt>
      <trkpt lat="44.55736" lon="1.55183">
        <ele>220.49510083409</ele>
        <time>2021-03-03T20:37:31.918Z</time>
      </trkpt>
      <trkpt lat="44.55728" lon="1.55169">
        <ele>222.74182409074</ele>
        <time>2021-03-03T20:37:49.073Z</time>
      </trkpt>
      <trkpt lat="44.55714" lon="1.55126">
        <ele>225.22379117812</ele>
        <time>2021-03-03T20:38:06.239Z</time>
      </trkpt>
      <trkpt lat="44.55709" lon="1.55115">
        <ele>227.50446350437</ele>
        <time>2021-03-03T20:38:23.408Z</time>
      </trkpt>
      <trkpt lat="44.55703" lon="1.5509">
        <ele>229.86169176846</ele>
        <time>2021-03-03T20:38:40.583Z</time>
      </trkpt>
      <trkpt lat="44.55691" lon="1.55075">
        <ele>232.0947005373</ele>
        <time>2021-03-03T20:38:57.762Z</time>
      </trkpt>
      <trkpt lat="44.55686" lon="1.55074">
        <ele>234.21258878511</ele>
        <time>2021-03-03T20:39:14.943Z</time>
      </trkpt>
      <trkpt lat="44.55681" lon="1.55079">
        <ele>236.23117646783</ele>
        <time>2021-03-03T20:39:32.126Z</time>
      </trkpt>
      <trkpt lat="44.55675" lon="1.55095">
        <ele>238.142601705</ele>
        <time>2021-03-03T20:39:49.313Z</time>
      </trkpt>
      <trkpt lat="44.55662" lon="1.55138">
        <ele>240.01328293162</ele>
        <time>2021-03-03T20:40:06.510Z</time>
      </trkpt>
      <trkpt lat="44.55647" lon="1.55163">
        <ele>241.89393900616</ele>
        <time>2021-03-03T20:40:23.714Z</time>
      </trkpt>
      <trkpt lat="44.5564" lon="1.55171">
        <ele>243.77497006275</ele>
        <time>2021-03-03T20:40:40.921Z</time>
      </trkpt>
      <trkpt lat="44.55631" lon="1.5518">
        <ele>245.66254064515</ele>
        <time>2021-03-03T20:40:58.132Z</time>
      </trkpt>
      <trkpt lat="44.55616" lon="1.55186">
        <ele>247.61861132878</ele>
        <time>2021-03-03T20:41:15.347Z</time>
      </trkpt>
      <trkpt lat="44.55607" lon="1.55188">
        <ele>249.58378032059</ele>
        <time>2021-03-03T20:41:32.565Z</time>
      </trkpt>
      <trkpt lat="44.5559" lon="1.55184">
        <ele>251.64286135113</ele>
        <time>2021-03-03T20:41:49.788Z</time>
      </trkpt>
      <trkpt lat="44.55576" lon="1.55174">
        <ele>253.74519206269</ele>
        <time>2021-03-03T20:42:07.016Z</time>
      </trkpt>
      <trkpt lat="44.55565" lon="1.55164">
        <ele>255.88680253663</ele>
        <time>2021-03-03T20:42:24.248Z</time>
      </trkpt>
      <trkpt lat="44.55553" lon="1.55149">
        <ele>258.14508618821</ele>
        <time>2021-03-03T20:42:41.485Z</time>
      </trkpt>
      <trkpt lat="44.55547" lon="1.55137">
        <ele>260.41083516887</ele>
        <time>2021-03-03T20:42:58.725Z</time>
      </trkpt>
      <trkpt lat="44.55537" lon="1.55129">
        <ele>262.68765938942</ele>
        <time>2021-03-03T20:43:15.969Z</time>
      </trkpt>
      <trkpt lat="44.55527" lon="1.55097">
        <ele>265.10530976918</ele>
        <time>2021-03-03T20:43:33.221Z</time>
      </trkpt>
      <trkpt lat="44.55516" lon="1.55077">
        <ele>267.43900235302</ele>
        <time>2021-03-03T20:43:50.478Z</time>
      </trkpt>
      <trkpt lat="44.55485" lon="1.55038">
        <ele>269.81385802301</ele>
        <time>2021-03-03T20:44:07.748Z</time>
      </trkpt>
      <trkpt lat="44.55478" lon="1.55031">
        <ele>272.13249338555</ele>
        <time>2021-03-03T20:44:25.021Z</time>
      </trkpt>
      <trkpt lat="44.55469" lon="1.5502">
        <ele>274.47820630482</ele>
        <time>2021-03-03T20:44:42.298Z</time>
      </trkpt>
      <trkpt lat="44.55462" lon="1.55003">
        <ele>276.83939671774</ele>
        <time>2021-03-03T20:44:59.579Z</time>
      </trkpt>
      <trkpt lat="44.55432" lon="1.54888">
        <ele>279.42582572353</ele>
        <time>2021-03-03T20:45:16.887Z</time>
      </trkpt>
      <trkpt lat="44.55426" lon="1.54875">
        <ele>281.77945392377</ele>
        <time>2021-03-03T20:45:34.198Z</time>
      </trkpt>
      <trkpt lat="44.55419" lon="1.54864">
        <ele>284.11278526088</ele>
        <time>2021-03-03T20:45:51.512Z</time>
      </trkpt>
      <trkpt lat="44.554" lon="1.54844">
        <ele>286.45371635812</ele>
        <time>2021-03-03T20:46:08.834Z</time>
      </trkpt>
      <trkpt lat="44.55377" lon="1.54832">
        <ele>288.74972736813</ele>
        <time>2021-03-03T20:46:26.163Z</time>
      </trkpt>
      <trkpt lat="44.55356" lon="1.5483">
        <ele>290.98048707416</ele>
        <time>2021-03-03T20:46:43.499Z</time>
      </trkpt>
      <trkpt lat="44.55344" lon="1.54842">
        <ele>293.16623697657</ele>
        <time>2021-03-03T20:47:00.839Z</time>
      </trkpt>
      <trkpt lat="44.55313" lon="1.54884">
        <ele>295.41109469895</ele>
        <time>2021-03-03T20:47:18.192Z</time>
      </trkpt>
      <trkpt lat="44.55309" lon="1.54893">
        <ele>297.56872535082</ele>
        <time>2021-03-03T20:47:35.548Z</time>
      </trkpt>
      <trkpt lat="44.55291" lon="1.54917">
        <ele>299.71814698734</ele>
        <time>2021-03-03T20:47:52.912Z</time>
      </trkpt>
      <trkpt lat="44.55283" lon="1.5493">
        <ele>301.73571129241</ele>
        <time>2021-03-03T20:48:10.279Z</time>
      </trkpt>
      <trkpt lat="44.55213" lon="1.55072">
        <ele>304.00759247335</ele>
        <time>2021-03-03T20:48:27.684Z</time>
      </trkpt>
      <trkpt lat="44.55151" lon="1.55204">
        <ele>306.08148875336</ele>
        <time>2021-03-03T20:48:45.124Z</time>
      </trkpt>
      <trkpt lat="44.55129" lon="1.55241">
        <ele>307.71224720643</ele>
        <time>2021-03-03T20:49:02.575Z</time>
      </trkpt>
      <trkpt lat="44.55109" lon="1.5527">
        <ele>309.09920969641</ele>
        <time>2021-03-03T20:49:20.035Z</time>
      </trkpt>
      <trkpt lat="44.55085" lon="1.55292">
        <ele>310.23628587309</ele>
        <time>2021-03-03T20:49:37.503Z</time>
      </trkpt>
      <trkpt lat="44.55084" lon="1.55292">
        <ele>311.23033007066</ele>
        <time>2021-03-03T20:49:54.972Z</time>
      </trkpt>
      <trkpt lat="44.55077" lon="1.55285">
        <ele>311.99864595709</ele>
        <time>2021-03-03T20:50:12.443Z</time>
      </trkpt>
      <trkpt lat="44.55081" lon="1.55289">
        <ele>312.62179187394</ele>
        <time>2021-03-03T20:50:29.915Z</time>
      </trkpt>
      <trkpt lat="44.55081" lon="1.55297">
        <ele>313.0294965442</ele>
        <time>2021-03-03T20:50:47.389Z</time>
      </trkpt>
      <trkpt lat="44.55048" lon="1.55322">
        <ele>313.14317253006</ele>
        <time>2021-03-03T20:51:04.875Z</time>
      </trkpt>
      <trkpt lat="44.55028" lon="1.55339">
        <ele>313.21758376568</ele>
        <time>2021-03-03T20:51:22.368Z</time>
      </trkpt>
      <trkpt lat="44.55006" lon="1.55361">
        <ele>313.16724767721</ele>
        <time>2021-03-03T20:51:39.869Z</time>
      </trkpt>
      <trkpt lat="44.55" lon="1.55356">
        <ele>312.92933768924</ele>
        <time>2021-03-03T20:51:57.372Z</time>
      </trkpt>
      <trkpt lat="44.54991" lon="1.55334">
        <ele>312.48964719297</ele>
        <time>2021-03-03T20:52:14.881Z</time>
      </trkpt>
      <trkpt lat="44.54985" lon="1.55325">
        <ele>311.96721203374</ele>
        <time>2021-03-03T20:52:32.393Z</time>
      </trkpt>
      <trkpt lat="44.54976" lon="1.55319">
        <ele>311.36276843321</ele>
        <time>2021-03-03T20:52:49.908Z</time>
      </trkpt>
      <trkpt lat="44.54969" lon="1.55318">
        <ele>310.71230657105</ele>
        <time>2021-03-03T20:53:07.425Z</time>
      </trkpt>
      <trkpt lat="44.54966" lon="1.55314">
        <ele>309.95977447208</ele>
        <time>2021-03-03T20:53:24.943Z</time>
      </trkpt>
      <trkpt lat="44.54944" lon="1.55311">
        <ele>309.12592766916</ele>
        <time>2021-03-03T20:53:42.468Z</time>
      </trkpt>
      <trkpt lat="44.54927" lon="1.55305">
        <ele>308.23921637364</ele>
        <time>2021-03-03T20:53:59.998Z</time>
      </trkpt>
      <trkpt lat="44.54916" lon="1.55299">
        <ele>307.24603838696</ele>
        <time>2021-03-03T20:54:17.532Z</time>
      </trkpt>
      <trkpt lat="44.54893" lon="1.55282">
        <ele>306.12824740273</ele>
        <time>2021-03-03T20:54:35.074Z</time>
      </trkpt>
      <trkpt lat="44.54877" lon="1.55272">
        <ele>304.92576468106</ele>
        <time>2021-03-03T20:54:52.621Z</time>
      </trkpt>
      <trkpt lat="44.5486" lon="1.55255">
        <ele>303.5600927221</ele>
        <time>2021-03-03T20:55:10.175Z</time>
      </trkpt>
      <trkpt lat="44.54836" lon="1.55237">
        <ele>302.15147980263</ele>
        <time>2021-03-03T20:55:27.737Z</time>
      </trkpt>
      <trkpt lat="44.54832" lon="1.55231">
        <ele>300.5942828989</ele>
        <time>2021-03-03T20:55:45.301Z</time>
      </trkpt>
      <trkpt lat="44.54832" lon="1.55225">
        <ele>298.89246843824</ele>
        <time>2021-03-03T20:56:02.866Z</time>
      </trkpt>
      <trkpt lat="44.54824" lon="1.55211">
        <ele>296.98128424925</ele>
        <time>2021-03-03T20:56:20.435Z</time>
      </trkpt>
      <trkpt lat="44.54824" lon="1.55196">
        <ele>294.88703314677</ele>
        <time>2021-03-03T20:56:38.007Z</time>
      </trkpt>
      <trkpt lat="44.54822" lon="1.55189">
        <ele>292.65877379427</ele>
        <time>2021-03-03T20:56:55.581Z</time>
      </trkpt>
      <trkpt lat="44.54805" lon="1.55166">
        <ele>290.18107146347</ele>
        <time>2021-03-03T20:57:13.162Z</time>
      </trkpt>
      <trkpt lat="44.54804" lon="1.55158">
        <ele>287.53206451441</ele>
        <time>2021-03-03T20:57:30.745Z</time>
      </trkpt>
      <trkpt lat="44.54798" lon="1.55149">
        <ele>284.64336394642</ele>
        <time>2021-03-03T20:57:48.331Z</time>
      </trkpt>
      <trkpt lat="44.54795" lon="1.5514">
        <ele>281.56345669234</ele>
        <time>2021-03-03T20:58:05.919Z</time>
      </trkpt>
      <trkpt lat="44.54791" lon="1.55136">
        <ele>278.30203485754</ele>
        <time>2021-03-03T20:58:23.508Z</time>
      </trkpt>
      <trkpt lat="44.54781" lon="1.55102">
        <ele>274.72731299183</ele>
        <time>2021-03-03T20:58:41.105Z</time>
      </trkpt>
      <trkpt lat="44.5475" lon="1.55047">
        <ele>270.77268806235</ele>
        <time>2021-03-03T20:58:58.718Z</time>
      </trkpt>
      <trkpt lat="44.54722" lon="1.55014">
        <ele>266.71910577632</ele>
        <time>2021-03-03T20:59:16.342Z</time>
      </trkpt>
      <trkpt lat="44.54713" lon="1.55008">
        <ele>262.7166819071</ele>
        <time>2021-03-03T20:59:33.969Z</time>
      </trkpt>
      <trkpt lat="44.54704" lon="1.55005">
        <ele>258.62485811899</ele>
        <time>2021-03-03T20:59:51.599Z</time>
      </trkpt>
      <trkpt lat="44.547" lon="1.54998">
        <ele>254.47839764592</ele>
        <time>2021-03-03T21:00:09.231Z</time>
      </trkpt>
      <trkpt lat="44.5468" lon="1.54982">
        <ele>250.1220385086</ele>
        <time>2021-03-03T21:00:26.870Z</time>
      </trkpt>
      <trkpt lat="44.54678" lon="1.54975">
        <ele>245.90299237051</ele>
        <time>2021-03-03T21:00:44.511Z</time>
      </trkpt>
      <trkpt lat="44.54664" lon="1.5496">
        <ele>241.51498209683</ele>
        <time>2021-03-03T21:01:02.157Z</time>
      </trkpt>
      <trkpt lat="44.54649" lon="1.54957">
        <ele>237.17075423738</ele>
        <time>2021-03-03T21:01:19.808Z</time>
      </trkpt>
      <trkpt lat="44.54641" lon="1.54953">
        <ele>232.94059608791</ele>
        <time>2021-03-03T21:01:37.461Z</time>
      </trkpt>
      <trkpt lat="44.5463" lon="1.54953">
        <ele>228.80042268929</ele>
        <time>2021-03-03T21:01:55.118Z</time>
      </trkpt>
      <trkpt lat="44.54616" lon="1.54943">
        <ele>224.68390272659</ele>
        <time>2021-03-03T21:02:12.779Z</time>
      </trkpt>
      <trkpt lat="44.54603" lon="1.5494">
        <ele>220.69610713758</ele>
        <time>2021-03-03T21:02:30.445Z</time>
      </trkpt>
      <trkpt lat="44.54593" lon="1.54928">
        <ele>216.8229891022</ele>
        <time>2021-03-03T21:02:48.114Z</time>
      </trkpt>
      <trkpt lat="44.54578" lon="1.54917">
        <ele>213.04163960434</ele>
        <time>2021-03-03T21:03:05.789Z</time>
      </trkpt>
      <trkpt lat="44.54561" lon="1.54902">
        <ele>209.35158717942</ele>
        <time>2021-03-03T21:03:23.470Z</time>
      </trkpt>
      <trkpt lat="44.5455" lon="1.54898">
        <ele>205.94414366418</ele>
        <time>2021-03-03T21:03:41.154Z</time>
      </trkpt>
      <trkpt lat="44.54522" lon="1.54901">
        <ele>202.64508616673</ele>
        <time>2021-03-03T21:03:58.847Z</time>
      </trkpt>
      <trkpt lat="44.54516" lon="1.54904">
        <ele>199.75401708686</ele>
        <time>2021-03-03T21:04:16.542Z</time>
      </trkpt>
      <trkpt lat="44.54511" lon="1.54908">
        <ele>197.08855887915</ele>
        <time>2021-03-03T21:04:34.239Z</time>
      </trkpt>
      <trkpt lat="44.54505" lon="1.54919">
        <ele>194.68716497901</ele>
        <time>2021-03-03T21:04:51.939Z</time>
      </trkpt>
      <trkpt lat="44.54502" lon="1.54921">
        <ele>192.48170919643</ele>
        <time>2021-03-03T21:05:09.640Z</time>
      </trkpt>
      <trkpt lat="44.54492" lon="1.54936">
        <ele>190.48600859869</ele>
        <time>2021-03-03T21:05:27.345Z</time>
      </trkpt>
      <trkpt lat="44.5449" lon="1.54937">
        <ele>188.7513734899</ele>
        <time>2021-03-03T21:05:45.051Z</time>
      </trkpt>
      <trkpt lat="44.54475" lon="1.54931">
        <ele>187.12605443572</ele>
        <time>2021-03-03T21:06:02.762Z</time>
      </trkpt>
      <trkpt lat="44.54471" lon="1.54925">
        <ele>185.82897848156</ele>
        <time>2021-03-03T21:06:20.475Z</time>
      </trkpt>
      <trkpt lat="44.54466" lon="1.54906">
        <ele>184.74275646178</ele>
        <time>2021-03-03T21:06:38.192Z</time>
      </trkpt>
      <trkpt lat="44.54461" lon="1.54902">
        <ele>183.92829663765</ele>
        <time>2021-03-03T21:06:55.911Z</time>
      </trkpt>
      <trkpt lat="44.54442" lon="1.54914">
        <ele>183.28861726464</ele>
        <time>2021-03-03T21:07:13.636Z</time>
      </trkpt>
      <trkpt lat="44.54429" lon="1.54929">
        <ele>182.93129100055</ele>
        <time>2021-03-03T21:07:31.366Z</time>
      </trkpt>
      <trkpt lat="44.54425" lon="1.5493">
        <ele>182.80161597561</ele>
        <time>2021-03-03T21:07:49.098Z</time>
      </trkpt>
      <trkpt lat="44.54418" lon="1.54926">
        <ele>182.86007517462</ele>
        <time>2021-03-03T21:08:06.832Z</time>
      </trkpt>
      <trkpt lat="44.54419" lon="1.54893">
        <ele>183.19522432675</ele>
        <time>2021-03-03T21:08:24.573Z</time>
      </trkpt>
      <trkpt lat="44.5441" lon="1.54835">
        <ele>183.79856228214</ele>
        <time>2021-03-03T21:08:42.327Z</time>
      </trkpt>
      <trkpt lat="44.54407" lon="1.54826">
        <ele>184.48863865432</ele>
        <time>2021-03-03T21:09:00.084Z</time>
      </trkpt>
      <trkpt lat="44.54397" lon="1.548">
        <ele>185.32325069069</ele>
        <time>2021-03-03T21:09:17.847Z</time>
      </trkpt>
      <trkpt lat="44.54377" lon="1.54756">
        <ele>186.23380767622</ele>
        <time>2021-03-03T21:09:35.621Z</time>
      </trkpt>
      <trkpt lat="44.54372" lon="1.54674">
        <ele>187.35688652714</ele>
        <time>2021-03-03T21:09:53.414Z</time>
      </trkpt>
      <trkpt lat="44.54364" lon="1.54637">
        <ele>188.56828441358</ele>
        <time>2021-03-03T21:10:11.215Z</time>
      </trkpt>
      <trkpt lat="44.54345" lon="1.54601">
        <ele>189.78494478861</ele>
        <time>2021-03-03T21:10:29.026Z</time>
      </trkpt>
      <trkpt lat="44.54317" lon="1.5456">
        <ele>190.99235450021</ele>
        <time>2021-03-03T21:10:46.849Z</time>
      </trkpt>
      <trkpt lat="44.54303" lon="1.54544">
        <ele>192.16866513891</ele>
        <time>2021-03-03T21:11:04.678Z</time>
      </trkpt>
      <trkpt lat="44.54277" lon="1.54509">
        <ele>193.37452923585</ele>
        <time>2021-03-03T21:11:22.518Z</time>
      </trkpt>
      <trkpt lat="44.54261" lon="1.54494">
        <ele>194.48521352254</ele>
        <time>2021-03-03T21:11:40.364Z</time>
      </trkpt>
      <trkpt lat="44.54256" lon="1.54487">
        <ele>195.50954019428</ele>
        <time>2021-03-03T21:11:58.212Z</time>
      </trkpt>
      <trkpt lat="44.5424" lon="1.54485">
        <ele>196.40070559822</ele>
        <time>2021-03-03T21:12:16.065Z</time>
      </trkpt>
      <trkpt lat="44.54235" lon="1.54483">
        <ele>197.20123864978</ele>
        <time>2021-03-03T21:12:33.920Z</time>
      </trkpt>
      <trkpt lat="44.5422" lon="1.54483">
        <ele>197.87148526047</ele>
        <time>2021-03-03T21:12:51.780Z</time>
      </trkpt>
      <trkpt lat="44.54192" lon="1.54494">
        <ele>198.34149816141</ele>
        <time>2021-03-03T21:13:09.648Z</time>
      </trkpt>
      <trkpt lat="44.54179" lon="1.54497">
        <ele>198.69233484091</ele>
        <time>2021-03-03T21:13:27.521Z</time>
      </trkpt>
      <trkpt lat="44.54169" lon="1.54503">
        <ele>198.88037127063</ele>
        <time>2021-03-03T21:13:45.397Z</time>
      </trkpt>
      <trkpt lat="44.54172" lon="1.54485">
        <ele>199.13758102925</ele>
        <time>2021-03-03T21:14:03.277Z</time>
      </trkpt>
      <trkpt lat="44.54163" lon="1.54488">
        <ele>199.07143990807</ele>
        <time>2021-03-03T21:14:21.160Z</time>
      </trkpt>
      <trkpt lat="44.54157" lon="1.54491">
        <ele>198.86127720838</ele>
        <time>2021-03-03T21:14:39.045Z</time>
      </trkpt>
      <trkpt lat="44.54153" lon="1.54491">
        <ele>198.57399972368</ele>
        <time>2021-03-03T21:14:56.931Z</time>
      </trkpt>
      <trkpt lat="44.54131" lon="1.54476">
        <ele>198.19126863941</ele>
        <time>2021-03-03T21:15:14.825Z</time>
      </trkpt>
      <trkpt lat="44.54121" lon="1.5447">
        <ele>197.64294621385</ele>
        <time>2021-03-03T21:15:32.722Z</time>
      </trkpt>
      <trkpt lat="44.5411" lon="1.54468">
        <ele>196.99380426659</ele>
        <time>2021-03-03T21:15:50.622Z</time>
      </trkpt>
      <trkpt lat="44.54088" lon="1.54455">
        <ele>196.23811933979</ele>
        <time>2021-03-03T21:16:08.530Z</time>
      </trkpt>
      <trkpt lat="44.54076" lon="1.54427">
        <ele>195.61470431886</ele>
        <time>2021-03-03T21:16:26.445Z</time>
      </trkpt>
      <trkpt lat="44.54076" lon="1.54413">
        <ele>194.99228263944</ele>
        <time>2021-03-03T21:16:44.363Z</time>
      </trkpt>
      <trkpt lat="44.54073" lon="1.54406">
        <ele>194.31195548903</ele>
        <time>2021-03-03T21:17:02.283Z</time>
      </trkpt>
      <trkpt lat="44.54071" lon="1.54411">
        <ele>193.62651782797</ele>
        <time>2021-03-03T21:17:20.204Z</time>
      </trkpt>
      <trkpt lat="44.5407" lon="1.54445">
        <ele>192.89670970315</ele>
        <time>2021-03-03T21:17:38.133Z</time>
      </trkpt>
      <trkpt lat="44.54071" lon="1.54461">
        <ele>192.24010712047</ele>
        <time>2021-03-03T21:17:56.065Z</time>
      </trkpt>
      <trkpt lat="44.54075" lon="1.54478">
        <ele>191.6473497494</ele>
        <time>2021-03-03T21:18:14.001Z</time>
      </trkpt>
      <trkpt lat="44.5407" lon="1.54486">
        <ele>191.0898887246</ele>
        <time>2021-03-03T21:18:31.940Z</time>
      </trkpt>
      <trkpt lat="44.54061" lon="1.54491">
        <ele>190.6124470115</ele>
        <time>2021-03-03T21:18:49.881Z</time>
      </trkpt>
      <trkpt lat="44.54055" lon="1.54504">
        <ele>190.19034619302</ele>
        <time>2021-03-03T21:19:07.826Z</time>
      </trkpt>
      <trkpt lat="44.54053" lon="1.54512">
        <ele>189.79705820331</ele>
        <time>2021-03-03T21:19:25.773Z</time>
      </trkpt>
      <trkpt lat="44.54053" lon="1.54538">
        <ele>189.48614615341</ele>
        <time>2021-03-03T21:19:43.725Z</time>
      </trkpt>
      <trkpt lat="44.54059" lon="1.54566">
        <ele>189.13683173892</ele>
        <time>2021-03-03T21:20:01.684Z</time>
      </trkpt>
      <trkpt lat="44.54074" lon="1.54588">
        <ele>188.74800278586</ele>
        <time>2021-03-03T21:20:19.650Z</time>
      </trkpt>
      <trkpt lat="44.54102" lon="1.54609">
        <ele>188.3113911452</ele>
        <time>2021-03-03T21:20:37.625Z</time>
      </trkpt>
      <trkpt lat="44.54145" lon="1.54667">
        <ele>187.87157076345</ele>
        <time>2021-03-03T21:20:55.619Z</time>
      </trkpt>
      <trkpt lat="44.54161" lon="1.54683">
        <ele>187.62403606026</ele>
        <time>2021-03-03T21:21:13.619Z</time>
      </trkpt>
      <trkpt lat="44.54169" lon="1.54689">
        <ele>187.37843548818</ele>
        <time>2021-03-03T21:21:31.621Z</time>
      </trkpt>
      <trkpt lat="44.54197" lon="1.54702">
        <ele>187.26402162487</ele>
        <time>2021-03-03T21:21:49.632Z</time>
      </trkpt>
      <trkpt lat="44.54218" lon="1.547">
        <ele>187.11795098887</ele>
        <time>2021-03-03T21:22:07.650Z</time>
      </trkpt>
      <trkpt lat="44.54248" lon="1.54675">
        <ele>186.72332933124</ele>
        <time>2021-03-03T21:22:25.679Z</time>
      </trkpt>
      <trkpt lat="44.54254" lon="1.54662">
        <ele>186.4641085832</ele>
        <time>2021-03-03T21:22:43.711Z</time>
      </trkpt>
      <trkpt lat="44.54259" lon="1.54634">
        <ele>186.19924080277</ele>
        <time>2021-03-03T21:23:01.750Z</time>
      </trkpt>
      <trkpt lat="44.54262" lon="1.54628">
        <ele>186.04499311992</ele>
        <time>2021-03-03T21:23:19.790Z</time>
      </trkpt>
      <trkpt lat="44.54266" lon="1.54627">
        <ele>185.91610990829</ele>
        <time>2021-03-03T21:23:37.831Z</time>
      </trkpt>
      <trkpt lat="44.54276" lon="1.5463">
        <ele>185.81667718381</ele>
        <time>2021-03-03T21:23:55.875Z</time>
      </trkpt>
      <trkpt lat="44.5429" lon="1.54641">
        <ele>185.73665914711</ele>
        <time>2021-03-03T21:24:13.924Z</time>
      </trkpt>
      <trkpt lat="44.54299" lon="1.54656">
        <ele>185.6512565741</ele>
        <time>2021-03-03T21:24:31.978Z</time>
      </trkpt>
      <trkpt lat="44.54309" lon="1.54683">
        <ele>185.55596261994</ele>
        <time>2021-03-03T21:24:50.039Z</time>
      </trkpt>
      <trkpt lat="44.54317" lon="1.5472">
        <ele>185.42226422204</ele>
        <time>2021-03-03T21:25:08.108Z</time>
      </trkpt>
      <trkpt lat="44.54319" lon="1.5474">
        <ele>185.36588960925</ele>
        <time>2021-03-03T21:25:26.181Z</time>
      </trkpt>
      <trkpt lat="44.54318" lon="1.54757">
        <ele>185.29548546134</ele>
        <time>2021-03-03T21:25:44.258Z</time>
      </trkpt>
      <trkpt lat="44.54314" lon="1.54798">
        <ele>185.29564424249</ele>
        <time>2021-03-03T21:26:02.344Z</time>
      </trkpt>
      <trkpt lat="44.54308" lon="1.54824">
        <ele>185.21222573877</ele>
        <time>2021-03-03T21:26:20.436Z</time>
      </trkpt>
      <trkpt lat="44.54297" lon="1.54861">
        <ele>185.12587374872</ele>
        <time>2021-03-03T21:26:38.537Z</time>
      </trkpt>
      <trkpt lat="44.54286" lon="1.54891">
        <ele>185.12295633619</ele>
        <time>2021-03-03T21:26:56.646Z</time>
      </trkpt>
      <trkpt lat="44.54262" lon="1.54945">
        <ele>185.33610484972</ele>
        <time>2021-03-03T21:27:14.769Z</time>
      </trkpt>
      <trkpt lat="44.54251" lon="1.54973">
        <ele>185.39327711119</ele>
        <time>2021-03-03T21:27:32.899Z</time>
      </trkpt>
      <trkpt lat="44.54241" lon="1.5501">
        <ele>185.47008771726</ele>
        <time>2021-03-03T21:27:51.037Z</time>
      </trkpt>
      <trkpt lat="44.54236" lon="1.5505">
        <ele>185.57849957424</ele>
        <time>2021-03-03T21:28:09.184Z</time>
      </trkpt>
      <trkpt lat="44.54241" lon="1.55067">
        <ele>185.57305601949</ele>
        <time>2021-03-03T21:28:27.335Z</time>
      </trkpt>
      <trkpt lat="44.54254" lon="1.55097">
        <ele>185.52171913212</ele>
        <time>2021-03-03T21:28:45.494Z</time>
      </trkpt>
      <trkpt lat="44.54259" lon="1.55124">
        <ele>185.76940198996</ele>
        <time>2021-03-03T21:29:03.659Z</time>
      </trkpt>
      <trkpt lat="44.54258" lon="1.55124">
        <ele>186.2117057847</ele>
        <time>2021-03-03T21:29:21.824Z</time>
      </trkpt>
      <trkpt lat="44.5426" lon="1.55112">
        <ele>186.78505624317</ele>
        <time>2021-03-03T21:29:39.992Z</time>
      </trkpt>
      <trkpt lat="44.5426" lon="1.55107">
        <ele>187.54962615712</ele>
        <time>2021-03-03T21:29:58.161Z</time>
      </trkpt>
      <trkpt lat="44.54257" lon="1.55101">
        <ele>188.50794056773</ele>
        <time>2021-03-03T21:30:16.332Z</time>
      </trkpt>
      <trkpt lat="44.54254" lon="1.551">
        <ele>189.6419826386</ele>
        <time>2021-03-03T21:30:34.504Z</time>
      </trkpt>
      <trkpt lat="44.54236" lon="1.55115">
        <ele>191.06608777325</ele>
        <time>2021-03-03T21:30:52.682Z</time>
      </trkpt>
      <trkpt lat="44.5418" lon="1.55148">
        <ele>192.99744447519</ele>
        <time>2021-03-03T21:31:10.879Z</time>
      </trkpt>
      <trkpt lat="44.54155" lon="1.55168">
        <ele>194.68265573034</ele>
        <time>2021-03-03T21:31:29.085Z</time>
      </trkpt>
      <trkpt lat="44.54148" lon="1.55171">
        <ele>196.48009617505</ele>
        <time>2021-03-03T21:31:47.293Z</time>
      </trkpt>
      <trkpt lat="44.54136" lon="1.55171">
        <ele>198.45655867441</ele>
        <time>2021-03-03T21:32:05.505Z</time>
      </trkpt>
      <trkpt lat="44.54126" lon="1.55176">
        <ele>200.50037286011</ele>
        <time>2021-03-03T21:32:23.720Z</time>
      </trkpt>
      <trkpt lat="44.54122" lon="1.5518">
        <ele>202.65425585764</ele>
        <time>2021-03-03T21:32:41.936Z</time>
      </trkpt>
      <trkpt lat="44.54108" lon="1.55187">
        <ele>204.95266746373</ele>
        <time>2021-03-03T21:33:00.157Z</time>
      </trkpt>
      <trkpt lat="44.54101" lon="1.55192">
        <ele>207.34449807562</ele>
        <time>2021-03-03T21:33:18.380Z</time>
      </trkpt>
      <trkpt lat="44.54093" lon="1.55194">
        <ele>209.87127989179</ele>
        <time>2021-03-03T21:33:36.606Z</time>
      </trkpt>
      <trkpt lat="44.54082" lon="1.55192">
        <ele>212.53540604132</ele>
        <time>2021-03-03T21:33:54.835Z</time>
      </trkpt>
      <trkpt lat="44.54073" lon="1.55188">
        <ele>215.32194308608</ele>
        <time>2021-03-03T21:34:13.067Z</time>
      </trkpt>
      <trkpt lat="44.54059" lon="1.55186">
        <ele>218.19235831779</ele>
        <time>2021-03-03T21:34:31.304Z</time>
      </trkpt>
      <trkpt lat="44.54016" lon="1.55173">
        <ele>221.36162904288</ele>
        <time>2021-03-03T21:34:49.554Z</time>
      </trkpt>
      <trkpt lat="44.54" lon="1.55172">
        <ele>224.33557747561</ele>
        <time>2021-03-03T21:35:07.809Z</time>
      </trkpt>
      <trkpt lat="44.53984" lon="1.55162">
        <ele>227.36962949321</ele>
        <time>2021-03-03T21:35:26.069Z</time>
      </trkpt>
      <trkpt lat="44.53979" lon="1.55161">
        <ele>230.24932725396</ele>
        <time>2021-03-03T21:35:44.331Z</time>
      </trkpt>
      <trkpt lat="44.53967" lon="1.55163">
        <ele>233.08949818833</ele>
        <time>2021-03-03T21:36:02.597Z</time>
      </trkpt>
      <trkpt lat="44.53961" lon="1.55161">
        <ele>235.86129570373</ele>
        <time>2021-03-03T21:36:20.865Z</time>
      </trkpt>
      <trkpt lat="44.53945" lon="1.5516">
        <ele>238.5771097568</ele>
        <time>2021-03-03T21:36:39.137Z</time>
      </trkpt>
      <trkpt lat="44.53918" lon="1.55166">
        <ele>241.25057135353</ele>
        <time>2021-03-03T21:36:57.418Z</time>
      </trkpt>
      <trkpt lat="44.53894" lon="1.55178">
        <ele>243.7998827346</ele>
        <time>2021-03-03T21:37:15.707Z</time>
      </trkpt>
      <trkpt lat="44.53872" lon="1.552">
        <ele>246.1877649979</ele>
        <time>2021-03-03T21:37:34.004Z</time>
      </trkpt>
      <trkpt lat="44.53861" lon="1.55207">
        <ele>248.40176557123</ele>
        <time>2021-03-03T21:37:52.305Z</time>
      </trkpt>
      <trkpt lat="44.53838" lon="1.55236">
        <ele>250.50680170615</ele>
        <time>2021-03-03T21:38:10.615Z</time>
      </trkpt>
      <trkpt lat="44.53827" lon="1.55254">
        <ele>252.41913825141</ele>
        <time>2021-03-03T21:38:28.931Z</time>
      </trkpt>
      <trkpt lat="44.53817" lon="1.55277">
        <ele>254.14488010087</ele>
        <time>2021-03-03T21:38:47.252Z</time>
      </trkpt>
      <trkpt lat="44.53811" lon="1.55299">
        <ele>255.7225654512</ele>
        <time>2021-03-03T21:39:05.579Z</time>
      </trkpt>
      <trkpt lat="44.53801" lon="1.5531">
        <ele>257.19226638356</ele>
        <time>2021-03-03T21:39:23.910Z</time>
      </trkpt>
      <trkpt lat="44.53788" lon="1.5532">
        <ele>258.52633459024</ele>
        <time>2021-03-03T21:39:42.245Z</time>
      </trkpt>
      <trkpt lat="44.53773" lon="1.55324">
        <ele>259.73731713868</ele>
        <time>2021-03-03T21:40:00.585Z</time>
      </trkpt>
      <trkpt lat="44.53753" lon="1.55327">
        <ele>260.8449963606</ele>
        <time>2021-03-03T21:40:18.931Z</time>
      </trkpt>
      <trkpt lat="44.53694" lon="1.55326">
        <ele>261.90441204702</ele>
        <time>2021-03-03T21:40:37.295Z</time>
      </trkpt>
      <trkpt lat="44.53679" lon="1.55327">
        <ele>262.77213347544</ele>
        <time>2021-03-03T21:40:55.664Z</time>
      </trkpt>
      <trkpt lat="44.53645" lon="1.55339">
        <ele>263.52663869669</ele>
        <time>2021-03-03T21:41:14.043Z</time>
      </trkpt>
      <trkpt lat="44.53623" lon="1.55342">
        <ele>264.39111635292</ele>
        <time>2021-03-03T21:41:32.429Z</time>
      </trkpt>
      <trkpt lat="44.53612" lon="1.55341">
        <ele>265.2361347836</ele>
        <time>2021-03-03T21:41:50.819Z</time>
      </trkpt>
      <trkpt lat="44.53574" lon="1.55331">
        <ele>266.10393748994</ele>
        <time>2021-03-03T21:42:09.221Z</time>
      </trkpt>
      <trkpt lat="44.53558" lon="1.55321">
        <ele>266.93069861974</ele>
        <time>2021-03-03T21:42:27.628Z</time>
      </trkpt>
      <trkpt lat="44.53549" lon="1.55304">
        <ele>267.84609765933</ele>
        <time>2021-03-03T21:42:46.039Z</time>
      </trkpt>
      <trkpt lat="44.53548" lon="1.55298">
        <ele>268.84551293672</ele>
        <time>2021-03-03T21:43:04.452Z</time>
      </trkpt>
      <trkpt lat="44.53545" lon="1.55201">
        <ele>270.10920230682</ele>
        <time>2021-03-03T21:43:22.886Z</time>
      </trkpt>
      <trkpt lat="44.53541" lon="1.55177">
        <ele>271.39510045801</ele>
        <time>2021-03-03T21:43:41.326Z</time>
      </trkpt>
      <trkpt lat="44.53531" lon="1.55161">
        <ele>272.78847406611</ele>
        <time>2021-03-03T21:43:59.770Z</time>
      </trkpt>
      <trkpt lat="44.53526" lon="1.55158">
        <ele>274.3354554745</ele>
        <time>2021-03-03T21:44:18.216Z</time>
      </trkpt>
      <trkpt lat="44.5349" lon="1.55146">
        <ele>276.07293178026</ele>
        <time>2021-03-03T21:44:36.674Z</time>
      </trkpt>
      <trkpt lat="44.53473" lon="1.55145">
        <ele>278.02350196374</ele>
        <time>2021-03-03T21:44:55.137Z</time>
      </trkpt>
      <trkpt lat="44.5347" lon="1.55142">
        <ele>280.15387817122</ele>
        <time>2021-03-03T21:45:13.601Z</time>
      </trkpt>
      <trkpt lat="44.53465" lon="1.5512">
        <ele>282.53386603357</ele>
        <time>2021-03-03T21:45:32.070Z</time>
      </trkpt>
      <trkpt lat="44.53452" lon="1.55087">
        <ele>285.10083514039</ele>
        <time>2021-03-03T21:45:50.547Z</time>
      </trkpt>
      <trkpt lat="44.53443" lon="1.55059">
        <ele>287.83836582061</ele>
        <time>2021-03-03T21:46:09.031Z</time>
      </trkpt>
      <trkpt lat="44.53423" lon="1.54966">
        <ele>290.88558518669</ele>
        <time>2021-03-03T21:46:27.536Z</time>
      </trkpt>
      <trkpt lat="44.53418" lon="1.54905">
        <ele>293.98962316392</ele>
        <time>2021-03-03T21:46:46.055Z</time>
      </trkpt>
      <trkpt lat="44.53414" lon="1.54812">
        <ele>297.3635676664</ele>
        <time>2021-03-03T21:47:04.594Z</time>
      </trkpt>
      <trkpt lat="44.53401" lon="1.5473">
        <ele>300.55985172219</ele>
        <time>2021-03-03T21:47:23.152Z</time>
      </trkpt>
      <trkpt lat="44.53387" lon="1.54677">
        <ele>303.77591572872</ele>
        <time>2021-03-03T21:47:41.722Z</time>
      </trkpt>
      <trkpt lat="44.53362" lon="1.54619">
        <ele>307.05171051217</ele>
        <time>2021-03-03T21:48:00.307Z</time>
      </trkpt>
      <trkpt lat="44.53345" lon="1.54586">
        <ele>310.28073847932</ele>
        <time>2021-03-03T21:48:18.901Z</time>
      </trkpt>
      <trkpt lat="44.53307" lon="1.54528">
        <ele>313.40858506201</ele>
        <time>2021-03-03T21:48:37.513Z</time>
      </trkpt>
      <trkpt lat="44.53267" lon="1.54474">
        <ele>316.56579564296</ele>
        <time>2021-03-03T21:48:56.142Z</time>
      </trkpt>
      <trkpt lat="44.5324" lon="1.54433">
        <ele>319.58945901158</ele>
        <time>2021-03-03T21:49:14.783Z</time>
      </trkpt>
      <trkpt lat="44.53215" lon="1.54388">
        <ele>322.37853347727</ele>
        <time>2021-03-03T21:49:33.436Z</time>
      </trkpt>
      <trkpt lat="44.53166" lon="1.54337">
        <ele>324.95852499447</ele>
        <time>2021-03-03T21:49:52.108Z</time>
      </trkpt>
      <trkpt lat="44.53144" lon="1.54318">
        <ele>327.43422214213</ele>
        <time>2021-03-03T21:50:10.788Z</time>
      </trkpt>
      <trkpt lat="44.53071" lon="1.54268">
        <ele>329.85201061306</ele>
        <time>2021-03-03T21:50:29.493Z</time>
      </trkpt>
      <trkpt lat="44.53036" lon="1.54236">
        <ele>331.99610021596</ele>
        <time>2021-03-03T21:50:48.211Z</time>
      </trkpt>
      <trkpt lat="44.53013" lon="1.54217">
        <ele>333.96295011445</ele>
        <time>2021-03-03T21:51:06.937Z</time>
      </trkpt>
      <trkpt lat="44.52984" lon="1.542">
        <ele>335.71824407759</ele>
        <time>2021-03-03T21:51:25.673Z</time>
      </trkpt>
      <trkpt lat="44.52957" lon="1.5419">
        <ele>337.28659939914</ele>
        <time>2021-03-03T21:51:44.417Z</time>
      </trkpt>
      <trkpt lat="44.52936" lon="1.54185">
        <ele>338.74436679961</ele>
        <time>2021-03-03T21:52:03.168Z</time>
      </trkpt>
      <trkpt lat="44.52909" lon="1.54183">
        <ele>340.07941179864</ele>
        <time>2021-03-03T21:52:21.927Z</time>
      </trkpt>
      <trkpt lat="44.52857" lon="1.54197">
        <ele>341.29105177268</ele>
        <time>2021-03-03T21:52:40.703Z</time>
      </trkpt>
      <trkpt lat="44.52857" lon="1.54197">
        <ele>342.13127762735</ele>
        <time>2021-03-03T21:52:59.479Z</time>
      </trkpt>
      <trkpt lat="44.52852" lon="1.54198">
        <ele>342.75083493836</ele>
        <time>2021-03-03T21:53:18.256Z</time>
      </trkpt>
      <trkpt lat="44.52852" lon="1.54198">
        <ele>343.10797544642</ele>
        <time>2021-03-03T21:53:37.033Z</time>
      </trkpt>
      <trkpt lat="44.5285" lon="1.54199">
        <ele>343.20901747865</ele>
        <time>2021-03-03T21:53:55.811Z</time>
      </trkpt>
      <trkpt lat="44.5285" lon="1.54199">
        <ele>343.02101586461</ele>
        <time>2021-03-03T21:54:14.589Z</time>
      </trkpt>
      <trkpt lat="44.5285" lon="1.54199">
        <ele>342.53570377338</ele>
        <time>2021-03-03T21:54:33.367Z</time>
      </trkpt>
      <trkpt lat="44.52833" lon="1.54201">
        <ele>341.79768329115</ele>
        <time>2021-03-03T21:54:52.150Z</time>
      </trkpt>
      <trkpt lat="44.52808" lon="1.54198">
        <ele>340.76881275897</ele>
        <time>2021-03-03T21:55:10.941Z</time>
      </trkpt>
      <trkpt lat="44.52799" lon="1.54222">
        <ele>339.21934330934</ele>
        <time>2021-03-03T21:55:29.738Z</time>
      </trkpt>
      <trkpt lat="44.52795" lon="1.54244">
        <ele>337.31338414422</ele>
        <time>2021-03-03T21:55:48.540Z</time>
      </trkpt>
      <trkpt lat="44.52799" lon="1.54273">
        <ele>334.98806141676</ele>
        <time>2021-03-03T21:56:07.348Z</time>
      </trkpt>
      <trkpt lat="44.52807" lon="1.54308">
        <ele>332.32304142022</ele>
        <time>2021-03-03T21:56:26.164Z</time>
      </trkpt>
      <trkpt lat="44.52807" lon="1.5433">
        <ele>329.41089717445</ele>
        <time>2021-03-03T21:56:44.985Z</time>
      </trkpt>
      <trkpt lat="44.52797" lon="1.54362">
        <ele>326.16331654715</ele>
        <time>2021-03-03T21:57:03.814Z</time>
      </trkpt>
      <trkpt lat="44.52781" lon="1.5444">
        <ele>322.54244879604</ele>
        <time>2021-03-03T21:57:22.661Z</time>
      </trkpt>
      <trkpt lat="44.52769" lon="1.54483">
        <ele>318.60338068012</ele>
        <time>2021-03-03T21:57:41.518Z</time>
      </trkpt>
      <trkpt lat="44.52759" lon="1.5453">
        <ele>314.32893861147</ele>
        <time>2021-03-03T21:58:00.386Z</time>
      </trkpt>
      <trkpt lat="44.52749" lon="1.5457">
        <ele>309.74248595114</ele>
        <time>2021-03-03T21:58:19.263Z</time>
      </trkpt>
      <trkpt lat="44.52748" lon="1.54577">
        <ele>305.15347132059</ele>
        <time>2021-03-03T21:58:38.142Z</time>
      </trkpt>
      <trkpt lat="44.52748" lon="1.54641">
        <ele>300.16035200483</ele>
        <time>2021-03-03T21:58:57.035Z</time>
      </trkpt>
      <trkpt lat="44.52747" lon="1.54674">
        <ele>295.08671940491</ele>
        <time>2021-03-03T21:59:15.935Z</time>
      </trkpt>
      <trkpt lat="44.5274" lon="1.54692">
        <ele>289.88674041251</ele>
        <time>2021-03-03T21:59:34.839Z</time>
      </trkpt>
      <trkpt lat="44.52729" lon="1.5471">
        <ele>284.59015703848</ele>
        <time>2021-03-03T21:59:53.749Z</time>
      </trkpt>
      <trkpt lat="44.52724" lon="1.54749">
        <ele>279.26487765023</ele>
        <time>2021-03-03T22:00:12.667Z</time>
      </trkpt>
      <trkpt lat="44.52709" lon="1.54801">
        <ele>273.74180250623</ele>
        <time>2021-03-03T22:00:31.598Z</time>
      </trkpt>
      <trkpt lat="44.52704" lon="1.54842">
        <ele>268.25921416561</ele>
        <time>2021-03-03T22:00:50.538Z</time>
      </trkpt>
      <trkpt lat="44.52694" lon="1.54893">
        <ele>262.68078334775</ele>
        <time>2021-03-03T22:01:09.490Z</time>
      </trkpt>
      <trkpt lat="44.52692" lon="1.54925">
        <ele>257.39729871934</ele>
        <time>2021-03-03T22:01:28.449Z</time>
      </trkpt>
      <trkpt lat="44.52697" lon="1.54941">
        <ele>252.30838494118</ele>
        <time>2021-03-03T22:01:47.411Z</time>
      </trkpt>
      <trkpt lat="44.52703" lon="1.54948">
        <ele>247.27698039365</ele>
        <time>2021-03-03T22:02:06.376Z</time>
      </trkpt>
      <trkpt lat="44.52727" lon="1.54952">
        <ele>242.27926826244</ele>
        <time>2021-03-03T22:02:25.348Z</time>
      </trkpt>
      <trkpt lat="44.52743" lon="1.54951">
        <ele>237.3536352911</ele>
        <time>2021-03-03T22:02:44.325Z</time>
      </trkpt>
      <trkpt lat="44.52775" lon="1.54956">
        <ele>232.40094293091</ele>
        <time>2021-03-03T22:03:03.312Z</time>
      </trkpt>
      <trkpt lat="44.52782" lon="1.54958">
        <ele>227.76730369763</ele>
        <time>2021-03-03T22:03:22.301Z</time>
      </trkpt>
      <trkpt lat="44.52789" lon="1.54962">
        <ele>223.26850919432</ele>
        <time>2021-03-03T22:03:41.293Z</time>
      </trkpt>
      <trkpt lat="44.52805" lon="1.54982">
        <ele>218.79852911788</ele>
        <time>2021-03-03T22:04:00.291Z</time>
      </trkpt>
      <trkpt lat="44.52818" lon="1.55011">
        <ele>214.35903226789</ele>
        <time>2021-03-03T22:04:19.297Z</time>
      </trkpt>
      <trkpt lat="44.52837" lon="1.55034">
        <ele>210.05029367418</ele>
        <time>2021-03-03T22:04:38.311Z</time>
      </trkpt>
      <trkpt lat="44.52843" lon="1.55044">
        <ele>206.06280643446</ele>
        <time>2021-03-03T22:04:57.327Z</time>
      </trkpt>
      <trkpt lat="44.52858" lon="1.55065">
        <ele>202.11907783944</ele>
        <time>2021-03-03T22:05:16.350Z</time>
      </trkpt>
      <trkpt lat="44.52863" lon="1.55067">
        <ele>198.56388339948</ele>
        <time>2021-03-03T22:05:35.375Z</time>
      </trkpt>
      <trkpt lat="44.52877" lon="1.55069">
        <ele>195.11102621038</ele>
        <time>2021-03-03T22:05:54.404Z</time>
      </trkpt>
      <trkpt lat="44.52884" lon="1.55068">
        <ele>191.95721704101</ele>
        <time>2021-03-03T22:06:13.435Z</time>
      </trkpt>
      <trkpt lat="44.52893" lon="1.55062">
        <ele>189.00719943522</ele>
        <time>2021-03-03T22:06:32.469Z</time>
      </trkpt>
      <trkpt lat="44.52898" lon="1.55053">
        <ele>186.29343794457</ele>
        <time>2021-03-03T22:06:51.506Z</time>
      </trkpt>
      <trkpt lat="44.52903" lon="1.5505">
        <ele>183.77411880892</ele>
        <time>2021-03-03T22:07:10.544Z</time>
      </trkpt>
      <trkpt lat="44.52911" lon="1.55038">
        <ele>181.39455096498</ele>
        <time>2021-03-03T22:07:29.586Z</time>
      </trkpt>
      <trkpt lat="44.52915" lon="1.55035">
        <ele>179.27718944191</ele>
        <time>2021-03-03T22:07:48.629Z</time>
      </trkpt>
      <trkpt lat="44.52917" lon="1.55036">
        <ele>177.37983709714</ele>
        <time>2021-03-03T22:08:07.673Z</time>
      </trkpt>
      <trkpt lat="44.52922" lon="1.5505">
        <ele>175.66885890053</ele>
        <time>2021-03-03T22:08:26.720Z</time>
      </trkpt>
      <trkpt lat="44.52934" lon="1.55063">
        <ele>174.06327035795</ele>
        <time>2021-03-03T22:08:45.772Z</time>
      </trkpt>
      <trkpt lat="44.52945" lon="1.55096">
        <ele>172.61893863852</ele>
        <time>2021-03-03T22:09:04.832Z</time>
      </trkpt>
      <trkpt lat="44.52953" lon="1.55109">
        <ele>171.46970447397</ele>
        <time>2021-03-03T22:09:23.896Z</time>
      </trkpt>
      <trkpt lat="44.52956" lon="1.55125">
        <ele>170.49823696619</ele>
        <time>2021-03-03T22:09:42.963Z</time>
      </trkpt>
      <trkpt lat="44.52953" lon="1.55144">
        <ele>169.60699844128</ele>
        <time>2021-03-03T22:10:02.035Z</time>
      </trkpt>
      <trkpt lat="44.52935" lon="1.55213">
        <ele>168.7931837324</ele>
        <time>2021-03-03T22:10:21.123Z</time>
      </trkpt>
      <trkpt lat="44.52931" lon="1.55278">
        <ele>167.98735487611</ele>
        <time>2021-03-03T22:10:40.225Z</time>
      </trkpt>
      <trkpt lat="44.52922" lon="1.55316">
        <ele>167.15407222539</ele>
        <time>2021-03-03T22:10:59.336Z</time>
      </trkpt>
      <trkpt lat="44.52921" lon="1.55333">
        <ele>166.72055035835</ele>
        <time>2021-03-03T22:11:18.451Z</time>
      </trkpt>
      <trkpt lat="44.52927" lon="1.55351">
        <ele>166.43488212585</ele>
        <time>2021-03-03T22:11:37.570Z</time>
      </trkpt>
      <trkpt lat="44.52967" lon="1.55428">
        <ele>166.37415826137</ele>
        <time>2021-03-03T22:11:56.710Z</time>
      </trkpt>
      <trkpt lat="44.52984" lon="1.55444">
        <ele>166.39671446939</ele>
        <time>2021-03-03T22:12:15.857Z</time>
      </trkpt>
      <trkpt lat="44.53007" lon="1.55453">
        <ele>166.49598136516</ele>
        <time>2021-03-03T22:12:35.011Z</time>
      </trkpt>
      <trkpt lat="44.53024" lon="1.55454">
        <ele>166.58270615684</ele>
        <time>2021-03-03T22:12:54.170Z</time>
      </trkpt>
      <trkpt lat="44.5304" lon="1.55492">
        <ele>166.59323045694</ele>
        <time>2021-03-03T22:13:13.339Z</time>
      </trkpt>
      <trkpt lat="44.53045" lon="1.55507">
        <ele>166.8727140724</ele>
        <time>2021-03-03T22:13:32.511Z</time>
      </trkpt>
      <trkpt lat="44.53045" lon="1.55521">
        <ele>167.25109810504</ele>
        <time>2021-03-03T22:13:51.686Z</time>
      </trkpt>
      <trkpt lat="44.53054" lon="1.55537">
        <ele>167.6921189641</ele>
        <time>2021-03-03T22:14:10.866Z</time>
      </trkpt>
      <trkpt lat="44.53069" lon="1.55559">
        <ele>168.22212732353</ele>
        <time>2021-03-03T22:14:30.053Z</time>
      </trkpt>
      <trkpt lat="44.53071" lon="1.55567">
        <ele>168.74923026508</ele>
        <time>2021-03-03T22:14:49.242Z</time>
      </trkpt>
      <trkpt lat="44.53067" lon="1.55583">
        <ele>169.28211752136</ele>
        <time>2021-03-03T22:15:08.434Z</time>
      </trkpt>
      <trkpt lat="44.53059" lon="1.55594">
        <ele>169.81980875816</ele>
        <time>2021-03-03T22:15:27.630Z</time>
      </trkpt>
      <trkpt lat="44.53044" lon="1.55602">
        <ele>170.28308345906</ele>
        <time>2021-03-03T22:15:46.831Z</time>
      </trkpt>
      <trkpt lat="44.5303" lon="1.55607">
        <ele>170.66839360442</ele>
        <time>2021-03-03T22:16:06.036Z</time>
      </trkpt>
      <trkpt lat="44.53017" lon="1.55614">
        <ele>171.07914791644</ele>
        <time>2021-03-03T22:16:25.246Z</time>
      </trkpt>
      <trkpt lat="44.52993" lon="1.55621">
        <ele>171.55903191735</ele>
        <time>2021-03-03T22:16:44.463Z</time>
      </trkpt>
      <trkpt lat="44.52976" lon="1.55615">
        <ele>171.66145367309</ele>
        <time>2021-03-03T22:17:03.685Z</time>
      </trkpt>
      <trkpt lat="44.52951" lon="1.55582">
        <ele>171.41649752059</ele>
        <time>2021-03-03T22:17:22.918Z</time>
      </trkpt>
      <trkpt lat="44.52882" lon="1.55511">
        <ele>171.15739780947</ele>
        <time>2021-03-03T22:17:42.177Z</time>
      </trkpt>
      <trkpt lat="44.52878" lon="1.55506">
        <ele>171.01746003696</ele>
        <time>2021-03-03T22:18:01.438Z</time>
      </trkpt>
      <trkpt lat="44.52871" lon="1.55477">
        <ele>170.80036173052</ele>
        <time>2021-03-03T22:18:20.706Z</time>
      </trkpt>
      <trkpt lat="44.52872" lon="1.55464">
        <ele>170.54297887568</ele>
        <time>2021-03-03T22:18:39.977Z</time>
      </trkpt>
      <trkpt lat="44.52868" lon="1.55455">
        <ele>170.2860978494</ele>
        <time>2021-03-03T22:18:59.250Z</time>
      </trkpt>
      <trkpt lat="44.52862" lon="1.55449">
        <ele>170.04466072018</ele>
        <time>2021-03-03T22:19:18.525Z</time>
      </trkpt>
      <trkpt lat="44.52848" lon="1.55446">
        <ele>169.78740384849</ele>
        <time>2021-03-03T22:19:37.805Z</time>
      </trkpt>
      <trkpt lat="44.52835" lon="1.55447">
        <ele>169.5553196553</ele>
        <time>2021-03-03T22:19:57.089Z</time>
      </trkpt>
      <trkpt lat="44.52818" lon="1.55452">
        <ele>169.30535431524</ele>
        <time>2021-03-03T22:20:16.378Z</time>
      </trkpt>
      <trkpt lat="44.52808" lon="1.55457">
        <ele>169.09701772157</ele>
        <time>2021-03-03T22:20:35.670Z</time>
      </trkpt>
      <trkpt lat="44.52797" lon="1.5547">
        <ele>168.93383927451</ele>
        <time>2021-03-03T22:20:54.967Z</time>
      </trkpt>
      <trkpt lat="44.52782" lon="1.55524">
        <ele>168.86407630662</ele>
        <time>2021-03-03T22:21:14.277Z</time>
      </trkpt>
      <trkpt lat="44.52775" lon="1.55561">
        <ele>168.78340437493</ele>
        <time>2021-03-03T22:21:33.595Z</time>
      </trkpt>
      <trkpt lat="44.52767" lon="1.55627">
        <ele>168.78464940431</ele>
        <time>2021-03-03T22:21:52.928Z</time>
      </trkpt>
      <trkpt lat="44.52759" lon="1.55647">
        <ele>168.63003980088</ele>
        <time>2021-03-03T22:22:12.266Z</time>
      </trkpt>
      <trkpt lat="44.52731" lon="1.55689">
        <ele>168.34231319163</ele>
        <time>2021-03-03T22:22:31.616Z</time>
      </trkpt>
      <trkpt lat="44.52714" lon="1.55717">
        <ele>168.30034354068</ele>
        <time>2021-03-03T22:22:50.974Z</time>
      </trkpt>
      <trkpt lat="44.5271" lon="1.55722">
        <ele>168.20845382527</ele>
        <time>2021-03-03T22:23:10.334Z</time>
      </trkpt>
      <trkpt lat="44.52686" lon="1.55736">
        <ele>168.15205190922</ele>
        <time>2021-03-03T22:23:29.702Z</time>
      </trkpt>
      <trkpt lat="44.52659" lon="1.55734">
        <ele>167.96610043395</ele>
        <time>2021-03-03T22:23:49.078Z</time>
      </trkpt>
      <trkpt lat="44.52606" lon="1.55733">
        <ele>167.93222370907</ele>
        <time>2021-03-03T22:24:08.471Z</time>
      </trkpt>
      <trkpt lat="44.52579" lon="1.55729">
        <ele>167.80496723452</ele>
        <time>2021-03-03T22:24:27.872Z</time>
      </trkpt>
      <trkpt lat="44.52554" lon="1.55731">
        <ele>167.72680804021</ele>
        <time>2021-03-03T22:24:47.281Z</time>
      </trkpt>
      <trkpt lat="44.52537" lon="1.55725">
        <ele>167.49833011526</ele>
        <time>2021-03-03T22:25:06.695Z</time>
      </trkpt>
      <trkpt lat="44.52532" lon="1.55721">
        <ele>167.29739382074</ele>
        <time>2021-03-03T22:25:26.111Z</time>
      </trkpt>
      <trkpt lat="44.5251" lon="1.55713">
        <ele>167.03001418535</ele>
        <time>2021-03-03T22:25:45.534Z</time>
      </trkpt>
      <trkpt lat="44.52484" lon="1.55706">
        <ele>166.79431247568</ele>
        <time>2021-03-03T22:26:04.965Z</time>
      </trkpt>
      <trkpt lat="44.52425" lon="1.55687">
        <ele>166.63238705209</ele>
        <time>2021-03-03T22:26:24.415Z</time>
      </trkpt>
      <trkpt lat="44.52343" lon="1.55683">
        <ele>166.55682009332</ele>
        <time>2021-03-03T22:26:43.890Z</time>
      </trkpt>
      <trkpt lat="44.52312" lon="1.55686">
        <ele>166.27064160035</ele>
        <time>2021-03-03T22:27:03.375Z</time>
      </trkpt>
      <trkpt lat="44.52269" lon="1.55701">
        <ele>166.02374106965</ele>
        <time>2021-03-03T22:27:22.873Z</time>
      </trkpt>
      <trkpt lat="44.52227" lon="1.55713">
        <ele>165.71264375016</ele>
        <time>2021-03-03T22:27:42.384Z</time>
      </trkpt>
      <trkpt lat="44.52184" lon="1.55716">
        <ele>165.41193187559</ele>
        <time>2021-03-03T22:28:01.909Z</time>
      </trkpt>
      <trkpt lat="44.52148" lon="1.55716">
        <ele>165.05762329605</ele>
        <time>2021-03-03T22:28:21.445Z</time>
      </trkpt>
      <trkpt lat="44.521" lon="1.55753">
        <ele>164.72941335055</ele>
        <time>2021-03-03T22:28:40.998Z</time>
      </trkpt>
      <trkpt lat="44.52068" lon="1.55787">
        <ele>164.53096742572</ele>
        <time>2021-03-03T22:29:00.563Z</time>
      </trkpt>
      <trkpt lat="44.5203" lon="1.55819">
        <ele>164.33742223732</ele>
        <time>2021-03-03T22:29:20.142Z</time>
      </trkpt>
      <trkpt lat="44.52006" lon="1.55824">
        <ele>163.98618945193</ele>
        <time>2021-03-03T22:29:39.728Z</time>
      </trkpt>
      <trkpt lat="44.51975" lon="1.5582">
        <ele>163.50660976817</ele>
        <time>2021-03-03T22:29:59.324Z</time>
      </trkpt>
      <trkpt lat="44.51925" lon="1.55842">
        <ele>163.17535238865</ele>
        <time>2021-03-03T22:30:18.936Z</time>
      </trkpt>
      <trkpt lat="44.519" lon="1.55857">
        <ele>163.00371290579</ele>
        <time>2021-03-03T22:30:38.556Z</time>
      </trkpt>
      <trkpt lat="44.51872" lon="1.55867">
        <ele>162.85895740304</ele>
        <time>2021-03-03T22:30:58.185Z</time>
      </trkpt>
      <trkpt lat="44.51853" lon="1.5587">
        <ele>162.68519057791</ele>
        <time>2021-03-03T22:31:17.820Z</time>
      </trkpt>
      <trkpt lat="44.51797" lon="1.55856">
        <ele>162.50030872754</ele>
        <time>2021-03-03T22:31:37.472Z</time>
      </trkpt>
      <trkpt lat="44.5178" lon="1.55843">
        <ele>162.25110915606</ele>
        <time>2021-03-03T22:31:57.130Z</time>
      </trkpt>
      <trkpt lat="44.51763" lon="1.55812">
        <ele>161.87048705192</ele>
        <time>2021-03-03T22:32:16.797Z</time>
      </trkpt>
      <trkpt lat="44.51725" lon="1.55766">
        <ele>161.5976474224</ele>
        <time>2021-03-03T22:32:36.479Z</time>
      </trkpt>
      <trkpt lat="44.51713" lon="1.55744">
        <ele>161.36848253578</ele>
        <time>2021-03-03T22:32:56.168Z</time>
      </trkpt>
      <trkpt lat="44.51695" lon="1.55721">
        <ele>161.18640297607</ele>
        <time>2021-03-03T22:33:15.864Z</time>
      </trkpt>
      <trkpt lat="44.51681" lon="1.5571">
        <ele>161.04564209702</ele>
        <time>2021-03-03T22:33:35.565Z</time>
      </trkpt>
      <trkpt lat="44.51668" lon="1.55703">
        <ele>160.97093013102</ele>
        <time>2021-03-03T22:33:55.270Z</time>
      </trkpt>
      <trkpt lat="44.51655" lon="1.55699">
        <ele>160.96175883077</ele>
        <time>2021-03-03T22:34:14.979Z</time>
      </trkpt>
      <trkpt lat="44.51622" lon="1.55697">
        <ele>161.03789322211</ele>
        <time>2021-03-03T22:34:34.699Z</time>
      </trkpt>
      <trkpt lat="44.51593" lon="1.55702">
        <ele>161.08765607682</ele>
        <time>2021-03-03T22:34:54.428Z</time>
      </trkpt>
      <trkpt lat="44.51561" lon="1.5571">
        <ele>161.11515058211</ele>
        <time>2021-03-03T22:35:14.167Z</time>
      </trkpt>
      <trkpt lat="44.51531" lon="1.55727">
        <ele>161.21290649208</ele>
        <time>2021-03-03T22:35:33.916Z</time>
      </trkpt>
      <trkpt lat="44.51509" lon="1.55743">
        <ele>161.33433850913</ele>
        <time>2021-03-03T22:35:53.672Z</time>
      </trkpt>
      <trkpt lat="44.51486" lon="1.55767">
        <ele>161.53358831008</ele>
        <time>2021-03-03T22:36:13.437Z</time>
      </trkpt>
      <trkpt lat="44.51481" lon="1.55775">
        <ele>161.73752923935</ele>
        <time>2021-03-03T22:36:33.204Z</time>
      </trkpt>
      <trkpt lat="44.51463" lon="1.55817">
        <ele>162.174034261</ele>
        <time>2021-03-03T22:36:52.982Z</time>
      </trkpt>
      <trkpt lat="44.51449" lon="1.55867">
        <ele>162.47538637975</ele>
        <time>2021-03-03T22:37:12.772Z</time>
      </trkpt>
      <trkpt lat="44.51445" lon="1.55878">
        <ele>162.64932655305</ele>
        <time>2021-03-03T22:37:32.565Z</time>
      </trkpt>
      <trkpt lat="44.51442" lon="1.55883">
        <ele>162.85702109565</ele>
        <time>2021-03-03T22:37:52.359Z</time>
      </trkpt>
      <trkpt lat="44.5143" lon="1.55888">
        <ele>163.00932220937</ele>
        <time>2021-03-03T22:38:12.157Z</time>
      </trkpt>
      <trkpt lat="44.5142" lon="1.55883">
        <ele>163.10667927466</ele>
        <time>2021-03-03T22:38:31.958Z</time>
      </trkpt>
      <trkpt lat="44.51416" lon="1.55867">
        <ele>163.18410797978</ele>
        <time>2021-03-03T22:38:51.763Z</time>
      </trkpt>
      <trkpt lat="44.51415" lon="1.55842">
        <ele>163.23045717632</ele>
        <time>2021-03-03T22:39:11.573Z</time>
      </trkpt>
      <trkpt lat="44.51419" lon="1.5579">
        <ele>163.12578361769</ele>
        <time>2021-03-03T22:39:31.395Z</time>
      </trkpt>
      <trkpt lat="44.51418" lon="1.55783">
        <ele>163.1082245976</ele>
        <time>2021-03-03T22:39:51.218Z</time>
      </trkpt>
      <trkpt lat="44.51407" lon="1.55765">
        <ele>163.04961782974</ele>
        <time>2021-03-03T22:40:11.047Z</time>
      </trkpt>
      <trkpt lat="44.51388" lon="1.55758">
        <ele>163.05109532192</ele>
        <time>2021-03-03T22:40:30.882Z</time>
      </trkpt>
      <trkpt lat="44.5133" lon="1.55745">
        <ele>163.08003848979</ele>
        <time>2021-03-03T22:40:50.735Z</time>
      </trkpt>
      <trkpt lat="44.51311" lon="1.55743">
        <ele>163.01469743154</ele>
        <time>2021-03-03T22:41:10.594Z</time>
      </trkpt>
      <trkpt lat="44.5128" lon="1.55743">
        <ele>162.92413205446</ele>
        <time>2021-03-03T22:41:30.462Z</time>
      </trkpt>
      <trkpt lat="44.51254" lon="1.55746">
        <ele>162.73591901211</ele>
        <time>2021-03-03T22:41:50.338Z</time>
      </trkpt>
      <trkpt lat="44.51228" lon="1.55751">
        <ele>162.4883415285</ele>
        <time>2021-03-03T22:42:10.222Z</time>
      </trkpt>
      <trkpt lat="44.51186" lon="1.55762">
        <ele>162.2685036086</ele>
        <time>2021-03-03T22:42:30.119Z</time>
      </trkpt>
      <trkpt lat="44.51146" lon="1.55767">
        <ele>161.90024147875</ele>
        <time>2021-03-03T22:42:50.029Z</time>
      </trkpt>
      <trkpt lat="44.51079" lon="1.55779">
        <ele>161.60628489655</ele>
        <time>2021-03-03T22:43:09.960Z</time>
      </trkpt>
      <trkpt lat="44.51042" lon="1.55782">
        <ele>161.14579831679</ele>
        <time>2021-03-03T22:43:29.902Z</time>
      </trkpt>
      <trkpt lat="44.51019" lon="1.5578">
        <ele>160.6520834868</ele>
        <time>2021-03-03T22:43:49.851Z</time>
      </trkpt>
      <trkpt lat="44.50973" lon="1.55766">
        <ele>160.1411165507</ele>
        <time>2021-03-03T22:44:09.814Z</time>
      </trkpt>
      <trkpt lat="44.50959" lon="1.55765">
        <ele>159.80577641629</ele>
        <time>2021-03-03T22:44:29.782Z</time>
      </trkpt>
      <trkpt lat="44.50911" lon="1.55753">
        <ele>159.47400638233</ele>
        <time>2021-03-03T22:44:49.765Z</time>
      </trkpt>
      <trkpt lat="44.50877" lon="1.55739">
        <ele>158.9640114521</ele>
        <time>2021-03-03T22:45:09.759Z</time>
      </trkpt>
      <trkpt lat="44.5083" lon="1.55707">
        <ele>158.54494716151</ele>
        <time>2021-03-03T22:45:29.769Z</time>
      </trkpt>
      <trkpt lat="44.50776" lon="1.55657">
        <ele>158.18946167142</ele>
        <time>2021-03-03T22:45:49.799Z</time>
      </trkpt>
      <trkpt lat="44.50759" lon="1.55631">
        <ele>157.80083165723</ele>
        <time>2021-03-03T22:46:09.836Z</time>
      </trkpt>
      <trkpt lat="44.50742" lon="1.55597">
        <ele>157.29884982988</ele>
        <time>2021-03-03T22:46:29.883Z</time>
      </trkpt>
      <trkpt lat="44.5072" lon="1.55567">
        <ele>156.76196123212</ele>
        <time>2021-03-03T22:46:49.939Z</time>
      </trkpt>
      <trkpt lat="44.50691" lon="1.55533">
        <ele>156.25805248963</ele>
        <time>2021-03-03T22:47:10.007Z</time>
      </trkpt>
      <trkpt lat="44.50656" lon="1.55514">
        <ele>155.93991532038</ele>
        <time>2021-03-03T22:47:30.086Z</time>
      </trkpt>
      <trkpt lat="44.50646" lon="1.55506">
        <ele>155.50755832273</ele>
        <time>2021-03-03T22:47:50.169Z</time>
      </trkpt>
      <trkpt lat="44.50626" lon="1.55497">
        <ele>155.10148537255</ele>
        <time>2021-03-03T22:48:10.258Z</time>
      </trkpt>
      <trkpt lat="44.50588" lon="1.55487">
        <ele>154.65882383494</ele>
        <time>2021-03-03T22:48:30.359Z</time>
      </trkpt>
      <trkpt lat="44.50567" lon="1.55485">
        <ele>154.15732945727</ele>
        <time>2021-03-03T22:48:50.467Z</time>
      </trkpt>
      <trkpt lat="44.50557" lon="1.55487">
        <ele>153.70146151033</ele>
        <time>2021-03-03T22:49:10.578Z</time>
      </trkpt>
      <trkpt lat="44.5053" lon="1.555">
        <ele>153.25737121018</ele>
        <time>2021-03-03T22:49:30.698Z</time>
      </trkpt>
      <trkpt lat="44.50524" lon="1.55506">
        <ele>152.88058411389</ele>
        <time>2021-03-03T22:49:50.820Z</time>
      </trkpt>
      <trkpt lat="44.50512" lon="1.55525">
        <ele>152.53817641891</ele>
        <time>2021-03-03T22:50:10.947Z</time>
      </trkpt>
      <trkpt lat="44.50497" lon="1.55559">
        <ele>152.17321848749</ele>
        <time>2021-03-03T22:50:31.083Z</time>
      </trkpt>
      <trkpt lat="44.50471" lon="1.55598">
        <ele>151.81060139349</ele>
        <time>2021-03-03T22:50:51.231Z</time>
      </trkpt>
      <trkpt lat="44.5046" lon="1.55612">
        <ele>151.53367401673</ele>
        <time>2021-03-03T22:51:11.384Z</time>
      </trkpt>
      <trkpt lat="44.50428" lon="1.55639">
        <ele>151.34493512383</ele>
        <time>2021-03-03T22:51:31.548Z</time>
      </trkpt>
      <trkpt lat="44.50381" lon="1.55665">
        <ele>151.11122722722</ele>
        <time>2021-03-03T22:51:51.727Z</time>
      </trkpt>
      <trkpt lat="44.50354" lon="1.55684">
        <ele>150.92424902079</ele>
        <time>2021-03-03T22:52:11.916Z</time>
      </trkpt>
      <trkpt lat="44.50333" lon="1.55688">
        <ele>150.63703361383</ele>
        <time>2021-03-03T22:52:32.112Z</time>
      </trkpt>
      <trkpt lat="44.50312" lon="1.55688">
        <ele>150.45783671815</ele>
        <time>2021-03-03T22:52:52.314Z</time>
      </trkpt>
      <trkpt lat="44.5027" lon="1.55684">
        <ele>150.32899330472</ele>
        <time>2021-03-03T22:53:12.529Z</time>
      </trkpt>
      <trkpt lat="44.50241" lon="1.55674">
        <ele>150.19795601314</ele>
        <time>2021-03-03T22:53:32.753Z</time>
      </trkpt>
      <trkpt lat="44.50214" lon="1.55642">
        <ele>149.97813146621</ele>
        <time>2021-03-03T22:53:52.988Z</time>
      </trkpt>
      <trkpt lat="44.50199" lon="1.55632">
        <ele>149.8739225048</ele>
        <time>2021-03-03T22:54:13.228Z</time>
      </trkpt>
      <trkpt lat="44.50176" lon="1.5563">
        <ele>149.79352397786</ele>
        <time>2021-03-03T22:54:33.475Z</time>
      </trkpt>
      <trkpt lat="44.50155" lon="1.55633">
        <ele>149.73146919596</ele>
        <time>2021-03-03T22:54:53.729Z</time>
      </trkpt>
      <trkpt lat="44.50136" lon="1.55641">
        <ele>149.67360812589</ele>
        <time>2021-03-03T22:55:13.989Z</time>
      </trkpt>
      <trkpt lat="44.5011" lon="1.55674">
        <ele>149.7539881553</ele>
        <time>2021-03-03T22:55:34.260Z</time>
      </trkpt>
      <trkpt lat="44.50074" lon="1.55751">
        <ele>149.79067626336</ele>
        <time>2021-03-03T22:55:54.551Z</time>
      </trkpt>
      <trkpt lat="44.50052" lon="1.55788">
        <ele>149.87379721374</ele>
        <time>2021-03-03T22:56:14.852Z</time>
      </trkpt>
      <trkpt lat="44.50012" lon="1.55846">
        <ele>149.98330752673</ele>
        <time>2021-03-03T22:56:35.171Z</time>
      </trkpt>
      <trkpt lat="44.49999" lon="1.5586">
        <ele>150.14281056394</ele>
        <time>2021-03-03T22:56:55.495Z</time>
      </trkpt>
      <trkpt lat="44.49986" lon="1.55871">
        <ele>150.32579962388</ele>
        <time>2021-03-03T22:57:15.824Z</time>
      </trkpt>
      <trkpt lat="44.49956" lon="1.5588">
        <ele>150.47613984202</ele>
        <time>2021-03-03T22:57:36.162Z</time>
      </trkpt>
      <trkpt lat="44.49948" lon="1.55885">
        <ele>150.62242739955</ele>
        <time>2021-03-03T22:57:56.503Z</time>
      </trkpt>
      <trkpt lat="44.49914" lon="1.55899">
        <ele>150.71044767496</ele>
        <time>2021-03-03T22:58:16.855Z</time>
      </trkpt>
      <trkpt lat="44.49896" lon="1.559">
        <ele>150.80620135114</ele>
        <time>2021-03-03T22:58:37.213Z</time>
      </trkpt>
      <trkpt lat="44.49864" lon="1.55887">
        <ele>150.85291782135</ele>
        <time>2021-03-03T22:58:57.581Z</time>
      </trkpt>
      <trkpt lat="44.4983" lon="1.55879">
        <ele>151.16302320214</ele>
        <time>2021-03-03T22:59:17.959Z</time>
      </trkpt>
      <trkpt lat="44.49821" lon="1.55872">
        <ele>151.37436861411</ele>
        <time>2021-03-03T22:59:38.341Z</time>
      </trkpt>
      <trkpt lat="44.49772" lon="1.55796">
        <ele>151.37341529859</ele>
        <time>2021-03-03T22:59:58.745Z</time>
      </trkpt>
      <trkpt lat="44.49726" lon="1.55736">
        <ele>151.97773430757</ele>
        <time>2021-03-03T23:00:19.168Z</time>
      </trkpt>
      <trkpt lat="44.49713" lon="1.55708">
        <ele>152.35520622692</ele>
        <time>2021-03-03T23:00:39.599Z</time>
      </trkpt>
      <trkpt lat="44.49706" lon="1.55686">
        <ele>152.54760104002</ele>
        <time>2021-03-03T23:01:00.035Z</time>
      </trkpt>
      <trkpt lat="44.49709" lon="1.55676">
        <ele>152.56802676188</ele>
        <time>2021-03-03T23:01:20.473Z</time>
      </trkpt>
      <trkpt lat="44.49708" lon="1.55658">
        <ele>152.59971419962</ele>
        <time>2021-03-03T23:01:40.915Z</time>
      </trkpt>
      <trkpt lat="44.49713" lon="1.55634">
        <ele>152.55558486325</ele>
        <time>2021-03-03T23:02:01.363Z</time>
      </trkpt>
      <trkpt lat="44.49716" lon="1.55603">
        <ele>152.50539114106</ele>
        <time>2021-03-03T23:02:21.818Z</time>
      </trkpt>
      <trkpt lat="44.49708" lon="1.55577">
        <ele>152.61071929245</ele>
        <time>2021-03-03T23:02:42.279Z</time>
      </trkpt>
      <trkpt lat="44.49696" lon="1.55563">
        <ele>152.72745567754</ele>
        <time>2021-03-03T23:03:02.745Z</time>
      </trkpt>
      <trkpt lat="44.49679" lon="1.55557">
        <ele>152.88427283915</ele>
        <time>2021-03-03T23:03:23.216Z</time>
      </trkpt>
      <trkpt lat="44.49672" lon="1.55551">
        <ele>152.96217513022</ele>
        <time>2021-03-03T23:03:43.690Z</time>
      </trkpt>
      <trkpt lat="44.49633" lon="1.55511">
        <ele>153.0627297026</ele>
        <time>2021-03-03T23:04:04.179Z</time>
      </trkpt>
      <trkpt lat="44.49626" lon="1.55501">
        <ele>153.07951711284</ele>
        <time>2021-03-03T23:04:24.671Z</time>
      </trkpt>
      <trkpt lat="44.49611" lon="1.55472">
        <ele>153.03685710048</ele>
        <time>2021-03-03T23:04:45.170Z</time>
      </trkpt>
      <trkpt lat="44.496" lon="1.55442">
        <ele>152.95232916044</ele>
        <time>2021-03-03T23:05:05.677Z</time>
      </trkpt>
      <trkpt lat="44.49594" lon="1.55407">
        <ele>152.91109774387</ele>
        <time>2021-03-03T23:05:26.192Z</time>
      </trkpt>
      <trkpt lat="44.49591" lon="1.55404">
        <ele>152.96176128163</ele>
        <time>2021-03-03T23:05:46.708Z</time>
      </trkpt>
      <trkpt lat="44.49584" lon="1.55404">
        <ele>153.02790347494</ele>
        <time>2021-03-03T23:06:07.226Z</time>
      </trkpt>
      <trkpt lat="44.49563" lon="1.55419">
        <ele>153.00014859872</ele>
        <time>2021-03-03T23:06:27.751Z</time>
      </trkpt>
      <trkpt lat="44.49507" lon="1.55497">
        <ele>153.24265531311</ele>
        <time>2021-03-03T23:06:48.301Z</time>
      </trkpt>
      <trkpt lat="44.49439" lon="1.55578">
        <ele>153.25352520226</ele>
        <time>2021-03-03T23:07:08.878Z</time>
      </trkpt>
      <trkpt lat="44.49429" lon="1.55601">
        <ele>153.36669347311</ele>
        <time>2021-03-03T23:07:29.461Z</time>
      </trkpt>
      <trkpt lat="44.49422" lon="1.55632">
        <ele>153.57551330259</ele>
        <time>2021-03-03T23:07:50.051Z</time>
      </trkpt>
      <trkpt lat="44.49381" lon="1.55691">
        <ele>153.69481197003</ele>
        <time>2021-03-03T23:08:10.659Z</time>
      </trkpt>
      <trkpt lat="44.49358" lon="1.55705">
        <ele>153.63974830479</ele>
        <time>2021-03-03T23:08:31.275Z</time>
      </trkpt>
      <trkpt lat="44.49313" lon="1.55721">
        <ele>153.30957180057</ele>
        <time>2021-03-03T23:08:51.906Z</time>
      </trkpt>
      <trkpt lat="44.49292" lon="1.55726">
        <ele>153.00869506972</ele>
        <time>2021-03-03T23:09:12.543Z</time>
      </trkpt>
      <trkpt lat="44.49268" lon="1.55735">
        <ele>152.77175870285</ele>
        <time>2021-03-03T23:09:33.188Z</time>
      </trkpt>
      <trkpt lat="44.49249" lon="1.5574">
        <ele>152.44743166925</ele>
        <time>2021-03-03T23:09:53.839Z</time>
      </trkpt>
      <trkpt lat="44.49221" lon="1.55752">
        <ele>152.0288083213</ele>
        <time>2021-03-03T23:10:14.499Z</time>
      </trkpt>
      <trkpt lat="44.49188" lon="1.55763">
        <ele>151.62653221406</ele>
        <time>2021-03-03T23:10:35.169Z</time>
      </trkpt>
      <trkpt lat="44.49157" lon="1.55765">
        <ele>151.1763481735</ele>
        <time>2021-03-03T23:10:55.849Z</time>
      </trkpt>
      <trkpt lat="44.49127" lon="1.55773">
        <ele>150.77587018162</ele>
        <time>2021-03-03T23:11:16.538Z</time>
      </trkpt>
      <trkpt lat="44.49112" lon="1.55775">
        <ele>150.23367784913</ele>
        <time>2021-03-03T23:11:37.232Z</time>
      </trkpt>
      <trkpt lat="44.49108" lon="1.55771">
        <ele>149.54166650071</ele>
        <time>2021-03-03T23:11:57.927Z</time>
      </trkpt>
      <trkpt lat="44.49086" lon="1.55761">
        <ele>148.77904866411</ele>
        <time>2021-03-03T23:12:18.629Z</time>
      </trkpt>
      <trkpt lat="44.49038" lon="1.55733">
        <ele>148.022835329</ele>
        <time>2021-03-03T23:12:39.347Z</time>
      </trkpt>
      <trkpt lat="44.48957" lon="1.55657">
        <ele>147.2134275053</ele>
        <time>2021-03-03T23:13:00.095Z</time>
      </trkpt>
      <trkpt lat="44.4892" lon="1.55594">
        <ele>145.92151173172</ele>
        <time>2021-03-03T23:13:20.861Z</time>
      </trkpt>
      <trkpt lat="44.48894" lon="1.55555">
        <ele>144.7517709428</ele>
        <time>2021-03-03T23:13:41.639Z</time>
      </trkpt>
      <trkpt lat="44.48878" lon="1.55528">
        <ele>143.44658935201</ele>
        <time>2021-03-03T23:14:02.425Z</time>
      </trkpt>
      <trkpt lat="44.48867" lon="1.55506">
        <ele>142.0551424749</ele>
        <time>2021-03-03T23:14:23.217Z</time>
      </trkpt>
      <trkpt lat="44.48847" lon="1.55459">
        <ele>140.45740336455</ele>
        <time>2021-03-03T23:14:44.021Z</time>
      </trkpt>
      <trkpt lat="44.4883" lon="1.55428">
        <ele>139.01265610803</ele>
        <time>2021-03-03T23:15:04.833Z</time>
      </trkpt>
      <trkpt lat="44.48825" lon="1.55408">
        <ele>137.52416921719</ele>
        <time>2021-03-03T23:15:25.650Z</time>
      </trkpt>
      <trkpt lat="44.48821" lon="1.55402">
        <ele>136.13345763743</ele>
        <time>2021-03-03T23:15:46.469Z</time>
      </trkpt>
      <trkpt lat="44.48802" lon="1.55386">
        <ele>134.79147656429</ele>
        <time>2021-03-03T23:16:07.295Z</time>
      </trkpt>
      <trkpt lat="44.48782" lon="1.55374">
        <ele>133.55031241987</ele>
        <time>2021-03-03T23:16:28.127Z</time>
      </trkpt>
      <trkpt lat="44.48746" lon="1.55357">
        <ele>132.3404647502</ele>
        <time>2021-03-03T23:16:48.971Z</time>
      </trkpt>
      <trkpt lat="44.48706" lon="1.55349">
        <ele>131.22491832393</ele>
        <time>2021-03-03T23:17:09.828Z</time>
      </trkpt>
      <trkpt lat="44.48679" lon="1.55327">
        <ele>130.25778499407</ele>
        <time>2021-03-03T23:17:30.694Z</time>
      </trkpt>
      <trkpt lat="44.48626" lon="1.55296">
        <ele>129.43128136281</ele>
        <time>2021-03-03T23:17:51.578Z</time>
      </trkpt>
      <trkpt lat="44.48619" lon="1.55293">
        <ele>128.90000778565</ele>
        <time>2021-03-03T23:18:12.464Z</time>
      </trkpt>
      <trkpt lat="44.48598" lon="1.5529">
        <ele>128.59702011148</ele>
        <time>2021-03-03T23:18:33.356Z</time>
      </trkpt>
      <trkpt lat="44.48579" lon="1.5528">
        <ele>128.54915981714</ele>
        <time>2021-03-03T23:18:54.255Z</time>
      </trkpt>
      <trkpt lat="44.48569" lon="1.55271">
        <ele>128.71538951326</ele>
        <time>2021-03-03T23:19:15.157Z</time>
      </trkpt>
      <trkpt lat="44.48566" lon="1.55266">
        <ele>129.12383776936</ele>
        <time>2021-03-03T23:19:36.061Z</time>
      </trkpt>
      <trkpt lat="44.48567" lon="1.55248">
        <ele>129.81133296728</ele>
        <time>2021-03-03T23:19:56.969Z</time>
      </trkpt>
      <trkpt lat="44.48573" lon="1.5523">
        <ele>130.79011413178</ele>
        <time>2021-03-03T23:20:17.881Z</time>
      </trkpt>
      <trkpt lat="44.48568" lon="1.5522">
        <ele>131.92603296669</ele>
        <time>2021-03-03T23:20:38.796Z</time>
      </trkpt>
      <trkpt lat="44.48557" lon="1.55212">
        <ele>133.2453384023</ele>
        <time>2021-03-03T23:20:59.715Z</time>
      </trkpt>
      <trkpt lat="44.48526" lon="1.55175">
        <ele>134.94067607986</ele>
        <time>2021-03-03T23:21:20.646Z</time>
      </trkpt>
      <trkpt lat="44.48501" lon="1.55159">
        <ele>136.59589469094</ele>
        <time>2021-03-03T23:21:41.586Z</time>
      </trkpt>
      <trkpt lat="44.48476" lon="1.55147">
        <ele>138.40927384324</ele>
        <time>2021-03-03T23:22:02.534Z</time>
      </trkpt>
      <trkpt lat="44.48477" lon="1.5514">
        <ele>140.50908561441</ele>
        <time>2021-03-03T23:22:23.483Z</time>
      </trkpt>
      <trkpt lat="44.48484" lon="1.55136">
        <ele>142.75318644491</ele>
        <time>2021-03-03T23:22:44.435Z</time>
      </trkpt>
      <trkpt lat="44.48496" lon="1.55138">
        <ele>145.02931366554</ele>
        <time>2021-03-03T23:23:05.390Z</time>
      </trkpt>
      <trkpt lat="44.48501" lon="1.55136">
        <ele>147.39988613582</ele>
        <time>2021-03-03T23:23:26.347Z</time>
      </trkpt>
      <trkpt lat="44.48526" lon="1.55137">
        <ele>149.9227845245</ele>
        <time>2021-03-03T23:23:47.312Z</time>
      </trkpt>
      <trkpt lat="44.48534" lon="1.55134">
        <ele>152.40889464432</ele>
        <time>2021-03-03T23:24:08.279Z</time>
      </trkpt>
      <trkpt lat="44.4854" lon="1.55137">
        <ele>154.83025990035</ele>
        <time>2021-03-03T23:24:29.248Z</time>
      </trkpt>
      <trkpt lat="44.48558" lon="1.55138">
        <ele>157.37633767488</ele>
        <time>2021-03-03T23:24:50.223Z</time>
      </trkpt>
      <trkpt lat="44.48582" lon="1.55149">
        <ele>159.88855205163</ele>
        <time>2021-03-03T23:25:11.205Z</time>
      </trkpt>
      <trkpt lat="44.48586" lon="1.55147">
        <ele>162.29900948206</ele>
        <time>2021-03-03T23:25:32.189Z</time>
      </trkpt>
      <trkpt lat="44.48586" lon="1.55143">
        <ele>164.62617315922</ele>
        <time>2021-03-03T23:25:53.174Z</time>
      </trkpt>
      <trkpt lat="44.48582" lon="1.55141">
        <ele>166.79609272158</ele>
        <time>2021-03-03T23:26:14.160Z</time>
      </trkpt>
      <trkpt lat="44.48581" lon="1.55134">
        <ele>168.99046830445</ele>
        <time>2021-03-03T23:26:35.148Z</time>
      </trkpt>
      <trkpt lat="44.48574" lon="1.55124">
        <ele>171.07778592359</ele>
        <time>2021-03-03T23:26:56.139Z</time>
      </trkpt>
      <trkpt lat="44.48572" lon="1.55119">
        <ele>173.08864959447</ele>
        <time>2021-03-03T23:27:17.131Z</time>
      </trkpt>
      <trkpt lat="44.48562" lon="1.55108">
        <ele>175.00001350159</ele>
        <time>2021-03-03T23:27:38.127Z</time>
      </trkpt>
      <trkpt lat="44.48556" lon="1.55098">
        <ele>176.89543199961</ele>
        <time>2021-03-03T23:27:59.126Z</time>
      </trkpt>
      <trkpt lat="44.48551" lon="1.55093">
        <ele>178.6530254763</ele>
        <time>2021-03-03T23:28:20.127Z</time>
      </trkpt>
      <trkpt lat="44.48547" lon="1.55086">
        <ele>180.39260103892</ele>
        <time>2021-03-03T23:28:41.130Z</time>
      </trkpt>
      <trkpt lat="44.48541" lon="1.5508">
        <ele>182.02644538931</ele>
        <time>2021-03-03T23:29:02.135Z</time>
      </trkpt>
      <trkpt lat="44.48537" lon="1.55074">
        <ele>183.61022794501</ele>
        <time>2021-03-03T23:29:23.142Z</time>
      </trkpt>
      <trkpt lat="44.4853" lon="1.55069">
        <ele>185.09452546063</ele>
        <time>2021-03-03T23:29:44.151Z</time>
      </trkpt>
      <trkpt lat="44.48531" lon="1.55066">
        <ele>186.51743002347</ele>
        <time>2021-03-03T23:30:05.161Z</time>
      </trkpt>
      <trkpt lat="44.48538" lon="1.55066">
        <ele>187.85412379793</ele>
        <time>2021-03-03T23:30:26.173Z</time>
      </trkpt>
      <trkpt lat="44.48554" lon="1.5507">
        <ele>189.08447431258</ele>
        <time>2021-03-03T23:30:47.190Z</time>
      </trkpt>
      <trkpt lat="44.48555" lon="1.55069">
        <ele>190.33491512295</ele>
        <time>2021-03-03T23:31:08.207Z</time>
      </trkpt>
      <trkpt lat="44.48555" lon="1.55065">
        <ele>191.58071668687</ele>
        <time>2021-03-03T23:31:29.225Z</time>
      </trkpt>
      <trkpt lat="44.48536" lon="1.55054">
        <ele>192.85612072575</ele>
        <time>2021-03-03T23:31:50.249Z</time>
      </trkpt>
      <trkpt lat="44.48523" lon="1.5505">
        <ele>194.02230126404</ele>
        <time>2021-03-03T23:32:11.278Z</time>
      </trkpt>
      <trkpt lat="44.48509" lon="1.55042">
        <ele>195.22766846092</ele>
        <time>2021-03-03T23:32:32.311Z</time>
      </trkpt>
      <trkpt lat="44.48488" lon="1.55038">
        <ele>196.29775662734</ele>
        <time>2021-03-03T23:32:53.351Z</time>
      </trkpt>
      <trkpt lat="44.48479" lon="1.55038">
        <ele>197.34354272261</ele>
        <time>2021-03-03T23:33:14.393Z</time>
      </trkpt>
      <trkpt lat="44.48475" lon="1.55036">
        <ele>198.45620293486</ele>
        <time>2021-03-03T23:33:35.437Z</time>
      </trkpt>
      <trkpt lat="44.48468" lon="1.5503">
        <ele>199.64540434283</ele>
        <time>2021-03-03T23:33:56.483Z</time>
      </trkpt>
      <trkpt lat="44.48454" lon="1.55024">
        <ele>200.77999108507</ele>
        <time>2021-03-03T23:34:17.534Z</time>
      </trkpt>
      <trkpt lat="44.48451" lon="1.55012">
        <ele>201.96192075877</ele>
        <time>2021-03-03T23:34:38.588Z</time>
      </trkpt>
      <trkpt lat="44.48456" lon="1.54987">
        <ele>203.1616855041</ele>
        <time>2021-03-03T23:34:59.647Z</time>
      </trkpt>
      <trkpt lat="44.48456" lon="1.54957">
        <ele>204.24166113431</ele>
        <time>2021-03-03T23:35:20.713Z</time>
      </trkpt>
      <trkpt lat="44.4846" lon="1.54932">
        <ele>205.18727305933</ele>
        <time>2021-03-03T23:35:41.785Z</time>
      </trkpt>
      <trkpt lat="44.48471" lon="1.54902">
        <ele>206.10963965988</ele>
        <time>2021-03-03T23:36:02.864Z</time>
      </trkpt>
      <trkpt lat="44.48481" lon="1.54866">
        <ele>206.92043523481</ele>
        <time>2021-03-03T23:36:23.952Z</time>
      </trkpt>
      <trkpt lat="44.48499" lon="1.5482">
        <ele>207.68201794144</ele>
        <time>2021-03-03T23:36:45.051Z</time>
      </trkpt>
      <trkpt lat="44.48517" lon="1.54794">
        <ele>208.41886501871</ele>
        <time>2021-03-03T23:37:06.158Z</time>
      </trkpt>
      <trkpt lat="44.48546" lon="1.54755">
        <ele>209.14424922065</ele>
        <time>2021-03-03T23:37:27.277Z</time>
      </trkpt>
      <trkpt lat="44.48573" lon="1.54712">
        <ele>209.81573753055</ele>
        <time>2021-03-03T23:37:48.409Z</time>
      </trkpt>
      <trkpt lat="44.48578" lon="1.54709">
        <ele>210.47600885379</ele>
        <time>2021-03-03T23:38:09.543Z</time>
      </trkpt>
      <trkpt lat="44.48588" lon="1.54697">
        <ele>211.16852527463</ele>
        <time>2021-03-03T23:38:30.681Z</time>
      </trkpt>
      <trkpt lat="44.48607" lon="1.54661">
        <ele>211.88065972085</ele>
        <time>2021-03-03T23:38:51.829Z</time>
      </trkpt>
      <trkpt lat="44.48604" lon="1.54637">
        <ele>212.70442748216</ele>
        <time>2021-03-03T23:39:12.982Z</time>
      </trkpt>
      <trkpt lat="44.48597" lon="1.54617">
        <ele>213.74843165866</ele>
        <time>2021-03-03T23:39:34.140Z</time>
      </trkpt>
      <trkpt lat="44.48585" lon="1.54601">
        <ele>214.98599515327</ele>
        <time>2021-03-03T23:39:55.303Z</time>
      </trkpt>
      <trkpt lat="44.48577" lon="1.54592">
        <ele>216.45531595848</ele>
        <time>2021-03-03T23:40:16.469Z</time>
      </trkpt>
      <trkpt lat="44.48574" lon="1.54583">
        <ele>218.14823851716</ele>
        <time>2021-03-03T23:40:37.637Z</time>
      </trkpt>
      <trkpt lat="44.48574" lon="1.54572">
        <ele>220.093079884</ele>
        <time>2021-03-03T23:40:58.808Z</time>
      </trkpt>
      <trkpt lat="44.48587" lon="1.54513">
        <ele>222.4615830257</ele>
        <time>2021-03-03T23:41:19.992Z</time>
      </trkpt>
      <trkpt lat="44.48594" lon="1.54494">
        <ele>224.73487444889</ele>
        <time>2021-03-03T23:41:41.181Z</time>
      </trkpt>
      <trkpt lat="44.48602" lon="1.54477">
        <ele>227.199550584</ele>
        <time>2021-03-03T23:42:02.375Z</time>
      </trkpt>
      <trkpt lat="44.48609" lon="1.54452">
        <ele>229.94894699626</ele>
        <time>2021-03-03T23:42:23.575Z</time>
      </trkpt>
      <trkpt lat="44.4861" lon="1.54418">
        <ele>232.97767831474</ele>
        <time>2021-03-03T23:42:44.782Z</time>
      </trkpt>
      <trkpt lat="44.48603" lon="1.54398">
        <ele>236.1074070168</ele>
        <time>2021-03-03T23:43:05.994Z</time>
      </trkpt>
      <trkpt lat="44.48598" lon="1.54369">
        <ele>239.37145470609</ele>
        <time>2021-03-03T23:43:27.212Z</time>
      </trkpt>
      <trkpt lat="44.48592" lon="1.54359">
        <ele>242.56693007425</ele>
        <time>2021-03-03T23:43:48.433Z</time>
      </trkpt>
      <trkpt lat="44.48592" lon="1.54332">
        <ele>245.89756938507</ele>
        <time>2021-03-03T23:44:09.660Z</time>
      </trkpt>
      <trkpt lat="44.48584" lon="1.54302">
        <ele>249.14974157382</ele>
        <time>2021-03-03T23:44:30.894Z</time>
      </trkpt>
      <trkpt lat="44.48582" lon="1.54301">
        <ele>252.29142065672</ele>
        <time>2021-03-03T23:44:52.129Z</time>
      </trkpt>
      <trkpt lat="44.48582" lon="1.54294">
        <ele>255.4484153069</ele>
        <time>2021-03-03T23:45:13.365Z</time>
      </trkpt>
      <trkpt lat="44.48577" lon="1.5427">
        <ele>258.64162108446</ele>
        <time>2021-03-03T23:45:34.607Z</time>
      </trkpt>
      <trkpt lat="44.48561" lon="1.54211">
        <ele>262.07629175831</ele>
        <time>2021-03-03T23:45:55.863Z</time>
      </trkpt>
      <trkpt lat="44.48564" lon="1.54204">
        <ele>264.71753972956</ele>
        <time>2021-03-03T23:46:17.121Z</time>
      </trkpt>
      <trkpt lat="44.4857" lon="1.54199">
        <ele>267.16288051545</ele>
        <time>2021-03-03T23:46:38.381Z</time>
      </trkpt>
      <trkpt lat="44.48575" lon="1.54194">
        <ele>269.43638874681</ele>
        <time>2021-03-03T23:46:59.642Z</time>
      </trkpt>
      <trkpt lat="44.48579" lon="1.54187">
        <ele>271.49935157291</ele>
        <time>2021-03-03T23:47:20.906Z</time>
      </trkpt>
      <trkpt lat="44.48603" lon="1.54158">
        <ele>273.26797426108</ele>
        <time>2021-03-03T23:47:42.179Z</time>
      </trkpt>
      <trkpt lat="44.48642" lon="1.54054">
        <ele>275.0810237437</ele>
        <time>2021-03-03T23:48:03.478Z</time>
      </trkpt>
      <trkpt lat="44.48646" lon="1.54034">
        <ele>276.57839394499</ele>
        <time>2021-03-03T23:48:24.782Z</time>
      </trkpt>
      <trkpt lat="44.4864" lon="1.54027">
        <ele>277.91363492869</ele>
        <time>2021-03-03T23:48:46.088Z</time>
      </trkpt>
      <trkpt lat="44.48592" lon="1.54034">
        <ele>279.03396863657</ele>
        <time>2021-03-03T23:49:07.409Z</time>
      </trkpt>
      <trkpt lat="44.4855" lon="1.54035">
        <ele>279.98556906108</ele>
        <time>2021-03-03T23:49:28.743Z</time>
      </trkpt>
      <trkpt lat="44.48519" lon="1.54032">
        <ele>280.41200523671</ele>
        <time>2021-03-03T23:49:50.087Z</time>
      </trkpt>
      <trkpt lat="44.48491" lon="1.54023">
        <ele>280.41574787098</ele>
        <time>2021-03-03T23:50:11.439Z</time>
      </trkpt>
      <trkpt lat="44.48417" lon="1.54011">
        <ele>280.17308361582</ele>
        <time>2021-03-03T23:50:32.814Z</time>
      </trkpt>
      <trkpt lat="44.48335" lon="1.54014">
        <ele>279.39297519875</ele>
        <time>2021-03-03T23:50:54.215Z</time>
      </trkpt>
      <trkpt lat="44.48221" lon="1.54022">
        <ele>278.26381798493</ele>
        <time>2021-03-03T23:51:15.650Z</time>
      </trkpt>
      <trkpt lat="44.48185" lon="1.54021">
        <ele>277.41955064563</ele>
        <time>2021-03-03T23:51:37.097Z</time>
      </trkpt>
      <trkpt lat="44.48135" lon="1.54012">
        <ele>276.31888656791</ele>
        <time>2021-03-03T23:51:58.559Z</time>
      </trkpt>
      <trkpt lat="44.48112" lon="1.54004">
        <ele>275.2460488707</ele>
        <time>2021-03-03T23:52:20.028Z</time>
      </trkpt>
      <trkpt lat="44.481" lon="1.53998">
        <ele>274.12811716135</ele>
        <time>2021-03-03T23:52:41.501Z</time>
      </trkpt>
      <trkpt lat="44.48081" lon="1.53991">
        <ele>272.92451306831</ele>
        <time>2021-03-03T23:53:02.980Z</time>
      </trkpt>
      <trkpt lat="44.48044" lon="1.53982">
        <ele>271.59625369546</ele>
        <time>2021-03-03T23:53:24.471Z</time>
      </trkpt>
      <trkpt lat="44.4799" lon="1.53972">
        <ele>270.27668199097</ele>
        <time>2021-03-03T23:53:45.979Z</time>
      </trkpt>
      <trkpt lat="44.47962" lon="1.53971">
        <ele>268.93322496621</ele>
        <time>2021-03-03T23:54:07.495Z</time>
      </trkpt>
      <trkpt lat="44.47923" lon="1.53966">
        <ele>267.53461470663</ele>
        <time>2021-03-03T23:54:29.023Z</time>
      </trkpt>
      <trkpt lat="44.47908" lon="1.53967">
        <ele>266.16659246459</ele>
        <time>2021-03-03T23:54:50.556Z</time>
      </trkpt>
      <trkpt lat="44.47878" lon="1.53976">
        <ele>264.75551029185</ele>
        <time>2021-03-03T23:55:12.099Z</time>
      </trkpt>
      <trkpt lat="44.4783" lon="1.54002">
        <ele>263.30697686177</ele>
        <time>2021-03-03T23:55:33.657Z</time>
      </trkpt>
      <trkpt lat="44.47815" lon="1.54009">
        <ele>262.03737026156</ele>
        <time>2021-03-03T23:55:55.220Z</time>
      </trkpt>
      <trkpt lat="44.47793" lon="1.54015">
        <ele>260.73688873884</ele>
        <time>2021-03-03T23:56:16.790Z</time>
      </trkpt>
      <trkpt lat="44.47774" lon="1.54017">
        <ele>259.46538057322</ele>
        <time>2021-03-03T23:56:38.366Z</time>
      </trkpt>
      <trkpt lat="44.47769" lon="1.54017">
        <ele>258.28984191089</ele>
        <time>2021-03-03T23:56:59.944Z</time>
      </trkpt>
      <trkpt lat="44.4774" lon="1.54009">
        <ele>257.07990653061</ele>
        <time>2021-03-03T23:57:21.531Z</time>
      </trkpt>
      <trkpt lat="44.47715" lon="1.54004">
        <ele>255.81054580745</ele>
        <time>2021-03-03T23:57:43.125Z</time>
      </trkpt>
      <trkpt lat="44.47704" lon="1.54007">
        <ele>254.57225304971</ele>
        <time>2021-03-03T23:58:04.723Z</time>
      </trkpt>
      <trkpt lat="44.47692" lon="1.54012">
        <ele>253.37305181081</ele>
        <time>2021-03-03T23:58:26.325Z</time>
      </trkpt>
      <trkpt lat="44.47681" lon="1.5402">
        <ele>252.13401593716</ele>
        <time>2021-03-03T23:58:47.931Z</time>
      </trkpt>
      <trkpt lat="44.47667" lon="1.54036">
        <ele>250.87245403776</ele>
        <time>2021-03-03T23:59:09.542Z</time>
      </trkpt>
      <trkpt lat="44.47658" lon="1.54054">
        <ele>249.64664187779</ele>
        <time>2021-03-03T23:59:31.158Z</time>
      </trkpt>
      <trkpt lat="44.47654" lon="1.54069">
        <ele>248.28811616178</ele>
        <time>2021-03-03T23:59:52.777Z</time>
      </trkpt>
      <trkpt lat="44.47652" lon="1.54084">
        <ele>246.65855875603</ele>
        <time>2021-03-04T00:00:14.400Z</time>
      </trkpt>
      <trkpt lat="44.47652" lon="1.54107">
        <ele>244.6215374303</ele>
        <time>2021-03-04T00:00:36.028Z</time>
      </trkpt>
      <trkpt lat="44.47657" lon="1.54143">
        <ele>242.09619403303</ele>
        <time>2021-03-04T00:00:57.664Z</time>
      </trkpt>
      <trkpt lat="44.47663" lon="1.54166">
        <ele>239.25838894696</ele>
        <time>2021-03-04T00:01:19.305Z</time>
      </trkpt>
      <trkpt lat="44.47674" lon="1.54194">
        <ele>236.0461033171</ele>
        <time>2021-03-04T00:01:40.953Z</time>
      </trkpt>
      <trkpt lat="44.47728" lon="1.54312">
        <ele>232.28199077244</ele>
        <time>2021-03-04T00:02:02.632Z</time>
      </trkpt>
      <trkpt lat="44.47782" lon="1.54379">
        <ele>229.39677800683</ele>
        <time>2021-03-04T00:02:24.333Z</time>
      </trkpt>
      <trkpt lat="44.47811" lon="1.54419">
        <ele>226.98922091939</ele>
        <time>2021-03-04T00:02:46.047Z</time>
      </trkpt>
      <trkpt lat="44.47837" lon="1.54449">
        <ele>225.06628344563</ele>
        <time>2021-03-04T00:03:07.771Z</time>
      </trkpt>
      <trkpt lat="44.4784" lon="1.5445">
        <ele>223.45336964229</ele>
        <time>2021-03-04T00:03:29.496Z</time>
      </trkpt>
    </trkseg>
  </trk>
</gpx>